# Wetter Temperatur Luftdruck Luftfeuchtigkeit Sichtweite Windgeschwindigkeit Windrichtung Zeit
1 Clear -22 1026 87 0 0.5 318 19:42 02.04.2020
2 Clear -22 1026 87 0 0.5 318 19:20 02.04.2020
3 Clear -22 1026 87 0 0.5 318 18:56 02.04.2020
4 Clear -22 1026 87 0 0.5 318 18:38 02.04.2020
5 Clear -21 1024 88 0 0.9 352 18:19 02.04.2020
6 Clear -21 1024 88 0 0.9 352 17:44 02.04.2020
7 Clear -21 1024 88 0 0.9 352 17:26 02.04.2020
8 Clear -21 1024 88 0 0.9 352 16:59 02.04.2020
9 Clear -21 1024 88 0 0.9 352 16:41 02.04.2020
10 Clear -21 1024 88 0 0.9 352 16:22 02.04.2020
11 Clear -21 1024 88 0 0.9 352 15:59 02.04.2020
12 Clear -21 1024 88 0 0.9 352 15:40 02.04.2020
13 Clouds -18 1022 88 0 1.61 1 15:20 02.04.2020
14 Clouds -18 1022 88 0 1.61 1 14:58 02.04.2020
15 Clouds -18 1022 88 0 1.61 1 14:39 02.04.2020
16 Clouds -18 1021 88 0 1.76 0 14:19 02.04.2020
17 Clouds -18 1021 88 0 1.76 0 13:55 02.04.2020
18 Clouds -18 1021 88 0 1.76 0 13:37 02.04.2020
19 Clouds -18 1021 88 0 1.76 0 13:19 02.04.2020
20 Clouds -18 1021 88 0 1.76 0 12:47 02.04.2020
21 Clouds -18 1021 88 0 1.76 0 12:21 02.04.2020
22 Clouds -13 1018 89 0 2.29 7 11:58 02.04.2020
23 Clouds -13 1018 89 0 2.29 7 11:40 02.04.2020
24 Clouds -13 1018 89 0 2.29 7 11:39 02.04.2020
25 Clouds -13 1018 89 0 2.29 7 11:21 02.04.2020
26 Clouds -13 1018 89 0 2.29 7 10:57 02.04.2020
27 Clouds -13 1018 89 0 2.29 7 10:39 02.04.2020
28 Clouds -13 1018 89 0 2.29 7 10:21 02.04.2020
29 Clouds -13 1018 89 0 2.29 7 09:59 02.04.2020
30 Clouds -13 1018 89 0 2.29 7 09:41 02.04.2020
31 Clouds -13 1018 89 0 2.29 7 09:23 02.04.2020
32 Clouds -10 1014 88 0 3.17 17 08:57 02.04.2020
33 Clouds -10 1014 88 0 3.17 17 08:38 02.04.2020
34 Clouds -10 1014 88 0 3.17 17 08:19 02.04.2020
35 Clouds -10 1014 88 0 3.17 17 07:42 02.04.2020
36 Clouds -10 1014 88 0 3.17 17 07:19 02.04.2020
37 Clouds -10 1014 88 0 3.17 17 06:26 02.04.2020
38 Clouds -11 1013 88 0 2.58 7 05:59 02.04.2020
39 Clouds -11 1013 88 0 2.58 7 05:41 02.04.2020
40 Clouds -13 1011 88 0 1.62 322 02:46 02.04.2020
41 Clouds -13 1011 88 0 1.53 326 01:28 02.04.2020
42 Clouds -13 1011 88 0 1.53 326 00:42 02.04.2020
43 Clouds -13 1011 88 0 1.53 326 00:24 02.04.2020
44 Clouds -18 1009 87 0 1.12 307 23:41 01.04.2020
45 Clouds -18 1009 87 0 1.12 307 23:20 01.04.2020
46 Clouds -18 1009 87 0 1.12 307 22:58 01.04.2020
47 Clouds -18 1009 87 0 1.12 307 22:58 01.04.2020
48 Clouds -18 1009 87 0 1.12 307 22:39 01.04.2020
49 Clouds -18 1009 87 0 1.12 307 22:21 01.04.2020
50 Clouds -18 1009 87 0 1.12 307 22:21 01.04.2020
51 Clouds -18 1009 87 0 1.12 307 21:42 01.04.2020
52 Clouds -18 1009 87 0 1.12 307 21:42 01.04.2020
53 Clouds -18 1009 87 0 1.12 307 21:22 01.04.2020
54 Clouds -18 1009 88 0 1.19 300 21:22 01.04.2020
55 Clouds -18 1009 88 0 1.19 300 21:22 01.04.2020
56 Clouds -16 1006 89 0 1.16 290 20:58 01.04.2020
57 Clouds -16 1006 89 0 1.16 290 20:40 01.04.2020
58 Clouds -16 1006 89 0 1.16 290 20:21 01.04.2020
59 Clouds -16 1006 89 0 1.16 290 20:00 01.04.2020
60 Clouds -16 1006 89 0 1.16 290 19:41 01.04.2020
61 Clouds -16 1006 89 0 1.16 290 19:21 01.04.2020
62 Clouds -16 1006 89 0 1.16 290 18:46 01.04.2020
63 Clouds -16 1006 89 0 1.16 290 18:26 01.04.2020
64 Clouds -17 1004 89 0 1.08 294 17:58 01.04.2020
65 Clouds -17 1004 89 0 1.08 294 17:38 01.04.2020
66 Clouds -17 1004 89 0 1.08 294 17:20 01.04.2020
67 Clouds -17 1004 89 0 1.08 294 16:59 01.04.2020
68 Clouds -17 1004 89 0 1.08 294 16:40 01.04.2020
69 Clouds -17 1004 89 0 1.08 294 16:22 01.04.2020
70 Clouds -17 1004 89 0 1.08 294 15:58 01.04.2020
71 Clouds -17 1004 89 0 1.08 294 15:38 01.04.2020
72 Clouds -17 1004 89 0 1.08 294 15:38 01.04.2020
73 Clouds -17 1004 89 0 1.08 294 15:20 01.04.2020
74 Clouds -17 1002 90 0 0.92 279 14:57 01.04.2020
75 Clouds -17 1002 90 0 0.92 279 14:38 01.04.2020
76 Clouds -16 1002 90 0 0.97 282 14:19 01.04.2020
77 Clouds -16 1002 90 0 0.97 282 13:57 01.04.2020
78 Clouds -16 1002 90 0 0.97 282 13:37 01.04.2020
79 Clouds -16 1002 90 0 0.97 282 13:18 01.04.2020
80 Clouds -16 1002 90 0 0.97 282 12:54 01.04.2020
81 Clouds -16 1002 90 0 0.97 282 12:36 01.04.2020
82 Clouds -12 1000 91 0 0.92 309 12:18 01.04.2020
83 Clouds -12 1000 91 0 0.92 309 11:40 01.04.2020
84 Clouds -12 1000 91 0 0.92 309 11:21 01.04.2020
85 Clouds -12 1000 91 0 0.92 309 10:57 01.04.2020
86 Clouds -12 1000 91 0 0.92 309 10:37 01.04.2020
87 Clouds -12 1000 91 0 0.92 309 10:18 01.04.2020
88 Clouds -12 1000 91 0 0.92 309 09:54 01.04.2020
89 Clouds -12 1000 91 0 0.92 309 09:36 01.04.2020
90 Clouds -11 998 88 0 0.69 333 09:18 01.04.2020
91 Clouds -11 998 88 0 0.69 333 08:40 01.04.2020
92 Clouds -11 998 88 0 0.69 333 08:18 01.04.2020
93 Clouds -11 998 88 0 0.69 333 07:42 01.04.2020
94 Clouds -11 998 88 0 0.69 333 07:20 01.04.2020
95 Clouds -11 998 88 0 0.69 333 06:47 01.04.2020
96 Clouds -11 998 88 0 0.69 333 06:23 01.04.2020
97 Clouds -13 997 87 0 0.51 338 05:55 01.04.2020
98 Clouds -13 997 87 0 0.51 338 04:30 01.04.2020
99 Clouds -13 997 87 0 0.51 338 03:28 01.04.2020
100 Clouds -15 998 89 0 0.74 282 02:49 01.04.2020
101 Clouds -15 997 89 0 0.8 279 01:56 01.04.2020
102 Clouds -15 997 89 0 0.8 279 01:37 01.04.2020
103 Clouds -15 997 89 0 0.8 279 01:18 01.04.2020
104 Clouds -15 997 89 0 0.8 279 00:43 01.04.2020
105 Clouds -20 998 89 0 0.16 112 00:18 01.04.2020
106 Clouds -20 998 89 0 0.16 112 23:42 31.03.2020
107 Clouds -20 998 89 0 0.16 112 23:23 31.03.2020
108 Clouds -20 998 89 0 0.16 112 22:58 31.03.2020
109 Clouds -20 998 89 0 0.16 112 22:37 31.03.2020
110 Clouds -20 998 89 0 0.16 112 22:19 31.03.2020
111 Clouds -20 998 89 0 0.16 112 21:56 31.03.2020
112 Clouds -20 998 89 0 0.16 112 21:37 31.03.2020
113 Clouds -18 997 90 0 0.36 265 21:19 31.03.2020
114 Clouds -18 997 90 0 0.36 265 20:55 31.03.2020
115 Clouds -18 997 90 0 0.36 265 20:36 31.03.2020
116 Clouds -18 997 90 0 0.36 265 20:18 31.03.2020
117 Clouds -18 997 90 0 0.36 265 19:41 31.03.2020
118 Clouds -18 997 90 0 0.36 265 19:22 31.03.2020
119 Clouds -18 997 90 0 0.36 265 18:56 31.03.2020
120 Clouds -18 997 90 0 0.36 265 18:37 31.03.2020
121 Clouds -17 997 91 0 0.2 3 18:18 31.03.2020
122 Clouds -17 997 91 0 0.2 3 17:54 31.03.2020
123 Clouds -17 997 91 0 0.2 3 17:36 31.03.2020
124 Clouds -17 997 91 0 0.2 3 17:18 31.03.2020
125 Clouds -17 997 91 0 0.2 3 16:39 31.03.2020
126 Clouds -17 997 91 0 0.2 3 16:19 31.03.2020
127 Clouds -17 997 91 0 0.2 3 15:57 31.03.2020
128 Clouds -17 997 91 0 0.2 3 15:39 31.03.2020
129 Clouds -17 997 91 0 0.2 3 15:20 31.03.2020
130 Clouds -17 997 91 0 0.2 3 15:20 31.03.2020
131 Clouds -15 996 91 0 1.04 18 14:57 31.03.2020
132 Clouds -15 996 91 0 1.04 18 14:38 31.03.2020
133 Clouds -15 996 91 0 1.32 17 14:20 31.03.2020
134 Clouds -15 996 91 0 1.32 17 13:43 31.03.2020
135 Clouds -15 996 91 0 1.32 17 13:20 31.03.2020
136 Clouds -15 996 91 0 1.32 17 13:20 31.03.2020
137 Clouds -15 996 91 0 1.32 17 13:20 31.03.2020
138 Clouds -15 996 91 0 1.32 17 12:56 31.03.2020
139 Clouds -15 996 91 0 1.32 17 12:38 31.03.2020
140 Clouds -12 995 92 0 1.54 17 12:19 31.03.2020
141 Clouds -12 995 92 0 1.54 17 11:39 31.03.2020
142 Clouds -12 995 92 0 1.54 17 11:20 31.03.2020
143 Clouds -12 995 92 0 1.54 17 10:58 31.03.2020
144 Clouds -12 995 92 0 1.54 17 10:40 31.03.2020
145 Clouds -12 995 92 0 1.54 17 10:21 31.03.2020
146 Clouds -12 995 92 0 1.54 17 09:57 31.03.2020
147 Clouds -12 995 92 0 1.54 17 09:39 31.03.2020
148 Clouds -13 995 91 0 1.3 24 09:21 31.03.2020
149 Clouds -10 994 84 0 0.56 148 08:57 31.03.2020
150 Clouds -10 994 84 0 0.56 148 08:38 31.03.2020
151 Clouds -10 994 84 0 0.56 148 08:19 31.03.2020
152 Clouds -10 994 84 0 0.56 148 07:56 31.03.2020
153 Clouds -10 994 84 0 0.56 148 07:37 31.03.2020
154 Clouds -10 994 84 0 0.56 148 07:18 31.03.2020
155 Clouds -10 994 84 0 0.56 148 06:43 31.03.2020
156 Clouds -13 995 82 0 1.02 142 06:18 31.03.2020
157 Clouds -13 995 82 0 1.02 142 05:39 31.03.2020
158 Clouds -13 995 82 0 1.02 142 03:34 31.03.2020
159 Clouds -15 996 85 0 1.21 182 01:54 31.03.2020
160 Clouds -15 996 85 0 1.21 182 01:34 31.03.2020
161 Clouds -15 996 85 0 1.21 182 00:47 31.03.2020
162 Clouds -15 996 85 0 1.21 182 00:25 31.03.2020
163 Clouds -18 998 87 0 1.07 183 23:42 30.03.2020
164 Clouds -18 998 87 0 1.07 183 23:20 30.03.2020
165 -273 0 0 0 0 0 22:59 30.03.2020
166 Clouds -18 998 87 0 1.07 183 22:41 30.03.2020
167 Clouds -18 998 87 0 1.07 183 22:22 30.03.2020
168 Clouds -18 998 87 0 1.07 183 21:58 30.03.2020
169 Clouds -18 998 87 0 1.07 183 21:39 30.03.2020
170 Clouds -19 997 87 0 0.7 171 21:21 30.03.2020
171 Clouds -18 998 88 0 0.74 206 20:59 30.03.2020
172 Clouds -18 998 88 0 0.74 206 20:39 30.03.2020
173 Clouds -18 998 88 0 0.74 206 20:21 30.03.2020
174 Clouds -18 998 88 0 0.74 206 19:58 30.03.2020
175 Clouds -18 998 88 0 0.74 206 19:39 30.03.2020
176 Clouds -18 998 88 0 0.74 206 19:21 30.03.2020
177 Clouds -18 998 88 0 0.74 206 18:56 30.03.2020
178 Clouds -18 998 88 0 0.74 206 18:36 30.03.2020
179 Clouds -19 998 88 0 0.94 184 18:18 30.03.2020
180 Clouds -19 998 88 0 0.94 184 17:55 30.03.2020
181 Clouds -19 998 88 0 0.94 184 17:36 30.03.2020
182 Clouds -19 998 88 0 0.94 184 17:18 30.03.2020
183 Clouds -19 998 88 0 0.94 184 16:41 30.03.2020
184 Clouds -19 998 88 0 0.94 184 16:21 30.03.2020
185 Clouds -19 998 88 0 0.94 184 16:21 30.03.2020
186 Clouds -19 998 88 0 0.94 184 15:57 30.03.2020
187 Clouds -19 998 88 0 0.94 184 15:39 30.03.2020
188 Clouds -19 998 88 0 0.94 184 15:21 30.03.2020
189 Clouds -16 999 89 0 1.13 146 14:58 30.03.2020
190 Clouds -16 999 89 0 1.13 146 14:38 30.03.2020
191 Clouds -16 999 89 0 1.11 145 14:19 30.03.2020
192 Clouds -16 999 89 0 1.13 146 14:19 30.03.2020
193 Clouds -16 999 89 0 1.11 145 13:58 30.03.2020
194 Clouds -16 999 89 0 1.11 145 13:39 30.03.2020
195 Clouds -16 999 89 0 1.11 145 13:20 30.03.2020
196 Clouds -16 999 89 0 1.11 145 12:45 30.03.2020
197 Clouds -16 999 89 0 1.11 145 12:45 30.03.2020
198 Clouds -16 999 89 0 1.11 145 12:22 30.03.2020
199 Clouds -12 998 90 0 0.9 207 11:59 30.03.2020
200 Clouds -12 998 90 0 0.9 207 11:41 30.03.2020
201 Clouds -12 998 90 0 0.9 207 11:22 30.03.2020
202 Clouds -12 998 90 0 0.9 207 10:57 30.03.2020
203 Clouds -12 998 90 0 0.9 207 10:37 30.03.2020
204 Clouds -12 998 90 0 0.9 207 10:19 30.03.2020
205 Clouds -12 998 90 0 0.9 207 09:41 30.03.2020
206 Clouds -11 996 87 0 1.86 217 09:20 30.03.2020
207 Clouds -11 996 87 0 1.86 217 08:58 30.03.2020
208 Clouds -11 996 87 0 1.86 217 08:38 30.03.2020
209 Clouds -11 996 87 0 1.86 217 08:20 30.03.2020
210 Clouds -11 996 87 0 1.86 217 07:44 30.03.2020
211 Clouds -11 996 87 0 1.86 217 07:23 30.03.2020
212 Clouds -11 996 87 0 1.86 217 06:47 30.03.2020
213 Clouds -11 996 87 0 1.86 217 06:27 30.03.2020
214 Clouds -13 996 88 0 1.93 221 05:44 30.03.2020
215 Clouds -13 996 88 0 1.93 221 04:37 30.03.2020
216 Clouds -13 996 88 0 1.93 221 04:18 30.03.2020
217 Clouds -16 996 89 0 1.6 233 02:52 30.03.2020
218 Clouds -15 996 89 0 1.59 236 01:58 30.03.2020
219 Clouds -15 996 89 0 1.59 236 01:18 30.03.2020
220 Clouds -15 996 89 0 1.59 236 00:29 30.03.2020
221 Clouds -18 996 89 0 1.21 255 23:59 29.03.2020
222 Clouds -18 996 89 0 1.21 255 23:40 29.03.2020
223 Clouds -18 996 89 0 1.21 255 23:21 29.03.2020
224 Clouds -18 996 89 0 1.21 255 22:55 29.03.2020
225 Clouds -18 996 89 0 1.21 255 22:37 29.03.2020
226 Clouds -18 996 89 0 1.21 255 22:18 29.03.2020
227 Clouds -18 996 89 0 1.21 255 21:40 29.03.2020
228 Clouds -20 996 88 0 1.22 257 21:21 29.03.2020
229 Clouds -18 995 89 0 1.29 271 20:56 29.03.2020
230 Clouds -18 995 89 0 1.29 271 20:38 29.03.2020
231 Clouds -18 995 89 0 1.29 271 20:19 29.03.2020
232 Clouds -18 995 89 0 1.29 271 20:19 29.03.2020
233 Clouds -18 995 89 0 1.29 271 19:59 29.03.2020
234 Clouds -18 995 89 0 1.29 271 19:41 29.03.2020
235 Clouds -18 995 89 0 1.29 271 19:23 29.03.2020
236 Clouds -18 995 89 0 1.29 271 18:57 29.03.2020
237 Clouds -18 995 89 0 1.29 271 18:39 29.03.2020
238 Clouds -18 994 89 0 1.08 276 18:20 29.03.2020
239 Clouds -18 994 89 0 1.08 276 17:56 29.03.2020
240 Clouds -18 994 89 0 1.08 276 17:38 29.03.2020
241 Clouds -18 994 89 0 1.08 276 17:20 29.03.2020
242 Clouds -18 994 89 0 1.08 276 16:57 29.03.2020
243 Clouds -18 994 89 0 1.08 276 16:39 29.03.2020
244 Clouds -18 994 89 0 1.08 276 16:20 29.03.2020
245 Clouds -18 994 89 0 1.08 276 15:43 29.03.2020
246 Clouds -18 994 89 0 1.08 276 15:25 29.03.2020
247 Clouds -17 994 89 0 1.31 274 14:59 29.03.2020
248 Clouds -17 994 89 0 1.31 274 14:40 29.03.2020
249 Clouds -17 994 89 0 1.31 274 14:21 29.03.2020
250 Clouds -17 993 89 0 1.34 282 13:59 29.03.2020
251 Clouds -17 993 89 0 1.34 282 13:41 29.03.2020
252 Clouds -17 993 89 0 1.34 282 13:21 29.03.2020
253 Clouds -17 993 89 0 1.34 282 12:58 29.03.2020
254 Clouds -17 993 89 0 1.34 282 12:39 29.03.2020
255 Clouds -12 992 91 0 2.08 299 12:19 29.03.2020
256 Clouds -12 992 91 0 2.08 299 11:57 29.03.2020
257 Clouds -12 992 91 0 2.08 299 11:57 29.03.2020
258 Clouds -12 992 91 0 2.08 299 11:37 29.03.2020
259 Clouds -12 992 91 0 2.08 299 11:19 29.03.2020
260 Clouds -12 992 91 0 2.08 299 10:39 29.03.2020
261 Clouds -12 992 91 0 2.08 299 10:20 29.03.2020
262 Clouds -12 992 91 0 2.08 299 09:55 29.03.2020
263 Clouds -12 992 91 0 2.08 299 09:55 29.03.2020
264 Clouds -12 992 91 0 2.08 299 09:37 29.03.2020
265 Clouds -10 991 90 0 3.19 295 09:18 29.03.2020
266 Clouds -10 991 90 0 3.19 295 08:43 29.03.2020
267 Clouds -10 991 90 0 3.19 295 08:24 29.03.2020
268 Clouds -10 991 90 0 3.19 295 07:47 29.03.2020
269 Clouds -10 991 90 0 3.19 295 07:23 29.03.2020
270 Clouds -10 991 90 0 3.19 295 06:34 29.03.2020
271 Clouds -12 992 88 0 1.43 297 04:56 29.03.2020
272 Clouds -12 992 88 0 1.43 297 03:41 29.03.2020
273 Clouds -14 993 90 0 1.26 282 03:20 29.03.2020
274 Clouds -14 993 90 0 1.26 282 01:43 29.03.2020
275 Clouds -14 993 90 0 1.26 282 01:22 29.03.2020
276 Clouds -14 994 90 0 1.27 282 00:45 29.03.2020
277 Clouds -14 994 90 0 1.27 282 00:27 29.03.2020
278 Clouds -14 994 90 0 1.27 282 23:41 28.03.2020
279 Clouds -14 994 90 0 1.27 282 23:22 28.03.2020
280 Clouds -17 994 90 0 0.23 194 22:54 28.03.2020
281 Clouds -17 994 90 0 0.23 194 22:36 28.03.2020
282 Clouds -17 994 90 0 0.23 194 22:18 28.03.2020
283 Clouds -17 994 90 0 0.23 194 21:40 28.03.2020
284 Clouds -17 994 90 0 0.23 194 21:21 28.03.2020
285 Clouds -17 994 90 0 0.23 194 20:58 28.03.2020
286 Clouds -17 994 90 0 0.23 194 20:38 28.03.2020
287 Clouds -18 994 90 0 0.23 132 20:20 28.03.2020
288 Clouds -18 994 90 0 0.23 132 19:56 28.03.2020
289 Clouds -18 994 90 0 0.23 132 19:36 28.03.2020
290 Clouds -18 994 90 0 0.23 132 19:36 28.03.2020
291 Clouds -18 994 90 0 0.23 132 19:18 28.03.2020
292 Clouds -18 994 90 0 0.23 132 18:42 28.03.2020
293 Clouds -18 994 90 0 0.23 132 18:22 28.03.2020
294 Clouds -18 994 90 0 0.23 132 17:56 28.03.2020
295 Clouds -18 994 90 0 0.23 132 17:36 28.03.2020
296 Clouds -17 994 90 0 0.93 176 17:18 28.03.2020
297 Clouds -17 994 90 0 0.93 176 16:42 28.03.2020
298 Clouds -17 994 90 0 0.93 176 16:20 28.03.2020
299 Clouds -17 994 90 0 0.93 176 15:55 28.03.2020
300 Clouds -17 994 90 0 0.93 176 15:37 28.03.2020
301 Clouds -17 994 90 0 0.93 176 15:18 28.03.2020
302 Clouds -17 994 90 0 0.93 176 14:42 28.03.2020
303 Clouds -17 994 90 0 0.93 176 14:22 28.03.2020
304 Clouds -15 994 91 0 0.97 186 13:55 28.03.2020
305 Clouds -15 994 91 0 0.97 186 13:36 28.03.2020
306 Clouds -15 994 91 0 0.97 186 13:18 28.03.2020
307 Clouds -17 994 91 0 0.96 177 12:37 28.03.2020
308 Clouds -17 994 91 0 0.96 177 12:19 28.03.2020
309 Clouds -17 994 91 0 0.96 177 11:42 28.03.2020
310 Clouds -17 994 91 0 0.96 177 11:21 28.03.2020
311 Clouds -13 993 91 0 0.45 115 10:43 28.03.2020
312 Clouds -13 993 91 0 0.45 115 10:24 28.03.2020
313 Clouds -13 993 91 0 0.45 115 09:59 28.03.2020
314 Clouds -13 993 91 0 0.45 115 09:40 28.03.2020
315 Clouds -13 993 91 0 0.45 115 09:21 28.03.2020
316 Clouds -13 993 91 0 0.45 115 08:43 28.03.2020
317 Clouds -13 993 91 0 0.45 115 08:24 28.03.2020
318 Clouds -12 994 88 0 0.85 240 07:53 28.03.2020
319 Clouds -12 994 88 0 0.85 240 07:35 28.03.2020
320 Clouds -12 994 88 0 0.85 240 06:52 28.03.2020
321 Clouds -12 994 88 0 0.85 240 06:26 28.03.2020
322 Clouds -12 994 88 0 0.85 240 05:30 28.03.2020
323 Clouds -12 994 88 0 0.85 240 05:30 28.03.2020
324 Clouds -14 995 87 0 0.37 290 04:58 28.03.2020
325 Clouds -14 995 87 0 0.37 290 04:39 28.03.2020
326 Clouds -14 995 87 0 0.37 290 02:51 28.03.2020
327 Clouds -16 998 88 0 1.15 43 01:48 28.03.2020
328 Clouds -16 998 88 0 1.15 43 01:23 28.03.2020
329 Clouds -16 997 88 0 1.12 44 00:51 28.03.2020
330 Clouds -16 997 88 0 1.12 44 00:25 28.03.2020
331 Clouds -16 997 88 0 1.12 44 23:44 27.03.2020
332 Clouds -16 997 88 0 1.12 44 23:26 27.03.2020
333 Clouds -19 999 89 0 0.68 30 22:57 27.03.2020
334 Clouds -19 999 89 0 0.68 30 22:39 27.03.2020
335 Clouds -19 999 89 0 0.68 30 22:20 27.03.2020
336 Clouds -19 999 89 0 0.68 30 21:58 27.03.2020
337 Clouds -19 999 89 0 0.68 30 21:40 27.03.2020
338 Clouds -19 999 89 0 0.68 30 21:22 27.03.2020
339 Clouds -19 999 89 0 0.68 30 21:22 27.03.2020
340 Clouds -19 999 89 0 0.68 30 20:57 27.03.2020
341 Clouds -19 999 89 0 0.68 30 20:38 27.03.2020
342 Clouds -20 1002 89 0 0.47 40 20:19 27.03.2020
343 Clouds -20 1002 89 0 0.47 40 19:54 27.03.2020
344 Clouds -20 1002 89 0 0.47 40 19:54 27.03.2020
345 Clouds -20 1002 89 0 0.47 40 19:36 27.03.2020
346 Clouds -20 1002 89 0 0.47 40 19:18 27.03.2020
347 Clouds -20 1002 89 0 0.47 40 18:42 27.03.2020
348 Clouds -20 1002 89 0 0.47 40 18:22 27.03.2020
349 Clouds -20 1002 89 0 0.47 40 17:54 27.03.2020
350 Clouds -20 1002 89 0 0.47 40 17:54 27.03.2020
351 Clouds -20 1002 89 0 0.47 40 17:36 27.03.2020
352 Clouds -20 1004 89 0 0.38 71 17:18 27.03.2020
353 Clouds -20 1004 89 0 0.38 71 16:42 27.03.2020
354 Clouds -20 1004 89 0 0.38 71 16:23 27.03.2020
355 Clouds -20 1004 89 0 0.38 71 15:44 27.03.2020
356 Clouds -20 1004 89 0 0.38 71 15:26 27.03.2020
357 Clouds -20 1004 89 0 0.38 71 14:56 27.03.2020
358 Clouds -20 1004 89 0 0.38 71 14:36 27.03.2020
359 Clouds -18 1006 89 0 0.65 104 14:18 27.03.2020
360 Clouds -18 1006 89 0 0.65 104 13:42 27.03.2020
361 Clouds -18 1006 89 0 0.65 104 13:22 27.03.2020
362 Clouds -17 1006 89 0 0.78 102 12:59 27.03.2020
363 Clouds -17 1006 89 0 0.78 102 12:39 27.03.2020
364 Clouds -17 1006 89 0 0.78 102 12:19 27.03.2020
365 Clouds -17 1006 89 0 0.78 102 11:42 27.03.2020
366 Clouds -17 1006 89 0 0.78 102 11:24 27.03.2020
367 Clouds -16 1007 89 0 0.57 129 10:56 27.03.2020
368 Clouds -16 1007 89 0 0.57 129 10:38 27.03.2020
369 Clouds -16 1007 89 0 0.57 129 10:20 27.03.2020
370 Clouds -16 1007 89 0 0.57 129 09:58 27.03.2020
371 Clouds -16 1007 89 0 0.57 129 09:38 27.03.2020
372 Clouds -16 1007 89 0 0.57 129 09:20 27.03.2020
373 Clouds -16 1007 89 0 0.57 129 08:57 27.03.2020
374 Clouds -16 1007 89 0 0.57 129 08:39 27.03.2020
375 Clouds -16 1007 89 0 0.57 129 08:20 27.03.2020
376 Clouds -14 1008 85 0 0.92 205 07:52 27.03.2020
377 Clouds -14 1008 85 0 0.92 205 07:26 27.03.2020
378 Clouds -14 1008 85 0 0.92 205 06:55 27.03.2020
379 Clouds -14 1008 85 0 0.92 205 06:37 27.03.2020
380 Clouds -14 1008 85 0 0.92 205 05:37 27.03.2020
381 Clouds -16 1011 84 0 1.14 187 02:50 27.03.2020
382 Snow -18 1013 87 0 0.79 26 01:50 27.03.2020
383 Snow -18 1013 87 0 0.79 21 00:55 27.03.2020
384 Snow -18 1013 87 0 0.79 21 00:32 27.03.2020
385 Snow -18 1013 87 0 0.79 21 23:44 26.03.2020
386 Snow -18 1013 87 0 0.79 21 23:24 26.03.2020
387 Snow -19 1015 89 0 0.95 336 22:59 26.03.2020
388 Snow -19 1015 89 0 0.95 336 22:59 26.03.2020
389 Snow -19 1015 89 0 0.95 336 22:39 26.03.2020
390 Snow -19 1015 89 0 0.95 336 22:20 26.03.2020
391 Snow -19 1015 89 0 0.95 336 21:59 26.03.2020
392 Snow -19 1015 89 0 0.95 336 21:39 26.03.2020
393 Snow -19 1015 89 0 0.95 336 21:21 26.03.2020
394 Snow -19 1015 89 0 0.95 336 20:58 26.03.2020
395 Snow -19 1015 89 0 0.95 336 20:38 26.03.2020
396 Snow -18 1016 89 0 2.31 9 20:20 26.03.2020
397 Snow -18 1016 89 0 2.31 9 19:56 26.03.2020
398 Snow -18 1016 89 0 2.31 9 19:38 26.03.2020
399 Snow -18 1016 89 0 2.31 9 19:20 26.03.2020
400 Snow -18 1016 89 0 2.31 9 18:57 26.03.2020
401 Snow -18 1016 89 0 2.31 9 18:39 26.03.2020
402 Snow -18 1016 89 0 2.31 9 18:21 26.03.2020
403 Snow -18 1016 89 0 2.31 9 17:43 26.03.2020
404 Clouds -19 1019 87 0 1.99 14 17:19 26.03.2020
405 Clouds -19 1019 87 0 1.99 14 16:47 26.03.2020
406 Clouds -19 1019 87 0 1.99 14 16:28 26.03.2020
407 Clouds -19 1019 87 0 1.99 14 15:59 26.03.2020
408 Clouds -19 1019 87 0 1.99 14 15:41 26.03.2020
409 Clouds -19 1019 87 0 1.99 14 15:22 26.03.2020
410 Clouds -19 1019 87 0 1.99 14 14:58 26.03.2020
411 Clouds -19 1019 87 0 1.99 14 14:39 26.03.2020
412 Clouds -20 1023 87 0 2.58 6 14:19 26.03.2020
413 Clouds -20 1023 87 0 2.58 6 13:44 26.03.2020
414 Clouds -20 1023 87 0 2.58 6 13:24 26.03.2020
415 Clouds -19 1022 87 0 3.03 7 12:58 26.03.2020
416 Clouds -19 1022 87 0 3.03 7 12:38 26.03.2020
417 Clouds -19 1022 87 0 3.03 7 12:20 26.03.2020
418 Clouds -19 1022 87 0 3.03 7 11:45 26.03.2020
419 Clouds -19 1022 87 0 3.03 7 11:22 26.03.2020
420 Clouds -19 1024 87 0 1.54 26 10:56 26.03.2020
421 Clouds -19 1024 87 0 1.54 26 10:37 26.03.2020
422 Clouds -19 1024 87 0 1.54 26 10:19 26.03.2020
423 Clouds -19 1024 87 0 1.54 26 09:44 26.03.2020
424 Clouds -19 1024 87 0 1.54 26 09:20 26.03.2020
425 Clouds -19 1024 87 0 1.54 26 08:55 26.03.2020
426 Clouds -19 1024 87 0 1.54 26 08:37 26.03.2020
427 Clouds -16 1026 85 0 1.63 50 08:18 26.03.2020
428 Clouds -16 1026 84 0 1.33 65 07:44 26.03.2020
429 Clouds -16 1026 84 0 1.33 65 07:21 26.03.2020
430 Clouds -16 1026 84 0 1.33 65 06:56 26.03.2020
431 Clouds -16 1026 84 0 1.33 65 05:59 26.03.2020
432 Clouds -19 1027 83 0 0.78 53 04:33 26.03.2020
433 Clouds -19 1027 83 0 0.78 53 03:44 26.03.2020
434 Clouds -19 1027 83 0 0.78 53 02:55 26.03.2020
435 Clear -22 1029 84 0 0.22 316 01:50 26.03.2020
436 Clear -22 1029 84 0 0.36 341 00:53 26.03.2020
437 Clear -22 1029 84 0 0.36 341 00:20 26.03.2020
438 Clear -22 1029 84 0 0.36 341 23:40 25.03.2020
439 Clear -28 1028 84 0 0.34 49 23:20 25.03.2020
440 Clear -28 1028 84 0 0.34 49 22:40 25.03.2020
441 Clear -28 1028 84 0 0.34 49 22:21 25.03.2020
442 Clear -28 1028 84 0 0.34 49 21:56 25.03.2020
443 Clear -28 1028 84 0 0.34 49 21:38 25.03.2020
444 Clear -28 1028 84 0 0.34 49 21:19 25.03.2020
445 Clear -28 1028 84 0 0.34 49 20:55 25.03.2020
446 Clear -28 1028 84 0 0.34 49 20:37 25.03.2020
447 Clear -27 1027 85 0 0.57 309 20:18 25.03.2020
448 Clear -27 1027 85 0 0.57 309 19:43 25.03.2020
449 Clear -27 1027 85 0 0.57 309 19:43 25.03.2020
450 Clear -27 1027 85 0 0.57 309 19:23 25.03.2020
451 Clear -27 1027 85 0 0.57 309 18:58 25.03.2020
452 Clear -27 1027 85 0 0.57 309 18:40 25.03.2020
453 Clear -27 1027 85 0 0.57 309 18:21 25.03.2020
454 Clear -27 1027 85 0 0.57 309 17:55 25.03.2020
455 Clouds -27 1026 85 0 0.78 304 17:37 25.03.2020
456 Clouds -25 1025 85 0 0.86 340 17:19 25.03.2020
457 Clouds -25 1025 85 0 0.86 340 16:43 25.03.2020
458 Clouds -25 1025 85 0 0.86 340 16:24 25.03.2020
459 Clouds -25 1025 85 0 0.86 340 15:59 25.03.2020
460 Clouds -25 1025 85 0 0.86 340 15:40 25.03.2020
461 Clouds -25 1025 85 0 0.86 340 15:19 25.03.2020
462 Clouds -25 1025 85 0 0.86 340 14:42 25.03.2020
463 Clouds -25 1025 85 0 0.86 340 14:22 25.03.2020
464 Clouds -22 1022 86 0 1.5 0 13:59 25.03.2020
465 Clouds -22 1022 86 0 1.5 0 13:41 25.03.2020
466 Clouds -23 1023 86 0 1.19 6 13:22 25.03.2020
467 Clouds -22 1022 86 0 1.5 0 12:38 25.03.2020
468 Clouds -22 1022 86 0 1.5 0 12:19 25.03.2020
469 Clouds -22 1022 86 0 1.5 0 11:55 25.03.2020
470 Clouds -22 1022 86 0 1.5 0 11:36 25.03.2020
471 Clouds -18 1019 88 0 1.26 6 11:18 25.03.2020
472 Clouds -18 1019 88 0 1.26 6 10:56 25.03.2020
473 Clouds -18 1019 88 0 1.26 6 10:37 25.03.2020
474 Clouds -18 1019 88 0 1.26 6 10:18 25.03.2020
475 Clouds -18 1019 88 0 1.26 6 09:42 25.03.2020
476 Clouds -18 1019 88 0 1.26 6 09:23 25.03.2020
477 Clouds -18 1019 88 0 1.26 6 08:56 25.03.2020
478 Clouds -18 1019 88 0 1.26 6 08:38 25.03.2020
479 Clouds -15 1017 85 0 1.71 342 08:19 25.03.2020
480 Clouds -15 1017 85 0 1.76 341 07:41 25.03.2020
481 Clouds -15 1017 85 0 1.76 341 07:20 25.03.2020
482 Clouds -15 1017 85 0 1.76 341 06:48 25.03.2020
483 Clouds -15 1017 85 0 1.76 341 06:28 25.03.2020
484 Clouds -15 1017 85 0 1.76 341 05:56 25.03.2020
485 Clouds -15 1017 85 0 1.76 341 05:30 25.03.2020
486 Clouds -17 1016 85 0 1.91 345 04:39 25.03.2020
487 Clouds -17 1016 85 0 1.91 345 03:36 25.03.2020
488 Clouds -17 1016 85 0 1.91 345 02:40 25.03.2020
489 Clouds -18 1016 87 0 1.94 323 01:23 25.03.2020
490 Clouds -18 1015 87 0 1.95 322 00:49 25.03.2020
491 Clouds -18 1015 87 0 1.95 322 00:24 25.03.2020
492 Clouds -18 1015 87 0 1.95 322 23:45 24.03.2020
493 Clouds -18 1015 87 0 1.95 322 23:26 24.03.2020
494 Snow -19 1013 89 0 1.81 331 22:57 24.03.2020
495 Snow -19 1013 89 0 1.81 331 22:38 24.03.2020
496 Snow -19 1013 89 0 1.81 331 22:19 24.03.2020
497 Snow -19 1013 89 0 1.81 331 21:56 24.03.2020
498 Snow -19 1013 89 0 1.81 331 21:37 24.03.2020
499 Snow -19 1013 89 0 1.81 331 21:18 24.03.2020
500 Snow -19 1013 89 0 1.81 331 20:56 24.03.2020
501 Snow -19 1013 89 0 1.81 331 20:38 24.03.2020
502 Snow -17 1010 90 0 2.04 316 20:20 24.03.2020
503 Snow -18 1011 89 0 2.09 323 19:44 24.03.2020
504 Snow -18 1011 89 0 2.09 323 19:19 24.03.2020
505 Snow -18 1011 89 0 2.09 323 18:56 24.03.2020
506 Snow -18 1011 89 0 2.09 323 18:56 24.03.2020
507 Snow -18 1011 89 0 2.09 323 18:37 24.03.2020
508 Snow -18 1011 89 0 2.09 323 18:19 24.03.2020
509 Snow -18 1011 89 0 2.09 323 17:42 24.03.2020
510 Snow -18 1011 89 0 2.09 323 17:24 24.03.2020
511 Snow -16 1007 94 0 2.29 332 16:59 24.03.2020
512 Snow -16 1007 94 0 2.29 332 16:41 24.03.2020
513 Snow -16 1007 94 0 2.29 332 16:23 24.03.2020
514 Snow -16 1007 94 0 2.29 332 16:23 24.03.2020
515 Snow -16 1007 94 0 2.29 332 16:23 24.03.2020
516 Snow -16 1007 94 0 2.29 332 15:59 24.03.2020
517 Snow -16 1007 94 0 2.29 332 15:39 24.03.2020
518 Snow -16 1007 94 0 2.29 332 15:21 24.03.2020
519 Snow -16 1007 94 0 2.29 332 15:21 24.03.2020
520 Snow -16 1007 94 0 2.29 332 14:43 24.03.2020
521 Snow -16 1007 94 0 2.29 332 14:43 24.03.2020
522 Snow -16 1007 90 0 2.37 330 14:22 24.03.2020
523 Snow -13 1004 92 0 1.65 314 13:55 24.03.2020
524 Snow -13 1004 92 0 1.65 314 13:36 24.03.2020
525 Snow -12 1004 92 0 1.56 314 13:18 24.03.2020
526 Snow -12 1004 92 0 1.56 314 12:41 24.03.2020
527 Snow -12 1004 92 0 1.56 314 12:23 24.03.2020
528 Snow -12 1004 92 0 1.56 314 11:41 24.03.2020
529 Snow -13 1004 95 0 1.27 310 11:20 24.03.2020
530 Snow -11 1001 95 0 1.21 336 10:57 24.03.2020
531 Snow -11 1001 95 0 1.21 336 10:38 24.03.2020
532 Snow -11 1001 95 0 1.21 336 10:18 24.03.2020
533 Snow -11 1001 95 0 1.21 336 09:44 24.03.2020
534 Snow -11 1001 95 0 1.21 336 09:25 24.03.2020
535 Snow -11 1001 95 0 1.21 336 08:57 24.03.2020
536 Snow -11 1001 95 0 1.21 336 08:37 24.03.2020
537 Snow -12 999 89 0 2.12 36 08:18 24.03.2020
538 Snow -12 999 89 0 2.12 36 07:44 24.03.2020
539 Snow -12 999 89 0 2.12 36 07:22 24.03.2020
540 Snow -12 999 89 0 2.12 36 06:38 24.03.2020
541 Snow -12 999 89 0 2.12 36 05:42 24.03.2020
542 Snow -14 999 92 0 1.91 62 04:51 24.03.2020
543 Snow -14 999 92 0 1.91 62 03:22 24.03.2020
544 Snow -14 999 92 0 1.91 62 02:41 24.03.2020
545 Snow -16 1000 93 0 1.83 73 00:54 24.03.2020
546 Snow -16 1000 93 0 1.83 73 00:27 24.03.2020
547 Snow -16 1000 93 0 1.83 73 23:56 23.03.2020
548 Snow -16 1000 93 0 1.83 73 23:38 23.03.2020
549 Clouds -18 1001 85 0 1.73 72 23:19 23.03.2020
550 Clouds -18 1001 85 0 1.73 72 22:44 23.03.2020
551 Clouds -18 1001 85 0 1.73 72 22:23 23.03.2020
552 Clouds -18 1001 85 0 1.73 72 21:55 23.03.2020
553 Clouds -18 1001 85 0 1.73 72 21:37 23.03.2020
554 Clouds -18 1001 85 0 1.73 72 21:18 23.03.2020
555 Clouds -18 1001 85 0 1.73 72 21:18 23.03.2020
556 Clouds -18 1001 85 0 1.73 72 20:54 23.03.2020
557 Clouds -18 1001 85 0 1.73 72 20:36 23.03.2020
558 Clouds -18 1003 81 0 1.8 96 20:18 23.03.2020
559 Clouds -17 1003 80 0 1.8 95 20:18 23.03.2020
560 Clouds -18 1003 81 0 1.8 96 19:41 23.03.2020
561 Clouds -18 1003 81 0 1.8 96 19:22 23.03.2020
562 Clouds -18 1003 81 0 1.8 96 18:56 23.03.2020
563 Clouds -18 1003 81 0 1.8 96 18:38 23.03.2020
564 Clouds -18 1003 81 0 1.8 96 18:18 23.03.2020
565 Clouds -18 1003 81 0 1.8 96 17:41 23.03.2020
566 Clouds -19 1005 80 0 1.65 99 17:20 23.03.2020
567 Clouds -19 1005 80 0 1.65 99 16:56 23.03.2020
568 Clouds -19 1005 80 0 1.65 99 16:37 23.03.2020
569 Clouds -19 1005 80 0 1.65 99 16:18 23.03.2020
570 Clouds -19 1005 80 0 1.65 99 15:41 23.03.2020
571 Clouds -19 1005 80 0 1.65 99 15:19 23.03.2020
572 Clouds -19 1005 80 0 1.65 99 14:38 23.03.2020
573 Clouds -19 1007 82 0 1.52 108 14:20 23.03.2020
574 Clouds -19 1007 82 0 1.52 108 13:57 23.03.2020
575 Clouds -19 1007 82 0 1.52 108 13:39 23.03.2020
576 Clouds -19 1007 82 0 1.5 108 13:20 23.03.2020
577 Clouds -19 1007 82 0 1.5 108 12:44 23.03.2020
578 Clouds -19 1007 82 0 1.5 108 12:25 23.03.2020
579 Clouds -19 1007 82 0 1.5 108 11:58 23.03.2020
580 Clouds -19 1007 82 0 1.5 108 11:38 23.03.2020
581 Clear -17 1008 80 0 1.42 145 11:19 23.03.2020
582 Clear -17 1008 80 0 1.42 145 10:56 23.03.2020
583 Clear -17 1008 80 0 1.42 145 10:37 23.03.2020
584 Clear -17 1008 80 0 1.42 145 10:19 23.03.2020
585 Clear -17 1008 80 0 1.42 145 09:44 23.03.2020
586 Clear -17 1008 80 0 1.42 145 09:21 23.03.2020
587 Clear -17 1008 80 0 1.42 145 08:56 23.03.2020
588 Clear -17 1008 80 0 1.42 145 08:36 23.03.2020
589 Clouds -13 1008 72 0 3.15 193 08:18 23.03.2020
590 Clouds -13 1008 72 0 3.15 193 08:18 23.03.2020
591 Clouds -13 1008 71 0 3.15 201 07:42 23.03.2020
592 Clouds -13 1008 71 0 3.15 201 07:21 23.03.2020
593 Clouds -13 1008 71 0 3.15 201 06:49 23.03.2020
594 Clouds -13 1008 71 0 3.15 201 05:54 23.03.2020
595 Clouds -13 1008 71 0 3.15 201 05:29 23.03.2020
596 Clouds -14 1009 73 0 2.6 210 03:28 23.03.2020
597 Clouds -17 1009 89 0 2.14 225 01:51 23.03.2020
598 Clouds -17 1009 89 0 2.14 225 01:32 23.03.2020
599 Clouds -16 1009 91 0 2.21 226 00:36 23.03.2020
600 Clouds -16 1009 91 0 2.21 226 23:47 22.03.2020
601 Clouds -16 1009 91 0 2.21 226 23:26 22.03.2020
602 Clouds -19 1009 99 0 1.59 253 22:45 22.03.2020
603 Clouds -19 1009 99 0 1.59 253 22:24 22.03.2020
604 Clouds -19 1009 99 0 1.59 253 21:56 22.03.2020
605 Clouds -19 1009 99 0 1.59 253 21:37 22.03.2020
606 Clouds -19 1009 99 0 1.59 253 21:19 22.03.2020
607 Clouds -19 1009 99 0 1.59 253 20:46 22.03.2020
608 Clouds -19 1009 99 0 1.59 253 20:25 22.03.2020
609 Clouds -17 1008 96 0 1.56 266 19:58 22.03.2020
610 Clouds -17 1008 96 0 1.56 266 19:40 22.03.2020
611 Clouds -17 1008 96 0 1.56 266 19:40 22.03.2020
612 Clouds -17 1008 96 0 1.56 266 19:20 22.03.2020
613 Clouds -17 1008 96 0 1.56 266 18:59 22.03.2020
614 Clouds -17 1008 96 0 1.56 266 18:41 22.03.2020
615 Clouds -17 1008 96 0 1.56 266 18:22 22.03.2020
616 Clouds -17 1008 96 0 1.56 266 17:59 22.03.2020
617 Clouds -17 1008 96 0 1.56 266 17:39 22.03.2020
618 Clouds -17 1008 96 0 1.56 266 17:39 22.03.2020
619 Clouds -17 1008 96 0 1.56 266 17:21 22.03.2020
620 Snow -16 1007 98 0 1.38 287 16:59 22.03.2020
621 Snow -16 1007 98 0 1.38 287 16:41 22.03.2020
622 Snow -16 1007 98 0 1.38 287 16:21 22.03.2020
623 Snow -16 1007 98 0 1.38 287 15:58 22.03.2020
624 Snow -16 1007 98 0 1.38 287 15:39 22.03.2020
625 Snow -16 1007 98 0 1.38 287 14:47 22.03.2020
626 Snow -13 1007 96 0 1.08 342 14:19 22.03.2020
627 Snow -13 1007 96 0 1.08 342 13:57 22.03.2020
628 Snow -13 1007 96 0 1.08 342 13:39 22.03.2020
629 Snow -13 1007 96 0 1 346 13:19 22.03.2020
630 Snow -13 1007 96 0 1 346 12:44 22.03.2020
631 Snow -13 1007 96 0 1 346 12:20 22.03.2020
632 Snow -13 1007 96 0 1 346 11:56 22.03.2020
633 Snow -13 1007 96 0 1 346 11:38 22.03.2020
634 Snow -12 1006 95 0 1.43 24 11:19 22.03.2020
635 Snow -12 1006 95 0 1.43 24 10:43 22.03.2020
636 Snow -12 1006 95 0 1.43 24 10:24 22.03.2020
637 Snow -12 1006 95 0 1.43 24 09:49 22.03.2020
638 Snow -12 1006 95 0 1.43 24 09:30 22.03.2020
639 Snow -12 1006 95 0 1.43 24 08:55 22.03.2020
640 Snow -12 1006 95 0 1.43 24 08:37 22.03.2020
641 Clouds -11 1007 82 0 1.69 25 08:18 22.03.2020
642 Clouds -11 1007 82 0 1.69 25 07:49 22.03.2020
643 Clouds -11 1007 82 0 1.69 25 07:19 22.03.2020
644 Clouds -11 1007 82 0 1.69 25 05:56 22.03.2020
645 Clouds -12 1008 75 0 1.09 75 04:58 22.03.2020
646 Clouds -12 1008 75 0 1.09 75 02:50 22.03.2020
647 Clouds -14 1009 77 0 0.63 80 01:22 22.03.2020
648 Clouds -14 1009 77 0 0.63 80 00:39 22.03.2020
649 Clouds -14 1009 77 0 0.63 80 00:21 22.03.2020
650 Clouds -14 1009 77 0 0.63 80 23:41 21.03.2020
651 Clouds -14 1009 77 0 0.63 80 23:41 21.03.2020
652 Clouds -18 1009 85 0 0.83 162 23:19 21.03.2020
653 Clouds -18 1009 85 0 0.83 162 22:38 21.03.2020
654 Clouds -18 1009 85 0 0.83 162 22:20 21.03.2020
655 Clouds -18 1009 85 0 0.83 162 21:59 21.03.2020
656 Clouds -18 1009 85 0 0.83 162 21:41 21.03.2020
657 Clouds -18 1009 85 0 0.83 162 21:22 21.03.2020
658 Clouds -18 1009 85 0 0.83 162 20:56 21.03.2020
659 Clouds -18 1009 85 0 0.83 162 20:38 21.03.2020
660 Clouds -17 1009 94 0 0.52 274 20:18 21.03.2020
661 Clouds -17 1009 94 0 0.52 274 19:43 21.03.2020
662 Clouds -17 1009 94 0 0.52 274 19:23 21.03.2020
663 Clouds -17 1009 94 0 0.52 274 18:55 21.03.2020
664 Clouds -17 1009 94 0 0.52 274 18:37 21.03.2020
665 Clouds -17 1009 94 0 0.52 274 18:19 21.03.2020
666 Clouds -17 1009 94 0 0.52 274 17:55 21.03.2020
667 Clouds -17 1009 94 0 0.52 274 17:37 21.03.2020
668 Clouds -15 1009 88 0 0.52 291 17:18 21.03.2020
669 Clouds -15 1009 88 0 0.52 291 16:40 21.03.2020
670 Clouds -15 1009 88 0 0.52 291 16:19 21.03.2020
671 Clouds -15 1009 88 0 0.52 291 15:55 21.03.2020
672 Clouds -15 1009 88 0 0.52 291 15:37 21.03.2020
673 Clouds -15 1009 88 0 0.52 291 15:18 21.03.2020
674 Clouds -15 1009 88 0 0.52 291 14:54 21.03.2020
675 Clouds -15 1009 88 0 0.52 291 14:36 21.03.2020
676 Clouds -13 1008 84 0 0.86 84 14:18 21.03.2020
677 Clouds -13 1008 84 0 0.86 84 13:56 21.03.2020
678 Clouds -13 1008 84 0 0.86 84 13:38 21.03.2020
679 Clouds -13 1008 86 0 1.25 85 13:19 21.03.2020
680 Clouds -13 1008 86 0 1.25 85 12:39 21.03.2020
681 Clouds -13 1008 86 0 1.25 85 12:19 21.03.2020
682 Clouds -13 1008 86 0 1.25 85 11:58 21.03.2020
683 Clouds -13 1008 86 0 1.25 85 11:39 21.03.2020
684 Clouds -12 1007 81 0 1.54 66 11:19 21.03.2020
685 Clouds -12 1007 81 0 1.54 66 11:19 21.03.2020
686 Clouds -12 1007 81 0 1.54 66 10:57 21.03.2020
687 Clouds -12 1007 81 0 1.54 66 10:57 21.03.2020
688 Clouds -12 1007 81 0 1.54 66 10:39 21.03.2020
689 Clouds -12 1007 81 0 1.54 66 10:21 21.03.2020
690 Clouds -12 1007 81 0 1.54 66 10:20 21.03.2020
691 Clouds -12 1007 81 0 1.54 66 09:58 21.03.2020
692 Clouds -12 1007 81 0 1.54 66 09:38 21.03.2020
693 Clouds -12 1007 81 0 1.54 66 09:20 21.03.2020
694 Clouds -12 1007 81 0 1.54 66 08:55 21.03.2020
695 Clouds -12 1007 81 0 1.54 66 08:37 21.03.2020
696 Clouds -10 1006 70 0 1.73 178 08:18 21.03.2020
697 Clouds -11 1007 70 0 1.91 201 07:32 21.03.2020
698 Clouds -11 1007 70 0 1.91 201 06:56 21.03.2020
699 Clouds -11 1007 70 0 1.91 201 06:36 21.03.2020
700 Clouds -11 1007 70 0 1.91 201 06:18 21.03.2020
701 Clouds -11 1007 70 0 1.91 201 05:39 21.03.2020
702 Clear -14 1006 70 0 2.44 213 03:39 21.03.2020
703 Clear -14 1006 70 0 2.44 213 02:36 21.03.2020
704 Clear -19 1006 78 0 1.98 222 01:43 21.03.2020
705 Clear -18 1006 79 0 1.99 223 01:23 21.03.2020
706 Clear -18 1006 79 0 1.99 223 00:39 21.03.2020
707 Clear -18 1006 79 0 1.99 223 00:21 21.03.2020
708 Clear -18 1006 79 0 1.99 223 23:42 20.03.2020
709 Clear -18 1006 79 0 1.99 223 23:22 20.03.2020
710 Clear -23 1005 80 0 2.8 211 22:44 20.03.2020
711 Clear -23 1005 80 0 2.8 211 22:25 20.03.2020
712 Clear -23 1005 80 0 2.8 211 21:58 20.03.2020
713 Clear -23 1005 80 0 2.8 211 21:40 20.03.2020
714 Clear -23 1005 80 0 2.8 211 21:20 20.03.2020
715 Clear -23 1005 80 0 2.8 211 20:58 20.03.2020
716 Clear -23 1005 80 0 2.8 211 20:40 20.03.2020
717 Clear -22 1005 69 0 2.7 188 20:19 20.03.2020
718 Clear -22 1005 69 0 2.7 188 19:48 20.03.2020
719 Clear -22 1005 69 0 2.7 188 19:20 20.03.2020
720 Clear -22 1005 69 0 2.7 188 18:58 20.03.2020
721 Clear -22 1005 69 0 2.7 188 18:38 20.03.2020
722 Clear -22 1005 69 0 2.7 188 18:20 20.03.2020
723 Clear -22 1005 69 0 2.7 188 17:56 20.03.2020
724 Clear -22 1005 69 0 2.7 188 17:37 20.03.2020
725 Clear -22 1004 67 0 2.57 203 17:19 20.03.2020
726 Clear -22 1004 67 0 2.57 203 16:42 20.03.2020
727 Clear -22 1004 67 0 2.57 203 16:21 20.03.2020
728 Clear -22 1004 67 0 2.57 203 15:55 20.03.2020
729 Clear -22 1004 67 0 2.57 203 15:37 20.03.2020
730 Clear -22 1004 67 0 2.57 203 15:37 20.03.2020
731 Clear -22 1004 67 0 2.57 203 15:18 20.03.2020
732 Clear -22 1004 67 0 2.57 203 14:42 20.03.2020
733 Clear -22 1004 67 0 2.57 203 14:21 20.03.2020
734 Clear -19 1001 70 0 3.19 244 13:50 20.03.2020
735 Clear -19 1001 70 0 3.19 244 13:50 20.03.2020
736 Clear -19 1001 70 0 3.19 244 13:26 20.03.2020
737 Clear -19 1001 70 0 3.62 244 12:59 20.03.2020
738 Clear -19 1001 70 0 3.62 244 12:38 20.03.2020
739 Clear -19 1001 70 0 3.62 244 12:20 20.03.2020
740 Clear -19 1001 70 0 3.62 244 11:40 20.03.2020
741 Clear -19 1001 70 0 3.62 244 11:21 20.03.2020
742 Clear -13 997 70 0 6.17 223 10:57 20.03.2020
743 Clear -13 997 70 0 6.17 223 10:38 20.03.2020
744 Clear -13 997 70 0 6.17 223 10:18 20.03.2020
745 Clear -13 997 70 0 6.17 223 09:46 20.03.2020
746 Clear -13 997 70 0 6.17 223 09:21 20.03.2020
747 Clear -13 997 70 0 6.17 223 08:58 20.03.2020
748 Clear -13 997 70 0 6.17 223 08:39 20.03.2020
749 Clouds -10 994 65 0 7.66 248 08:19 20.03.2020
750 Clouds -10 994 65 0 7.66 248 07:43 20.03.2020
751 Clouds -10 994 65 0 7.66 248 07:25 20.03.2020
752 Clouds -10 994 65 0 7.66 248 06:43 20.03.2020
753 Clouds -10 994 65 0 7.66 248 06:22 20.03.2020
754 Clouds -9 993 66 0 9.58 242 04:48 20.03.2020
755 Clouds -9 993 66 0 9.58 242 02:54 20.03.2020
756 Clouds -14 992 76 0 4.56 213 01:51 20.03.2020
757 Clouds -14 991 77 0 4.67 212 00:46 20.03.2020
758 Clouds -14 991 77 0 4.67 212 00:24 20.03.2020
759 Clouds -14 991 77 0 4.67 212 23:42 19.03.2020
760 Clouds -14 991 77 0 4.67 212 23:23 19.03.2020
761 Clouds -17 991 75 0 3.96 181 22:55 19.03.2020
762 Clouds -17 991 75 0 3.96 181 22:37 19.03.2020
763 Clouds -17 991 75 0 3.96 181 22:18 19.03.2020
764 Clouds -17 991 75 0 3.96 181 21:40 19.03.2020
765 Clouds -17 991 75 0 3.96 181 21:20 19.03.2020
766 Clouds -17 991 75 0 3.96 181 20:55 19.03.2020
767 Clouds -17 991 75 0 3.96 181 20:37 19.03.2020
768 Clouds -16 990 74 0 4.7 186 20:19 19.03.2020
769 Clouds -18 990 76 0 3.39 164 19:54 19.03.2020
770 Clouds -18 990 76 0 3.39 164 19:36 19.03.2020
771 Clouds -18 990 76 0 3.39 164 19:18 19.03.2020
772 Clouds -18 990 76 0 3.39 164 18:41 19.03.2020
773 Clouds -18 990 76 0 3.39 164 18:22 19.03.2020
774 Clouds -18 990 76 0 3.39 164 17:56 19.03.2020
775 Clouds -18 990 76 0 3.39 164 17:37 19.03.2020
776 Clouds -17 992 78 0 2.94 167 17:18 19.03.2020
777 Clouds -17 992 78 0 2.94 167 16:43 19.03.2020
778 Clouds -17 992 78 0 2.94 167 16:22 19.03.2020
779 Clouds -17 992 78 0 2.94 167 15:44 19.03.2020
780 Clouds -17 992 78 0 2.94 167 15:25 19.03.2020
781 Clouds -17 992 78 0 2.94 167 14:55 19.03.2020
782 Clouds -17 992 78 0 2.94 167 14:37 19.03.2020
783 Clouds -20 992 77 0 2.61 142 14:18 19.03.2020
784 Clouds -20 992 77 0 2.61 142 13:39 19.03.2020
785 Clouds -19 992 78 0 2.49 140 13:18 19.03.2020
786 Clouds -19 992 78 0 2.49 140 12:42 19.03.2020
787 Clouds -19 992 78 0 2.49 140 12:24 19.03.2020
788 Clouds -19 992 78 0 2.49 140 11:59 19.03.2020
789 Clouds -19 992 78 0 2.49 140 11:41 19.03.2020
790 Clouds -19 992 78 0 2.49 140 11:22 19.03.2020
791 Clouds -19 993 85 0 2.28 119 10:44 19.03.2020
792 Clouds -19 993 85 0 2.28 119 10:22 19.03.2020
793 Clouds -19 993 85 0 2.28 119 09:59 19.03.2020
794 Clouds -19 993 85 0 2.28 119 09:40 19.03.2020
795 Clouds -19 993 85 0 2.28 119 09:22 19.03.2020
796 Clouds -19 993 85 0 2.28 119 08:48 19.03.2020
797 Clouds -19 993 85 0 2.31 119 08:23 19.03.2020
798 Clouds -16 995 73 0 2.26 125 07:57 19.03.2020
799 Clouds -16 995 73 0 2.26 125 07:37 19.03.2020
800 Clouds -16 995 73 0 2.26 125 07:18 19.03.2020
801 Clouds -16 995 73 0 2.26 125 06:23 19.03.2020
802 Clouds -16 995 73 0 2.26 125 05:25 19.03.2020
803 Clouds -19 999 79 0 2.07 118 04:47 19.03.2020
804 Clouds -19 999 79 0 2.07 118 03:55 19.03.2020
805 Clouds -24 1004 89 0 1.27 111 01:46 19.03.2020
806 Clear -24 1004 90 0 1.2 111 00:42 19.03.2020
807 Clear -24 1004 90 0 1.2 111 00:19 19.03.2020
808 Clear -24 1004 90 0 1.2 111 23:43 18.03.2020
809 Clear -24 1004 90 0 1.2 111 23:23 18.03.2020
810 Clear -29 1007 97 0 1.46 129 22:43 18.03.2020
811 Clear -29 1007 97 0 1.46 129 22:23 18.03.2020
812 Clear -29 1007 97 0 1.46 129 21:57 18.03.2020
813 Clear -29 1007 97 0 1.46 129 21:39 18.03.2020
814 Clear -29 1007 97 0 1.46 129 21:20 18.03.2020
815 Clear -29 1007 97 0 1.46 129 20:55 18.03.2020
816 Clear -29 1007 97 0 1.46 129 20:37 18.03.2020
817 Clear -28 1009 94 0 1.51 140 20:19 18.03.2020
818 Clear -28 1009 94 0 1.51 140 19:41 18.03.2020
819 Clear -28 1009 94 0 1.51 140 19:21 18.03.2020
820 Clear -28 1009 94 0 1.51 140 18:59 18.03.2020
821 Clear -28 1009 94 0 1.51 140 18:40 18.03.2020
822 Clear -28 1009 94 0 1.51 140 18:19 18.03.2020
823 Clear -28 1009 94 0 1.51 140 17:57 18.03.2020
824 Clear -28 1009 94 0 1.51 140 17:39 18.03.2020
825 Clear -28 1011 91 0 1.16 144 17:19 18.03.2020
826 Clear -28 1011 91 0 1.16 144 16:43 18.03.2020
827 Clear -28 1011 91 0 1.16 144 16:21 18.03.2020
828 Clear -28 1011 91 0 1.16 144 15:59 18.03.2020
829 Clear -28 1011 91 0 1.16 144 15:39 18.03.2020
830 Clear -28 1011 91 0 1.16 144 15:20 18.03.2020
831 Clear -28 1011 91 0 1.16 144 14:44 18.03.2020
832 Clear -28 1011 91 0 1.16 144 14:21 18.03.2020
833 Clear -27 1011 94 0 0.57 119 13:42 18.03.2020
834 Clear -28 1011 93 0 0.46 82 13:20 18.03.2020
835 Clear -28 1011 93 0 0.46 82 12:59 18.03.2020
836 Clear -28 1011 93 0 0.46 82 12:41 18.03.2020
837 Clear -28 1011 93 0 0.46 82 12:19 18.03.2020
838 Clear -28 1011 93 0 0.46 82 11:39 18.03.2020
839 Clear -28 1011 93 0 0.46 82 11:21 18.03.2020
840 Clear -23 1010 89 0 1.55 22 10:58 18.03.2020
841 Clear -23 1010 89 0 1.55 22 10:39 18.03.2020
842 Clear -23 1010 89 0 1.55 22 10:20 18.03.2020
843 Clear -23 1010 89 0 1.55 22 09:44 18.03.2020
844 Clear -23 1010 89 0 1.55 22 09:26 18.03.2020
845 Clear -23 1010 89 0 1.55 22 08:58 18.03.2020
846 Clear -23 1010 89 0 1.55 22 08:39 18.03.2020
847 Clouds -23 1009 92 0 1.46 23 08:21 18.03.2020
848 Clouds -17 1006 77 0 2.48 19 07:49 18.03.2020
849 Clouds -17 1006 77 0 2.48 19 07:30 18.03.2020
850 Clouds -17 1006 77 0 2.48 19 06:45 18.03.2020
851 Clouds -17 1006 77 0 2.48 19 06:23 18.03.2020
852 Clouds -17 1006 77 0 2.48 19 05:35 18.03.2020
853 Clouds -18 1005 85 0 2.74 11 04:27 18.03.2020
854 Clouds -18 1005 85 0 2.74 11 02:49 18.03.2020
855 Snow -19 1004 93 0 2.17 345 01:48 18.03.2020
856 Snow -19 1004 93 0 2.01 331 01:27 18.03.2020
857 Snow -19 1004 93 0 2.21 337 00:26 18.03.2020
858 Snow -19 1004 93 0 2.21 337 23:57 17.03.2020
859 Snow -19 1004 93 0 2.21 337 23:37 17.03.2020
860 Snow -21 1003 99 0 1.36 322 23:18 17.03.2020
861 Snow -21 1003 99 0 1.41 324 22:41 17.03.2020
862 Snow -21 1003 99 0 1.41 324 22:22 17.03.2020
863 Snow -21 1003 99 0 1.41 324 21:40 17.03.2020
864 Snow -21 1003 99 0 1.36 322 21:21 17.03.2020
865 Snow -21 1003 99 0 1.41 324 20:41 17.03.2020
866 Snow -21 1003 99 0 1.36 322 20:23 17.03.2020
867 Snow -22 1001 99 0 1.18 326 19:59 17.03.2020
868 Snow -22 1001 99 0 1.18 326 19:40 17.03.2020
869 Snow -22 1001 99 0 1.18 326 19:18 17.03.2020
870 Snow -22 1001 99 0 1.18 326 18:56 17.03.2020
871 Snow -22 1001 99 0 1.18 326 18:38 17.03.2020
872 Snow -22 1001 99 0 1.18 326 18:38 17.03.2020
873 Snow -22 1001 99 0 1.18 326 18:20 17.03.2020
874 Snow -22 1001 99 0 1.18 326 17:41 17.03.2020
875 Snow -22 1001 99 0 1.18 326 17:22 17.03.2020
876 Clouds -22 999 99 0 1.38 324 16:57 17.03.2020
877 Clouds -22 999 99 0 1.38 324 16:39 17.03.2020
878 Clouds -22 999 99 0 1.38 324 16:18 17.03.2020
879 Clouds -22 999 99 0 1.38 324 15:44 17.03.2020
880 Clouds -22 999 99 0 1.38 324 15:22 17.03.2020
881 Clouds -22 999 99 0 1.38 324 14:44 17.03.2020
882 Clouds -22 999 99 0 1.38 324 14:24 17.03.2020
883 Clouds -21 998 99 0 0.89 345 13:57 17.03.2020
884 Clouds -21 998 99 0 0.89 345 13:39 17.03.2020
885 Clouds -21 997 100 0 0.82 331 13:21 17.03.2020
886 Clouds -21 997 100 0 0.82 331 13:21 17.03.2020
887 Clouds -21 997 100 0 0.82 331 12:43 17.03.2020
888 Clouds -22 997 100 0 0.59 325 12:24 17.03.2020
889 Clouds -22 997 100 0 0.59 325 11:48 17.03.2020
890 Clouds -21 997 100 0 0.82 331 11:29 17.03.2020
891 Clouds -19 995 99 0 0.85 359 10:58 17.03.2020
892 Clouds -19 995 99 0 0.85 359 10:58 17.03.2020
893 Clouds -19 995 99 0 0.85 359 10:40 17.03.2020
894 Clouds -19 995 99 0 0.85 359 10:22 17.03.2020
895 Clouds -19 995 99 0 0.85 359 09:59 17.03.2020
896 Clouds -19 995 99 0 0.85 359 09:41 17.03.2020
897 Clouds -19 995 99 0 0.85 359 09:20 17.03.2020
898 Clouds -18 995 95 0 0.68 340 08:50 17.03.2020
899 Clouds -18 995 95 0 0.68 340 08:23 17.03.2020
900 Snow -16 993 88 0 1.15 43 07:57 17.03.2020
901 Snow -16 993 88 0 1.15 43 07:38 17.03.2020
902 Snow -16 993 88 0 1.15 43 07:19 17.03.2020
903 Snow -16 993 88 0 1.15 43 06:39 17.03.2020
904 Snow -16 993 88 0 1.15 43 05:58 17.03.2020
905 Snow -18 993 90 0 1.14 44 03:58 17.03.2020
906 Snow -18 993 90 0 1.14 44 03:58 17.03.2020
907 Snow -18 993 90 0 1.14 44 02:54 17.03.2020
908 Clouds -20 994 81 0 1.28 68 01:49 17.03.2020
909 Clouds -20 994 81 0 1.31 70 01:25 17.03.2020
910 Clouds -20 994 81 0 1.31 70 00:47 17.03.2020
911 Clouds -20 994 81 0 1.31 70 23:50 16.03.2020
912 Clouds -20 994 81 0 1.31 70 23:32 16.03.2020
913 Clouds -23 995 84 0 1.09 100 22:43 16.03.2020
914 Clouds -23 995 84 0 1.09 100 22:25 16.03.2020
915 Clouds -23 995 84 0 1.09 100 21:59 16.03.2020
916 Clouds -23 995 84 0 1.09 100 21:40 16.03.2020
917 Clouds -23 995 84 0 1.09 100 21:22 16.03.2020
918 Clouds -23 995 84 0 1.09 100 20:56 16.03.2020
919 Clouds -23 995 84 0 1.09 100 20:38 16.03.2020
920 Clouds -22 996 83 0 1.13 105 20:19 16.03.2020
921 Clouds -22 996 82 0 1.12 108 19:41 16.03.2020
922 Clouds -22 996 82 0 1.12 108 19:21 16.03.2020
923 Clouds -22 996 82 0 1.12 108 18:56 16.03.2020
924 Clouds -22 996 82 0 1.12 108 18:37 16.03.2020
925 Clouds -22 996 82 0 1.12 108 18:18 16.03.2020
926 Clouds -22 996 82 0 1.12 108 17:42 16.03.2020
927 Clouds -22 996 82 0 1.12 108 17:22 16.03.2020
928 Clouds -23 997 82 0 1.58 118 16:46 16.03.2020
929 Clouds -23 997 82 0 1.58 118 16:28 16.03.2020
930 Clouds -23 997 82 0 1.58 118 15:56 16.03.2020
931 Clouds -23 997 82 0 1.58 118 15:37 16.03.2020
932 Clouds -23 997 82 0 1.58 118 15:18 16.03.2020
933 Clouds -23 997 82 0 1.58 118 14:42 16.03.2020
934 Clouds -22 999 83 0 1.77 120 14:19 16.03.2020
935 Clouds -22 999 83 0 1.77 120 13:42 16.03.2020
936 Clouds -22 999 83 0 1.77 120 13:23 16.03.2020
937 Clouds -23 999 85 0 1.72 118 12:46 16.03.2020
938 Clouds -23 999 85 0 1.72 118 12:27 16.03.2020
939 Clouds -23 999 85 0 1.72 118 11:59 16.03.2020
940 Clouds -23 999 85 0 1.72 118 11:41 16.03.2020
941 Clouds -21 1000 85 0 1.83 125 11:18 16.03.2020
942 Clouds -21 1000 85 0 1.83 125 10:42 16.03.2020
943 Clouds -21 1000 85 0 1.83 125 10:24 16.03.2020
944 Clouds -21 1000 85 0 1.83 125 09:45 16.03.2020
945 Clouds -21 1000 85 0 1.83 125 09:27 16.03.2020
946 Clouds -21 1000 85 0 1.83 125 08:56 16.03.2020
947 Clouds -21 1000 85 0 1.83 125 08:26 16.03.2020
948 Clouds -17 1000 72 0 3.15 159 07:50 16.03.2020
949 Clouds -17 1000 72 0 3.15 159 07:28 16.03.2020
950 Clouds -17 1000 72 0 3.15 159 06:54 16.03.2020
951 Clouds -17 1000 72 0 3.15 159 06:54 16.03.2020
952 Clouds -17 1000 72 0 3.15 159 06:27 16.03.2020
953 Clouds -17 1000 72 0 3.15 159 05:54 16.03.2020
954 Clouds -20 1003 71 0 2.56 157 02:46 16.03.2020
955 Clouds -25 1005 76 0 1.97 143 01:20 16.03.2020
956 Clouds -25 1005 76 0 1.97 143 00:42 16.03.2020
957 Clouds -25 1005 76 0 1.97 143 23:49 15.03.2020
958 Clouds -25 1005 76 0 1.97 143 23:21 15.03.2020
959 Clear -29 1006 79 0 1.88 144 22:58 15.03.2020
960 Clear -29 1006 79 0 1.88 144 22:37 15.03.2020
961 Clear -29 1006 79 0 1.88 144 22:19 15.03.2020
962 Clear -29 1006 79 0 1.88 144 21:39 15.03.2020
963 Clear -29 1006 79 0 1.88 144 21:19 15.03.2020
964 Clear -29 1006 79 0 1.88 144 20:43 15.03.2020
965 Clear -29 1006 79 0 1.88 144 20:22 15.03.2020
966 Clear -30 1007 79 0 1.77 132 19:59 15.03.2020
967 Clear -30 1007 79 0 1.77 132 19:40 15.03.2020
968 Clear -30 1007 79 0 1.77 132 19:22 15.03.2020
969 Clear -30 1007 79 0 1.77 132 18:57 15.03.2020
970 Clear -30 1007 79 0 1.77 132 18:38 15.03.2020
971 Clear -30 1007 79 0 1.77 132 18:20 15.03.2020
972 Clear -30 1007 79 0 1.77 132 17:54 15.03.2020
973 Clear -30 1007 79 0 1.77 132 17:36 15.03.2020
974 Clear -30 1007 82 0 1.54 132 17:18 15.03.2020
975 Clear -30 1007 82 0 1.54 132 16:42 15.03.2020
976 Clear -30 1007 82 0 1.54 132 16:23 15.03.2020
977 Clear -30 1007 82 0 1.54 132 15:57 15.03.2020
978 Clear -30 1007 82 0 1.54 132 15:38 15.03.2020
979 Clear -30 1007 82 0 1.54 132 15:19 15.03.2020
980 Clear -30 1007 82 0 1.54 132 14:43 15.03.2020
981 Clear -30 1007 82 0 1.54 132 14:24 15.03.2020
982 Clear -29 1007 88 0 1.62 104 13:57 15.03.2020
983 Clear -29 1007 88 0 1.62 104 13:38 15.03.2020
984 Clear -29 1007 90 0 1.58 105 13:19 15.03.2020
985 Clear -29 1007 90 0 1.58 105 12:43 15.03.2020
986 Clear -29 1007 90 0 1.58 105 12:25 15.03.2020
987 Clear -29 1007 90 0 1.58 105 11:54 15.03.2020
988 Clear -29 1007 90 0 1.58 105 11:36 15.03.2020
989 Clear -28 1007 94 0 1.41 62 11:18 15.03.2020
990 Clear -28 1007 94 0 1.41 62 10:55 15.03.2020
991 Clear -28 1007 94 0 1.41 62 10:36 15.03.2020
992 Clear -28 1007 94 0 1.41 62 10:18 15.03.2020
993 Clear -28 1007 94 0 1.41 62 09:39 15.03.2020
994 Clear -28 1007 94 0 1.41 62 09:20 15.03.2020
995 Clear -28 1007 94 0 1.41 62 08:42 15.03.2020
996 Clear -23 1005 78 0 1.28 93 08:20 15.03.2020
997 Clear -23 1006 73 0 1.16 121 07:51 15.03.2020
998 Clear -23 1006 73 0 1.16 121 07:23 15.03.2020
999 Clear -23 1006 73 0 1.16 121 06:45 15.03.2020
1000 Clear -23 1006 73 0 1.16 121 05:50 15.03.2020
1001 Clear -27 1007 72 0 1.1 112 05:18 15.03.2020
1002 Clear -27 1007 72 0 1.1 112 04:41 15.03.2020
1003 Clear -27 1007 72 0 1.1 112 04:23 15.03.2020
1004 Clear -27 1007 72 0 1.1 112 03:30 15.03.2020
1005 Clear -27 1007 72 0 1.1 112 02:37 15.03.2020
1006 Clouds -31 1009 87 0 0.73 98 01:34 15.03.2020
1007 Clouds -30 1009 86 0 0.81 102 00:45 15.03.2020
1008 Clouds -30 1009 86 0 0.81 102 00:22 15.03.2020
1009 Clouds -30 1009 86 0 0.81 102 23:42 14.03.2020
1010 Clouds -30 1009 86 0 0.81 102 23:22 14.03.2020
1011 Clear -36 1011 97 0 0.86 92 22:59 14.03.2020
1012 Clear -36 1011 97 0 0.86 92 22:41 14.03.2020
1013 Clear -36 1011 97 0 0.86 92 22:23 14.03.2020
1014 Clear -36 1011 97 0 0.86 92 21:56 14.03.2020
1015 Clear -36 1011 97 0 0.86 92 21:36 14.03.2020
1016 Clear -36 1011 97 0 0.86 92 21:18 14.03.2020
1017 Clear -36 1011 97 0 0.86 92 20:58 14.03.2020
1018 Clear -36 1011 97 0 0.86 92 20:40 14.03.2020
1019 Clouds -34 1012 97 0 1.09 102 20:19 14.03.2020
1020 Clouds -34 1012 97 0 1.09 102 19:43 14.03.2020
1021 Clouds -34 1012 97 0 1.09 102 19:25 14.03.2020
1022 Clouds -34 1012 97 0 1.09 102 18:42 14.03.2020
1023 Clouds -34 1012 97 0 1.09 102 18:24 14.03.2020
1024 Clouds -34 1012 97 0 1.09 102 17:58 14.03.2020
1025 Clouds -34 1012 97 0 1.09 102 17:38 14.03.2020
1026 Clouds -34 1012 97 0 1.09 102 17:38 14.03.2020
1027 Clouds -33 1013 96 0 1.5 103 17:20 14.03.2020
1028 Clouds -33 1013 96 0 1.5 103 17:20 14.03.2020
1029 Clouds -33 1013 96 0 1.5 103 16:41 14.03.2020
1030 Clouds -33 1013 96 0 1.5 103 16:23 14.03.2020
1031 Clouds -33 1013 96 0 1.5 103 15:58 14.03.2020
1032 Clouds -33 1013 96 0 1.5 103 15:27 14.03.2020
1033 Clouds -33 1013 96 0 1.5 103 14:58 14.03.2020
1034 Clouds -33 1013 96 0 1.5 103 14:37 14.03.2020
1035 Clouds -31 1015 93 0 1.57 121 14:18 14.03.2020
1036 Clouds -31 1015 93 0 1.57 121 13:42 14.03.2020
1037 Clouds -31 1015 93 0 1.57 121 13:23 14.03.2020
1038 Clouds -31 1015 94 0 1.48 118 12:57 14.03.2020
1039 Clouds -31 1015 94 0 1.48 118 12:38 14.03.2020
1040 Clouds -31 1015 94 0 1.48 118 12:19 14.03.2020
1041 Clouds -31 1015 94 0 1.48 118 11:40 14.03.2020
1042 Clouds -29 1015 92 0 1.46 128 11:20 14.03.2020
1043 Clouds -29 1015 92 0 1.46 128 10:46 14.03.2020
1044 Clouds -29 1015 92 0 1.46 128 10:27 14.03.2020
1045 Clouds -29 1015 92 0 1.46 128 09:58 14.03.2020
1046 Clouds -29 1015 92 0 1.46 128 09:40 14.03.2020
1047 Clouds -29 1015 92 0 1.46 128 09:20 14.03.2020
1048 Clouds -29 1015 92 0 1.46 128 08:46 14.03.2020
1049 Clouds -29 1015 93 0 1.48 132 08:24 14.03.2020
1050 Clouds -23 1014 81 0 1.92 186 07:40 14.03.2020
1051 Clouds -23 1014 81 0 1.92 186 07:21 14.03.2020
1052 Clouds -23 1014 81 0 1.92 186 06:44 14.03.2020
1053 Clouds -23 1014 81 0 1.92 186 06:26 14.03.2020
1054 Clouds -26 1016 84 0 1.8 206 04:53 14.03.2020
1055 Clouds -26 1016 84 0 1.8 206 03:34 14.03.2020
1056 Clouds -26 1016 84 0 1.8 206 02:43 14.03.2020
1057 Clear -30 1017 92 0 1.51 223 01:42 14.03.2020
1058 Clear -30 1016 92 0 1.51 221 00:34 14.03.2020
1059 Clear -30 1016 92 0 1.51 221 23:42 13.03.2020
1060 Clear -30 1016 92 0 1.51 221 23:23 13.03.2020
1061 Clear -35 1015 100 0 1.27 236 22:44 13.03.2020
1062 Clear -35 1015 100 0 1.27 236 22:22 13.03.2020
1063 Clear -35 1015 100 0 1.27 236 21:41 13.03.2020
1064 Clear -35 1015 100 0 1.27 236 21:19 13.03.2020
1065 Clear -35 1015 100 0 1.27 236 20:43 13.03.2020
1066 Clear -34 1014 100 0 0.98 254 20:23 13.03.2020
1067 Clear -34 1014 100 0 0.98 254 19:58 13.03.2020
1068 Clear -34 1014 100 0 0.98 254 19:39 13.03.2020
1069 Clear -34 1014 100 0 0.98 254 19:19 13.03.2020
1070 Clear -34 1014 100 0 0.98 254 18:43 13.03.2020
1071 Clear -34 1014 100 0 0.98 254 18:23 13.03.2020
1072 Clear -34 1014 100 0 0.98 254 17:43 13.03.2020
1073 Clear -34 1014 100 0 0.98 254 17:21 13.03.2020
1074 Clear -33 1012 100 0 0.95 270 16:59 13.03.2020
1075 Clear -33 1012 100 0 0.95 270 16:39 13.03.2020
1076 Clear -33 1012 100 0 0.95 270 16:20 13.03.2020
1077 Clear -33 1012 100 0 0.95 270 15:46 13.03.2020
1078 Clear -33 1012 100 0 0.95 270 15:23 13.03.2020
1079 Clear -33 1012 100 0 0.95 270 14:59 13.03.2020
1080 Clear -33 1012 100 0 0.95 270 14:40 13.03.2020
1081 Clear -33 1012 100 0 0.95 270 14:21 13.03.2020
1082 Clear -32 1009 99 0 0.89 290 13:43 13.03.2020
1083 Clear -32 1009 99 0 0.89 290 13:24 13.03.2020
1084 Clear -32 1009 98 0 1.05 288 12:59 13.03.2020
1085 Clear -32 1009 98 0 1.05 288 12:39 13.03.2020
1086 Clear -32 1009 98 0 1.05 288 12:20 13.03.2020
1087 Clear -32 1009 98 0 1.05 288 11:56 13.03.2020
1088 Clear -32 1009 98 0 1.05 288 11:37 13.03.2020
1089 Clear -31 1006 100 0 0.72 320 11:19 13.03.2020
1090 Clear -31 1006 100 0 0.72 320 10:47 13.03.2020
1091 Clear -31 1006 100 0 0.72 320 10:26 13.03.2020
1092 Clear -31 1006 100 0 0.72 320 09:56 13.03.2020
1093 Clear -31 1006 100 0 0.72 320 09:38 13.03.2020
1094 Clear -31 1006 100 0 0.72 320 09:18 13.03.2020
1095 Clear -31 1006 100 0 0.72 320 08:41 13.03.2020
1096 Clear -31 1006 100 0 0.48 318 08:22 13.03.2020
1097 Clouds -25 1002 83 0 0.94 4 07:45 13.03.2020
1098 Clouds -25 1002 83 0 0.94 4 07:27 13.03.2020
1099 Clouds -25 1002 83 0 0.94 4 06:46 13.03.2020
1100 Clouds -25 1002 83 0 0.94 4 06:23 13.03.2020
1101 Clouds -25 1002 83 0 0.94 4 05:46 13.03.2020
1102 Clouds -27 1001 83 0 1.13 21 04:57 13.03.2020
1103 Clouds -27 1001 83 0 1.13 21 04:26 13.03.2020
1104 Clouds -27 1001 83 0 1.13 21 02:58 13.03.2020
1105 Clear -30 1000 92 0 0.97 52 01:41 13.03.2020
1106 Clear -30 1000 92 0 0.97 52 01:18 13.03.2020
1107 Clouds -30 1000 93 0 1.02 48 00:43 13.03.2020
1108 Clouds -30 1000 93 0 1.02 48 00:20 13.03.2020
1109 Clouds -30 1000 93 0 1.02 48 23:45 12.03.2020
1110 Clouds -30 1000 93 0 1.02 48 23:26 12.03.2020
1111 Clear -35 1000 99 0 0.65 65 22:55 12.03.2020
1112 Clear -35 1000 99 0 0.65 65 22:37 12.03.2020
1113 Clear -35 1000 99 0 0.65 65 22:37 12.03.2020
1114 Clear -35 1000 99 0 0.65 65 22:18 12.03.2020
1115 Clear -35 1000 99 0 0.65 65 21:42 12.03.2020
1116 Clear -35 1000 99 0 0.65 65 21:24 12.03.2020
1117 Clear -35 1000 99 0 0.65 65 20:55 12.03.2020
1118 Clear -35 1000 99 0 0.65 65 20:37 12.03.2020
1119 Clear -34 1001 99 0 0.9 94 20:18 12.03.2020
1120 Clear -34 1001 99 0 0.9 94 19:39 12.03.2020
1121 Clear -34 1001 99 0 0.9 94 19:19 12.03.2020
1122 Clear -34 1001 99 0 0.9 94 18:43 12.03.2020
1123 Clear -34 1001 99 0 0.9 94 18:23 12.03.2020
1124 Clear -34 1001 99 0 0.9 94 17:56 12.03.2020
1125 Clear -34 1001 99 0 0.9 94 17:37 12.03.2020
1126 Clear -32 1002 99 0 1.18 92 17:18 12.03.2020
1127 Clear -32 1002 99 0 1.18 92 16:54 12.03.2020
1128 Clear -32 1002 99 0 1.18 92 16:36 12.03.2020
1129 Clear -32 1002 99 0 1.18 92 16:18 12.03.2020
1130 Clear -32 1002 99 0 1.18 92 15:41 12.03.2020
1131 Clear -32 1002 99 0 1.18 92 15:22 12.03.2020
1132 Clear -32 1002 99 0 1.18 92 14:39 12.03.2020
1133 Clouds -31 1003 99 0 1.19 96 14:19 12.03.2020
1134 Clouds -31 1003 99 0 1.19 96 13:41 12.03.2020
1135 Clouds -31 1004 99 0 1.13 95 13:22 12.03.2020
1136 Clouds -31 1004 99 0 1.13 95 12:56 12.03.2020
1137 Clouds -31 1004 99 0 1.13 95 12:38 12.03.2020
1138 Clouds -31 1004 99 0 1.13 95 12:19 12.03.2020
1139 Clouds -31 1004 99 0 1.13 95 11:56 12.03.2020
1140 Clouds -31 1004 99 0 1.13 95 11:37 12.03.2020
1141 Clouds -30 1005 99 0 1 82 11:19 12.03.2020
1142 Clouds -30 1005 99 0 1 82 11:19 12.03.2020
1143 Clouds -30 1005 99 0 1 82 10:57 12.03.2020
1144 Clouds -30 1005 99 0 1 82 10:57 12.03.2020
1145 Clouds -30 1005 99 0 1 82 10:39 12.03.2020
1146 Clouds -30 1005 99 0 1 82 10:21 12.03.2020
1147 Clouds -30 1005 99 0 1 82 09:43 12.03.2020
1148 Clouds -30 1005 99 0 1 82 09:43 12.03.2020
1149 Clouds -30 1005 99 0 1 82 09:25 12.03.2020
1150 Clouds -30 1005 99 0 1 82 08:41 12.03.2020
1151 Clouds -23 1006 83 0 0.82 110 08:20 12.03.2020
1152 Clouds -23 1006 83 0 0.82 110 07:53 12.03.2020
1153 Clouds -23 1006 83 0 0.82 110 07:23 12.03.2020
1154 Clouds -23 1006 83 0 0.82 110 06:59 12.03.2020
1155 Clouds -23 1006 83 0 0.82 110 05:43 12.03.2020
1156 Clouds -23 1006 83 0 0.82 110 05:21 12.03.2020
1157 Clouds -27 1010 80 0 0.8 181 02:41 12.03.2020
1158 Clouds -30 1013 89 0 0.74 213 01:31 12.03.2020
1159 Clouds -30 1014 90 0 0.65 217 00:45 12.03.2020
1160 Clouds -30 1014 90 0 0.65 217 00:26 12.03.2020
1161 Clouds -30 1014 90 0 0.65 217 23:47 11.03.2020
1162 Clouds -30 1014 90 0 0.65 217 23:24 11.03.2020
1163 Clouds -35 1016 99 0 0.65 209 22:48 11.03.2020
1164 Clouds -35 1016 99 0 0.65 209 22:30 11.03.2020
1165 Clouds -35 1016 99 0 0.65 209 22:30 11.03.2020
1166 Clouds -35 1016 99 0 0.65 209 21:59 11.03.2020
1167 Clouds -35 1016 99 0 0.65 209 21:41 11.03.2020
1168 Clouds -35 1016 99 0 0.65 209 21:22 11.03.2020
1169 Clouds -35 1016 99 0 0.65 209 20:58 11.03.2020
1170 Clouds -35 1016 99 0 0.65 209 20:39 11.03.2020
1171 Clear -34 1017 97 0 0.61 171 20:20 11.03.2020
1172 Clear -34 1017 97 0 0.61 171 19:44 11.03.2020
1173 Clear -34 1017 97 0 0.61 171 19:26 11.03.2020
1174 Clear -34 1017 97 0 0.61 171 18:59 11.03.2020
1175 Clear -34 1017 97 0 0.61 171 18:40 11.03.2020
1176 Clear -34 1017 97 0 0.61 171 18:22 11.03.2020
1177 Clear -34 1017 97 0 0.61 171 17:58 11.03.2020
1178 Clear -34 1017 97 0 0.61 171 17:39 11.03.2020
1179 Clear -33 1019 94 0 0.64 139 17:20 11.03.2020
1180 Clear -33 1019 94 0 0.64 139 16:47 11.03.2020
1181 Clear -33 1019 94 0 0.64 139 16:23 11.03.2020
1182 Clear -33 1019 94 0 0.64 139 15:59 11.03.2020
1183 Clear -33 1019 94 0 0.64 139 15:40 11.03.2020
1184 Clear -33 1019 94 0 0.64 139 15:22 11.03.2020
1185 Clear -33 1019 94 0 0.64 139 14:42 11.03.2020
1186 Clear -33 1019 94 0 0.64 139 14:23 11.03.2020
1187 Clear -33 1019 94 0 0.64 139 14:23 11.03.2020
1188 Clouds -32 1019 93 0 0.96 150 13:57 11.03.2020
1189 Clouds -32 1019 93 0 0.96 150 13:38 11.03.2020
1190 Clouds -32 1019 94 0 0.82 152 13:20 11.03.2020
1191 Clouds -32 1019 94 0 0.82 152 12:40 11.03.2020
1192 Clouds -32 1019 94 0 0.82 152 12:20 11.03.2020
1193 Clouds -32 1019 94 0 0.82 152 11:56 11.03.2020
1194 Clouds -32 1019 94 0 0.82 152 11:37 11.03.2020
1195 Clouds -31 1019 95 0 0.91 161 11:19 11.03.2020
1196 Clouds -31 1019 95 0 0.91 161 10:43 11.03.2020
1197 Clouds -31 1019 95 0 0.91 161 10:19 11.03.2020
1198 Clouds -31 1019 95 0 0.91 161 09:43 11.03.2020
1199 Clouds -31 1019 95 0 0.91 161 09:25 11.03.2020
1200 Clouds -31 1019 95 0 0.91 161 08:58 11.03.2020
1201 Clouds -31 1019 95 0 0.91 161 08:40 11.03.2020
1202 Clouds -24 1017 80 0 1.31 211 08:19 11.03.2020
1203 Clouds -24 1017 80 0 1.31 211 07:44 11.03.2020
1204 Clouds -24 1017 80 0 1.31 211 07:19 11.03.2020
1205 Clouds -24 1017 80 0 1.31 211 06:46 11.03.2020
1206 Clouds -24 1017 80 0 1.31 211 05:41 11.03.2020
1207 Clouds -27 1018 82 0 1.44 230 04:50 11.03.2020
1208 Clouds -27 1018 82 0 1.44 230 02:30 11.03.2020
1209 Clouds -30 1018 95 0 0.78 238 01:30 11.03.2020
1210 Clouds -30 1018 95 0 0.78 238 00:49 11.03.2020
1211 Clouds -30 1018 95 0 0.78 238 00:21 11.03.2020
1212 Clouds -30 1018 95 0 0.78 238 23:42 10.03.2020
1213 Clouds -30 1018 95 0 0.78 238 23:22 10.03.2020
1214 Clouds -34 1018 100 0 0.51 255 22:40 10.03.2020
1215 Clouds -34 1018 100 0 0.51 255 22:20 10.03.2020
1216 Clouds -34 1018 100 0 0.51 255 21:57 10.03.2020
1217 Clouds -34 1018 100 0 0.51 255 21:39 10.03.2020
1218 Clouds -34 1018 100 0 0.51 255 21:20 10.03.2020
1219 Clouds -34 1018 100 0 0.51 255 20:59 10.03.2020
1220 Clouds -34 1018 100 0 0.51 255 20:41 10.03.2020
1221 Clouds -33 1017 100 0 0.46 316 20:19 10.03.2020
1222 Clouds -33 1017 100 0 0.46 316 19:57 10.03.2020
1223 Clouds -33 1017 100 0 0.46 316 19:39 10.03.2020
1224 Clouds -33 1017 100 0 0.46 316 19:21 10.03.2020
1225 Clouds -33 1017 100 0 0.46 316 18:45 10.03.2020
1226 Clouds -33 1017 100 0 0.46 316 18:45 10.03.2020
1227 Clouds -33 1017 100 0 0.46 316 18:27 10.03.2020
1228 Clouds -33 1017 100 0 0.46 316 17:58 10.03.2020
1229 Clouds -33 1017 100 0 0.46 316 17:40 10.03.2020
1230 Clouds -33 1017 100 0 0.46 316 17:21 10.03.2020
1231 Clouds -32 1017 97 0 0.15 47 16:40 10.03.2020
1232 Clouds -32 1017 97 0 0.15 47 16:20 10.03.2020
1233 Clouds -32 1017 97 0 0.15 47 15:58 10.03.2020
1234 Clouds -32 1017 97 0 0.15 47 15:39 10.03.2020
1235 Clouds -32 1017 97 0 0.15 47 15:19 10.03.2020
1236 Clouds -32 1017 97 0 0.15 47 14:57 10.03.2020
1237 Clouds -32 1017 97 0 0.15 47 14:39 10.03.2020
1238 Clouds -32 1017 96 0 0.67 28 14:18 10.03.2020
1239 Clouds -32 1017 96 0 0.67 28 13:42 10.03.2020
1240 Clouds -32 1017 96 0 0.67 28 13:42 10.03.2020
1241 Clouds -32 1017 96 0 0.67 28 13:24 10.03.2020
1242 Clouds -33 1017 97 0 0.57 31 12:42 10.03.2020
1243 Clouds -33 1017 97 0 0.57 31 12:21 10.03.2020
1244 Clouds -33 1017 97 0 0.57 31 12:21 10.03.2020
1245 Clouds -33 1017 97 0 0.57 31 11:59 10.03.2020
1246 Clouds -33 1017 97 0 0.57 31 11:41 10.03.2020
1247 Clouds -33 1017 97 0 0.57 31 11:23 10.03.2020
1248 Clouds -31 1016 96 0 0.6 55 10:54 10.03.2020
1249 Clouds -31 1016 96 0 0.6 55 10:36 10.03.2020
1250 Clouds -31 1016 96 0 0.6 55 10:18 10.03.2020
1251 Clouds -31 1016 96 0 0.6 55 09:44 10.03.2020
1252 Clouds -31 1016 96 0 0.6 55 09:20 10.03.2020
1253 Clouds -31 1016 96 0 0.6 55 08:53 10.03.2020
1254 Clouds -31 1016 96 0 0.6 55 08:35 10.03.2020
1255 Clouds -27 1015 86 0 0.95 49 07:58 10.03.2020
1256 Clouds -27 1015 86 0 0.95 49 07:40 10.03.2020
1257 Clouds -27 1015 86 0 0.95 49 07:19 10.03.2020
1258 Clouds -27 1015 86 0 0.95 49 06:37 10.03.2020
1259 Clouds -27 1015 86 0 0.95 49 05:42 10.03.2020
1260 Clouds -28 1016 83 0 0.28 74 05:18 10.03.2020
1261 Clouds -28 1016 83 0 0.28 74 04:29 10.03.2020
1262 Clouds -28 1016 83 0 0.28 74 02:58 10.03.2020
1263 Clouds -31 1016 94 0 0.74 234 01:32 10.03.2020
1264 Clouds -31 1017 95 0 0.81 230 00:50 10.03.2020
1265 Clouds -31 1017 95 0 0.81 230 00:28 10.03.2020
1266 Clouds -31 1017 95 0 0.81 230 23:42 09.03.2020
1267 Clouds -31 1017 95 0 0.81 230 23:22 09.03.2020
1268 Clouds -33 1017 100 0 0.94 223 22:57 09.03.2020
1269 Clouds -33 1017 100 0 0.94 223 22:38 09.03.2020
1270 Clouds -33 1017 100 0 0.94 223 22:38 09.03.2020
1271 Clouds -33 1017 100 0 0.94 223 22:19 09.03.2020
1272 Clouds -33 1017 100 0 0.94 223 21:43 09.03.2020
1273 Clouds -33 1017 100 0 0.94 223 21:22 09.03.2020
1274 Clouds -33 1017 100 0 0.94 223 20:58 09.03.2020
1275 Clouds -33 1017 100 0 0.94 223 20:40 09.03.2020
1276 Clouds -33 1017 100 0 0.94 223 20:40 09.03.2020
1277 Clouds -33 1017 99 0 0.8 219 20:21 09.03.2020
1278 Clouds -31 1017 99 0 0.75 207 19:56 09.03.2020
1279 Clouds -31 1017 99 0 0.75 207 19:38 09.03.2020
1280 Clouds -31 1017 99 0 0.75 207 19:18 09.03.2020
1281 Clouds -31 1017 99 0 0.75 207 18:55 09.03.2020
1282 Clouds -31 1017 99 0 0.75 207 18:37 09.03.2020
1283 Clouds -31 1017 99 0 0.75 207 18:18 09.03.2020
1284 Clouds -31 1017 99 0 0.75 207 17:55 09.03.2020
1285 Clouds -31 1017 99 0 0.75 207 17:55 09.03.2020
1286 Clouds -31 1017 99 0 0.75 207 17:36 09.03.2020
1287 Clouds -30 1017 99 0 0.42 146 17:18 09.03.2020
1288 Clouds -30 1017 99 0 0.42 146 16:42 09.03.2020
1289 Clouds -30 1017 99 0 0.42 146 16:22 09.03.2020
1290 Clouds -30 1017 99 0 0.42 146 15:59 09.03.2020
1291 Clouds -30 1017 99 0 0.42 146 15:39 09.03.2020
1292 Clouds -30 1017 99 0 0.42 146 15:21 09.03.2020
1293 Clouds -30 1017 99 0 0.42 146 14:59 09.03.2020
1294 Clouds -30 1017 99 0 0.42 146 14:38 09.03.2020
1295 Clouds -27 1017 100 0 0.61 62 14:20 09.03.2020
1296 Clouds -27 1017 100 0 0.61 62 13:58 09.03.2020
1297 Clouds -27 1017 100 0 0.61 62 13:39 09.03.2020
1298 Clouds -27 1017 100 0 0.61 62 13:39 09.03.2020
1299 Clouds -27 1017 100 0 0.61 62 13:20 09.03.2020
1300 Clouds -27 1017 99 0 0.63 37 12:44 09.03.2020
1301 Clouds -27 1017 99 0 0.63 37 12:24 09.03.2020
1302 Clouds -27 1017 99 0 0.63 37 11:58 09.03.2020
1303 Clouds -27 1017 99 0 0.63 37 11:40 09.03.2020
1304 Clouds -26 1016 98 0 0.88 33 11:20 09.03.2020
1305 Clouds -26 1016 98 0 0.88 33 10:57 09.03.2020
1306 Clouds -26 1016 98 0 0.88 33 10:39 09.03.2020
1307 Clouds -26 1016 98 0 0.88 33 10:18 09.03.2020
1308 Clouds -26 1016 98 0 0.88 33 09:42 09.03.2020
1309 Clouds -26 1016 98 0 0.88 33 09:24 09.03.2020
1310 Clouds -26 1016 98 0 0.88 33 08:46 09.03.2020
1311 Clouds -26 1016 98 0 0.88 33 08:28 09.03.2020
1312 Snow -23 1014 85 0 1.07 331 07:45 09.03.2020
1313 Snow -23 1014 85 0 1.07 331 07:45 09.03.2020
1314 Snow -23 1014 85 0 1.07 331 07:23 09.03.2020
1315 Snow -23 1014 85 0 1.07 331 06:59 09.03.2020
1316 Snow -23 1014 85 0 1.07 331 06:39 09.03.2020
1317 -273 0 0 0 0 0 06:21 09.03.2020
1318 Snow -23 1014 85 0 1.07 331 05:42 09.03.2020
1319 Snow -24 1013 86 0 1.23 348 04:57 09.03.2020
1320 Snow -24 1013 86 0 1.23 348 04:39 09.03.2020
1321 Snow -24 1013 86 0 1.23 348 04:19 09.03.2020
1322 Snow -24 1013 86 0 1.23 348 02:51 09.03.2020
1323 Snow -24 1012 96 0 2.25 357 00:42 09.03.2020
1324 Snow -24 1012 96 0 2.25 357 00:24 09.03.2020
1325 Snow -24 1012 96 0 2.25 357 23:58 08.03.2020
1326 Snow -24 1012 96 0 2.25 357 23:58 08.03.2020
1327 Snow -24 1012 96 0 2.25 357 23:38 08.03.2020
1328 Snow -24 1011 98 0 2.39 10 23:18 08.03.2020
1329 Snow -24 1011 98 0 2.39 10 22:40 08.03.2020
1330 Snow -24 1011 98 0 2.39 10 22:22 08.03.2020
1331 Snow -24 1011 98 0 2.39 10 21:59 08.03.2020
1332 Snow -24 1011 98 0 2.39 10 21:40 08.03.2020
1333 Snow -24 1011 98 0 2.39 10 21:20 08.03.2020
1334 Snow -24 1011 98 0 2.39 10 20:57 08.03.2020
1335 Snow -24 1011 98 0 2.39 10 20:37 08.03.2020
1336 Snow -23 1009 99 0 2.56 359 20:19 08.03.2020
1337 Snow -23 1009 99 0 2.56 359 20:19 08.03.2020
1338 Snow -23 1009 98 0 2.04 14 19:40 08.03.2020
1339 Snow -23 1009 98 0 2.04 14 19:19 08.03.2020
1340 Snow -23 1009 98 0 2.04 14 19:19 08.03.2020
1341 Snow -23 1009 98 0 2.04 14 18:55 08.03.2020
1342 Snow -23 1009 98 0 2.04 14 18:37 08.03.2020
1343 Snow -23 1009 98 0 2.04 14 18:19 08.03.2020
1344 Snow -23 1009 98 0 2.04 14 17:40 08.03.2020
1345 Snow -23 1009 98 0 2.04 14 17:22 08.03.2020
1346 Clouds -21 1007 97 0 1.06 17 16:58 08.03.2020
1347 Clouds -21 1007 97 0 1.06 17 16:40 08.03.2020
1348 Clouds -21 1007 97 0 1.06 17 16:22 08.03.2020
1349 Clouds -21 1007 97 0 1.06 17 15:41 08.03.2020
1350 Clouds -21 1007 97 0 1.06 17 15:22 08.03.2020
1351 Clouds -21 1007 97 0 1.06 17 14:59 08.03.2020
1352 Clouds -21 1007 97 0 1.06 17 14:38 08.03.2020
1353 Clouds -22 1005 84 0 1.4 174 14:19 08.03.2020
1354 Clouds -22 1005 84 0 1.4 174 13:42 08.03.2020
1355 Clouds -23 1006 78 0 0.61 176 13:21 08.03.2020
1356 Clouds -23 1006 78 0 0.61 176 12:57 08.03.2020
1357 Clouds -23 1006 78 0 0.61 176 12:37 08.03.2020
1358 Clouds -23 1006 78 0 0.61 176 12:18 08.03.2020
1359 Clouds -23 1006 78 0 0.61 176 11:41 08.03.2020
1360 Clouds -23 1006 78 0 0.61 176 11:23 08.03.2020
1361 Clouds -19 1004 84 0 2.1 185 10:57 08.03.2020
1362 Clouds -19 1004 84 0 2.1 185 10:39 08.03.2020
1363 Clouds -19 1004 84 0 2.1 185 10:21 08.03.2020
1364 Clouds -19 1004 84 0 2.1 185 09:39 08.03.2020
1365 Clouds -19 1004 84 0 2.1 185 09:21 08.03.2020
1366 Clouds -19 1004 84 0 2.1 185 08:46 08.03.2020
1367 Clouds -19 1004 84 0 2.1 185 08:21 08.03.2020
1368 Clouds -13 1002 82 0 2.08 226 07:49 08.03.2020
1369 Clouds -13 1002 82 0 2.08 226 07:28 08.03.2020
1370 Clouds -13 1002 82 0 2.08 226 06:45 08.03.2020
1371 Clouds -13 1002 82 0 2.08 226 06:27 08.03.2020
1372 Clouds -13 1002 82 0 2.08 226 05:47 08.03.2020
1373 Clouds -13 1002 84 0 2.58 200 03:52 08.03.2020
1374 Clouds -13 1002 84 0 2.58 200 02:59 08.03.2020
1375 Clouds -16 1002 84 0 1.27 193 01:38 08.03.2020
1376 Clouds -16 1002 82 0 1.21 175 01:19 08.03.2020
1377 Clouds -16 1002 82 0 1.21 175 00:41 08.03.2020
1378 Clouds -16 1002 82 0 1.21 175 23:59 07.03.2020
1379 Clouds -16 1002 82 0 1.21 175 23:41 07.03.2020
1380 Clouds -19 1002 85 0 1.82 161 23:20 07.03.2020
1381 Clouds -19 1002 85 0 1.82 161 22:38 07.03.2020
1382 Clouds -19 1002 85 0 1.82 161 22:20 07.03.2020
1383 Clouds -19 1002 85 0 1.82 161 21:45 07.03.2020
1384 Clouds -19 1002 85 0 1.82 161 21:24 07.03.2020
1385 Clouds -19 1002 85 0 1.82 161 20:42 07.03.2020
1386 Clouds -19 1002 85 0 1.82 161 20:23 07.03.2020
1387 Clouds -17 1002 90 0 1.69 144 19:57 07.03.2020
1388 Clouds -17 1002 90 0 1.69 144 19:38 07.03.2020
1389 Clouds -17 1002 90 0 1.69 144 19:19 07.03.2020
1390 Clouds -17 1002 90 0 1.69 144 18:41 07.03.2020
1391 Clouds -17 1002 90 0 1.69 144 18:22 07.03.2020
1392 Clouds -17 1002 90 0 1.69 144 17:43 07.03.2020
1393 Clouds -17 1002 90 0 1.69 144 17:22 07.03.2020
1394 Snow -16 1002 95 0 1.18 128 16:59 07.03.2020
1395 Snow -16 1002 95 0 1.18 128 16:41 07.03.2020
1396 Snow -16 1002 95 0 1.18 128 16:22 07.03.2020
1397 Snow -16 1002 95 0 1.18 128 15:57 07.03.2020
1398 Snow -16 1002 95 0 1.18 128 15:39 07.03.2020
1399 Snow -16 1002 95 0 1.18 128 15:20 07.03.2020
1400 Snow -16 1002 95 0 1.18 128 14:54 07.03.2020
1401 Snow -16 1002 95 0 1.18 128 14:36 07.03.2020
1402 Clouds -17 1003 96 0 1.39 101 14:18 07.03.2020
1403 Clouds -17 1003 96 0 1.39 101 13:39 07.03.2020
1404 Snow -16 1002 96 0 1.4 105 13:19 07.03.2020
1405 Snow -16 1002 96 0 1.4 105 12:42 07.03.2020
1406 Snow -16 1002 96 0 1.4 105 12:20 07.03.2020
1407 Snow -16 1002 96 0 1.4 105 11:58 07.03.2020
1408 Snow -16 1002 96 0 1.4 105 11:39 07.03.2020
1409 Snow -16 1002 96 0 1.4 105 11:21 07.03.2020
1410 Snow -16 1003 96 0 1.75 71 10:41 07.03.2020
1411 Snow -16 1003 96 0 1.75 71 10:21 07.03.2020
1412 Snow -16 1003 96 0 1.75 71 10:21 07.03.2020
1413 Snow -16 1003 96 0 1.75 71 09:57 07.03.2020
1414 Snow -16 1003 96 0 1.75 71 09:38 07.03.2020
1415 Snow -16 1003 96 0 1.75 71 09:18 07.03.2020
1416 Snow -16 1003 96 0 1.75 71 08:44 07.03.2020
1417 Snow -16 1003 96 0 1.62 71 08:21 07.03.2020
1418 Snow -16 1003 96 0 1.62 71 08:21 07.03.2020
1419 Snow -15 1003 91 0 1.82 79 07:49 07.03.2020
1420 Snow -15 1003 91 0 1.82 79 07:23 07.03.2020
1421 Snow -15 1003 91 0 1.82 79 06:55 07.03.2020
1422 Snow -15 1003 91 0 1.82 79 06:29 07.03.2020
1423 Snow -15 1003 91 0 1.82 79 05:50 07.03.2020
1424 Clouds -16 1005 88 0 1.74 83 04:42 07.03.2020
1425 Clouds -16 1005 88 0 1.74 83 02:47 07.03.2020
1426 Clouds -16 1005 88 0 1.74 83 02:24 07.03.2020
1427 Clouds -19 1006 84 0 1.47 81 01:26 07.03.2020
1428 Clouds -19 1006 84 0 1.48 83 00:38 07.03.2020
1429 Clouds -19 1006 84 0 1.48 83 00:20 07.03.2020
1430 Clouds -19 1006 84 0 1.48 83 23:44 06.03.2020
1431 Clouds -19 1006 84 0 1.48 83 23:25 06.03.2020
1432 Clouds -22 1007 85 0 1.24 80 22:48 06.03.2020
1433 Clouds -22 1007 85 0 1.24 80 22:21 06.03.2020
1434 Clouds -22 1007 85 0 1.24 80 21:56 06.03.2020
1435 Clouds -22 1007 85 0 1.24 80 21:38 06.03.2020
1436 Clouds -22 1007 85 0 1.24 80 21:18 06.03.2020
1437 Clouds -22 1007 85 0 1.24 80 21:18 06.03.2020
1438 Clouds -22 1007 85 0 1.24 80 20:38 06.03.2020
1439 Clouds -24 1008 87 0 1.08 97 20:20 06.03.2020
1440 Clouds -24 1008 87 0 1.08 97 19:47 06.03.2020
1441 Clouds -24 1008 87 0 1.08 97 19:28 06.03.2020
1442 Clouds -24 1008 87 0 1.08 97 18:57 06.03.2020
1443 Clouds -24 1008 87 0 1.08 97 18:38 06.03.2020
1444 Clouds -24 1008 87 0 1.08 97 18:19 06.03.2020
1445 Clouds -24 1008 87 0 1.08 97 17:42 06.03.2020
1446 Clouds -24 1008 87 0 1.08 97 17:23 06.03.2020
1447 Clouds -23 1009 88 0 1.25 107 16:59 06.03.2020
1448 Clouds -23 1009 88 0 1.25 107 16:40 06.03.2020
1449 Clouds -23 1009 88 0 1.25 107 16:40 06.03.2020
1450 Clouds -23 1009 88 0 1.25 107 16:20 06.03.2020
1451 Clouds -23 1009 88 0 1.25 107 15:44 06.03.2020
1452 Clouds -23 1009 88 0 1.25 107 15:24 06.03.2020
1453 Clouds -23 1009 88 0 1.25 107 14:45 06.03.2020
1454 Clouds -23 1009 88 0 1.25 107 14:25 06.03.2020
1455 Clouds -23 1010 92 0 1.38 115 13:59 06.03.2020
1456 Clouds -23 1010 92 0 1.38 115 13:41 06.03.2020
1457 Clouds -23 1010 91 0 1.31 108 13:21 06.03.2020
1458 Clouds -23 1010 91 0 1.31 108 12:56 06.03.2020
1459 Clouds -23 1010 91 0 1.31 108 12:37 06.03.2020
1460 Clouds -23 1010 91 0 1.31 108 12:18 06.03.2020
1461 Clouds -23 1010 91 0 1.31 108 11:56 06.03.2020
1462 Clouds -23 1010 91 0 1.31 108 11:38 06.03.2020
1463 Clouds -22 1010 90 0 1.29 97 11:19 06.03.2020
1464 Clouds -22 1010 90 0 1.29 97 10:38 06.03.2020
1465 Clouds -22 1010 90 0 1.29 97 10:20 06.03.2020
1466 Clouds -22 1010 90 0 1.29 97 09:54 06.03.2020
1467 Clouds -22 1010 90 0 1.29 97 09:36 06.03.2020
1468 Clouds -22 1010 90 0 1.29 97 09:18 06.03.2020
1469 Clouds -22 1010 90 0 1.29 97 08:41 06.03.2020
1470 Clouds -21 1010 92 0 1.16 109 08:23 06.03.2020
1471 Clouds -15 1009 75 0 1.61 161 07:47 06.03.2020
1472 Clouds -15 1009 75 0 1.61 161 07:26 06.03.2020
1473 Clouds -15 1009 75 0 1.61 161 06:53 06.03.2020
1474 Clouds -15 1009 75 0 1.61 161 06:53 06.03.2020
1475 Clouds -15 1009 75 0 1.61 161 06:34 06.03.2020
1476 Clouds -15 1009 75 0 1.61 161 05:42 06.03.2020
1477 Clouds -15 1009 75 0 1.61 161 05:21 06.03.2020
1478 Clouds -18 1010 74 0 1.22 128 04:55 06.03.2020
1479 Clouds -22 1011 80 0 0.76 150 01:58 06.03.2020
1480 Clouds -22 1011 80 0 0.76 150 01:39 06.03.2020
1481 Clouds -22 1011 80 0 0.76 150 01:19 06.03.2020
1482 Clouds -22 1011 81 0 0.81 139 00:32 06.03.2020
1483 Clouds -22 1011 81 0 0.81 139 23:50 05.03.2020
1484 Clouds -22 1011 81 0 0.81 139 23:30 05.03.2020
1485 Clouds -26 1012 82 0 1.18 143 22:58 05.03.2020
1486 Clouds -26 1012 82 0 1.18 143 22:39 05.03.2020
1487 Clouds -26 1012 82 0 1.18 143 22:21 05.03.2020
1488 Clouds -26 1012 82 0 1.18 143 21:57 05.03.2020
1489 Clouds -26 1012 82 0 1.18 143 21:38 05.03.2020
1490 Clouds -26 1012 82 0 1.18 143 21:20 05.03.2020
1491 Clouds -26 1012 82 0 1.18 143 20:57 05.03.2020
1492 Clouds -26 1012 82 0 1.18 143 20:39 05.03.2020
1493 Clouds -24 1012 81 0 1.51 143 20:19 05.03.2020
1494 Clouds -25 1012 82 0 1.45 145 19:56 05.03.2020
1495 Clouds -25 1012 82 0 1.45 145 19:38 05.03.2020
1496 Clouds -25 1012 82 0 1.45 145 19:18 05.03.2020
1497 Clouds -25 1012 82 0 1.45 145 18:54 05.03.2020
1498 Clouds -25 1012 82 0 1.45 145 18:36 05.03.2020
1499 Clouds -25 1012 82 0 1.45 145 18:18 05.03.2020
1500 Clouds -25 1012 82 0 1.45 145 17:41 05.03.2020
1501 Clouds -25 1012 82 0 1.45 145 17:22 05.03.2020
1502 Clouds -23 1013 82 0 1.52 139 16:55 05.03.2020
1503 Clouds -23 1013 82 0 1.52 139 16:37 05.03.2020
1504 Clouds -23 1013 82 0 1.52 139 16:19 05.03.2020
1505 Clouds -23 1013 82 0 1.52 139 15:44 05.03.2020
1506 Clouds -23 1013 82 0 1.52 139 15:22 05.03.2020
1507 Clouds -23 1013 82 0 1.52 139 14:58 05.03.2020
1508 Clouds -23 1013 82 0 1.52 139 14:39 05.03.2020
1509 Clouds -23 1013 82 0 1.52 139 14:21 05.03.2020
1510 Clouds -20 1013 83 0 1.56 121 13:56 05.03.2020
1511 Clouds -20 1013 83 0 1.56 121 13:37 05.03.2020
1512 Clouds -20 1013 83 0 1.56 121 13:19 05.03.2020
1513 Clouds -20 1013 84 0 1.61 122 12:41 05.03.2020
1514 Clouds -20 1013 84 0 1.61 122 12:20 05.03.2020
1515 Clouds -20 1013 84 0 1.61 122 11:57 05.03.2020
1516 Clouds -20 1013 84 0 1.61 122 11:37 05.03.2020
1517 Clouds -19 1013 85 0 1.13 148 11:19 05.03.2020
1518 Clouds -19 1013 85 0 1.13 148 10:57 05.03.2020
1519 Clouds -19 1013 85 0 1.13 148 10:39 05.03.2020
1520 Clouds -19 1013 85 0 1.13 148 10:21 05.03.2020
1521 Clouds -19 1013 85 0 1.13 148 09:46 05.03.2020
1522 Clouds -19 1013 85 0 1.13 148 09:28 05.03.2020
1523 Clouds -19 1013 85 0 1.13 148 08:49 05.03.2020
1524 Clouds -19 1013 85 0 1.13 148 08:31 05.03.2020
1525 Clouds -17 1012 79 0 2.04 188 07:56 05.03.2020
1526 Clouds -17 1012 79 0 2.04 188 07:36 05.03.2020
1527 Clouds -17 1012 79 0 2.04 188 07:18 05.03.2020
1528 Clouds -17 1012 79 0 2.04 188 06:43 05.03.2020
1529 Clouds -17 1012 79 0 2.04 188 06:19 05.03.2020
1530 Clouds -17 1012 79 0 2.04 188 05:33 05.03.2020
1531 Clouds -17 1012 79 0 2.04 188 05:33 05.03.2020
1532 Clouds -19 1012 73 0 2.21 185 04:23 05.03.2020
1533 Clouds -19 1012 73 0 2.21 185 03:58 05.03.2020
1534 Clouds -19 1012 73 0 2.21 185 02:32 05.03.2020
1535 Clouds -24 1014 79 0 1.61 188 01:26 05.03.2020
1536 Clouds -24 1014 79 0 1.61 188 00:44 05.03.2020
1537 Clouds -24 1014 79 0 1.61 188 23:57 04.03.2020
1538 Clouds -24 1014 79 0 1.61 188 23:57 04.03.2020
1539 Clouds -24 1014 79 0 1.61 188 23:39 04.03.2020
1540 Clouds -26 1014 79 0 1.96 185 23:21 04.03.2020
1541 Clouds -26 1014 79 0 1.96 185 22:55 04.03.2020
1542 Clouds -26 1014 79 0 1.96 185 22:36 04.03.2020
1543 Clouds -26 1014 79 0 1.96 185 22:18 04.03.2020
1544 Clouds -26 1014 79 0 1.96 185 21:42 04.03.2020
1545 Clouds -26 1014 79 0 1.96 185 21:23 04.03.2020
1546 Clouds -26 1014 79 0 1.96 185 20:59 04.03.2020
1547 Clouds -26 1014 79 0 1.96 185 20:40 04.03.2020
1548 Clouds -26 1014 79 0 2.08 187 20:21 04.03.2020
1549 Clouds -24 1013 79 0 2.49 182 19:56 04.03.2020
1550 Clouds -24 1013 79 0 2.49 182 19:38 04.03.2020
1551 Clouds -24 1013 79 0 2.49 182 19:20 04.03.2020
1552 Clouds -24 1013 79 0 2.49 182 18:41 04.03.2020
1553 Clouds -24 1013 79 0 2.49 182 18:23 04.03.2020
1554 Clouds -24 1013 79 0 2.49 182 17:59 04.03.2020
1555 Clouds -24 1013 79 0 2.49 182 17:39 04.03.2020
1556 Clear -23 1013 76 0 2.66 166 17:20 04.03.2020
1557 Clear -23 1013 76 0 2.66 166 16:56 04.03.2020
1558 Clear -23 1013 76 0 2.66 166 16:37 04.03.2020
1559 Clear -23 1013 76 0 2.66 166 16:19 04.03.2020
1560 Clear -23 1013 76 0 2.66 166 15:42 04.03.2020
1561 Clear -23 1013 76 0 2.66 166 15:24 04.03.2020
1562 Clear -23 1013 76 0 2.66 166 14:58 04.03.2020
1563 Clear -23 1013 76 0 2.66 166 14:39 04.03.2020
1564 Clear -20 1014 78 0 3.1 165 14:19 04.03.2020
1565 Clear -20 1014 78 0 3.1 165 13:58 04.03.2020
1566 Clear -20 1014 78 0 3.1 165 13:39 04.03.2020
1567 Clouds -21 1014 78 0 3.01 163 13:20 04.03.2020
1568 Clouds -21 1014 78 0 3.01 163 12:55 04.03.2020
1569 Clouds -21 1014 78 0 3.01 163 12:37 04.03.2020
1570 Clouds -21 1014 78 0 3.01 163 12:19 04.03.2020
1571 Clouds -21 1014 78 0 3.01 163 11:42 04.03.2020
1572 Clouds -21 1014 78 0 3.01 163 11:23 04.03.2020
1573 Clear -17 1014 78 0 3.79 171 10:58 04.03.2020
1574 Clear -17 1014 78 0 3.79 171 10:40 04.03.2020
1575 Clear -17 1014 78 0 3.79 171 10:21 04.03.2020
1576 Clear -17 1014 78 0 3.79 171 09:43 04.03.2020
1577 Clear -17 1014 78 0 3.79 171 09:21 04.03.2020
1578 Clear -17 1014 78 0 3.79 171 08:49 04.03.2020
1579 Clear -17 1014 78 0 3.79 171 08:28 04.03.2020
1580 Clear -13 1013 79 0 4.66 190 07:57 04.03.2020
1581 Clear -13 1013 79 0 4.66 190 07:39 04.03.2020
1582 Clear -13 1013 79 0 4.66 190 07:20 04.03.2020
1583 Clear -13 1013 79 0 4.66 190 06:44 04.03.2020
1584 Clear -13 1013 79 0 4.66 190 06:23 04.03.2020
1585 Clear -13 1013 79 0 4.66 190 05:50 04.03.2020
1586 Clear -14 1015 72 0 4.93 184 04:34 04.03.2020
1587 Clear -14 1015 72 0 4.93 184 03:46 04.03.2020
1588 Clear -14 1015 72 0 4.93 184 03:27 04.03.2020
1589 Clear -14 1015 72 0 4.93 184 02:58 04.03.2020
1590 Clear -14 1015 72 0 4.93 184 02:22 04.03.2020
1591 Clear -19 1017 76 0 3.17 171 01:56 04.03.2020
1592 Clear -19 1017 76 0 3.09 173 00:53 04.03.2020
1593 Clear -19 1017 76 0 3.09 173 00:53 04.03.2020
1594 Clear -19 1017 76 0 3.09 173 00:27 04.03.2020
1595 Clear -19 1017 76 0 3.09 173 23:59 03.03.2020
1596 Clear -19 1017 76 0 3.09 173 23:40 03.03.2020
1597 Clear -19 1017 76 0 3.09 173 23:22 03.03.2020
1598 Clear -20 1018 72 0 3.6 181 22:41 03.03.2020
1599 Clear -20 1018 72 0 3.6 181 22:20 03.03.2020
1600 Clear -20 1018 72 0 3.6 181 21:58 03.03.2020
1601 Clear -20 1018 72 0 3.6 181 21:40 03.03.2020
1602 Clear -20 1018 72 0 3.6 181 21:20 03.03.2020
1603 Clear -20 1018 72 0 3.6 181 20:56 03.03.2020
1604 Clear -20 1018 72 0 3.6 181 20:38 03.03.2020
1605 Clear -20 1018 71 0 3.22 176 20:18 03.03.2020
1606 Clear -18 1019 69 0 4.57 178 19:55 03.03.2020
1607 Clear -18 1019 69 0 4.57 178 19:36 03.03.2020
1608 Clear -18 1019 69 0 4.57 178 19:18 03.03.2020
1609 Clear -18 1019 69 0 4.57 178 18:55 03.03.2020
1610 Clear -19 1019 69 0 4.33 181 18:37 03.03.2020
1611 Clear -19 1019 69 0 4.33 181 18:37 03.03.2020
1612 Clear -19 1019 69 0 4.33 181 18:18 03.03.2020
1613 Clear -18 1019 69 0 4.57 178 17:40 03.03.2020
1614 Clear -19 1019 69 0 4.33 181 17:22 03.03.2020
1615 Clear -17 1020 66 0 5.1 178 16:59 03.03.2020
1616 Clear -17 1020 66 0 5.1 178 16:38 03.03.2020
1617 Clear -16 1019 64 0 5.56 182 16:20 03.03.2020
1618 Clear -17 1020 66 0 5.1 178 16:20 03.03.2020
1619 Clear -16 1019 64 0 5.56 182 15:58 03.03.2020
1620 Clear -17 1020 66 0 5.1 178 15:58 03.03.2020
1621 Clear -16 1019 64 0 5.56 182 15:40 03.03.2020
1622 Clear -16 1019 64 0 5.56 182 15:20 03.03.2020
1623 Clear -16 1019 64 0 5.56 182 14:43 03.03.2020
1624 Clear -18 1021 69 0 3.94 163 14:20 03.03.2020
1625 Clear -18 1021 69 0 3.94 163 13:58 03.03.2020
1626 Clear -17 1021 69 0 4.47 170 13:40 03.03.2020
1627 Clear -17 1021 69 0 4.47 170 13:22 03.03.2020
1628 Clear -17 1021 69 0 4.47 170 12:49 03.03.2020
1629 Clear -17 1021 69 0 4.47 170 12:27 03.03.2020
1630 Clear -17 1021 69 0 4.47 170 11:59 03.03.2020
1631 Clear -17 1021 69 0 4.47 170 11:38 03.03.2020
1632 Clear -16 1022 70 0 3.87 163 11:19 03.03.2020
1633 Clear -16 1022 70 0 3.87 163 10:56 03.03.2020
1634 Clear -16 1022 70 0 3.87 163 10:38 03.03.2020
1635 Clear -16 1022 70 0 3.87 163 10:19 03.03.2020
1636 Clear -16 1022 70 0 3.87 163 09:45 03.03.2020
1637 Clear -16 1022 70 0 3.87 163 09:23 03.03.2020
1638 Clear -16 1022 70 0 3.87 163 08:59 03.03.2020
1639 Clear -16 1022 70 0 3.87 163 08:39 03.03.2020
1640 Clear -16 1022 70 0 3.87 163 08:39 03.03.2020
1641 Clear -16 1022 70 0 3.75 160 08:21 03.03.2020
1642 Clear -13 1022 77 0 2.25 152 07:44 03.03.2020
1643 Clear -13 1022 77 0 2.25 152 07:23 03.03.2020
1644 Clear -13 1022 77 0 2.25 152 06:53 03.03.2020
1645 Clear -13 1022 77 0 2.25 152 06:27 03.03.2020
1646 Clear -13 1022 77 0 2.25 152 05:48 03.03.2020
1647 Clear -13 1022 77 0 2.25 152 05:30 03.03.2020
1648 Clear -17 1025 68 0 2.25 154 04:38 03.03.2020
1649 Clear -23 1028 72 0 1.75 155 01:41 03.03.2020
1650 Clear -23 1028 73 0 1.98 151 00:59 03.03.2020
1651 Clear -23 1028 73 0 1.98 151 00:37 03.03.2020
1652 Clear -23 1028 73 0 1.98 151 00:18 03.03.2020
1653 Clear -23 1028 73 0 1.98 151 23:42 02.03.2020
1654 Clear -23 1028 73 0 1.98 151 23:23 02.03.2020
1655 Clear -25 1029 75 0 1.77 151 22:56 02.03.2020
1656 Clear -25 1029 75 0 1.77 151 22:37 02.03.2020
1657 Clear -25 1029 75 0 1.77 151 22:19 02.03.2020
1658 Clear -25 1029 75 0 1.77 151 21:42 02.03.2020
1659 Clear -25 1029 75 0 1.77 151 21:24 02.03.2020
1660 Clear -25 1029 75 0 1.77 151 20:59 02.03.2020
1661 Clear -25 1029 75 0 1.77 151 20:41 02.03.2020
1662 Clear -25 1029 75 0 1.77 151 20:21 02.03.2020
1663 Clear -25 1031 78 0 1.93 152 19:57 02.03.2020
1664 Clear -25 1031 78 0 1.93 152 19:39 02.03.2020
1665 Clear -25 1031 78 0 1.93 152 19:20 02.03.2020
1666 Clear -25 1031 78 0 1.93 152 18:55 02.03.2020
1667 Clear -25 1031 78 0 1.93 152 18:37 02.03.2020
1668 Clear -25 1031 78 0 1.93 152 18:18 02.03.2020
1669 Clear -25 1031 78 0 1.93 152 17:55 02.03.2020
1670 Clear -25 1031 78 0 1.93 152 17:37 02.03.2020
1671 Clear -24 1033 80 0 1.68 154 17:19 02.03.2020
1672 Clear -24 1033 80 0 1.68 154 16:41 02.03.2020
1673 Clear -24 1033 80 0 1.68 154 16:23 02.03.2020
1674 Clear -24 1033 80 0 1.68 154 15:54 02.03.2020
1675 Clear -24 1033 80 0 1.68 154 15:36 02.03.2020
1676 Clear -24 1033 80 0 1.68 154 15:18 02.03.2020
1677 Clear -24 1033 80 0 1.68 154 14:37 02.03.2020
1678 Clear -24 1035 83 0 1.65 173 14:19 02.03.2020
1679 Clear -24 1035 83 0 1.65 173 13:44 02.03.2020
1680 Clear -24 1035 83 0 1.77 178 13:20 02.03.2020
1681 Clear -24 1035 83 0 1.77 178 12:59 02.03.2020
1682 Clear -24 1035 83 0 1.77 178 12:41 02.03.2020
1683 Clear -24 1035 83 0 1.77 178 12:19 02.03.2020
1684 Clear -24 1035 83 0 1.77 178 11:39 02.03.2020
1685 Clear -23 1035 87 0 1.7 169 11:19 02.03.2020
1686 Clear -23 1035 87 0 1.7 169 10:56 02.03.2020
1687 Clear -23 1035 87 0 1.7 169 10:37 02.03.2020
1688 Clear -23 1035 87 0 1.7 169 10:19 02.03.2020
1689 Clear -23 1035 87 0 1.7 169 09:49 02.03.2020
1690 Clear -23 1035 87 0 1.7 169 09:31 02.03.2020
1691 Clear -23 1035 87 0 1.7 169 08:49 02.03.2020
1692 Clear -23 1035 86 0 1.54 173 08:23 02.03.2020
1693 Clear -17 1034 83 0 0.97 202 07:52 02.03.2020
1694 Clear -17 1034 83 0 0.97 202 07:32 02.03.2020
1695 Clear -17 1034 83 0 0.97 202 06:51 02.03.2020
1696 Clear -17 1034 83 0 0.97 202 06:26 02.03.2020
1697 Clear -17 1034 83 0 0.97 202 05:26 02.03.2020
1698 Clear -19 1035 72 0 1.17 216 03:57 02.03.2020
1699 Clear -19 1035 72 0 1.17 216 03:19 02.03.2020
1700 Clear -19 1035 72 0 1.17 216 02:30 02.03.2020
1701 Clear -23 1035 80 0 0.88 205 01:40 02.03.2020
1702 Clear -23 1035 80 0 0.88 205 01:22 02.03.2020
1703 Clouds -24 1035 80 0 0.85 216 00:22 02.03.2020
1704 Clouds -24 1035 80 0 0.85 216 23:56 01.03.2020
1705 Clouds -24 1035 80 0 0.85 216 23:37 01.03.2020
1706 Clear -26 1034 87 0 0.77 194 23:18 01.03.2020
1707 Clear -26 1034 87 0 0.77 194 22:36 01.03.2020
1708 Clear -26 1034 87 0 0.77 194 22:18 01.03.2020
1709 Clear -26 1034 87 0 0.77 194 21:43 01.03.2020
1710 Clear -26 1034 87 0 0.77 194 21:25 01.03.2020
1711 Clear -26 1034 87 0 0.77 194 20:59 01.03.2020
1712 Clear -26 1034 87 0 0.77 194 20:41 01.03.2020
1713 Clear -26 1034 84 0 0.75 209 20:22 01.03.2020
1714 Clouds -26 1032 87 0 0.33 309 19:42 01.03.2020
1715 Clouds -26 1032 87 0 0.33 309 19:23 01.03.2020
1716 Clouds -26 1032 87 0 0.33 309 18:59 01.03.2020
1717 Clouds -26 1032 87 0 0.33 309 18:40 01.03.2020
1718 Clouds -26 1032 87 0 0.33 309 18:19 01.03.2020
1719 Clouds -26 1032 87 0 0.33 309 17:57 01.03.2020
1720 Clouds -26 1032 87 0 0.33 309 17:39 01.03.2020
1721 Clouds -25 1031 86 0 0.49 2 17:20 01.03.2020
1722 Clouds -25 1031 86 0 0.49 2 16:57 01.03.2020
1723 Clouds -25 1031 86 0 0.49 2 16:38 01.03.2020
1724 Clouds -25 1031 86 0 0.49 2 16:18 01.03.2020
1725 Clouds -25 1031 86 0 0.49 2 15:56 01.03.2020
1726 Clouds -25 1031 86 0 0.49 2 15:37 01.03.2020
1727 Clouds -25 1031 86 0 0.49 2 15:19 01.03.2020
1728 Clouds -25 1031 86 0 0.49 2 14:56 01.03.2020
1729 Clouds -25 1031 86 0 0.49 2 14:38 01.03.2020
1730 Clear -24 1030 86 0 0.37 52 14:19 01.03.2020
1731 Clear -24 1030 86 0 0.37 52 13:54 01.03.2020
1732 Clear -24 1030 86 0 0.37 52 13:54 01.03.2020
1733 Clear -24 1030 86 0 0.37 52 13:36 01.03.2020
1734 Clear -25 1029 84 0 0.38 326 13:18 01.03.2020
1735 Clear -24 1029 87 0 0.26 79 12:41 01.03.2020
1736 Clear -25 1029 84 0 0.38 326 12:21 01.03.2020
1737 Clear -25 1029 84 0 0.38 326 11:43 01.03.2020
1738 Clear -25 1029 84 0 0.38 326 11:25 01.03.2020
1739 Clear -23 1028 85 0 0.2 46 10:57 01.03.2020
1740 Clear -23 1027 87 0 0.39 102 10:57 01.03.2020
1741 Clear -23 1027 87 0 0.39 102 10:38 01.03.2020
1742 Clear -23 1027 87 0 0.39 102 10:20 01.03.2020
1743 Clear -23 1027 87 0 0.39 102 09:58 01.03.2020
1744 Clear -23 1027 87 0 0.39 102 09:40 01.03.2020
1745 Clear -23 1027 87 0 0.39 102 09:21 01.03.2020
1746 Clear -23 1027 87 0 0.39 102 08:42 01.03.2020
1747 Clear -23 1028 85 0 0.2 46 08:21 01.03.2020
1748 Clear -17 1026 81 0 0.39 71 07:43 01.03.2020
1749 Clear -17 1026 81 0 0.39 71 07:24 01.03.2020
1750 Clear -17 1026 81 0 0.39 71 06:58 01.03.2020
1751 Clear -17 1026 81 0 0.39 71 06:38 01.03.2020
1752 Clear -18 1027 64 0 0.28 287 04:27 01.03.2020
1753 Clear -18 1027 64 0 0.28 287 02:55 01.03.2020
1754 Clear -22 1027 63 0 0.49 246 01:54 01.03.2020
1755 Clear -22 1027 63 0 0.49 246 01:33 01.03.2020
1756 Clear -22 1027 64 0 0.6 244 00:46 01.03.2020
1757 Clear -22 1027 64 0 0.6 244 00:22 01.03.2020
1758 Clear -22 1027 64 0 0.6 244 23:54 29.02.2020
1759 Clear -22 1027 64 0 0.6 244 23:34 29.02.2020
1760 Clear -24 1027 64 0 0.69 176 22:45 29.02.2020
1761 Clear -24 1027 64 0 0.69 176 22:26 29.02.2020
1762 Clear -24 1027 64 0 0.69 176 21:47 29.02.2020
1763 Clear -24 1027 64 0 0.69 176 21:26 29.02.2020
1764 Clear -24 1027 64 0 0.69 176 20:59 29.02.2020
1765 Clear -24 1027 64 0 0.69 176 20:40 29.02.2020
1766 Clear -24 1027 72 0 0.98 182 20:20 29.02.2020
1767 Clear -24 1027 72 0 0.98 182 19:41 29.02.2020
1768 Clear -24 1027 72 0 0.98 182 19:22 29.02.2020
1769 Clear -24 1027 72 0 0.98 182 18:59 29.02.2020
1770 Clear -24 1027 72 0 0.98 182 18:39 29.02.2020
1771 Clear -24 1027 72 0 0.98 182 18:19 29.02.2020
1772 Clear -24 1027 72 0 0.98 182 17:55 29.02.2020
1773 Clear -24 1027 72 0 0.98 182 17:36 29.02.2020
1774 Clear -23 1027 83 0 0.81 148 17:18 29.02.2020
1775 Clear -23 1027 83 0 0.81 148 16:43 29.02.2020
1776 Clear -23 1027 83 0 0.81 148 16:19 29.02.2020
1777 Clear -23 1027 83 0 0.81 148 15:54 29.02.2020
1778 Clear -23 1027 83 0 0.81 148 15:36 29.02.2020
1779 Clear -23 1027 83 0 0.81 148 15:18 29.02.2020
1780 Clear -23 1027 83 0 0.81 148 14:39 29.02.2020
1781 Clear -23 1028 87 0 0.78 122 14:21 29.02.2020
1782 Clear -23 1028 87 0 0.78 122 13:44 29.02.2020
1783 Clear -23 1028 88 0 0.69 119 13:26 29.02.2020
1784 Clear -23 1028 88 0 0.69 119 12:55 29.02.2020
1785 Clear -23 1028 88 0 0.69 119 12:36 29.02.2020
1786 Clear -23 1028 88 0 0.69 119 12:18 29.02.2020
1787 Clear -23 1028 88 0 0.69 119 11:44 29.02.2020
1788 Clear -23 1028 88 0 0.69 119 11:25 29.02.2020
1789 Clear -22 1028 94 0 0.93 100 10:50 29.02.2020
1790 Clear -22 1028 94 0 0.93 100 10:29 29.02.2020
1791 Clear -22 1028 94 0 0.93 100 09:52 29.02.2020
1792 Clear -22 1028 94 0 0.93 100 09:28 29.02.2020
1793 Clear -22 1028 94 0 0.93 100 08:58 29.02.2020
1794 Clear -22 1028 94 0 0.93 100 08:39 29.02.2020
1795 Clear -16 1028 87 0 1.01 81 08:20 29.02.2020
1796 Clear -16 1029 88 0 0.95 75 07:47 29.02.2020
1797 Clear -16 1029 88 0 0.95 75 07:22 29.02.2020
1798 Clear -16 1029 88 0 0.95 75 06:54 29.02.2020
1799 Clear -16 1029 88 0 0.95 75 06:28 29.02.2020
1800 Clear -16 1029 88 0 0.95 75 05:50 29.02.2020
1801 Clear -16 1029 88 0 0.95 75 05:31 29.02.2020
1802 Clear -17 1030 77 0 0.83 112 03:55 29.02.2020
1803 Clear -17 1030 77 0 0.83 112 03:24 29.02.2020
1804 Clear -17 1030 77 0 0.83 112 02:57 29.02.2020
1805 Clear -22 1032 81 0 0.82 150 01:58 29.02.2020
1806 Clear -22 1032 81 0 0.82 147 00:52 29.02.2020
1807 Clear -22 1032 81 0 0.82 147 00:28 29.02.2020
1808 Clear -22 1032 81 0 0.82 147 23:41 28.02.2020
1809 Clear -22 1032 81 0 0.82 147 23:23 28.02.2020
1810 Clear -22 1032 81 0 0.82 147 23:23 28.02.2020
1811 Clear -22 1032 81 0 0.82 147 23:23 28.02.2020
1812 Clear -24 1032 86 0 1.03 148 22:43 28.02.2020
1813 Clear -24 1032 86 0 1.03 148 22:23 28.02.2020
1814 Clear -24 1032 86 0 1.03 148 21:56 28.02.2020
1815 Clear -24 1032 86 0 1.03 148 21:38 28.02.2020
1816 Clear -24 1032 86 0 1.03 148 21:19 28.02.2020
1817 Clear -24 1032 86 0 1.03 148 20:39 28.02.2020
1818 Clear -23 1033 87 0 1.18 137 20:21 28.02.2020
1819 Clear -23 1033 87 0 1.18 137 19:57 28.02.2020
1820 Clear -23 1033 87 0 1.18 137 19:39 28.02.2020
1821 Clear -23 1033 87 0 1.18 137 19:39 28.02.2020
1822 Clear -23 1033 87 0 1.18 137 19:20 28.02.2020
1823 Clear -23 1033 87 0 1.18 137 18:47 28.02.2020
1824 Clear -23 1033 87 0 1.18 137 18:47 28.02.2020
1825 Clear -23 1033 87 0 1.18 137 18:28 28.02.2020
1826 Clear -23 1033 87 0 1.18 137 17:59 28.02.2020
1827 Clear -23 1033 87 0 1.18 137 17:40 28.02.2020
1828 Clear -23 1033 87 0 1.18 137 17:21 28.02.2020
1829 Clear -22 1033 86 0 1.18 146 16:44 28.02.2020
1830 Clear -22 1033 86 0 1.18 146 16:20 28.02.2020
1831 Clear -22 1033 86 0 1.18 146 15:58 28.02.2020
1832 Clear -22 1033 86 0 1.18 146 15:39 28.02.2020
1833 Clear -22 1033 86 0 1.18 146 15:19 28.02.2020
1834 Clear -22 1033 86 0 1.18 146 14:57 28.02.2020
1835 Clear -22 1033 86 0 1.18 146 14:38 28.02.2020
1836 Clear -21 1034 87 0 1.13 145 14:18 28.02.2020
1837 Clear -21 1034 87 0 1.13 145 13:41 28.02.2020
1838 Clear -21 1034 89 0 1.12 143 13:20 28.02.2020
1839 Clear -21 1034 89 0 1.12 143 12:58 28.02.2020
1840 Clear -21 1034 89 0 1.12 143 12:40 28.02.2020
1841 Clear -21 1034 89 0 1.12 143 12:22 28.02.2020
1842 Clear -21 1034 89 0 1.12 143 11:41 28.02.2020
1843 Clear -21 1034 89 0 1.12 143 11:23 28.02.2020
1844 Clear -20 1033 90 0 1.1 141 10:57 28.02.2020
1845 Clear -20 1033 90 0 1.1 141 10:37 28.02.2020
1846 Clear -20 1033 90 0 1.1 141 10:37 28.02.2020
1847 Clear -20 1033 90 0 1.1 141 10:18 28.02.2020
1848 Clear -20 1033 90 0 1.1 141 09:43 28.02.2020
1849 Clear -20 1033 90 0 1.1 141 09:20 28.02.2020
1850 Clear -20 1033 90 0 1.1 141 08:55 28.02.2020
1851 Clear -20 1033 90 0 1.1 141 08:36 28.02.2020
1852 Clear -14 1032 86 0 0.93 133 08:18 28.02.2020
1853 Clear -14 1032 86 0 0.93 133 07:39 28.02.2020
1854 Clear -14 1032 86 0 0.93 133 07:19 28.02.2020
1855 Clear -14 1032 86 0 0.93 133 06:41 28.02.2020
1856 Clear -14 1032 86 0 0.93 133 05:37 28.02.2020
1857 Clear -15 1032 79 0 0.99 146 04:33 28.02.2020
1858 Clear -15 1032 79 0 0.99 146 03:43 28.02.2020
1859 Clear -15 1032 79 0 0.99 146 02:45 28.02.2020
1860 Clear -20 1032 86 0 0.83 185 02:20 28.02.2020
1861 Clear -20 1031 88 0 0.76 165 00:39 28.02.2020
1862 Clear -20 1031 88 0 0.76 165 00:21 28.02.2020
1863 Clear -20 1031 88 0 0.76 165 23:41 27.02.2020
1864 Clear -20 1031 88 0 0.76 165 23:41 27.02.2020
1865 Clear -22 1030 96 0 0.84 167 23:19 27.02.2020
1866 Clear -22 1030 96 0 0.84 167 22:41 27.02.2020
1867 Clear -22 1030 96 0 0.84 167 22:23 27.02.2020
1868 Clear -22 1030 96 0 0.84 167 21:56 27.02.2020
1869 Clear -22 1030 96 0 0.84 167 21:38 27.02.2020
1870 Clear -22 1030 96 0 0.84 167 21:18 27.02.2020
1871 Clear -22 1030 96 0 0.84 167 20:56 27.02.2020
1872 Clear -22 1030 96 0 0.84 167 20:37 27.02.2020
1873 Clouds -21 1028 97 0 0.47 151 20:19 27.02.2020
1874 Clouds -21 1028 97 0 0.47 151 19:42 27.02.2020
1875 Clouds -21 1028 97 0 0.47 151 19:23 27.02.2020
1876 Clouds -21 1028 97 0 0.47 151 18:58 27.02.2020
1877 Clouds -21 1028 97 0 0.47 151 18:40 27.02.2020
1878 Clouds -21 1028 97 0 0.47 151 18:20 27.02.2020
1879 Clouds -21 1028 97 0 0.47 151 17:56 27.02.2020
1880 Clouds -21 1028 97 0 0.47 151 17:38 27.02.2020
1881 Clouds -21 1027 97 0 0.75 110 17:19 27.02.2020
1882 Clouds -21 1027 97 0 0.75 110 16:55 27.02.2020
1883 Clouds -21 1027 97 0 0.75 110 16:36 27.02.2020
1884 Clouds -21 1027 97 0 0.75 110 16:18 27.02.2020
1885 Clouds -21 1027 97 0 0.75 110 15:54 27.02.2020
1886 Clouds -21 1027 97 0 0.75 110 15:36 27.02.2020
1887 Clouds -21 1027 97 0 0.75 110 15:18 27.02.2020
1888 Clouds -21 1027 97 0 0.75 110 14:40 27.02.2020
1889 Clouds -21 1027 97 0 0.75 110 14:21 27.02.2020
1890 Clouds -20 1026 98 0 0.68 106 13:56 27.02.2020
1891 Clouds -20 1026 98 0 0.68 106 13:37 27.02.2020
1892 Clouds -20 1026 98 0 0.68 106 13:19 27.02.2020
1893 Clouds -21 1025 98 0 0.66 107 12:44 27.02.2020
1894 Clouds -21 1025 98 0 0.66 107 12:20 27.02.2020
1895 Clouds -21 1025 98 0 0.66 107 11:46 27.02.2020
1896 Clouds -21 1025 98 0 0.66 107 11:23 27.02.2020
1897 Clear -19 1024 98 0 0.79 120 10:58 27.02.2020
1898 Clear -19 1024 98 0 0.79 120 10:40 27.02.2020
1899 Clear -19 1024 98 0 0.79 120 10:20 27.02.2020
1900 Clear -19 1024 98 0 0.79 120 09:42 27.02.2020
1901 Clear -19 1024 98 0 0.79 120 09:23 27.02.2020
1902 Clear -19 1024 98 0 0.79 120 08:55 27.02.2020
1903 Clear -19 1024 98 0 0.79 120 08:37 27.02.2020
1904 Clouds -13 1023 86 0 1.33 181 08:18 27.02.2020
1905 Clouds -14 1022 88 0 0.86 131 07:41 27.02.2020
1906 Clouds -14 1022 88 0 0.86 131 07:20 27.02.2020
1907 Clouds -14 1022 88 0 0.86 131 06:21 27.02.2020
1908 Clouds -14 1023 84 0 1.54 144 04:48 27.02.2020
1909 Clouds -14 1023 84 0 1.54 144 02:58 27.02.2020
1910 Clouds -18 1024 89 0 1.47 142 01:32 27.02.2020
1911 Clouds -18 1024 89 0 1.47 142 00:41 27.02.2020
1912 Clouds -18 1024 89 0 1.47 142 23:41 26.02.2020
1913 Clouds -19 1025 92 0 1.41 135 23:23 26.02.2020
1914 Clouds -19 1025 92 0 1.41 135 22:59 26.02.2020
1915 Clouds -19 1025 92 0 1.41 135 22:41 26.02.2020
1916 Clouds -19 1025 92 0 1.41 135 22:22 26.02.2020
1917 Clouds -19 1025 92 0 1.41 135 21:59 26.02.2020
1918 Clouds -19 1025 92 0 1.41 135 21:39 26.02.2020
1919 Clouds -19 1025 92 0 1.41 135 21:20 26.02.2020
1920 Clouds -19 1025 92 0 1.41 135 20:56 26.02.2020
1921 Clouds -19 1025 92 0 1.41 135 20:56 26.02.2020
1922 Clouds -19 1025 92 0 1.41 135 20:38 26.02.2020
1923 Clouds -19 1025 94 0 1.43 152 20:19 26.02.2020
1924 Clouds -21 1025 93 0 1.34 143 19:56 26.02.2020
1925 Clouds -21 1025 93 0 1.34 143 19:37 26.02.2020
1926 Clouds -21 1025 93 0 1.34 143 19:19 26.02.2020
1927 Clouds -21 1025 93 0 1.34 143 18:56 26.02.2020
1928 Clouds -21 1025 93 0 1.34 143 18:37 26.02.2020
1929 Clouds -21 1025 93 0 1.34 143 18:19 26.02.2020
1930 Clouds -21 1025 93 0 1.34 143 17:41 26.02.2020
1931 Clouds -20 1026 94 0 1.18 142 17:19 26.02.2020
1932 Clouds -20 1026 94 0 1.18 142 16:56 26.02.2020
1933 Clouds -20 1026 94 0 1.18 142 16:38 26.02.2020
1934 Clouds -20 1026 94 0 1.18 142 16:20 26.02.2020
1935 Clouds -20 1026 94 0 1.18 142 15:45 26.02.2020
1936 Clouds -20 1026 94 0 1.18 142 15:45 26.02.2020
1937 Clouds -20 1026 94 0 1.18 142 15:27 26.02.2020
1938 Clouds -20 1026 94 0 1.18 142 14:43 26.02.2020
1939 Clouds -20 1026 94 0 1.18 142 14:24 26.02.2020
1940 Clouds -17 1025 89 0 1.18 124 13:58 26.02.2020
1941 Clouds -17 1025 89 0 1.18 124 13:39 26.02.2020
1942 Clouds -17 1025 89 0 1.18 124 13:19 26.02.2020
1943 Clouds -17 1024 89 0 1.18 112 12:39 26.02.2020
1944 Clouds -17 1024 89 0 1.18 112 12:19 26.02.2020
1945 Clouds -17 1024 89 0 1.18 112 11:56 26.02.2020
1946 Clouds -17 1024 89 0 1.18 112 11:37 26.02.2020
1947 Clouds -16 1023 87 0 1.07 141 11:19 26.02.2020
1948 Clouds -16 1023 87 0 1.07 141 10:41 26.02.2020
1949 Clouds -16 1023 87 0 1.07 141 10:22 26.02.2020
1950 Clouds -16 1023 87 0 1.07 141 09:56 26.02.2020
1951 Clouds -16 1023 87 0 1.07 141 09:38 26.02.2020
1952 Clouds -16 1023 87 0 1.07 141 09:18 26.02.2020
1953 Clouds -16 1023 87 0 1.07 141 08:38 26.02.2020
1954 Clouds -13 1020 86 0 1.75 173 08:19 26.02.2020
1955 Clouds -13 1020 86 0 1.75 173 07:50 26.02.2020
1956 Clouds -13 1020 86 0 1.75 173 07:29 26.02.2020
1957 Clouds -13 1020 86 0 1.75 173 06:57 26.02.2020
1958 Clouds -13 1020 86 0 1.75 173 06:39 26.02.2020
1959 Clouds -13 1020 86 0 1.75 173 06:18 26.02.2020
1960 Clouds -13 1020 86 0 1.75 173 05:47 26.02.2020
1961 Clouds -14 1020 89 0 2.64 189 04:49 26.02.2020
1962 Clouds -14 1020 89 0 2.64 189 02:54 26.02.2020
1963 Clouds -18 1021 91 0 1.59 162 01:51 26.02.2020
1964 Clouds -18 1020 92 0 1.72 160 01:21 26.02.2020
1965 Clouds -18 1020 92 0 1.72 160 00:28 26.02.2020
1966 Clouds -18 1020 92 0 1.72 160 00:28 26.02.2020
1967 Clouds -18 1020 92 0 1.72 160 23:59 25.02.2020
1968 Clouds -18 1020 92 0 1.72 160 23:39 25.02.2020
1969 Clouds -18 1020 92 0 1.72 160 23:21 25.02.2020
1970 Snow -19 1020 95 0 1.65 147 22:43 25.02.2020
1971 Snow -19 1020 95 0 1.65 147 22:20 25.02.2020
1972 Snow -19 1020 95 0 1.65 147 21:58 25.02.2020
1973 Snow -19 1020 95 0 1.65 147 21:37 25.02.2020
1974 Snow -19 1020 95 0 1.65 147 21:19 25.02.2020
1975 Snow -19 1020 95 0 1.65 147 20:56 25.02.2020
1976 Snow -19 1020 95 0 1.65 147 20:37 25.02.2020
1977 Clouds -21 1019 85 0 1.91 142 20:19 25.02.2020
1978 Clouds -21 1019 85 0 1.91 142 19:43 25.02.2020
1979 Clouds -21 1019 85 0 1.91 142 19:22 25.02.2020
1980 Clouds -21 1019 85 0 1.91 142 18:58 25.02.2020
1981 Clouds -21 1019 85 0 1.91 142 18:39 25.02.2020
1982 Clouds -21 1019 85 0 1.91 142 18:20 25.02.2020
1983 Clouds -21 1019 85 0 1.91 142 17:55 25.02.2020
1984 Clouds -21 1019 85 0 1.91 142 17:36 25.02.2020
1985 Clouds -22 1019 85 0 1.76 137 17:18 25.02.2020
1986 Clouds -22 1019 85 0 1.76 137 16:55 25.02.2020
1987 Clouds -22 1019 85 0 1.76 137 16:36 25.02.2020
1988 Clouds -22 1019 85 0 1.76 137 16:18 25.02.2020
1989 Clouds -22 1019 85 0 1.76 137 15:44 25.02.2020
1990 Clouds -22 1019 85 0 1.76 137 15:20 25.02.2020
1991 Clouds -22 1019 85 0 1.76 137 14:59 25.02.2020
1992 Clouds -22 1019 85 0 1.76 137 14:39 25.02.2020
1993 Clouds -22 1019 89 0 1.5 108 14:18 25.02.2020
1994 Clouds -22 1019 89 0 1.5 108 13:58 25.02.2020
1995 Clouds -22 1019 89 0 1.5 108 13:39 25.02.2020
1996 Clouds -23 1019 89 0 1.5 102 13:20 25.02.2020
1997 Clouds -23 1019 89 0 1.5 102 12:56 25.02.2020
1998 Clouds -23 1019 89 0 1.5 102 12:37 25.02.2020
1999 Clouds -23 1019 89 0 1.5 102 12:19 25.02.2020
2000 Clouds -23 1019 89 0 1.5 102 11:55 25.02.2020
2001 Clouds -23 1019 89 0 1.5 102 11:37 25.02.2020
2002 Clouds -23 1018 92 0 1.55 87 11:18 25.02.2020
2003 Clouds -23 1018 92 0 1.55 87 10:41 25.02.2020
2004 Clouds -23 1018 92 0 1.55 87 10:23 25.02.2020
2005 Clouds -23 1018 92 0 1.55 87 09:42 25.02.2020
2006 Clouds -23 1018 92 0 1.55 87 09:23 25.02.2020
2007 Clouds -23 1018 92 0 1.55 87 08:58 25.02.2020
2008 Clouds -23 1018 92 0 1.55 87 08:39 25.02.2020
2009 Clouds -23 1018 93 0 1.6 86 08:21 25.02.2020
2010 Clouds -22 1017 90 0 1.59 90 07:48 25.02.2020
2011 Clouds -22 1017 90 0 1.59 90 07:21 25.02.2020
2012 Clouds -22 1017 90 0 1.59 90 06:51 25.02.2020
2013 Clouds -22 1017 90 0 1.59 90 06:51 25.02.2020
2014 Clouds -22 1017 90 0 1.59 90 05:43 25.02.2020
2015 Clouds -24 1018 88 0 1.64 101 03:54 25.02.2020
2016 Clouds -24 1018 88 0 1.64 101 02:32 25.02.2020
2017 Clouds -28 1018 90 0 1.36 106 00:57 25.02.2020
2018 Clouds -28 1018 90 0 1.36 106 00:30 25.02.2020
2019 Clouds -28 1018 90 0 1.36 106 23:47 24.02.2020
2020 Clouds -28 1018 90 0 1.36 106 23:28 24.02.2020
2021 Clouds -30 1018 92 0 1.32 104 22:56 24.02.2020
2022 Clouds -30 1018 92 0 1.32 104 22:36 24.02.2020
2023 Clouds -30 1018 92 0 1.32 104 22:18 24.02.2020
2024 Clouds -30 1018 92 0 1.32 104 21:54 24.02.2020
2025 Clouds -30 1018 92 0 1.32 104 21:36 24.02.2020
2026 Clouds -30 1018 92 0 1.32 104 21:18 24.02.2020
2027 Clouds -30 1018 92 0 1.32 104 20:41 24.02.2020
2028 Clouds -29 1017 88 0 1.15 104 20:20 24.02.2020
2029 Clouds -29 1017 88 0 1.15 104 19:59 24.02.2020
2030 Clouds -29 1017 88 0 1.15 104 19:40 24.02.2020
2031 Clouds -29 1017 88 0 1.15 104 19:22 24.02.2020
2032 Clouds -29 1017 88 0 1.15 104 18:56 24.02.2020
2033 Clouds -29 1017 88 0 1.15 104 18:38 24.02.2020
2034 Clouds -29 1017 88 0 1.15 104 18:19 24.02.2020
2035 Clouds -29 1017 88 0 1.15 104 17:42 24.02.2020
2036 Clouds -29 1017 88 0 1.15 104 17:21 24.02.2020
2037 Clouds -28 1017 87 0 1.35 99 16:59 24.02.2020
2038 Clouds -28 1017 87 0 1.35 99 16:40 24.02.2020
2039 Clouds -28 1017 87 0 1.35 99 16:21 24.02.2020
2040 Clouds -28 1017 87 0 1.35 99 16:21 24.02.2020
2041 Clouds -28 1017 87 0 1.35 99 15:59 24.02.2020
2042 Clouds -28 1017 87 0 1.35 99 15:40 24.02.2020
2043 Clouds -28 1017 87 0 1.35 99 15:22 24.02.2020
2044 Clouds -28 1017 87 0 1.35 99 14:59 24.02.2020
2045 Clouds -28 1017 87 0 1.35 99 14:40 24.02.2020
2046 Clouds -26 1017 89 0 1.21 104 14:19 24.02.2020
2047 Clouds -26 1017 89 0 1.21 104 13:57 24.02.2020
2048 Clouds -26 1017 89 0 1.21 104 13:38 24.02.2020
2049 Clouds -26 1017 89 0 1.21 104 13:20 24.02.2020
2050 Clouds -26 1016 89 0 1.2 97 12:57 24.02.2020
2051 Clouds -26 1016 89 0 1.2 97 12:38 24.02.2020
2052 Clouds -26 1016 89 0 1.2 97 12:19 24.02.2020
2053 Clouds -26 1016 89 0 1.2 97 11:45 24.02.2020
2054 Clouds -26 1016 89 0 1.2 97 11:26 24.02.2020
2055 Clouds -25 1016 90 0 1.06 120 10:45 24.02.2020
2056 Clouds -25 1016 90 0 1.06 120 10:27 24.02.2020
2057 Clouds -25 1016 90 0 1.06 120 09:54 24.02.2020
2058 Clouds -25 1016 90 0 1.06 120 09:36 24.02.2020
2059 Clouds -25 1016 90 0 1.06 120 09:18 24.02.2020
2060 Clouds -25 1016 90 0 1.06 120 08:45 24.02.2020
2061 Clouds -25 1016 90 0 1.06 120 08:27 24.02.2020
2062 Clouds -24 1015 91 0 1.06 188 07:45 24.02.2020
2063 Clouds -24 1015 91 0 1.06 188 07:27 24.02.2020
2064 Clouds -24 1015 91 0 1.06 188 06:37 24.02.2020
2065 Clouds -24 1015 91 0 1.06 188 06:18 24.02.2020
2066 Clouds -24 1015 91 0 1.06 188 05:29 24.02.2020
2067 Clouds -24 1015 91 0 1.65 205 04:25 24.02.2020
2068 Clouds -24 1015 91 0 1.65 205 02:55 24.02.2020
2069 Clouds -29 1015 96 0 1.79 210 01:46 24.02.2020
2070 Clouds -29 1016 97 0 1.81 210 00:59 24.02.2020
2071 Clouds -29 1016 97 0 1.81 210 00:36 24.02.2020
2072 Clouds -29 1016 97 0 1.81 210 00:18 24.02.2020
2073 Clouds -29 1016 97 0 1.81 210 23:41 23.02.2020
2074 Clouds -29 1015 100 0 1.26 236 23:20 23.02.2020
2075 Clouds -29 1015 100 0 1.26 236 22:57 23.02.2020
2076 Clouds -29 1015 100 0 1.26 236 22:39 23.02.2020
2077 Clouds -29 1015 100 0 1.26 236 22:19 23.02.2020
2078 Clouds -29 1015 100 0 1.26 236 21:45 23.02.2020
2079 Clouds -29 1015 100 0 1.26 236 21:20 23.02.2020
2080 Clouds -29 1015 100 0 1.26 236 20:57 23.02.2020
2081 Clouds -29 1015 100 0 1.26 236 20:57 23.02.2020
2082 Clouds -29 1015 100 0 1.26 236 20:57 23.02.2020
2083 Clouds -29 1015 100 0 1.26 236 20:57 23.02.2020
2084 Clouds -29 1015 100 0 1.26 236 20:39 23.02.2020
2085 Clouds -26 1013 100 0 1.03 249 20:20 23.02.2020
2086 Clouds -27 1014 100 0 1.06 250 19:57 23.02.2020
2087 Clouds -27 1014 100 0 1.06 250 19:39 23.02.2020
2088 Clouds -27 1014 100 0 1.06 250 19:19 23.02.2020
2089 Clouds -27 1014 100 0 1.06 250 18:57 23.02.2020
2090 Clouds -27 1014 100 0 1.06 250 18:37 23.02.2020
2091 Clouds -27 1014 100 0 1.06 250 18:18 23.02.2020
2092 Clouds -27 1014 100 0 1.06 250 17:57 23.02.2020
2093 Clouds -27 1014 100 0 1.06 250 17:38 23.02.2020
2094 Clouds -24 1013 99 0 0.67 290 17:19 23.02.2020
2095 Clouds -24 1013 99 0 0.67 290 16:46 23.02.2020
2096 Clouds -24 1013 99 0 0.67 290 16:27 23.02.2020
2097 Clouds -24 1013 99 0 0.67 290 15:59 23.02.2020
2098 Clouds -24 1013 99 0 0.67 290 15:39 23.02.2020
2099 Clouds -24 1013 99 0 0.67 290 15:20 23.02.2020
2100 Clouds -24 1013 99 0 0.67 290 14:58 23.02.2020
2101 Clouds -24 1013 99 0 0.67 290 14:40 23.02.2020
2102 Clouds -24 1013 99 0 0.67 290 14:21 23.02.2020
2103 Snow -23 1012 99 0 0.36 1 13:57 23.02.2020
2104 Snow -23 1012 99 0 0.36 1 13:38 23.02.2020
2105 Snow -23 1012 99 0 0.12 313 13:20 23.02.2020
2106 Snow -23 1012 99 0 0.12 313 12:42 23.02.2020
2107 Snow -23 1012 99 0 0.12 313 12:22 23.02.2020
2108 Snow -23 1012 99 0 0.12 313 11:56 23.02.2020
2109 Snow -23 1012 99 0 0.12 313 11:37 23.02.2020
2110 Snow -23 1012 99 0 0.19 353 11:18 23.02.2020
2111 Snow -23 1012 99 0 0.19 353 11:18 23.02.2020
2112 Snow -23 1012 99 0 0.19 353 10:42 23.02.2020
2113 Snow -23 1012 99 0 0.19 353 10:24 23.02.2020
2114 Snow -23 1012 99 0 0.19 353 10:00 23.02.2020
2115 Snow -23 1012 99 0 0.19 353 09:39 23.02.2020
2116 Snow -23 1012 99 0 0.19 353 09:21 23.02.2020
2117 Snow -23 1012 99 0 0.19 353 08:56 23.02.2020
2118 Snow -23 1012 99 0 0.19 353 08:36 23.02.2020
2119 Snow -21 1010 95 0 0.48 183 08:18 23.02.2020
2120 Clouds -21 1011 93 0 0.64 185 07:40 23.02.2020
2121 Clouds -21 1011 93 0 0.64 185 06:39 23.02.2020
2122 Clouds -21 1011 93 0 0.64 185 05:48 23.02.2020
2123 Clouds -22 1012 94 0 1.03 229 04:42 23.02.2020
2124 Clouds -22 1012 94 0 1.03 229 04:42 23.02.2020
2125 Clouds -22 1012 94 0 1.03 229 03:21 23.02.2020
2126 Clouds -22 1012 94 0 1.03 229 02:27 23.02.2020
2127 Clouds -25 1012 99 0 0.81 224 01:25 23.02.2020
2128 Clouds -25 1012 99 0 0.75 233 00:48 23.02.2020
2129 Clouds -25 1012 99 0 0.75 233 00:26 23.02.2020
2130 Clouds -25 1012 99 0 0.75 233 23:47 22.02.2020
2131 Clouds -25 1012 99 0 0.75 233 23:29 22.02.2020
2132 Clouds -25 1012 100 0 0.7 242 22:59 22.02.2020
2133 Clouds -25 1012 100 0 0.7 242 22:39 22.02.2020
2134 Clouds -25 1012 100 0 0.7 242 22:18 22.02.2020
2135 Clouds -25 1012 100 0 0.7 242 21:41 22.02.2020
2136 Clouds -25 1012 100 0 0.7 242 21:23 22.02.2020
2137 Clouds -25 1012 100 0 0.7 242 20:46 22.02.2020
2138 Clouds -25 1012 100 0 0.7 242 20:46 22.02.2020
2139 Clouds -25 1012 100 0 0.7 242 20:25 22.02.2020
2140 Clouds -25 1012 100 0 0.7 242 20:25 22.02.2020
2141 Clouds -24 1011 100 0 0.87 266 19:58 22.02.2020
2142 Clouds -24 1011 100 0 0.87 266 19:39 22.02.2020
2143 Clouds -24 1011 100 0 0.87 266 19:20 22.02.2020
2144 Clouds -24 1011 100 0 0.87 266 18:40 22.02.2020
2145 Clouds -24 1011 100 0 0.87 266 18:22 22.02.2020
2146 Clouds -24 1011 100 0 0.87 266 17:58 22.02.2020
2147 Clouds -24 1011 100 0 0.87 266 17:39 22.02.2020
2148 Clouds -24 1011 100 0 0.87 266 17:21 22.02.2020
2149 Clouds -23 1011 100 0 0.68 302 16:57 22.02.2020
2150 Clouds -23 1011 100 0 0.68 302 16:39 22.02.2020
2151 Clouds -23 1011 100 0 0.68 302 16:20 22.02.2020
2152 Clouds -23 1011 100 0 0.68 302 15:44 22.02.2020
2153 Clouds -23 1011 100 0 0.68 302 15:44 22.02.2020
2154 Clouds -23 1011 100 0 0.68 302 15:25 22.02.2020
2155 Clouds -23 1011 100 0 0.68 302 14:56 22.02.2020
2156 Clouds -23 1011 100 0 0.68 302 14:37 22.02.2020
2157 Snow -21 1010 99 0 0.6 312 14:18 22.02.2020
2158 Snow -21 1010 99 0 0.6 312 13:41 22.02.2020
2159 Clouds -21 1010 99 0 0.43 329 13:19 22.02.2020
2160 Clouds -21 1010 99 0 0.43 329 12:47 22.02.2020
2161 Clouds -21 1010 99 0 0.43 329 12:24 22.02.2020
2162 Clouds -21 1010 99 0 0.43 329 11:56 22.02.2020
2163 Clouds -21 1010 99 0 0.43 329 11:37 22.02.2020
2164 Snow -20 1009 99 0 0.47 46 11:18 22.02.2020
2165 Snow -20 1009 99 0 0.47 46 10:41 22.02.2020
2166 Snow -20 1009 99 0 0.47 46 10:20 22.02.2020
2167 Snow -20 1009 99 0 0.47 46 09:59 22.02.2020
2168 Snow -20 1009 99 0 0.47 46 09:39 22.02.2020
2169 Snow -20 1009 99 0 0.47 46 09:21 22.02.2020
2170 Snow -20 1009 99 0 0.47 46 08:51 22.02.2020
2171 Snow -20 1009 99 0 0.47 46 08:28 22.02.2020
2172 Snow -18 1008 94 0 0.47 126 07:54 22.02.2020
2173 Snow -18 1008 94 0 0.47 126 07:20 22.02.2020
2174 Snow -18 1008 94 0 0.47 126 06:53 22.02.2020
2175 Snow -18 1008 94 0 0.47 126 06:34 22.02.2020
2176 Clouds -19 1009 90 0 1.12 133 04:44 22.02.2020
2177 Clouds -19 1009 90 0 1.12 133 03:45 22.02.2020
2178 Clouds -19 1009 90 0 1.12 133 02:34 22.02.2020
2179 Clouds -20 1009 95 0 1.21 141 01:47 22.02.2020
2180 Clouds -20 1009 95 0 1.21 141 01:28 22.02.2020
2181 Snow -20 1009 97 0 1.2 145 00:46 22.02.2020
2182 Snow -20 1009 97 0 1.2 145 00:28 22.02.2020
2183 Snow -20 1009 97 0 1.2 145 23:52 21.02.2020
2184 Snow -20 1009 97 0 1.2 145 23:25 21.02.2020
2185 Clouds -21 1009 92 0 1.32 135 22:59 21.02.2020
2186 Clouds -21 1009 92 0 1.32 135 22:40 21.02.2020
2187 Clouds -21 1009 92 0 1.32 135 22:21 21.02.2020
2188 Clouds -21 1009 92 0 1.32 135 21:42 21.02.2020
2189 Clouds -21 1009 92 0 1.32 135 21:24 21.02.2020
2190 Clouds -21 1009 92 0 1.32 135 20:58 21.02.2020
2191 Clouds -21 1009 92 0 1.32 135 20:38 21.02.2020
2192 Clouds -21 1009 92 0 1.35 119 20:19 21.02.2020
2193 Clouds -21 1009 92 0 1.35 119 19:39 21.02.2020
2194 Clouds -21 1009 92 0 1.35 119 19:19 21.02.2020
2195 Clouds -21 1009 92 0 1.35 119 18:43 21.02.2020
2196 Clouds -21 1009 92 0 1.35 119 18:23 21.02.2020
2197 Clouds -21 1009 92 0 1.35 119 17:57 21.02.2020
2198 Clouds -21 1009 92 0 1.35 119 17:37 21.02.2020
2199 Clouds -21 1010 93 0 1.44 110 17:19 21.02.2020
2200 Clouds -21 1010 93 0 1.44 110 16:44 21.02.2020
2201 Clouds -21 1010 93 0 1.44 110 16:22 21.02.2020
2202 Clouds -21 1010 93 0 1.44 110 15:59 21.02.2020
2203 Clouds -21 1010 93 0 1.44 110 15:38 21.02.2020
2204 Clouds -21 1010 93 0 1.44 110 15:18 21.02.2020
2205 Clouds -21 1010 93 0 1.44 110 14:42 21.02.2020
2206 Clouds -21 1010 93 0 1.44 110 14:22 21.02.2020
2207 Clouds -20 1010 93 0 1.6 105 13:59 21.02.2020
2208 Clouds -20 1010 93 0 1.6 105 13:39 21.02.2020
2209 Clouds -20 1010 93 0 1.6 105 13:20 21.02.2020
2210 Clouds -21 1010 94 0 1.56 98 12:45 21.02.2020
2211 Clouds -21 1010 94 0 1.56 98 12:27 21.02.2020
2212 Clouds -21 1010 94 0 1.56 98 11:57 21.02.2020
2213 Clouds -21 1010 94 0 1.56 98 11:38 21.02.2020
2214 Clouds -20 1011 95 0 1.79 100 11:20 21.02.2020
2215 Clouds -20 1011 95 0 1.79 100 10:42 21.02.2020
2216 Clouds -20 1011 95 0 1.79 100 10:22 21.02.2020
2217 Clouds -20 1011 95 0 1.79 100 09:58 21.02.2020
2218 Clouds -20 1011 95 0 1.79 100 09:40 21.02.2020
2219 Clouds -20 1011 95 0 1.79 100 09:22 21.02.2020
2220 Clouds -20 1011 95 0 1.79 100 08:56 21.02.2020
2221 Clouds -20 1011 95 0 1.79 100 08:37 21.02.2020
2222 Clouds -19 1011 96 0 1.72 89 08:18 21.02.2020
2223 Clouds -18 1011 95 0 1.76 93 07:43 21.02.2020
2224 Clouds -18 1011 95 0 1.76 93 07:22 21.02.2020
2225 Clouds -18 1011 95 0 1.76 93 06:57 21.02.2020
2226 Clouds -18 1011 95 0 1.76 93 06:33 21.02.2020
2227 Clouds -18 1011 95 0 1.76 93 05:58 21.02.2020
2228 Clouds -18 1011 95 0 1.76 93 05:31 21.02.2020
2229 Clouds -20 1012 88 0 1.77 93 04:26 21.02.2020
2230 Clouds -20 1012 88 0 1.77 93 03:52 21.02.2020
2231 Clouds -20 1012 88 0 1.77 93 02:59 21.02.2020
2232 Clouds -23 1014 86 0 1.72 93 01:44 21.02.2020
2233 Clouds -23 1014 85 0 1.69 94 01:22 21.02.2020
2234 Clouds -23 1014 85 0 1.69 94 00:39 21.02.2020
2235 Clouds -23 1014 85 0 1.69 94 00:20 21.02.2020
2236 Clouds -23 1014 85 0 1.69 94 23:42 20.02.2020
2237 Clouds -23 1014 85 0 1.69 94 23:22 20.02.2020
2238 Clouds -24 1015 83 0 1.63 107 22:42 20.02.2020
2239 Clouds -24 1015 83 0 1.63 107 22:24 20.02.2020
2240 Clouds -24 1015 83 0 1.63 107 21:58 20.02.2020
2241 Clouds -24 1015 83 0 1.63 107 21:40 20.02.2020
2242 Clouds -24 1015 83 0 1.63 107 21:20 20.02.2020
2243 Clouds -24 1015 83 0 1.63 107 21:20 20.02.2020
2244 Clouds -24 1015 83 0 1.63 107 20:57 20.02.2020
2245 Clouds -24 1015 83 0 1.63 107 20:39 20.02.2020
2246 Clouds -25 1016 82 0 1.59 109 20:20 20.02.2020
2247 Clouds -25 1016 82 0 1.59 109 19:59 20.02.2020
2248 Clouds -25 1016 82 0 1.59 109 19:41 20.02.2020
2249 Clouds -25 1016 82 0 1.59 109 19:23 20.02.2020
2250 Clouds -25 1016 82 0 1.59 109 18:58 20.02.2020
2251 Clouds -25 1016 82 0 1.59 109 18:37 20.02.2020
2252 Clouds -25 1016 82 0 1.59 109 18:19 20.02.2020
2253 Clouds -25 1016 82 0 1.59 109 17:39 20.02.2020
2254 Clouds -27 1017 80 0 1.44 115 17:20 20.02.2020
2255 Clouds -27 1017 80 0 1.44 115 16:58 20.02.2020
2256 Clouds -27 1017 80 0 1.44 115 16:39 20.02.2020
2257 Clouds -27 1017 80 0 1.44 115 16:19 20.02.2020
2258 Clouds -27 1017 80 0 1.44 115 15:56 20.02.2020
2259 Clouds -27 1017 80 0 1.44 115 15:37 20.02.2020
2260 Clouds -27 1017 80 0 1.44 115 15:19 20.02.2020
2261 Clouds -27 1017 80 0 1.44 115 14:44 20.02.2020
2262 Clouds -27 1017 80 0 1.44 115 14:25 20.02.2020
2263 Clouds -25 1018 81 0 1.52 113 13:59 20.02.2020
2264 Clouds -25 1018 81 0 1.52 113 13:41 20.02.2020
2265 Clouds -25 1018 81 0 1.52 113 13:19 20.02.2020
2266 Clouds -25 1018 82 0 1.48 113 12:43 20.02.2020
2267 Clouds -25 1018 82 0 1.48 113 12:21 20.02.2020
2268 Clouds -25 1018 82 0 1.48 113 11:59 20.02.2020
2269 Clouds -25 1018 82 0 1.48 113 11:41 20.02.2020
2270 Clouds -25 1018 82 0 1.48 113 11:41 20.02.2020
2271 Clouds -25 1018 82 0 1.48 113 11:22 20.02.2020
2272 Clouds -26 1019 83 0 1.48 114 10:57 20.02.2020
2273 Clouds -26 1019 83 0 1.48 114 10:38 20.02.2020
2274 Clouds -26 1019 83 0 1.48 114 10:20 20.02.2020
2275 Clouds -26 1019 83 0 1.48 114 09:44 20.02.2020
2276 Clouds -26 1019 83 0 1.48 114 09:24 20.02.2020
2277 Clouds -26 1019 83 0 1.48 114 09:24 20.02.2020
2278 Clouds -26 1019 83 0 1.48 114 08:57 20.02.2020
2279 Clouds -26 1019 83 0 1.48 114 08:38 20.02.2020
2280 Clouds -25 1019 85 0 1.22 102 08:19 20.02.2020
2281 Clouds -25 1019 85 0 1.22 102 07:45 20.02.2020
2282 Clouds -25 1019 85 0 1.22 102 07:21 20.02.2020
2283 Clouds -25 1019 85 0 1.22 102 06:44 20.02.2020
2284 Clouds -25 1019 85 0 1.22 102 06:26 20.02.2020
2285 Clouds -25 1019 85 0 1.22 102 05:45 20.02.2020
2286 Clouds -24 1020 78 0 1.02 117 04:51 20.02.2020
2287 Clouds -24 1020 78 0 1.02 117 03:58 20.02.2020
2288 Clouds -24 1020 78 0 1.02 117 03:28 20.02.2020
2289 Clouds -24 1020 78 0 1.02 117 02:25 20.02.2020
2290 Clouds -28 1021 80 0 1.12 132 00:59 20.02.2020
2291 Clouds -28 1021 80 0 1.12 132 00:32 20.02.2020
2292 Clouds -28 1021 80 0 1.12 132 23:49 19.02.2020
2293 Clouds -28 1021 80 0 1.12 132 23:49 19.02.2020
2294 Clouds -28 1021 80 0 1.12 132 23:22 19.02.2020
2295 Clouds -30 1021 82 0 1.07 140 22:47 19.02.2020
2296 Clouds -30 1021 82 0 1.07 140 22:28 19.02.2020
2297 Clouds -30 1021 82 0 1.07 140 21:59 19.02.2020
2298 Clouds -30 1021 82 0 1.07 140 21:41 19.02.2020
2299 Clouds -30 1021 82 0 1.07 140 21:19 19.02.2020
2300 Clouds -30 1021 82 0 1.07 140 20:58 19.02.2020
2301 Clouds -30 1021 82 0 1.07 140 20:39 19.02.2020
2302 Clouds -29 1022 84 0 1.02 128 20:20 19.02.2020
2303 Clouds -29 1022 84 0 1.02 128 20:20 19.02.2020
2304 Clouds -29 1022 84 0 1.02 128 19:59 19.02.2020
2305 Clouds -29 1022 84 0 1.02 128 19:39 19.02.2020
2306 Clouds -29 1022 84 0 1.02 128 19:20 19.02.2020
2307 Clouds -29 1022 84 0 1.02 128 18:59 19.02.2020
2308 Clouds -29 1022 84 0 1.02 128 18:40 19.02.2020
2309 Clouds -29 1022 84 0 1.02 128 18:22 19.02.2020
2310 Clouds -29 1022 84 0 1.02 128 17:59 19.02.2020
2311 Clouds -29 1022 84 0 1.02 128 17:41 19.02.2020
2312 Clouds -28 1023 86 0 1.18 131 17:19 19.02.2020
2313 Clouds -28 1023 86 0 1.18 131 16:43 19.02.2020
2314 Clouds -28 1023 86 0 1.18 131 16:19 19.02.2020
2315 Clouds -28 1023 86 0 1.18 131 15:57 19.02.2020
2316 Clouds -28 1023 86 0 1.18 131 15:38 19.02.2020
2317 Clouds -28 1023 86 0 1.18 131 15:20 19.02.2020
2318 Clouds -28 1023 86 0 1.18 131 14:41 19.02.2020
2319 Clouds -28 1023 86 0 1.18 131 14:23 19.02.2020
2320 Clouds -28 1024 87 0 1.27 124 13:59 19.02.2020
2321 Clouds -28 1024 87 0 1.27 124 13:39 19.02.2020
2322 Clouds -28 1024 87 0 1.27 124 13:18 19.02.2020
2323 Clouds -27 1023 88 0 1.16 119 12:39 19.02.2020
2324 Clouds -27 1023 88 0 1.16 119 12:19 19.02.2020
2325 Clouds -27 1023 88 0 1.16 119 11:55 19.02.2020
2326 Clouds -27 1023 88 0 1.16 119 11:37 19.02.2020
2327 Clouds -27 1024 90 0 1.12 114 11:18 19.02.2020
2328 Clouds -27 1024 90 0 1.12 114 10:56 19.02.2020
2329 Clouds -27 1024 90 0 1.12 114 10:37 19.02.2020
2330 Clouds -27 1024 90 0 1.12 114 10:19 19.02.2020
2331 Clouds -27 1024 90 0 1.12 114 09:56 19.02.2020
2332 Clouds -27 1024 90 0 1.12 114 09:37 19.02.2020
2333 Clouds -27 1024 90 0 1.12 114 09:18 19.02.2020
2334 Clouds -27 1024 90 0 1.12 114 08:42 19.02.2020
2335 Clouds -27 1024 90 0 1.16 126 08:23 19.02.2020
2336 Clouds -25 1023 89 0 0.98 114 07:41 19.02.2020
2337 Clouds -25 1023 89 0 0.98 114 07:20 19.02.2020
2338 Clouds -25 1023 89 0 0.98 114 06:47 19.02.2020
2339 Clouds -25 1023 89 0 0.98 114 06:19 19.02.2020
2340 Clouds -24 1024 86 0 1.09 166 04:18 19.02.2020
2341 Clouds -24 1024 86 0 1.09 166 02:52 19.02.2020
2342 Clouds -24 1024 86 0 1.09 166 02:29 19.02.2020
2343 Clouds -28 1026 90 0 1.55 183 01:23 19.02.2020
2344 Clouds -27 1026 91 0 1.43 181 00:47 19.02.2020
2345 Clouds -27 1026 91 0 1.43 181 00:29 19.02.2020
2346 Clouds -27 1026 91 0 1.43 181 23:42 18.02.2020
2347 Clouds -28 1025 95 0 1.16 188 23:20 18.02.2020
2348 Clouds -28 1025 95 0 1.16 188 22:57 18.02.2020
2349 Clouds -28 1025 95 0 1.16 188 22:39 18.02.2020
2350 Clouds -28 1025 95 0 1.16 188 22:19 18.02.2020
2351 Clouds -28 1025 95 0 1.16 188 21:55 18.02.2020
2352 Clouds -28 1025 95 0 1.16 188 21:55 18.02.2020
2353 Clouds -28 1025 95 0 1.16 188 21:37 18.02.2020
2354 Clouds -28 1025 95 0 1.16 188 21:37 18.02.2020
2355 Clouds -28 1025 95 0 1.16 188 21:18 18.02.2020
2356 Clouds -28 1025 95 0 1.16 188 20:56 18.02.2020
2357 Clouds -28 1025 95 0 1.16 188 20:56 18.02.2020
2358 Clouds -28 1025 95 0 1.16 188 20:38 18.02.2020
2359 Clouds -28 1025 95 0 1.16 188 20:38 18.02.2020
2360 Clouds -27 1025 97 0 1.37 187 20:20 18.02.2020
2361 Clouds -27 1025 97 0 1.37 187 19:43 18.02.2020
2362 Clouds -27 1025 97 0 1.37 187 19:20 18.02.2020
2363 Clouds -27 1025 97 0 1.37 187 18:59 18.02.2020
2364 Clouds -27 1025 97 0 1.37 187 18:41 18.02.2020
2365 Clouds -27 1025 97 0 1.37 187 18:20 18.02.2020
2366 Clouds -27 1025 97 0 1.37 187 18:20 18.02.2020
2367 Clouds -27 1025 97 0 1.37 187 17:56 18.02.2020
2368 Clouds -27 1025 97 0 1.37 187 17:37 18.02.2020
2369 Clouds -26 1025 97 0 1.45 185 17:18 18.02.2020
2370 Clouds -26 1025 97 0 1.45 185 16:39 18.02.2020
2371 Clouds -26 1025 97 0 1.45 185 16:20 18.02.2020
2372 Clouds -26 1025 97 0 1.45 185 15:41 18.02.2020
2373 Clouds -26 1025 97 0 1.45 185 15:20 18.02.2020
2374 Clouds -26 1025 97 0 1.45 185 14:57 18.02.2020
2375 Clouds -26 1025 97 0 1.45 185 14:39 18.02.2020
2376 Clouds -24 1026 96 0 1.16 187 14:20 18.02.2020
2377 Clouds -24 1026 96 0 1.16 187 13:56 18.02.2020
2378 Clouds -24 1026 96 0 1.16 187 13:37 18.02.2020
2379 Clouds -24 1026 96 0 1.16 187 13:37 18.02.2020
2380 Clouds -26 1025 99 0 1.19 186 13:19 18.02.2020
2381 Clouds -26 1025 99 0 1.19 186 12:42 18.02.2020
2382 Clouds -26 1025 99 0 1.19 186 12:23 18.02.2020
2383 Clouds -26 1025 99 0 1.19 186 11:56 18.02.2020
2384 Clouds -26 1025 99 0 1.19 186 11:37 18.02.2020
2385 Clouds -25 1024 99 0 0.86 189 11:18 18.02.2020
2386 Clouds -25 1024 99 0 0.86 189 10:42 18.02.2020
2387 Clouds -25 1024 99 0 0.86 189 10:22 18.02.2020
2388 Clouds -25 1024 99 0 0.86 189 09:56 18.02.2020
2389 Clouds -25 1024 99 0 0.86 189 09:38 18.02.2020
2390 Clouds -25 1024 99 0 0.86 189 09:19 18.02.2020
2391 Clouds -25 1024 99 0 0.86 189 08:54 18.02.2020
2392 Clouds -25 1024 99 0 0.86 189 08:36 18.02.2020
2393 Clouds -20 1023 95 0 0.54 183 08:18 18.02.2020
2394 Clouds -20 1023 95 0 0.54 183 07:42 18.02.2020
2395 Clouds -20 1023 95 0 0.54 183 07:23 18.02.2020
2396 Clouds -20 1023 95 0 0.54 183 06:48 18.02.2020
2397 Clouds -20 1023 95 0 0.54 183 06:27 18.02.2020
2398 Clouds -20 1023 95 0 0.54 183 05:47 18.02.2020
2399 Snow -20 1023 94 0 0.6 240 04:52 18.02.2020
2400 Snow -20 1023 94 0 0.6 240 03:41 18.02.2020
2401 Snow -20 1023 94 0 0.6 240 02:58 18.02.2020
2402 Snow -22 1023 98 0 0.26 197 01:25 18.02.2020
2403 Snow -22 1023 98 0 0.26 197 00:22 18.02.2020
2404 Snow -22 1023 98 0 0.26 197 23:59 17.02.2020
2405 Snow -22 1023 98 0 0.26 197 23:39 17.02.2020
2406 Snow -22 1022 99 0 0.17 333 23:19 17.02.2020
2407 Snow -22 1022 99 0 0.17 333 22:57 17.02.2020
2408 Snow -22 1022 99 0 0.17 333 22:38 17.02.2020
2409 Snow -22 1022 99 0 0.17 333 22:18 17.02.2020
2410 Snow -22 1022 99 0 0.17 333 21:39 17.02.2020
2411 Snow -22 1022 99 0 0.17 333 21:19 17.02.2020
2412 Snow -22 1022 99 0 0.17 333 20:55 17.02.2020
2413 Snow -22 1022 99 0 0.17 333 20:37 17.02.2020
2414 Snow -22 1022 98 0 0.48 51 20:18 17.02.2020
2415 Snow -22 1022 98 0 0.48 51 20:18 17.02.2020
2416 Snow -22 1022 98 0 0.48 51 19:42 17.02.2020
2417 Snow -22 1022 98 0 0.48 51 19:21 17.02.2020
2418 Snow -22 1022 98 0 0.48 51 18:55 17.02.2020
2419 Snow -22 1022 98 0 0.48 51 18:36 17.02.2020
2420 Snow -22 1022 98 0 0.48 51 18:36 17.02.2020
2421 Snow -22 1022 98 0 0.48 51 18:36 17.02.2020
2422 Snow -22 1022 98 0 0.48 51 18:36 17.02.2020
2423 Snow -22 1022 98 0 0.48 51 18:18 17.02.2020
2424 Snow -22 1022 98 0 0.48 51 17:38 17.02.2020
2425 Snow -22 1021 99 0 0.6 48 17:19 17.02.2020
2426 Snow -22 1021 99 0 0.6 48 16:58 17.02.2020
2427 Snow -22 1021 99 0 0.6 48 16:40 17.02.2020
2428 Snow -22 1021 99 0 0.6 48 16:22 17.02.2020
2429 Snow -22 1021 99 0 0.6 48 15:46 17.02.2020
2430 Snow -22 1021 99 0 0.6 48 15:28 17.02.2020
2431 Snow -22 1021 99 0 0.6 48 14:59 17.02.2020
2432 Snow -22 1021 99 0 0.6 48 14:40 17.02.2020
2433 Snow -22 1021 99 0 0.6 48 14:22 17.02.2020
2434 Snow -22 1021 99 0 0.6 48 14:22 17.02.2020
2435 Snow -22 1021 99 0 0.76 34 13:57 17.02.2020
2436 Snow -22 1021 99 0 0.76 34 13:57 17.02.2020
2437 -273 0 0 0 0 0 13:38 17.02.2020
2438 Snow -22 1021 99 0 0.76 34 13:38 17.02.2020
2439 Snow -21 1021 99 0 0.78 39 13:18 17.02.2020
2440 Snow -21 1021 99 0 0.78 39 12:43 17.02.2020
2441 Snow -21 1021 99 0 0.78 39 12:24 17.02.2020
2442 Snow -21 1021 99 0 0.78 39 11:58 17.02.2020
2443 Snow -21 1021 99 0 0.78 39 11:39 17.02.2020
2444 Snow -21 1020 98 0 0.72 60 11:20 17.02.2020
2445 Snow -21 1020 98 0 0.72 60 10:54 17.02.2020
2446 Snow -21 1020 98 0 0.72 60 10:36 17.02.2020
2447 Snow -21 1020 98 0 0.72 60 10:18 17.02.2020
2448 Snow -21 1020 98 0 0.72 60 09:41 17.02.2020
2449 Snow -21 1020 98 0 0.72 60 09:21 17.02.2020
2450 Snow -21 1020 98 0 0.72 60 08:58 17.02.2020
2451 Snow -21 1020 98 0 0.72 60 08:39 17.02.2020
2452 Snow -20 1019 97 0 0.94 28 08:20 17.02.2020
2453 Snow -20 1019 97 0 0.94 28 07:44 17.02.2020
2454 Snow -20 1019 97 0 0.94 28 07:24 17.02.2020
2455 Snow -20 1019 97 0 0.94 28 06:52 17.02.2020
2456 Snow -20 1019 97 0 0.94 28 06:32 17.02.2020
2457 Snow -20 1019 97 0 0.94 28 05:56 17.02.2020
2458 Snow -20 1019 97 0 0.94 28 05:37 17.02.2020
2459 Snow -21 1018 96 0 1.08 58 03:21 17.02.2020
2460 Snow -23 1019 98 0 0.96 68 01:49 17.02.2020
2461 Snow -23 1019 98 0 0.93 66 00:48 17.02.2020
2462 Snow -23 1019 98 0 0.93 66 00:21 17.02.2020
2463 Snow -23 1019 98 0 0.93 66 00:21 17.02.2020
2464 Snow -23 1019 98 0 0.93 66 23:53 16.02.2020
2465 Snow -23 1019 98 0 0.93 66 23:30 16.02.2020
2466 Clouds -24 1018 91 0 1.05 61 22:57 16.02.2020
2467 Clouds -24 1018 91 0 1.05 61 22:39 16.02.2020
2468 Clouds -24 1018 91 0 1.05 61 22:21 16.02.2020
2469 Clouds -24 1018 91 0 1.05 61 21:57 16.02.2020
2470 Clouds -24 1018 91 0 1.05 61 21:57 16.02.2020
2471 Clouds -24 1018 91 0 1.05 61 21:39 16.02.2020
2472 Clouds -24 1018 91 0 1.05 61 21:21 16.02.2020
2473 Clouds -24 1018 91 0 1.05 61 20:57 16.02.2020
2474 Clouds -24 1018 91 0 1.05 61 20:38 16.02.2020
2475 Clouds -25 1018 82 0 0.85 76 20:20 16.02.2020
2476 Clouds -25 1018 82 0 0.85 76 20:20 16.02.2020
2477 Clouds -25 1018 82 0 0.85 76 19:58 16.02.2020
2478 Clouds -25 1018 82 0 0.85 76 19:38 16.02.2020
2479 Clouds -25 1018 82 0 0.85 76 19:18 16.02.2020
2480 Clouds -25 1018 82 0 0.85 76 18:43 16.02.2020
2481 Clouds -25 1018 82 0 0.85 76 18:23 16.02.2020
2482 Clouds -25 1018 82 0 0.85 76 17:55 16.02.2020
2483 Clouds -25 1018 82 0 0.85 76 17:36 16.02.2020
2484 Clouds -29 1019 78 0 1.18 64 17:18 16.02.2020
2485 Clouds -29 1019 78 0 1.18 64 17:18 16.02.2020
2486 Clouds -29 1019 78 0 1.18 64 16:54 16.02.2020
2487 Clouds -29 1019 78 0 1.18 64 16:36 16.02.2020
2488 Clouds -29 1019 78 0 1.18 64 16:18 16.02.2020
2489 Clouds -29 1019 78 0 1.18 64 15:41 16.02.2020
2490 Clouds -29 1019 78 0 1.18 64 15:21 16.02.2020
2491 Clouds -29 1019 78 0 1.18 64 14:44 16.02.2020
2492 Clouds -29 1019 78 0 1.18 64 14:24 16.02.2020
2493 Clouds -29 1021 77 0 1.34 68 13:59 16.02.2020
2494 Clouds -29 1021 77 0 1.34 68 13:41 16.02.2020
2495 Clouds -29 1021 77 0 1.34 68 13:22 16.02.2020
2496 Clouds -29 1021 78 0 1.29 63 12:39 16.02.2020
2497 Clouds -29 1021 78 0 1.29 63 12:19 16.02.2020
2498 Clouds -29 1021 78 0 1.29 63 11:41 16.02.2020
2499 Clouds -29 1022 81 0 1.57 68 11:20 16.02.2020
2500 Clouds -29 1022 81 0 1.57 68 10:59 16.02.2020
2501 Clouds -29 1022 81 0 1.57 68 10:41 16.02.2020
2502 Clouds -29 1022 81 0 1.57 68 10:22 16.02.2020
2503 Clouds -29 1022 81 0 1.57 68 09:59 16.02.2020
2504 Clouds -29 1022 81 0 1.57 68 09:38 16.02.2020
2505 Clouds -29 1022 81 0 1.57 68 09:38 16.02.2020
2506 Clouds -29 1022 81 0 1.57 68 09:38 16.02.2020
2507 Clouds -29 1022 81 0 1.57 68 09:38 16.02.2020
2508 Clouds -29 1022 81 0 1.57 68 09:20 16.02.2020
2509 Clouds -29 1022 81 0 1.57 68 08:57 16.02.2020
2510 Clouds -29 1022 81 0 1.57 68 08:39 16.02.2020
2511 Clouds -26 1022 84 0 1.7 62 08:19 16.02.2020
2512 Clouds -26 1022 84 0 1.7 62 07:42 16.02.2020
2513 Clouds -26 1022 84 0 1.7 62 06:58 16.02.2020
2514 Clouds -26 1022 84 0 1.7 62 06:31 16.02.2020
2515 Clouds -26 1024 78 0 1.55 79 04:37 16.02.2020
2516 Clouds -26 1024 78 0 1.55 79 03:23 16.02.2020
2517 Clouds -26 1024 78 0 1.55 79 02:24 16.02.2020
2518 Clouds -29 1027 78 0 1.33 90 01:39 16.02.2020
2519 Clouds -30 1027 78 0 1.34 89 01:20 16.02.2020
2520 Clouds -30 1027 78 0 1.34 89 00:51 16.02.2020
2521 Clouds -30 1027 78 0 1.34 89 00:28 16.02.2020
2522 Clouds -30 1027 78 0 1.34 89 23:44 15.02.2020
2523 Clouds -30 1027 78 0 1.34 89 23:25 15.02.2020
2524 Clouds -31 1028 77 0 1.38 95 22:59 15.02.2020
2525 Clouds -31 1028 77 0 1.38 95 22:40 15.02.2020
2526 Clouds -31 1028 77 0 1.38 95 22:21 15.02.2020
2527 Clouds -31 1028 77 0 1.38 95 21:58 15.02.2020
2528 Clouds -31 1028 77 0 1.38 95 21:39 15.02.2020
2529 Clouds -31 1028 77 0 1.38 95 21:20 15.02.2020
2530 Clouds -31 1028 77 0 1.38 95 20:39 15.02.2020
2531 Clear -33 1030 80 0 0.95 101 20:21 15.02.2020
2532 Clear -33 1030 80 0 0.95 101 19:44 15.02.2020
2533 Clear -33 1030 80 0 0.95 101 19:22 15.02.2020
2534 Clear -33 1030 80 0 0.95 101 18:45 15.02.2020
2535 Clear -33 1030 80 0 0.95 101 18:24 15.02.2020
2536 Clear -33 1030 80 0 0.95 101 17:59 15.02.2020
2537 Clear -33 1030 80 0 0.95 101 17:41 15.02.2020
2538 Clear -33 1030 80 0 0.95 101 17:22 15.02.2020
2539 Clear -33 1032 83 0 1.09 101 16:55 15.02.2020
2540 Clear -33 1032 83 0 1.09 101 16:36 15.02.2020
2541 Clear -33 1032 83 0 1.09 101 16:18 15.02.2020
2542 Clear -33 1032 83 0 1.09 101 15:41 15.02.2020
2543 Clear -33 1032 83 0 1.09 101 15:23 15.02.2020
2544 Clear -33 1032 83 0 1.09 101 14:45 15.02.2020
2545 Clear -33 1034 84 0 1.14 101 14:19 15.02.2020
2546 Clear -33 1034 84 0 1.14 101 13:56 15.02.2020
2547 Clear -33 1034 84 0 1.14 101 13:38 15.02.2020
2548 Clear -33 1034 84 0 1.14 101 13:38 15.02.2020
2549 Clear -33 1034 85 0 1.25 101 13:20 15.02.2020
2550 Clear -33 1034 85 0 1.25 101 12:42 15.02.2020
2551 Clear -33 1034 85 0 1.25 101 12:24 15.02.2020
2552 Clear -33 1034 85 0 1.25 101 11:54 15.02.2020
2553 Clear -33 1034 85 0 1.25 101 11:36 15.02.2020
2554 Clear -33 1034 85 0 1.47 112 11:18 15.02.2020
2555 Clear -33 1034 85 0 1.47 112 10:39 15.02.2020
2556 Clear -33 1034 85 0 1.47 112 10:20 15.02.2020
2557 Clear -33 1034 85 0 1.47 112 09:44 15.02.2020
2558 Clear -33 1034 85 0 1.47 112 09:25 15.02.2020
2559 Clear -33 1034 85 0 1.47 112 08:58 15.02.2020
2560 Clear -33 1034 85 0 1.47 112 08:39 15.02.2020
2561 Clear -31 1035 86 0 1.21 116 08:19 15.02.2020
2562 Clear -31 1035 86 0 1.17 112 07:40 15.02.2020
2563 Clear -31 1035 86 0 1.17 112 07:22 15.02.2020
2564 Clear -31 1035 86 0 1.17 112 06:38 15.02.2020
2565 Clear -31 1035 86 0 1.17 112 06:20 15.02.2020
2566 Clear -30 1036 82 0 0.91 173 04:51 15.02.2020
2567 Clear -30 1036 82 0 0.91 173 04:26 15.02.2020
2568 Clear -30 1036 82 0 0.91 173 02:59 15.02.2020
2569 Clear -30 1036 82 0 0.91 173 02:28 15.02.2020
2570 Clear -35 1038 86 0 1.28 186 01:59 15.02.2020
2571 Clear -35 1038 86 0 1.28 186 01:36 15.02.2020
2572 Clear -35 1037 86 0 1.19 189 00:30 15.02.2020
2573 Clear -35 1037 86 0 1.19 189 23:57 14.02.2020
2574 Clear -35 1037 86 0 1.19 189 23:36 14.02.2020
2575 Clear -36 1037 87 0 1.56 197 23:18 14.02.2020
2576 Clear -36 1037 87 0 1.56 197 22:43 14.02.2020
2577 Clear -36 1037 87 0 1.56 197 22:22 14.02.2020
2578 Clear -36 1037 87 0 1.56 197 21:49 14.02.2020
2579 Clear -36 1037 87 0 1.56 197 21:31 14.02.2020
2580 Clear -36 1037 87 0 1.56 197 20:58 14.02.2020
2581 Clear -36 1037 87 0 1.56 197 20:38 14.02.2020
2582 Clear -36 1037 87 0 1.56 197 20:38 14.02.2020
2583 Clear -36 1037 88 0 1.54 202 20:19 14.02.2020
2584 Clear -36 1037 88 0 1.54 202 19:42 14.02.2020
2585 Clear -36 1037 88 0 1.54 202 19:42 14.02.2020
2586 Clear -36 1037 88 0 1.54 202 19:24 14.02.2020
2587 Clear -36 1037 88 0 1.54 202 18:58 14.02.2020
2588 Clear -36 1037 88 0 1.54 202 18:40 14.02.2020
2589 Clear -36 1037 88 0 1.54 202 18:20 14.02.2020
2590 Clear -36 1037 88 0 1.54 202 17:56 14.02.2020
2591 Clear -36 1037 88 0 1.54 202 17:38 14.02.2020
2592 Clear -36 1035 90 0 1.25 206 17:18 14.02.2020
2593 Clear -36 1035 90 0 1.25 206 16:42 14.02.2020
2594 Clear -36 1035 90 0 1.25 206 16:23 14.02.2020
2595 Clear -36 1035 90 0 1.25 206 15:57 14.02.2020
2596 Clear -36 1035 90 0 1.25 206 15:39 14.02.2020
2597 Clear -36 1035 90 0 1.25 206 15:20 14.02.2020
2598 Clear -36 1035 90 0 1.25 206 14:59 14.02.2020
2599 Clear -36 1035 90 0 1.25 206 14:41 14.02.2020
2600 Clear -36 1035 90 0 1.25 206 14:22 14.02.2020
2601 Clear -36 1035 92 0 1.12 197 13:56 14.02.2020
2602 Clear -36 1035 92 0 1.12 197 13:38 14.02.2020
2603 Clear -36 1035 94 0 1.02 197 13:19 14.02.2020
2604 Clear -36 1035 94 0 1.02 197 12:56 14.02.2020
2605 Clear -36 1035 94 0 1.02 197 12:38 14.02.2020
2606 Clear -36 1035 94 0 1.02 197 12:20 14.02.2020
2607 Clear -36 1035 94 0 1.02 197 11:55 14.02.2020
2608 Clear -36 1035 94 0 1.02 197 11:37 14.02.2020
2609 Clear -36 1033 98 0 0.87 191 11:19 14.02.2020
2610 Clear -36 1033 98 0 0.87 191 10:41 14.02.2020
2611 Clear -36 1033 98 0 0.87 191 10:22 14.02.2020
2612 Clear -36 1033 98 0 0.87 191 10:22 14.02.2020
2613 Clear -36 1033 98 0 0.87 191 09:55 14.02.2020
2614 Clear -36 1033 98 0 0.87 191 09:36 14.02.2020
2615 Clear -36 1033 98 0 0.87 191 09:18 14.02.2020
2616 Clear -36 1033 98 0 0.87 191 08:40 14.02.2020
2617 Clear -36 1033 98 0 0.87 191 08:21 14.02.2020
2618 Clear -36 1033 98 0 0.87 191 08:21 14.02.2020
2619 Clear -33 1032 94 0 0.78 175 07:50 14.02.2020
2620 Clear -33 1032 94 0 0.78 175 07:30 14.02.2020
2621 Clear -33 1032 94 0 0.78 175 06:41 14.02.2020
2622 Clear -33 1032 94 0 0.78 175 06:41 14.02.2020
2623 Clear -33 1032 94 0 0.78 175 06:21 14.02.2020
2624 Clear -33 1032 94 0 0.78 175 06:21 14.02.2020
2625 Clear -33 1032 94 0 0.78 175 05:38 14.02.2020
2626 Clear -32 1031 94 0 0.9 222 03:50 14.02.2020
2627 Clear -32 1031 94 0 0.9 222 02:58 14.02.2020
2628 Clouds -36 1031 99 0 1.08 221 02:18 14.02.2020
2629 Clouds -36 1031 99 0 1.19 218 00:59 14.02.2020
2630 Clouds -36 1031 99 0 1.19 218 00:32 14.02.2020
2631 Clouds -36 1031 99 0 1.19 218 23:59 13.02.2020
2632 Clouds -36 1031 99 0 1.19 218 23:41 13.02.2020
2633 Clouds -36 1030 100 0 0.52 227 23:19 13.02.2020
2634 Clouds -36 1030 100 0 0.52 227 22:41 13.02.2020
2635 Clouds -36 1030 100 0 0.52 227 22:20 13.02.2020
2636 Clouds -36 1030 100 0 0.52 227 21:59 13.02.2020
2637 Clouds -36 1030 100 0 0.52 227 21:40 13.02.2020
2638 Clouds -36 1030 100 0 0.52 227 21:21 13.02.2020
2639 Clouds -36 1030 100 0 0.52 227 20:43 13.02.2020
2640 Clouds -35 1030 100 0 0.65 208 20:23 13.02.2020
2641 Clouds -34 1028 100 0 0.27 14 19:58 13.02.2020
2642 Clouds -34 1028 100 0 0.27 14 19:40 13.02.2020
2643 Clouds -34 1028 100 0 0.27 14 19:21 13.02.2020
2644 Clouds -34 1028 100 0 0.27 14 18:59 13.02.2020
2645 Clouds -34 1028 100 0 0.27 14 18:41 13.02.2020
2646 Clouds -34 1028 100 0 0.27 14 18:22 13.02.2020
2647 Clouds -34 1028 100 0 0.27 14 17:58 13.02.2020
2648 Clouds -34 1028 100 0 0.27 14 17:37 13.02.2020
2649 Clouds -33 1027 100 0 0.43 71 17:19 13.02.2020
2650 Clouds -33 1027 100 0 0.43 71 16:56 13.02.2020
2651 Clouds -33 1027 100 0 0.43 71 16:36 13.02.2020
2652 Clouds -33 1027 100 0 0.43 71 16:36 13.02.2020
2653 Clouds -33 1027 100 0 0.43 71 16:18 13.02.2020
2654 Clouds -33 1027 100 0 0.43 71 15:55 13.02.2020
2655 Clouds -33 1027 100 0 0.43 71 15:36 13.02.2020
2656 Clouds -33 1027 100 0 0.43 71 15:18 13.02.2020
2657 Clouds -33 1027 100 0 0.43 71 14:55 13.02.2020
2658 Clouds -33 1027 100 0 0.43 71 14:37 13.02.2020
2659 Clouds -32 1026 100 0 0.2 62 14:18 13.02.2020
2660 Clouds -32 1026 100 0 0.2 62 13:41 13.02.2020
2661 Clouds -33 1026 100 0 0.4 69 13:18 13.02.2020
2662 Clouds -33 1026 100 0 0.4 69 12:49 13.02.2020
2663 Clouds -33 1026 100 0 0.4 69 12:48 13.02.2020
2664 Clouds -33 1026 100 0 0.4 69 12:30 13.02.2020
2665 Clouds -33 1026 100 0 0.4 69 11:58 13.02.2020
2666 Clouds -33 1026 100 0 0.4 69 11:40 13.02.2020
2667 Clouds -33 1024 100 0 0.43 91 11:19 13.02.2020
2668 Clouds -33 1024 100 0 0.43 91 10:43 13.02.2020
2669 Clouds -33 1024 100 0 0.43 91 10:25 13.02.2020
2670 Clouds -33 1024 100 0 0.43 91 09:50 13.02.2020
2671 Clouds -33 1024 100 0 0.43 91 09:26 13.02.2020
2672 Clouds -33 1024 100 0 0.43 91 08:48 13.02.2020
2673 Clouds -32 1023 96 0 0.04 106 08:20 13.02.2020
2674 Clouds -32 1023 96 0 0.04 106 07:57 13.02.2020
2675 Clouds -32 1023 96 0 0.04 106 07:38 13.02.2020
2676 Clouds -32 1023 96 0 0.04 106 07:19 13.02.2020
2677 Clouds -32 1023 96 0 0.04 106 06:44 13.02.2020
2678 Clouds -32 1023 96 0 0.04 106 05:59 13.02.2020
2679 Clouds -30 1022 93 0 0.47 279 05:20 13.02.2020
2680 Clouds -30 1022 93 0 0.47 279 04:25 13.02.2020
2681 Clouds -30 1022 93 0 0.47 279 03:47 13.02.2020
2682 Clouds -30 1022 93 0 0.47 279 03:18 13.02.2020
2683 Clouds -30 1022 93 0 0.47 279 02:45 13.02.2020
2684 Clouds -33 1021 98 0 0.57 275 02:19 13.02.2020
2685 Clouds -33 1021 98 0 0.57 274 01:28 13.02.2020
2686 Clouds -33 1021 98 0 0.57 274 00:32 13.02.2020
2687 Clouds -33 1021 98 0 0.57 274 23:58 12.02.2020
2688 Clouds -33 1021 98 0 0.57 274 23:38 12.02.2020
2689 Clouds -30 1020 96 0 0.9 293 23:19 12.02.2020
2690 Clouds -30 1020 96 0 0.9 293 22:44 12.02.2020
2691 Clouds -30 1020 96 0 0.9 293 22:24 12.02.2020
2692 Clouds -30 1020 96 0 0.9 293 21:58 12.02.2020
2693 Clouds -30 1020 96 0 0.9 293 21:39 12.02.2020
2694 Clouds -30 1020 96 0 0.9 293 21:19 12.02.2020
2695 Clouds -30 1020 96 0 0.9 293 20:56 12.02.2020
2696 Clouds -30 1020 96 0 0.9 293 20:56 12.02.2020
2697 Clouds -30 1020 96 0 0.9 293 20:37 12.02.2020
2698 Clouds -29 1019 97 0 0.67 251 20:19 12.02.2020
2699 Clouds -29 1019 97 0 0.67 251 19:45 12.02.2020
2700 Clouds -29 1019 97 0 0.67 251 19:24 12.02.2020
2701 Clouds -29 1019 97 0 0.67 251 18:56 12.02.2020
2702 Clouds -29 1019 97 0 0.67 251 18:37 12.02.2020
2703 Clouds -29 1019 97 0 0.67 251 18:18 12.02.2020
2704 Clouds -29 1019 97 0 0.67 251 17:42 12.02.2020
2705 Clouds -29 1017 98 0 0.82 267 17:20 12.02.2020
2706 Clouds -29 1017 98 0 0.82 267 16:59 12.02.2020
2707 Clouds -29 1017 98 0 0.82 267 16:39 12.02.2020
2708 Clouds -29 1017 98 0 0.82 267 16:39 12.02.2020
2709 Clouds -29 1017 98 0 0.82 267 16:19 12.02.2020
2710 Clouds -29 1017 98 0 0.82 267 15:41 12.02.2020
2711 Clouds -29 1017 98 0 0.82 267 15:23 12.02.2020
2712 Clouds -29 1017 98 0 0.65 279 14:57 12.02.2020
2713 Clouds -29 1017 98 0 0.82 267 14:39 12.02.2020
2714 Clouds -30 1016 100 0 0.67 270 14:19 12.02.2020
2715 Clouds -30 1016 99 0 0.64 284 13:56 12.02.2020
2716 Clouds -30 1016 100 0 0.67 270 13:38 12.02.2020
2717 Clouds -30 1016 99 0 0.64 284 13:19 12.02.2020
2718 Clouds -30 1016 99 0 0.64 284 12:57 12.02.2020
2719 Clouds -30 1016 99 0 0.64 284 12:37 12.02.2020
2720 Clouds -30 1016 99 0 0.64 284 12:18 12.02.2020
2721 Clouds -30 1016 99 0 0.64 284 11:56 12.02.2020
2722 Clouds -30 1016 99 0 0.64 284 11:37 12.02.2020
2723 Clouds -29 1014 98 0 0.74 288 11:19 12.02.2020
2724 Clouds -29 1014 98 0 0.74 288 10:54 12.02.2020
2725 Clouds -29 1014 98 0 0.74 288 10:36 12.02.2020
2726 Clouds -29 1014 98 0 0.74 288 10:18 12.02.2020
2727 Clouds -29 1014 98 0 0.74 288 09:41 12.02.2020
2728 Clouds -29 1014 98 0 0.74 288 09:41 12.02.2020
2729 Clouds -29 1014 98 0 0.74 288 09:21 12.02.2020
2730 Clouds -29 1014 98 0 0.74 288 08:57 12.02.2020
2731 Clouds -29 1014 98 0 0.74 288 08:37 12.02.2020
2732 Snow -27 1011 97 0 0.63 319 08:19 12.02.2020
2733 Clouds -27 1011 97 0 0.53 306 07:44 12.02.2020
2734 Clouds -27 1011 97 0 0.53 306 07:44 12.02.2020
2735 Clouds -27 1011 97 0 0.53 306 07:23 12.02.2020
2736 Clouds -27 1011 97 0 0.53 306 06:56 12.02.2020
2737 Clouds -27 1011 97 0 0.53 306 06:24 12.02.2020
2738 Clouds -27 1011 97 0 0.53 306 05:39 12.02.2020
2739 Clouds -28 1010 95 0 0.99 286 04:58 12.02.2020
2740 Clouds -28 1010 95 0 0.99 286 04:40 12.02.2020
2741 Clouds -28 1010 95 0 0.99 286 03:37 12.02.2020
2742 Clouds -28 1010 95 0 0.99 286 03:19 12.02.2020
2743 Clouds -28 1010 95 0 0.99 286 02:30 12.02.2020
2744 Clouds -30 1008 98 0 0.7 292 01:58 12.02.2020
2745 Clouds -29 1008 98 0 0.66 299 00:46 12.02.2020
2746 Clouds -29 1008 98 0 0.66 299 00:26 12.02.2020
2747 Clouds -29 1008 98 0 0.66 299 23:58 11.02.2020
2748 Clouds -29 1008 98 0 0.66 299 23:40 11.02.2020
2749 Clouds -29 1008 98 0 0.66 299 23:22 11.02.2020
2750 Clouds -30 1006 97 0 1.03 313 22:55 11.02.2020
2751 Clouds -30 1006 97 0 1.03 313 22:37 11.02.2020
2752 Clouds -30 1006 97 0 1.03 313 22:19 11.02.2020
2753 Clouds -30 1006 97 0 1.03 313 21:56 11.02.2020
2754 Clouds -30 1006 97 0 1.03 313 21:37 11.02.2020
2755 Clouds -30 1006 97 0 1.03 313 21:18 11.02.2020
2756 Clouds -30 1006 97 0 1.03 313 20:55 11.02.2020
2757 Clouds -30 1006 97 0 1.03 313 20:37 11.02.2020
2758 Clouds -34 1005 100 0 0.7 305 20:18 11.02.2020
2759 Clouds -34 1005 100 0 0.7 305 19:42 11.02.2020
2760 Clouds -34 1005 100 0 0.7 305 19:24 11.02.2020
2761 Clouds -34 1005 100 0 0.7 305 18:57 11.02.2020
2762 Clouds -34 1005 100 0 0.7 305 18:57 11.02.2020
2763 Clouds -34 1005 100 0 0.7 305 18:39 11.02.2020
2764 Clouds -34 1005 100 0 0.7 305 18:20 11.02.2020
2765 Clouds -34 1005 100 0 0.7 305 17:55 11.02.2020
2766 Clouds -34 1005 100 0 0.7 305 17:36 11.02.2020
2767 Clouds -33 1004 100 0 0.9 274 17:18 11.02.2020
2768 Clouds -33 1004 100 0 0.9 274 16:57 11.02.2020
2769 Clouds -33 1004 100 0 0.9 274 16:37 11.02.2020
2770 Clouds -33 1004 100 0 0.9 274 16:19 11.02.2020
2771 Clouds -33 1004 100 0 0.9 274 15:45 11.02.2020
2772 Clouds -33 1004 100 0 0.9 274 15:26 11.02.2020
2773 Clouds -33 1004 100 0 0.9 274 14:57 11.02.2020
2774 Clouds -33 1004 100 0 0.9 274 14:38 11.02.2020
2775 Clouds -31 1004 99 0 0.91 295 14:18 11.02.2020
2776 Clouds -31 1004 99 0 0.91 295 13:42 11.02.2020
2777 Snow -30 1004 98 0 0.72 286 13:21 11.02.2020
2778 Snow -30 1004 98 0 0.72 286 12:59 11.02.2020
2779 Snow -30 1004 98 0 0.72 286 12:40 11.02.2020
2780 Snow -30 1004 98 0 0.72 286 12:21 11.02.2020
2781 Snow -30 1004 98 0 0.72 286 11:55 11.02.2020
2782 Snow -30 1004 98 0 0.72 286 11:36 11.02.2020
2783 Snow -29 1003 98 0 0.33 265 11:18 11.02.2020
2784 Snow -29 1003 98 0 0.33 265 10:39 11.02.2020
2785 Snow -29 1003 98 0 0.33 265 10:20 11.02.2020
2786 Snow -29 1003 98 0 0.33 265 09:57 11.02.2020
2787 Snow -29 1003 98 0 0.33 265 09:38 11.02.2020
2788 Snow -29 1003 98 0 0.33 265 09:20 11.02.2020
2789 Snow -29 1003 98 0 0.33 265 08:48 11.02.2020
2790 Snow -29 1003 98 0 0.33 265 08:24 11.02.2020
2791 Clouds -29 1003 90 0 0.74 349 07:49 11.02.2020
2792 Clouds -29 1003 90 0 0.74 349 07:28 11.02.2020
2793 Clouds -29 1003 90 0 0.74 349 06:55 11.02.2020
2794 Clouds -29 1003 90 0 0.74 349 06:37 11.02.2020
2795 Clouds -29 1003 90 0 0.74 349 06:19 11.02.2020
2796 Clouds -29 1003 90 0 0.74 349 05:26 11.02.2020
2797 Clouds -30 1005 70 0 0.46 10 04:54 11.02.2020
2798 Clouds -30 1005 70 0 0.46 10 03:26 11.02.2020
2799 Clouds -30 1005 70 0 0.46 10 02:33 11.02.2020
2800 Clouds -34 1007 69 0 0.65 304 01:39 11.02.2020
2801 Clouds -34 1007 68 0 0.65 302 00:58 11.02.2020
2802 Clouds -34 1007 68 0 0.65 302 00:23 11.02.2020
2803 Clouds -34 1007 68 0 0.65 302 23:40 10.02.2020
2804 Clouds -36 1008 69 0 0.43 47 23:21 10.02.2020
2805 Clouds -36 1008 69 0 0.43 47 22:57 10.02.2020
2806 Clouds -36 1008 69 0 0.43 47 22:36 10.02.2020
2807 Clouds -36 1008 69 0 0.43 47 22:18 10.02.2020
2808 Clouds -36 1008 69 0 0.43 47 21:40 10.02.2020
2809 Clouds -36 1008 69 0 0.43 47 21:22 10.02.2020
2810 Clouds -36 1008 69 0 0.43 47 20:56 10.02.2020
2811 Clouds -36 1008 69 0 0.43 47 20:37 10.02.2020
2812 Clouds -36 1009 70 0 0.25 259 20:19 10.02.2020
2813 Clouds -35 1010 67 0 0.01 148 19:57 10.02.2020
2814 Clouds -35 1010 67 0 0.01 148 19:36 10.02.2020
2815 Clouds -35 1010 67 0 0.01 148 19:18 10.02.2020
2816 Clouds -35 1010 67 0 0.01 148 18:55 10.02.2020
2817 Clouds -35 1010 67 0 0.01 148 18:37 10.02.2020
2818 Clouds -35 1010 67 0 0.01 148 18:18 10.02.2020
2819 Clouds -35 1010 67 0 0.01 148 17:54 10.02.2020
2820 Clouds -35 1010 67 0 0.01 148 17:36 10.02.2020
2821 Clouds -36 1010 70 0 0.24 27 17:18 10.02.2020
2822 Clouds -36 1010 70 0 0.24 27 16:41 10.02.2020
2823 Clouds -36 1010 70 0 0.24 27 16:20 10.02.2020
2824 Clouds -36 1010 70 0 0.24 27 16:20 10.02.2020
2825 Clouds -36 1010 70 0 0.24 27 16:20 10.02.2020
2826 Clouds -36 1010 70 0 0.24 27 15:59 10.02.2020
2827 Clouds -36 1010 70 0 0.24 27 15:59 10.02.2020
2828 Clouds -36 1010 70 0 0.24 27 15:41 10.02.2020
2829 Clouds -36 1010 70 0 0.24 27 15:22 10.02.2020
2830 Clouds -36 1010 70 0 0.24 27 14:58 10.02.2020
2831 Clouds -36 1010 70 0 0.24 27 14:39 10.02.2020
2832 Clouds -35 1012 71 0 0.64 74 14:19 10.02.2020
2833 Clouds -35 1012 71 0 0.64 74 13:55 10.02.2020
2834 Clouds -35 1012 71 0 0.64 74 13:37 10.02.2020
2835 Clouds -35 1012 70 0 0.68 70 13:18 10.02.2020
2836 Clouds -35 1012 70 0 0.68 70 12:42 10.02.2020
2837 Clouds -35 1012 70 0 0.68 70 12:24 10.02.2020
2838 Clouds -35 1012 70 0 0.68 70 11:54 10.02.2020
2839 Clouds -35 1012 70 0 0.68 70 11:54 10.02.2020
2840 Clouds -35 1012 70 0 0.68 70 11:36 10.02.2020
2841 Clouds -34 1012 72 0 0.74 80 11:18 10.02.2020
2842 Clouds -34 1012 72 0 0.74 80 10:42 10.02.2020
2843 Clouds -34 1012 72 0 0.74 80 10:23 10.02.2020
2844 Clouds -34 1012 72 0 0.74 80 09:44 10.02.2020
2845 Clouds -34 1012 72 0 0.74 80 09:23 10.02.2020
2846 Clouds -34 1012 72 0 0.74 80 08:43 10.02.2020
2847 Clear -34 1013 72 0 0.8 73 08:22 10.02.2020
2848 Clouds -32 1013 72 0 0.63 76 07:57 10.02.2020
2849 Clouds -32 1013 72 0 0.63 76 07:36 10.02.2020
2850 Clouds -32 1013 72 0 0.63 76 06:58 10.02.2020
2851 Clouds -32 1013 72 0 0.63 76 05:41 10.02.2020
2852 Clouds -30 1014 72 0 0.49 87 04:26 10.02.2020
2853 Clouds -30 1014 72 0 0.49 87 03:31 10.02.2020
2854 Clouds -30 1014 72 0 0.49 87 02:53 10.02.2020
2855 Clouds -31 1015 70 0 1.02 110 01:36 10.02.2020
2856 Clouds -32 1015 70 0 0.96 112 00:48 10.02.2020
2857 Clouds -32 1015 70 0 0.96 112 00:28 10.02.2020
2858 Clouds -32 1015 70 0 0.96 112 23:45 09.02.2020
2859 Clouds -32 1015 70 0 0.96 112 23:45 09.02.2020
2860 Clouds -32 1015 70 0 0.96 112 23:26 09.02.2020
2861 Clouds -31 1015 72 0 1.03 95 22:59 09.02.2020
2862 Clouds -31 1015 72 0 1.03 95 22:38 09.02.2020
2863 Clouds -31 1015 72 0 1.03 95 22:19 09.02.2020
2864 Clouds -31 1015 72 0 1.03 95 21:41 09.02.2020
2865 Clouds -31 1015 72 0 1.03 95 21:23 09.02.2020
2866 Clouds -31 1015 72 0 1.03 95 20:48 09.02.2020
2867 Clouds -31 1015 72 0 1.03 95 20:23 09.02.2020
2868 Clouds -31 1016 74 0 1.07 113 19:58 09.02.2020
2869 Clouds -31 1016 74 0 1.07 113 19:39 09.02.2020
2870 Clouds -31 1016 74 0 1.07 113 19:20 09.02.2020
2871 Clouds -31 1016 74 0 1.07 113 18:56 09.02.2020
2872 Clouds -31 1016 74 0 1.07 113 18:36 09.02.2020
2873 Clouds -31 1016 74 0 1.07 113 18:18 09.02.2020
2874 Clouds -31 1016 74 0 1.07 113 17:42 09.02.2020
2875 Clouds -31 1016 74 0 1.07 113 17:22 09.02.2020
2876 Clouds -30 1016 78 0 1.15 99 16:56 09.02.2020
2877 Clouds -30 1016 78 0 1.15 99 16:37 09.02.2020
2878 Clouds -30 1016 78 0 1.15 99 16:18 09.02.2020
2879 Clouds -30 1016 78 0 1.15 99 15:54 09.02.2020
2880 Clouds -30 1016 78 0 1.15 99 15:36 09.02.2020
2881 Clouds -30 1016 78 0 1.15 99 15:18 09.02.2020
2882 Clouds -30 1016 78 0 1.15 99 14:41 09.02.2020
2883 Clouds -30 1016 78 0 1.15 99 14:22 09.02.2020
2884 Clouds -33 1018 76 0 0.96 99 13:47 09.02.2020
2885 Clouds -33 1018 76 0 0.96 99 13:28 09.02.2020
2886 Clouds -33 1017 77 0 1.01 102 12:57 09.02.2020
2887 Clouds -33 1017 77 0 1.01 102 12:39 09.02.2020
2888 Clouds -33 1017 77 0 1.01 102 12:19 09.02.2020
2889 Clouds -33 1017 77 0 1.01 102 11:55 09.02.2020
2890 Clouds -33 1017 77 0 1.01 102 11:36 09.02.2020
2891 Clouds -36 1018 79 0 0.85 92 11:18 09.02.2020
2892 Clouds -36 1018 79 0 0.85 92 10:41 09.02.2020
2893 Clouds -36 1018 79 0 0.85 92 10:22 09.02.2020
2894 Clouds -36 1018 79 0 0.85 92 09:47 09.02.2020
2895 Clouds -36 1018 79 0 0.85 92 09:28 09.02.2020
2896 Clouds -36 1018 79 0 0.85 92 08:55 09.02.2020
2897 Clouds -36 1018 79 0 0.85 92 08:37 09.02.2020
2898 Clear -35 1018 78 0 0.73 85 08:19 09.02.2020
2899 Clear -36 1018 78 0 0.62 80 07:49 09.02.2020
2900 Clear -36 1018 78 0 0.62 80 06:54 09.02.2020
2901 Clear -36 1018 78 0 0.62 80 06:36 09.02.2020
2902 Clear -36 1018 78 0 0.62 80 05:49 09.02.2020
2903 Clear -36 1018 78 0 0.62 80 05:31 09.02.2020
2904 Clear -34 1019 76 0 0.12 174 03:58 09.02.2020
2905 Clear -34 1019 76 0 0.12 174 02:49 09.02.2020
2906 Clear -34 1019 76 0 0.12 174 02:30 09.02.2020
2907 Clear -39 1020 78 0 0.1 259 01:36 09.02.2020
2908 Clear -39 1021 80 0 0.12 258 00:56 09.02.2020
2909 Clear -39 1021 80 0 0.12 258 00:29 09.02.2020
2910 Clear -39 1021 80 0 0.12 258 23:49 08.02.2020
2911 Clear -39 1021 80 0 0.12 258 23:24 08.02.2020
2912 Clear -38 1021 80 0 0.14 202 22:58 08.02.2020
2913 Clear -38 1021 80 0 0.14 202 22:39 08.02.2020
2914 Clear -38 1021 80 0 0.14 202 22:20 08.02.2020
2915 Clear -38 1021 80 0 0.14 202 21:45 08.02.2020
2916 Clear -38 1021 80 0 0.14 202 21:27 08.02.2020
2917 Clear -38 1021 80 0 0.14 202 20:59 08.02.2020
2918 Clear -38 1021 80 0 0.14 202 20:40 08.02.2020
2919 Clear -38 1021 81 0 0.14 185 20:19 08.02.2020
2920 Clear -38 1021 81 0 0.14 185 19:58 08.02.2020
2921 Clear -38 1021 81 0 0.14 185 19:38 08.02.2020
2922 Clear -38 1021 81 0 0.14 185 19:19 08.02.2020
2923 Clear -38 1021 81 0 0.14 185 19:19 08.02.2020
2924 Clear -38 1021 81 0 0.14 185 18:56 08.02.2020
2925 Clear -38 1021 81 0 0.14 185 18:37 08.02.2020
2926 Clear -38 1021 81 0 0.14 185 18:19 08.02.2020
2927 Clear -38 1021 81 0 0.14 185 17:41 08.02.2020
2928 Clear -38 1022 81 0 0.1 99 17:19 08.02.2020
2929 Clear -38 1022 81 0 0.1 99 16:41 08.02.2020
2930 Clear -38 1022 81 0 0.1 99 16:23 08.02.2020
2931 Clear -38 1022 81 0 0.1 99 16:23 08.02.2020
2932 Clear -38 1022 81 0 0.1 99 15:58 08.02.2020
2933 Clear -38 1022 81 0 0.1 99 15:39 08.02.2020
2934 Clear -38 1022 81 0 0.1 99 15:18 08.02.2020
2935 Clear -38 1022 81 0 0.1 99 14:45 08.02.2020
2936 Clear -38 1022 81 0 0.1 99 14:22 08.02.2020
2937 Clear -38 1023 84 0 0.19 107 13:58 08.02.2020
2938 Clear -38 1023 84 0 0.19 107 13:58 08.02.2020
2939 Clear -38 1023 84 0 0.19 107 13:40 08.02.2020
2940 Clear -38 1023 84 0 0.19 107 13:21 08.02.2020
2941 Clear -38 1022 85 0 0.43 101 12:41 08.02.2020
2942 Clear -38 1022 85 0 0.43 101 12:23 08.02.2020
2943 Clear -38 1022 85 0 0.43 101 11:56 08.02.2020
2944 Clear -38 1022 85 0 0.43 101 11:38 08.02.2020
2945 Clear -38 1023 88 0 0.24 72 11:20 08.02.2020
2946 Clear -38 1023 88 0 0.24 72 10:42 08.02.2020
2947 Clear -38 1023 88 0 0.24 72 10:22 08.02.2020
2948 Clear -38 1023 88 0 0.24 72 10:22 08.02.2020
2949 Clear -38 1023 88 0 0.24 72 10:22 08.02.2020
2950 Clear -38 1023 88 0 0.24 72 10:22 08.02.2020
2951 Clear -38 1023 88 0 0.24 72 10:22 08.02.2020
2952 Clear -38 1023 88 0 0.24 72 09:53 08.02.2020
2953 Clear -38 1023 88 0 0.24 72 09:29 08.02.2020
2954 Clear -38 1023 88 0 0.24 72 08:56 08.02.2020
2955 Clear -38 1023 88 0 0.24 72 08:38 08.02.2020
2956 Clear -37 1023 88 0 0.69 82 08:20 08.02.2020
2957 Clear -37 1023 88 0 0.69 82 07:45 08.02.2020
2958 Clear -37 1023 88 0 0.69 82 07:23 08.02.2020
2959 Clear -37 1023 88 0 0.69 82 06:30 08.02.2020
2960 Clear -37 1023 88 0 0.69 82 05:48 08.02.2020
2961 Clear -37 1023 88 0 0.69 82 05:30 08.02.2020
2962 Clear -35 1025 87 0 0.15 5 04:49 08.02.2020
2963 Clear -35 1025 87 0 0.15 5 03:52 08.02.2020
2964 Clear -35 1025 87 0 0.15 5 02:52 08.02.2020
2965 Clear -40 1027 96 0 0.6 105 01:55 08.02.2020
2966 Clear -40 1026 96 0 0.65 104 01:26 08.02.2020
2967 Clear -40 1026 96 0 0.65 104 00:44 08.02.2020
2968 Clear -40 1026 96 0 0.65 104 00:22 08.02.2020
2969 Clear -40 1026 96 0 0.65 104 23:55 07.02.2020
2970 Clear -40 1026 96 0 0.65 104 23:37 07.02.2020
2971 Clear -40 1027 96 0 0.54 84 23:18 07.02.2020
2972 Clear -40 1027 96 0 0.54 84 22:40 07.02.2020
2973 Clear -40 1027 96 0 0.54 84 22:19 07.02.2020
2974 Clear -40 1027 96 0 0.54 84 21:44 07.02.2020
2975 Clear -40 1027 96 0 0.54 84 21:23 07.02.2020
2976 Clear -40 1027 96 0 0.54 84 20:59 07.02.2020
2977 Clear -40 1027 96 0 0.54 84 20:38 07.02.2020
2978 Clear -40 1028 96 0 0.77 88 20:18 07.02.2020
2979 Clear -40 1029 95 0 0.7 89 19:43 07.02.2020
2980 Clear -40 1029 95 0 0.7 89 19:22 07.02.2020
2981 Clear -40 1029 95 0 0.7 89 18:59 07.02.2020
2982 Clear -40 1029 95 0 0.7 89 18:59 07.02.2020
2983 Clear -40 1029 95 0 0.7 89 18:41 07.02.2020
2984 Clear -40 1029 95 0 0.7 89 18:22 07.02.2020
2985 Clear -40 1029 95 0 0.7 89 17:43 07.02.2020
2986 Clear -40 1029 95 0 0.7 89 17:22 07.02.2020
2987 Clear -40 1029 95 0 0.7 89 17:22 07.02.2020
2988 Clear -40 1030 94 0 0.84 90 16:58 07.02.2020
2989 Clear -40 1030 94 0 0.84 90 16:39 07.02.2020
2990 Clear -40 1030 94 0 0.84 90 16:21 07.02.2020
2991 Clear -40 1030 94 0 0.84 90 15:52 07.02.2020
2992 Clear -40 1030 94 0 0.84 90 15:28 07.02.2020
2993 Clear -40 1030 94 0 0.84 90 14:55 07.02.2020
2994 Clear -40 1030 94 0 0.84 90 14:37 07.02.2020
2995 Clear -40 1031 93 0 0.99 89 14:19 07.02.2020
2996 Clear -40 1031 93 0 0.99 89 13:56 07.02.2020
2997 Clear -40 1031 93 0 0.99 89 13:37 07.02.2020
2998 Clear -40 1031 94 0 1.03 86 13:18 07.02.2020
2999 Clear -40 1031 94 0 1.03 86 12:41 07.02.2020
3000 Clear -40 1031 94 0 1.03 86 12:22 07.02.2020
3001 Clear -40 1031 94 0 1.03 86 11:45 07.02.2020
3002 Clear -40 1031 94 0 1.03 86 11:22 07.02.2020
3003 Clear -40 1031 94 0 0.88 91 10:57 07.02.2020
3004 Clear -40 1031 94 0 0.88 91 10:38 07.02.2020
3005 Clear -40 1031 94 0 0.88 91 10:19 07.02.2020
3006 Clear -40 1031 94 0 0.88 91 10:19 07.02.2020
3007 Clear -40 1031 94 0 0.88 91 09:41 07.02.2020
3008 Clear -40 1031 94 0 0.88 91 09:22 07.02.2020
3009 Clear -40 1031 94 0 0.88 91 08:45 07.02.2020
3010 Clear -40 1031 96 0 0.95 92 08:22 07.02.2020
3011 Clear -39 1031 94 0 0.86 75 07:54 07.02.2020
3012 Clear -39 1031 94 0 0.86 75 07:32 07.02.2020
3013 Clear -39 1031 94 0 0.86 75 06:59 07.02.2020
3014 Clear -39 1031 94 0 0.86 75 06:39 07.02.2020
3015 Clear -39 1031 94 0 0.86 75 06:19 07.02.2020
3016 Clear -39 1031 94 0 0.86 75 05:37 07.02.2020
3017 Clear -37 1032 91 0 0.82 89 03:51 07.02.2020
3018 Clear -37 1032 91 0 0.82 89 02:23 07.02.2020
3019 Clear -41 1033 98 0 0.73 93 01:21 07.02.2020
3020 Clear -41 1033 97 0 0.83 92 00:28 07.02.2020
3021 Clear -41 1033 97 0 0.83 92 23:39 06.02.2020
3022 Clear -41 1033 97 0 0.83 92 23:39 06.02.2020
3023 Clear -41 1033 97 0 0.6 102 23:19 06.02.2020
3024 Clear -41 1033 97 0 0.6 102 22:56 06.02.2020
3025 Clear -41 1033 97 0 0.6 102 22:38 06.02.2020
3026 Clear -41 1033 97 0 0.6 102 22:19 06.02.2020
3027 Clear -41 1033 97 0 0.6 102 21:37 06.02.2020
3028 Clear -41 1033 97 0 0.6 102 21:19 06.02.2020
3029 Clear -41 1033 97 0 0.6 102 20:55 06.02.2020
3030 Clear -41 1033 97 0 0.6 102 20:37 06.02.2020
3031 Clear -40 1033 97 0 0.79 101 20:18 06.02.2020
3032 Clear -40 1033 99 0 0.64 116 19:57 06.02.2020
3033 Clear -40 1033 99 0 0.64 116 19:37 06.02.2020
3034 Clear -40 1033 99 0 0.64 116 19:19 06.02.2020
3035 Clear -40 1033 99 0 0.64 116 18:44 06.02.2020
3036 Clear -40 1033 99 0 0.64 116 18:26 06.02.2020
3037 Clear -40 1033 99 0 0.64 116 17:59 06.02.2020
3038 Clear -40 1033 99 0 0.64 116 17:59 06.02.2020
3039 Clear -40 1033 99 0 0.64 116 17:41 06.02.2020
3040 Clear -40 1034 98 0 0.35 152 17:20 06.02.2020
3041 Clear -40 1034 98 0 0.35 152 16:45 06.02.2020
3042 Clear -40 1034 98 0 0.35 152 16:27 06.02.2020
3043 Clear -40 1034 98 0 0.35 152 15:58 06.02.2020
3044 Clear -40 1034 98 0 0.35 152 15:40 06.02.2020
3045 Clear -40 1034 98 0 0.35 152 15:20 06.02.2020
3046 Clear -40 1034 98 0 0.35 152 14:46 06.02.2020
3047 Clear -40 1034 98 0 0.35 152 14:25 06.02.2020
3048 Clouds -40 1034 97 0 0.71 110 13:46 06.02.2020
3049 Clouds -40 1034 97 0 0.65 106 13:27 06.02.2020
3050 Clouds -40 1034 97 0 0.65 106 12:56 06.02.2020
3051 Clouds -40 1034 97 0 0.65 106 12:37 06.02.2020
3052 Clouds -40 1034 97 0 0.65 106 12:37 06.02.2020
3053 Clouds -40 1034 97 0 0.65 106 12:18 06.02.2020
3054 Clouds -40 1034 97 0 0.65 106 11:55 06.02.2020
3055 Clouds -40 1034 97 0 0.65 106 11:37 06.02.2020
3056 Clouds -40 1034 97 0 0.72 103 11:18 06.02.2020
3057 Clouds -40 1034 97 0 0.72 103 10:41 06.02.2020
3058 Clouds -40 1034 97 0 0.72 103 10:22 06.02.2020
3059 Clouds -40 1034 97 0 0.72 103 09:59 06.02.2020
3060 Clouds -40 1034 97 0 0.72 103 09:41 06.02.2020
3061 Clouds -40 1034 97 0 0.72 103 09:20 06.02.2020
3062 Clouds -40 1034 97 0 0.72 103 08:46 06.02.2020
3063 Clouds -40 1034 98 0 0.76 99 08:24 06.02.2020
3064 Clouds -39 1034 96 0 0.71 83 07:57 06.02.2020
3065 Clouds -39 1034 96 0 0.71 83 07:33 06.02.2020
3066 Clouds -39 1034 96 0 0.71 83 06:54 06.02.2020
3067 Clouds -39 1034 96 0 0.71 83 06:19 06.02.2020
3068 Clouds -39 1034 96 0 0.71 83 05:40 06.02.2020
3069 Clouds -37 1034 93 0 0.78 88 04:18 06.02.2020
3070 Clouds -37 1034 93 0 0.78 88 03:18 06.02.2020
3071 Clouds -41 1035 99 0 0.73 97 02:20 06.02.2020
3072 Clouds -41 1035 99 0 0.76 99 01:24 06.02.2020
3073 Clouds -41 1035 99 0 0.76 99 00:42 06.02.2020
3074 Clouds -41 1035 99 0 0.76 99 00:21 06.02.2020
3075 Clouds -41 1035 99 0 0.76 99 23:43 05.02.2020
3076 Clouds -41 1035 99 0 0.76 99 23:24 05.02.2020
3077 Clouds -40 1034 100 0 0.92 91 22:56 05.02.2020
3078 Clouds -40 1034 100 0 0.92 91 22:37 05.02.2020
3079 Clouds -40 1034 100 0 0.92 91 22:19 05.02.2020
3080 Clouds -40 1034 100 0 0.92 91 21:41 05.02.2020
3081 Clouds -40 1034 100 0 0.92 91 21:22 05.02.2020
3082 Clouds -40 1034 100 0 0.92 91 20:55 05.02.2020
3083 Clouds -40 1034 100 0 0.92 91 20:37 05.02.2020
3084 Clouds -39 1034 100 0 0.78 105 20:18 05.02.2020
3085 Clouds -39 1034 100 0 0.78 105 19:55 05.02.2020
3086 Clouds -39 1034 100 0 0.78 105 19:36 05.02.2020
3087 Clouds -39 1034 100 0 0.78 105 19:18 05.02.2020
3088 Clouds -39 1034 100 0 0.78 105 18:43 05.02.2020
3089 Clouds -39 1034 100 0 0.78 105 18:21 05.02.2020
3090 Clouds -39 1034 100 0 0.78 105 18:21 05.02.2020
3091 Clouds -39 1034 100 0 0.78 105 17:58 05.02.2020
3092 Clouds -39 1034 100 0 0.78 105 17:37 05.02.2020
3093 Clouds -37 1034 100 0 0.85 97 17:18 05.02.2020
3094 Clouds -37 1034 100 0 0.85 97 16:43 05.02.2020
3095 Clouds -37 1034 100 0 0.85 97 16:25 05.02.2020
3096 Clouds -37 1034 100 0 0.85 97 15:59 05.02.2020
3097 Clouds -37 1034 100 0 0.85 97 15:40 05.02.2020
3098 Clouds -37 1034 100 0 0.85 97 15:18 05.02.2020
3099 Clouds -37 1034 100 0 0.85 97 14:43 05.02.2020
3100 Clouds -37 1034 100 0 0.85 97 14:25 05.02.2020
3101 Clouds -37 1035 99 0 0.76 99 13:59 05.02.2020
3102 Clouds -37 1035 99 0 0.76 99 13:39 05.02.2020
3103 Clouds -37 1035 99 0 0.76 99 13:19 05.02.2020
3104 Clouds -37 1034 99 0 0.78 99 12:43 05.02.2020
3105 Clouds -37 1034 99 0 0.78 99 12:24 05.02.2020
3106 Clouds -37 1034 99 0 0.78 99 11:56 05.02.2020
3107 Clouds -37 1034 99 0 0.78 99 11:38 05.02.2020
3108 Clouds -36 1034 99 0 0.77 96 11:19 05.02.2020
3109 Clouds -36 1034 99 0 0.77 96 10:42 05.02.2020
3110 Clouds -36 1034 99 0 0.77 96 10:24 05.02.2020
3111 Clouds -36 1034 99 0 0.77 96 09:57 05.02.2020
3112 Clouds -36 1034 99 0 0.77 96 09:37 05.02.2020
3113 Clouds -36 1034 99 0 0.77 96 09:19 05.02.2020
3114 Clouds -36 1034 99 0 0.77 96 08:43 05.02.2020
3115 Clouds -36 1034 99 0 0.77 96 08:23 05.02.2020
3116 Clouds -36 1034 99 0 0.77 96 08:23 05.02.2020
3117 Clouds -35 1034 97 0 0.52 101 07:54 05.02.2020
3118 Clouds -35 1034 97 0 0.52 101 07:33 05.02.2020
3119 Clouds -35 1034 97 0 0.52 101 06:49 05.02.2020
3120 Clouds -35 1034 97 0 0.52 101 06:23 05.02.2020
3121 Clouds -35 1034 97 0 0.52 101 05:54 05.02.2020
3122 Clouds -34 1034 96 0 0.53 93 05:19 05.02.2020
3123 Clouds -34 1034 96 0 0.53 93 04:45 05.02.2020
3124 Clouds -34 1034 96 0 0.53 93 03:50 05.02.2020
3125 Clouds -34 1034 96 0 0.53 93 02:25 05.02.2020
3126 Clouds -37 1035 99 0 0.35 89 01:46 05.02.2020
3127 Clouds -36 1035 99 0 0.38 83 00:43 05.02.2020
3128 Clouds -36 1035 99 0 0.38 83 23:57 04.02.2020
3129 Clouds -36 1035 99 0 0.38 83 23:38 04.02.2020
3130 Clouds -37 1035 99 0 0.71 81 23:18 04.02.2020
3131 Clouds -37 1035 99 0 0.71 81 22:54 04.02.2020
3132 Clouds -37 1035 99 0 0.71 81 22:36 04.02.2020
3133 Clouds -37 1035 99 0 0.71 81 22:18 04.02.2020
3134 Clouds -37 1035 99 0 0.71 81 21:41 04.02.2020
3135 Clouds -37 1035 99 0 0.71 81 21:41 04.02.2020
3136 Clouds -37 1035 99 0 0.71 81 21:19 04.02.2020
3137 Clouds -37 1035 99 0 0.71 81 20:59 04.02.2020
3138 Clouds -37 1035 99 0 0.71 81 20:41 04.02.2020
3139 Clouds -37 1035 99 0 0.47 109 20:21 04.02.2020
3140 Clouds -38 1035 99 0 0.54 98 19:58 04.02.2020
3141 Clouds -38 1035 99 0 0.54 98 19:40 04.02.2020
3142 Clouds -38 1035 99 0 0.54 98 19:22 04.02.2020
3143 Clouds -38 1035 99 0 0.54 98 18:55 04.02.2020
3144 Clouds -38 1035 99 0 0.54 98 18:37 04.02.2020
3145 Clouds -38 1035 99 0 0.54 98 18:18 04.02.2020
3146 Clouds -38 1035 99 0 0.54 98 18:18 04.02.2020
3147 Clouds -38 1035 99 0 0.54 98 17:42 04.02.2020
3148 Clouds -38 1036 99 0 0.51 81 17:21 04.02.2020
3149 Clouds -38 1036 99 0 0.51 81 17:21 04.02.2020
3150 Clouds -38 1036 99 0 0.51 81 16:56 04.02.2020
3151 Clouds -38 1036 99 0 0.51 81 16:37 04.02.2020
3152 Clouds -38 1036 99 0 0.51 81 16:19 04.02.2020
3153 Clouds -38 1036 99 0 0.51 81 15:56 04.02.2020
3154 Clouds -38 1036 99 0 0.51 81 15:37 04.02.2020
3155 Clouds -38 1036 99 0 0.51 81 15:18 04.02.2020
3156 Clouds -38 1036 99 0 0.51 81 14:42 04.02.2020
3157 Clouds -38 1036 99 0 0.51 81 14:23 04.02.2020
3158 Clouds -38 1036 99 0 0.51 81 14:23 04.02.2020
3159 Clouds -38 1037 96 0 0.54 98 13:57 04.02.2020
3160 Clouds -38 1037 96 0 0.54 98 13:39 04.02.2020
3161 Clouds -37 1037 96 0 0.52 93 13:20 04.02.2020
3162 Clouds -37 1037 96 0 0.52 93 12:44 04.02.2020
3163 Clouds -37 1037 96 0 0.52 93 12:26 04.02.2020
3164 Clouds -37 1037 96 0 0.52 93 11:58 04.02.2020
3165 Clouds -37 1037 96 0 0.52 93 11:39 04.02.2020
3166 Clouds -37 1037 94 0 0.56 96 11:21 04.02.2020
3167 Clouds -37 1037 94 0 0.56 96 10:56 04.02.2020
3168 Clouds -37 1037 94 0 0.56 96 10:36 04.02.2020
3169 Clouds -37 1037 94 0 0.56 96 10:18 04.02.2020
3170 Clouds -37 1037 94 0 0.56 96 09:41 04.02.2020
3171 Clouds -37 1037 94 0 0.56 96 09:23 04.02.2020
3172 Clouds -37 1037 94 0 0.56 96 08:50 04.02.2020
3173 Clouds -37 1037 94 0 0.56 96 08:29 04.02.2020
3174 Clouds -34 1037 92 0 0.55 107 07:59 04.02.2020
3175 Clouds -34 1037 92 0 0.55 107 07:39 04.02.2020
3176 Clouds -34 1037 92 0 0.55 107 07:21 04.02.2020
3177 Clouds -34 1037 92 0 0.55 107 06:42 04.02.2020
3178 Clouds -34 1037 92 0 0.55 107 05:50 04.02.2020
3179 Clouds -34 1037 92 0 0.55 107 05:22 04.02.2020
3180 Clouds -36 1038 92 0 0.56 177 03:50 04.02.2020
3181 Clouds -36 1038 92 0 0.56 177 03:31 04.02.2020
3182 Clouds -36 1038 92 0 0.56 177 02:53 04.02.2020
3183 Clouds -36 1038 92 0 0.56 177 02:31 04.02.2020
3184 Clouds -39 1039 98 0 0.72 164 01:52 04.02.2020
3185 Clouds -39 1039 98 0 0.72 164 01:33 04.02.2020
3186 Clear -39 1038 97 0 0.67 149 00:44 04.02.2020
3187 Clear -39 1038 97 0 0.67 149 00:21 04.02.2020
3188 Clear -39 1038 97 0 0.67 149 23:39 03.02.2020
3189 Clear -39 1039 96 0 0.52 156 23:19 03.02.2020
3190 Clear -39 1039 96 0 0.52 156 22:39 03.02.2020
3191 Clear -39 1039 96 0 0.52 156 22:39 03.02.2020
3192 Clear -39 1039 96 0 0.52 156 22:20 03.02.2020
3193 Clear -39 1039 96 0 0.52 156 21:55 03.02.2020
3194 Clear -39 1039 96 0 0.52 156 21:55 03.02.2020
3195 Clear -39 1039 96 0 0.52 156 21:37 03.02.2020
3196 Clear -39 1039 96 0 0.52 156 21:18 03.02.2020
3197 Clear -39 1039 96 0 0.52 156 21:18 03.02.2020
3198 Clear -39 1039 96 0 0.52 156 20:42 03.02.2020
3199 Clear -39 1039 96 0 0.7 158 20:19 03.02.2020
3200 Clear -39 1039 96 0 0.7 158 20:19 03.02.2020
3201 Clouds -39 1039 96 0 0.78 170 19:57 03.02.2020
3202 Clouds -39 1039 96 0 0.78 170 19:39 03.02.2020
3203 Clouds -39 1039 96 0 0.78 170 19:19 03.02.2020
3204 Clouds -39 1039 96 0 0.78 170 18:54 03.02.2020
3205 Clouds -39 1039 96 0 0.78 170 18:36 03.02.2020
3206 Clouds -39 1039 96 0 0.78 170 18:18 03.02.2020
3207 Clouds -39 1039 96 0 0.78 170 18:18 03.02.2020
3208 Clouds -39 1039 96 0 0.78 170 17:40 03.02.2020
3209 Clouds -39 1039 96 0 0.8 187 17:20 03.02.2020
3210 Clouds -39 1039 96 0 0.8 187 16:59 03.02.2020
3211 Clouds -39 1039 96 0 0.8 187 16:39 03.02.2020
3212 Clouds -39 1039 96 0 0.8 187 16:20 03.02.2020
3213 Clouds -39 1039 96 0 0.8 187 15:55 03.02.2020
3214 Clouds -39 1039 96 0 0.8 187 15:37 03.02.2020
3215 Clouds -39 1039 96 0 0.8 187 15:18 03.02.2020
3216 Clouds -39 1039 96 0 0.8 187 14:42 03.02.2020
3217 Clouds -39 1039 96 0 0.8 187 14:23 03.02.2020
3218 Clear -39 1040 97 0 0.65 152 13:56 03.02.2020
3219 Clear -39 1040 97 0 0.65 152 13:37 03.02.2020
3220 Clear -39 1040 97 0 0.65 152 13:37 03.02.2020
3221 Clear -39 1040 97 0 0.65 152 13:19 03.02.2020
3222 Clear -38 1040 96 0 0.65 152 12:55 03.02.2020
3223 Clear -38 1040 96 0 0.65 152 12:36 03.02.2020
3224 Clear -38 1040 96 0 0.65 152 12:18 03.02.2020
3225 Clear -38 1040 96 0 0.65 152 11:38 03.02.2020
3226 Clouds -38 1040 95 0 0.93 172 11:19 03.02.2020
3227 Clouds -38 1040 95 0 0.93 172 10:57 03.02.2020
3228 Clouds -38 1040 95 0 0.93 172 10:38 03.02.2020
3229 Clouds -38 1040 95 0 0.93 172 10:38 03.02.2020
3230 Clouds -38 1040 95 0 0.93 172 10:19 03.02.2020
3231 Clouds -38 1040 95 0 0.93 172 09:39 03.02.2020
3232 Clouds -38 1040 95 0 0.93 172 09:20 03.02.2020
3233 Clouds -38 1040 95 0 0.93 172 08:41 03.02.2020
3234 Clouds -38 1040 95 0 0.93 172 08:23 03.02.2020
3235 Clouds -37 1038 97 0 0.94 174 07:56 03.02.2020
3236 Clouds -37 1038 97 0 0.94 174 07:38 03.02.2020
3237 Clouds -37 1038 97 0 0.94 174 07:19 03.02.2020
3238 Clouds -37 1038 97 0 0.94 174 06:42 03.02.2020
3239 Clouds -37 1038 97 0 0.94 174 06:24 03.02.2020
3240 Clouds -37 1038 97 0 0.94 174 05:35 03.02.2020
3241 Clear -36 1039 92 0 1.24 202 04:50 03.02.2020
3242 Clear -36 1039 92 0 1.24 202 02:58 03.02.2020
3243 Clear -36 1039 92 0 1.24 202 02:33 03.02.2020
3244 Clear -38 1038 96 0 1.16 196 01:24 03.02.2020
3245 Clear -38 1038 96 0 1.16 196 00:37 03.02.2020
3246 Clear -38 1038 96 0 1.16 196 00:19 03.02.2020
3247 Clear -38 1038 96 0 1.16 196 23:37 02.02.2020
3248 Clear -38 1038 96 0 1.19 200 23:19 02.02.2020
3249 Clear -38 1038 96 0 1.19 200 22:40 02.02.2020
3250 Clear -38 1038 96 0 1.19 200 22:22 02.02.2020
3251 Clear -38 1038 96 0 1.19 200 22:22 02.02.2020
3252 Clear -38 1038 96 0 1.19 200 21:59 02.02.2020
3253 Clear -38 1038 96 0 1.19 200 21:39 02.02.2020
3254 Clear -38 1038 96 0 1.19 200 21:21 02.02.2020
3255 Clear -38 1038 96 0 1.19 200 20:58 02.02.2020
3256 Clear -38 1038 96 0 1.19 200 20:39 02.02.2020
3257 Clear -37 1037 98 0 1.03 198 20:20 02.02.2020
3258 Clear -37 1037 99 0 1 205 19:59 02.02.2020
3259 Clear -37 1037 99 0 1 205 19:59 02.02.2020
3260 Clear -37 1037 99 0 1 205 19:41 02.02.2020
3261 Clear -37 1037 99 0 1 205 19:22 02.02.2020
3262 Clear -37 1037 99 0 1 205 18:57 02.02.2020
3263 Clear -37 1037 99 0 1 205 18:38 02.02.2020
3264 Clear -37 1037 99 0 1 205 18:38 02.02.2020
3265 Clear -37 1037 99 0 1 205 18:20 02.02.2020
3266 Clear -37 1037 99 0 1 205 17:57 02.02.2020
3267 Clear -37 1037 99 0 1 205 17:38 02.02.2020
3268 Clear -37 1037 99 0 0.99 212 17:18 02.02.2020
3269 Clear -37 1037 99 0 0.99 212 16:58 02.02.2020
3270 Clear -37 1037 99 0 0.99 212 16:38 02.02.2020
3271 Clear -37 1037 99 0 0.99 212 16:19 02.02.2020
3272 Clear -37 1037 99 0 0.99 212 15:57 02.02.2020
3273 Clear -37 1037 99 0 0.99 212 15:38 02.02.2020
3274 Clear -37 1037 99 0 0.99 212 15:19 02.02.2020
3275 Clear -37 1037 99 0 0.99 212 15:19 02.02.2020
3276 Clear -37 1037 99 0 0.99 212 14:44 02.02.2020
3277 Clear -37 1037 100 0 0.56 186 14:20 02.02.2020
3278 Clear -37 1037 100 0 0.56 186 13:59 02.02.2020
3279 Clear -37 1037 100 0 0.56 186 13:41 02.02.2020
3280 Clear -37 1037 100 0 0.56 186 13:22 02.02.2020
3281 Clear -37 1037 100 0 0.73 203 12:57 02.02.2020
3282 Clear -37 1037 100 0 0.78 213 12:39 02.02.2020
3283 Clear -37 1037 100 0 0.78 213 12:21 02.02.2020
3284 Clear -37 1037 100 0 0.73 203 11:54 02.02.2020
3285 Clear -37 1037 100 0 0.73 203 11:36 02.02.2020
3286 Clear -36 1037 99 0 1.05 206 11:18 02.02.2020
3287 Clear -36 1037 99 0 1.05 206 10:54 02.02.2020
3288 Clear -36 1037 99 0 1.05 206 10:36 02.02.2020
3289 Clear -36 1037 99 0 1.05 206 10:18 02.02.2020
3290 Clear -36 1037 99 0 1.05 206 09:40 02.02.2020
3291 Clouds -36 1036 100 0 1.07 207 09:21 02.02.2020
3292 Clouds -36 1036 100 0 1.07 207 08:56 02.02.2020
3293 Clear -36 1037 99 0 1.05 206 08:37 02.02.2020
3294 Clouds -35 1035 100 0 0.58 218 08:18 02.02.2020
3295 Clouds -35 1035 100 0 0.58 218 07:42 02.02.2020
3296 Clouds -35 1035 100 0 0.58 218 07:42 02.02.2020
3297 Clouds -35 1035 100 0 0.58 218 07:24 02.02.2020
3298 Clouds -35 1035 100 0 0.58 218 06:38 02.02.2020
3299 Clouds -35 1035 100 0 0.58 218 06:18 02.02.2020
3300 Clouds -32 1036 99 0 1.02 197 05:20 02.02.2020
3301 Clouds -32 1036 99 0 1.02 197 04:30 02.02.2020
3302 Clouds -32 1036 99 0 1.02 197 03:24 02.02.2020
3303 Clouds -32 1036 99 0 1.02 197 02:22 02.02.2020
3304 Clouds -32 1035 100 0 0.66 203 01:51 02.02.2020
3305 Clouds -32 1035 100 0 0.53 207 00:56 02.02.2020
3306 Clouds -32 1035 100 0 0.53 207 00:37 02.02.2020
3307 Clouds -32 1035 100 0 0.53 207 00:18 02.02.2020
3308 Clouds -32 1035 100 0 0.53 207 23:41 01.02.2020
3309 Clouds -30 1034 100 0 0.74 126 23:21 01.02.2020
3310 Clouds -30 1034 100 0 0.74 126 22:45 01.02.2020
3311 Clouds -30 1034 100 0 0.74 126 22:19 01.02.2020
3312 Clouds -30 1034 100 0 0.74 126 21:42 01.02.2020
3313 Clouds -30 1034 100 0 0.74 126 21:19 01.02.2020
3314 Clouds -30 1034 100 0 0.74 126 20:57 01.02.2020
3315 Clouds -30 1034 100 0 0.74 126 20:38 01.02.2020
3316 Clouds -30 1033 99 0 0.54 69 20:19 01.02.2020
3317 Clouds -30 1033 99 0 0.54 69 19:56 01.02.2020
3318 Clouds -30 1033 99 0 0.54 69 19:37 01.02.2020
3319 Clouds -30 1033 99 0 0.54 69 19:19 01.02.2020
3320 Clouds -30 1033 99 0 0.54 69 19:19 01.02.2020
3321 Clouds -30 1033 99 0 0.54 69 18:56 01.02.2020
3322 Clouds -30 1033 99 0 0.54 69 18:37 01.02.2020
3323 Clouds -30 1033 99 0 0.54 69 18:19 01.02.2020
3324 Clouds -30 1033 99 0 0.54 69 17:55 01.02.2020
3325 Clouds -30 1033 99 0 0.54 69 17:37 01.02.2020
3326 Clouds -29 1033 97 0 0.77 87 17:18 01.02.2020
3327 Clouds -29 1033 97 0 0.77 87 16:42 01.02.2020
3328 Clouds -29 1033 97 0 0.77 87 16:23 01.02.2020
3329 Clouds -29 1033 97 0 0.77 87 15:56 01.02.2020
3330 Clouds -29 1033 97 0 0.77 87 15:38 01.02.2020
3331 Clouds -29 1033 97 0 0.77 87 15:18 01.02.2020
3332 Clouds -29 1033 97 0 0.77 87 15:18 01.02.2020
3333 Clouds -29 1033 97 0 0.77 87 14:40 01.02.2020
3334 Clouds -29 1032 95 0 0.86 75 14:21 01.02.2020
3335 Clouds -29 1032 95 0 0.86 75 13:45 01.02.2020
3336 Clouds -29 1032 95 0 0.88 69 13:24 01.02.2020
3337 Clouds -29 1032 95 0 0.88 69 12:57 01.02.2020
3338 Clouds -29 1032 95 0 0.88 69 12:39 01.02.2020
3339 Clouds -29 1032 95 0 0.88 69 12:21 01.02.2020
3340 Clouds -29 1032 95 0 0.88 69 11:42 01.02.2020
3341 Clouds -29 1032 95 0 0.88 69 11:23 01.02.2020
3342 Clouds -27 1032 90 0 0.98 81 10:59 01.02.2020
3343 Clouds -27 1032 90 0 0.98 81 10:40 01.02.2020
3344 Clouds -27 1032 90 0 0.98 81 10:22 01.02.2020
3345 Clouds -27 1032 90 0 0.98 81 09:58 01.02.2020
3346 Clouds -27 1032 90 0 0.98 81 09:40 01.02.2020
3347 Clouds -27 1032 90 0 0.98 81 09:20 01.02.2020
3348 Clouds -27 1032 90 0 0.98 81 08:49 01.02.2020
3349 Clouds -26 1031 89 0 1.27 70 07:51 01.02.2020
3350 Clouds -26 1031 89 0 1.27 70 07:28 01.02.2020
3351 Clouds -26 1031 89 0 1.27 70 07:28 01.02.2020
3352 Clouds -26 1031 89 0 1.27 70 07:28 01.02.2020
3353 Clouds -26 1031 89 0 1.27 70 06:59 01.02.2020
3354 Clouds -26 1031 89 0 1.27 70 06:40 01.02.2020
3355 Clouds -26 1031 89 0 1.27 70 05:53 01.02.2020
3356 Clouds -24 1029 86 0 1.35 42 04:22 01.02.2020
3357 Clouds -24 1029 86 0 1.35 42 03:23 01.02.2020
3358 Clouds -24 1029 86 0 1.35 42 02:48 01.02.2020
3359 Clouds -24 1029 86 0 1.35 42 02:30 01.02.2020
3360 Clouds -25 1028 84 0 0.81 350 01:56 01.02.2020
3361 Clouds -25 1028 84 0 0.81 350 01:37 01.02.2020
3362 Clouds -25 1028 84 0 1 3 00:38 01.02.2020
3363 Clouds -25 1028 84 0 1 3 00:19 01.02.2020
3364 Clouds -25 1028 84 0 1 3 23:38 31.01.2020
3365 Clouds -27 1026 86 0 0.33 25 23:18 31.01.2020
3366 Clouds -27 1026 86 0 0.33 25 23:18 31.01.2020
3367 Clouds -27 1026 86 0 0.33 25 22:55 31.01.2020
3368 Clouds -27 1026 86 0 0.33 25 22:37 31.01.2020
3369 Clouds -27 1026 86 0 0.33 25 22:19 31.01.2020
3370 Clouds -27 1026 86 0 0.33 25 21:39 31.01.2020
3371 Clouds -27 1026 86 0 0.33 25 21:21 31.01.2020
3372 Clouds -27 1026 86 0 0.33 25 21:21 31.01.2020
3373 Clouds -27 1026 86 0 0.33 25 20:57 31.01.2020
3374 Clouds -27 1026 86 0 0.33 25 20:39 31.01.2020
3375 Clouds -27 1025 90 0 0.43 188 20:21 31.01.2020
3376 Clouds -27 1025 90 0 0.43 188 19:56 31.01.2020
3377 Clouds -27 1025 90 0 0.43 188 19:38 31.01.2020
3378 Clouds -27 1025 90 0 0.43 188 19:38 31.01.2020
3379 Clouds -27 1025 90 0 0.43 188 19:19 31.01.2020
3380 Clouds -27 1025 90 0 0.43 188 18:54 31.01.2020
3381 Clouds -27 1025 90 0 0.43 188 18:36 31.01.2020
3382 Clouds -27 1025 90 0 0.43 188 18:18 31.01.2020
3383 Clouds -27 1025 90 0 0.43 188 17:40 31.01.2020
3384 Clouds -26 1023 93 0 1.12 251 17:21 31.01.2020
3385 Clouds -26 1023 93 0 1.12 251 16:56 31.01.2020
3386 Clouds -26 1023 93 0 1.12 251 16:38 31.01.2020
3387 Clouds -26 1023 93 0 1.12 251 16:18 31.01.2020
3388 Clouds -26 1023 93 0 1.12 251 15:56 31.01.2020
3389 Clouds -26 1023 93 0 1.12 251 15:38 31.01.2020
3390 Clouds -26 1023 93 0 1.12 251 15:19 31.01.2020
3391 Clouds -26 1023 93 0 1.12 251 14:42 31.01.2020
3392 Clouds -26 1023 93 0 1.12 251 14:42 31.01.2020
3393 Clouds -26 1023 93 0 1.12 251 14:23 31.01.2020
3394 Clouds -26 1019 97 0 1.77 257 13:52 31.01.2020
3395 Clouds -26 1019 97 0 1.77 257 13:32 31.01.2020
3396 Clouds -26 1019 97 0 1.66 257 12:56 31.01.2020
3397 Clouds -26 1019 97 0 1.66 257 12:38 31.01.2020
3398 Clouds -26 1019 97 0 1.66 257 12:20 31.01.2020
3399 Clouds -26 1019 97 0 1.66 257 11:42 31.01.2020
3400 Clouds -26 1019 97 0 1.66 257 11:23 31.01.2020
3401 Clouds -24 1016 98 0 1.63 252 10:58 31.01.2020
3402 Clouds -24 1016 98 0 1.63 252 10:39 31.01.2020
3403 Clouds -24 1016 98 0 1.63 252 10:21 31.01.2020
3404 Clouds -24 1016 98 0 1.63 252 09:56 31.01.2020
3405 Clouds -26 1017 99 0 1.49 256 09:38 31.01.2020
3406 Clouds -26 1017 99 0 1.49 256 09:38 31.01.2020
3407 Clouds -24 1016 98 0 1.63 252 09:18 31.01.2020
3408 Clouds -24 1016 98 0 1.63 252 08:50 31.01.2020
3409 Clouds -24 1016 98 0 1.63 252 08:25 31.01.2020
3410 Clouds -26 1017 99 0 1.49 256 08:25 31.01.2020
3411 Clouds -25 1014 98 0 1.47 287 07:52 31.01.2020
3412 Clouds -25 1014 98 0 1.47 287 07:24 31.01.2020
3413 Clouds -25 1014 98 0 1.47 287 06:42 31.01.2020
3414 Clouds -25 1014 98 0 1.47 287 05:58 31.01.2020
3415 Clouds -25 1014 98 0 1.47 287 05:40 31.01.2020
3416 Snow -22 1011 98 0 0.38 342 04:47 31.01.2020
3417 Snow -22 1011 98 0 0.38 342 02:58 31.01.2020
3418 Snow -22 1010 98 0 0.96 58 01:33 31.01.2020
3419 Snow -22 1010 99 0 0.89 66 00:44 31.01.2020
3420 Snow -22 1010 99 0 0.89 66 00:25 31.01.2020
3421 Snow -22 1010 99 0 0.89 66 23:53 30.01.2020
3422 Snow -22 1010 99 0 0.89 66 23:24 30.01.2020
3423 Clouds -23 1010 96 0 1.23 80 22:56 30.01.2020
3424 Clouds -23 1010 96 0 1.23 80 22:36 30.01.2020
3425 Clouds -23 1010 96 0 1.23 80 22:18 30.01.2020
3426 Clouds -23 1010 96 0 1.23 80 22:18 30.01.2020
3427 Clouds -23 1010 96 0 1.23 80 21:55 30.01.2020
3428 Clouds -23 1010 96 0 1.23 80 21:36 30.01.2020
3429 Clouds -23 1010 96 0 1.23 80 21:18 30.01.2020
3430 Clouds -23 1010 96 0 1.23 80 20:40 30.01.2020
3431 Snow -23 1012 97 0 1.35 71 20:21 30.01.2020
3432 Snow -23 1012 97 0 1.35 71 19:56 30.01.2020
3433 Snow -23 1012 97 0 1.35 71 19:38 30.01.2020
3434 Snow -23 1012 97 0 1.35 71 19:18 30.01.2020
3435 Snow -23 1012 97 0 1.35 71 18:41 30.01.2020
3436 Snow -23 1012 97 0 1.35 71 18:21 30.01.2020
3437 Snow -23 1012 97 0 1.35 71 17:56 30.01.2020
3438 Snow -23 1012 97 0 1.35 71 17:37 30.01.2020
3439 Snow -24 1014 98 0 1.58 71 17:18 30.01.2020
3440 Snow -24 1014 98 0 1.58 71 16:56 30.01.2020
3441 Snow -24 1014 98 0 1.58 71 16:56 30.01.2020
3442 Snow -24 1014 98 0 1.58 71 16:37 30.01.2020
3443 Snow -24 1014 98 0 1.58 71 16:19 30.01.2020
3444 Snow -24 1014 98 0 1.58 71 15:43 30.01.2020
3445 Snow -24 1014 98 0 1.58 71 15:19 30.01.2020
3446 Snow -24 1014 98 0 1.58 71 14:50 30.01.2020
3447 Snow -24 1014 98 0 1.58 71 14:50 30.01.2020
3448 Snow -24 1014 98 0 1.58 71 14:27 30.01.2020
3449 Snow -24 1014 98 0 1.58 71 14:27 30.01.2020
3450 Clouds -25 1016 90 0 1.52 78 13:56 30.01.2020
3451 Clouds -25 1016 90 0 1.52 78 13:36 30.01.2020
3452 Clouds -26 1017 90 0 1.41 78 13:18 30.01.2020
3453 Clouds -26 1017 90 0 1.41 78 12:42 30.01.2020
3454 Clouds -26 1017 90 0 1.41 78 12:24 30.01.2020
3455 Clouds -26 1017 90 0 1.41 78 11:58 30.01.2020
3456 Clouds -26 1017 90 0 1.41 78 11:40 30.01.2020
3457 Clouds -27 1018 91 0 1.38 71 11:21 30.01.2020
3458 Clouds -27 1018 91 0 1.38 71 10:42 30.01.2020
3459 Clouds -27 1018 91 0 1.38 71 10:24 30.01.2020
3460 Clouds -27 1018 91 0 1.38 71 09:49 30.01.2020
3461 Clouds -27 1018 91 0 1.38 71 09:49 30.01.2020
3462 Clouds -27 1018 91 0 1.38 71 09:30 30.01.2020
3463 Clouds -27 1018 91 0 1.38 71 08:59 30.01.2020
3464 Clouds -27 1018 91 0 1.38 71 08:41 30.01.2020
3465 Clouds -28 1020 92 0 1.37 82 08:20 30.01.2020
3466 Clouds -28 1020 92 0 1.37 82 07:52 30.01.2020
3467 Clouds -28 1020 92 0 1.37 82 07:52 30.01.2020
3468 Clouds -28 1020 92 0 1.37 82 07:32 30.01.2020
3469 Clouds -28 1020 92 0 1.37 82 06:47 30.01.2020
3470 Clouds -28 1020 92 0 1.37 82 06:29 30.01.2020
3471 Clouds -28 1020 92 0 1.37 82 05:47 30.01.2020
3472 Clouds -28 1020 92 0 1.37 82 05:24 30.01.2020
3473 Clear -27 1021 92 0 1.23 87 03:55 30.01.2020
3474 Clear -27 1021 92 0 1.23 87 03:37 30.01.2020
3475 Clear -27 1021 92 0 1.23 87 02:48 30.01.2020
3476 Clouds -29 1020 97 0 1.26 86 00:53 30.01.2020
3477 Clouds -29 1020 97 0 1.26 86 00:21 30.01.2020
3478 Clouds -29 1020 97 0 1.26 86 23:48 29.01.2020
3479 Clouds -29 1020 97 0 1.26 86 23:22 29.01.2020
3480 Clouds -26 1020 93 0 1.38 75 22:59 29.01.2020
3481 Clouds -26 1020 93 0 1.38 75 22:39 29.01.2020
3482 Clouds -26 1020 93 0 1.38 75 22:19 29.01.2020
3483 Clouds -26 1020 93 0 1.38 75 21:58 29.01.2020
3484 Clouds -26 1020 93 0 1.38 75 21:39 29.01.2020
3485 Clouds -26 1020 93 0 1.38 75 21:19 29.01.2020
3486 Clouds -26 1020 93 0 1.38 75 20:58 29.01.2020
3487 Clouds -26 1020 93 0 1.38 75 20:39 29.01.2020
3488 Clouds -27 1020 97 0 1.38 78 20:21 29.01.2020
3489 Clouds -27 1020 97 0 1.38 78 19:57 29.01.2020
3490 Clouds -27 1020 97 0 1.38 78 19:37 29.01.2020
3491 Clouds -27 1020 97 0 1.38 78 19:19 29.01.2020
3492 Clouds -27 1020 97 0 1.38 78 18:55 29.01.2020
3493 Clouds -27 1020 97 0 1.38 78 18:37 29.01.2020
3494 Clouds -27 1020 97 0 1.38 78 18:18 29.01.2020
3495 Clouds -27 1020 97 0 1.38 78 18:18 29.01.2020
3496 Clouds -27 1020 97 0 1.38 78 17:40 29.01.2020
3497 Clouds -27 1020 97 0 1.38 78 17:22 29.01.2020
3498 Clouds -27 1020 97 0 1.38 78 17:22 29.01.2020
3499 Clouds -27 1020 97 0 1.5 93 16:42 29.01.2020
3500 Clouds -27 1020 97 0 1.5 93 16:23 29.01.2020
3501 Clouds -27 1020 97 0 1.5 93 15:56 29.01.2020
3502 Clouds -27 1020 97 0 1.5 93 15:56 29.01.2020
3503 Clouds -27 1020 97 0 1.5 93 15:37 29.01.2020
3504 Clouds -27 1020 97 0 1.5 93 15:19 29.01.2020
3505 Clouds -27 1020 97 0 1.5 93 14:44 29.01.2020
3506 Clouds -27 1021 98 0 1.58 99 14:21 29.01.2020
3507 Clouds -27 1021 98 0 1.58 99 13:56 29.01.2020
3508 Clouds -27 1021 98 0 1.58 99 13:38 29.01.2020
3509 Snow -27 1021 98 0 1.64 83 13:19 29.01.2020
3510 Snow -27 1021 98 0 1.64 83 12:56 29.01.2020
3511 Snow -27 1021 98 0 1.64 83 12:37 29.01.2020
3512 Snow -27 1021 98 0 1.64 83 12:19 29.01.2020
3513 Snow -27 1021 98 0 1.64 83 11:45 29.01.2020
3514 Snow -27 1021 98 0 1.64 83 11:22 29.01.2020
3515 Snow -28 1023 99 0 1.61 91 10:47 29.01.2020
3516 Snow -28 1023 99 0 1.61 91 10:27 29.01.2020
3517 Snow -28 1023 99 0 1.61 91 09:59 29.01.2020
3518 Snow -28 1023 99 0 1.61 91 09:40 29.01.2020
3519 Snow -28 1023 99 0 1.61 91 09:20 29.01.2020
3520 Snow -28 1023 99 0 1.61 91 09:20 29.01.2020
3521 Snow -28 1023 99 0 1.61 91 08:56 29.01.2020
3522 Snow -28 1023 99 0 1.61 91 08:38 29.01.2020
3523 Snow -28 1023 99 0 1.61 91 08:38 29.01.2020
3524 Clouds -31 1025 73 0 1.34 80 08:18 29.01.2020
3525 Clouds -31 1025 74 0 1.31 80 07:43 29.01.2020
3526 Clouds -31 1025 74 0 1.31 80 07:23 29.01.2020
3527 Clouds -31 1025 74 0 1.31 80 07:23 29.01.2020
3528 Clouds -31 1025 74 0 1.31 80 06:38 29.01.2020
3529 Clouds -31 1025 74 0 1.31 80 06:20 29.01.2020
3530 Clouds -31 1025 74 0 1.31 80 05:54 29.01.2020
3531 Clouds -31 1025 74 0 1.31 80 05:35 29.01.2020
3532 Clouds -34 1027 68 0 1.1 81 04:49 29.01.2020
3533 Clouds -34 1027 68 0 1.1 81 04:25 29.01.2020
3534 Clouds -34 1027 68 0 1.1 81 02:41 29.01.2020
3535 Clouds -37 1029 66 0 1.12 88 01:44 29.01.2020
3536 Clear -37 1029 67 0 1.17 88 00:41 29.01.2020
3537 Clear -37 1029 67 0 1.17 88 00:23 29.01.2020
3538 Clear -37 1029 67 0 1.17 88 23:44 28.01.2020
3539 Clear -37 1029 66 0 1.2 87 23:21 28.01.2020
3540 Clear -37 1029 66 0 1.2 87 22:57 28.01.2020
3541 Clear -37 1029 66 0 1.2 87 22:39 28.01.2020
3542 Clear -37 1029 66 0 1.2 87 22:20 28.01.2020
3543 Clear -37 1029 66 0 1.2 87 21:42 28.01.2020
3544 Clear -37 1029 66 0 1.2 87 21:22 28.01.2020
3545 Clear -37 1029 66 0 1.2 87 20:57 28.01.2020
3546 Clear -37 1029 66 0 1.2 87 20:39 28.01.2020
3547 Clear -37 1029 66 0 1.2 87 20:39 28.01.2020
3548 Clouds -38 1030 66 0 1.17 95 20:21 28.01.2020
3549 Clouds -38 1031 69 0 1.08 91 19:39 28.01.2020
3550 Clouds -38 1031 69 0 1.08 91 19:20 28.01.2020
3551 Clouds -38 1031 69 0 1.08 91 18:58 28.01.2020
3552 Clouds -38 1031 69 0 1.08 91 18:58 28.01.2020
3553 Clouds -38 1031 69 0 1.08 91 18:39 28.01.2020
3554 Clouds -38 1031 69 0 1.08 91 18:21 28.01.2020
3555 Clouds -38 1031 69 0 1.08 91 17:57 28.01.2020
3556 Clouds -38 1031 69 0 1.08 91 17:37 28.01.2020
3557 Clouds -37 1031 71 0 1.2 84 17:19 28.01.2020
3558 Clouds -37 1031 71 0 1.2 84 16:54 28.01.2020
3559 Clouds -37 1031 71 0 1.2 84 16:36 28.01.2020
3560 Clouds -37 1031 71 0 1.2 84 16:18 28.01.2020
3561 Clouds -37 1031 71 0 1.2 84 15:41 28.01.2020
3562 Clouds -37 1031 71 0 1.2 84 15:19 28.01.2020
3563 Clouds -37 1031 71 0 1.2 84 14:46 28.01.2020
3564 Clouds -37 1033 67 0 1.25 87 14:20 28.01.2020
3565 Clouds -37 1033 67 0 1.25 87 13:58 28.01.2020
3566 Clouds -37 1033 67 0 1.25 87 13:39 28.01.2020
3567 Clouds -39 1033 64 0 1.17 92 13:20 28.01.2020
3568 Clouds -39 1033 64 0 1.17 92 12:42 28.01.2020
3569 Clouds -39 1033 64 0 1.17 92 12:23 28.01.2020
3570 Clouds -39 1033 64 0 1.17 92 11:48 28.01.2020
3571 Clouds -39 1033 64 0 1.17 92 11:23 28.01.2020
3572 Clear -40 1033 62 0 0.94 102 10:58 28.01.2020
3573 Clear -40 1033 62 0 0.94 102 10:39 28.01.2020
3574 Clear -40 1033 62 0 0.94 102 10:20 28.01.2020
3575 Clear -40 1033 62 0 0.94 102 09:43 28.01.2020
3576 Clear -40 1033 62 0 0.94 102 09:21 28.01.2020
3577 Clear -40 1033 62 0 0.94 102 08:58 28.01.2020
3578 Clear -40 1033 62 0 0.94 102 08:39 28.01.2020
3579 Clear -40 1033 60 0 0.81 105 08:19 28.01.2020
3580 Clear -40 1033 60 0 0.81 105 08:19 28.01.2020
3581 Clear -40 1033 60 0 0.81 105 07:37 28.01.2020
3582 Clear -40 1033 60 0 0.81 105 06:50 28.01.2020
3583 Clear -40 1033 60 0 0.81 105 06:26 28.01.2020
3584 Clear -40 1033 60 0 0.81 105 05:54 28.01.2020
3585 Clear -40 1033 60 0 0.81 105 05:26 28.01.2020
3586 Clear -39 1032 60 0 0.58 125 04:28 28.01.2020
3587 Clear -39 1032 60 0 0.58 125 02:58 28.01.2020
3588 Clear -39 1032 60 0 0.58 125 02:25 28.01.2020
3589 Clear -39 1032 60 0 0.58 125 02:25 28.01.2020
3590 Clear -42 1032 62 0 0.62 125 01:57 28.01.2020
3591 Clear -42 1032 62 0 0.62 125 01:57 28.01.2020
3592 Clear -42 1032 62 0 0.62 125 01:26 28.01.2020
3593 Clear -42 1032 63 0 0.53 127 00:51 28.01.2020
3594 Clear -42 1032 63 0 0.53 127 00:29 28.01.2020
3595 Clear -42 1032 63 0 0.53 127 23:51 27.01.2020
3596 Clear -42 1032 63 0 0.53 127 23:30 27.01.2020
3597 Clear -42 1031 66 0 0.52 122 22:58 27.01.2020
3598 Clear -42 1031 66 0 0.52 122 22:40 27.01.2020
3599 Clear -42 1031 66 0 0.52 122 22:19 27.01.2020
3600 Clear -42 1031 66 0 0.52 122 21:55 27.01.2020
3601 Clear -42 1031 66 0 0.52 122 21:37 27.01.2020
3602 Clear -42 1031 66 0 0.52 122 21:18 27.01.2020
3603 Clear -42 1031 66 0 0.52 122 20:43 27.01.2020
3604 Clear -42 1031 66 0 0.52 122 20:22 27.01.2020
3605 Clear -42 1030 69 0 0.65 116 19:59 27.01.2020
3606 Clear -42 1030 69 0 0.65 116 19:41 27.01.2020
3607 Clear -42 1030 69 0 0.65 116 19:22 27.01.2020
3608 Clear -42 1030 69 0 0.65 116 18:56 27.01.2020
3609 Clear -42 1030 69 0 0.65 116 18:38 27.01.2020
3610 Clear -42 1030 69 0 0.65 116 18:19 27.01.2020
3611 Clear -42 1030 69 0 0.65 116 17:39 27.01.2020
3612 Clear -42 1029 72 0 0.34 133 17:21 27.01.2020
3613 Clear -42 1029 72 0 0.34 133 16:59 27.01.2020
3614 Clear -42 1029 72 0 0.34 133 16:41 27.01.2020
3615 Clear -42 1029 72 0 0.34 133 16:23 27.01.2020
3616 Clear -42 1029 72 0 0.34 133 15:55 27.01.2020
3617 Clear -42 1029 72 0 0.34 133 15:37 27.01.2020
3618 Clear -42 1029 72 0 0.34 133 15:37 27.01.2020
3619 Clear -42 1029 72 0 0.34 133 15:18 27.01.2020
3620 Clear -42 1029 72 0 0.34 133 14:42 27.01.2020
3621 Clear -42 1029 72 0 0.34 133 14:22 27.01.2020
3622 Clear -43 1028 76 0 0.78 109 13:58 27.01.2020
3623 Clear -43 1028 76 0 0.78 109 13:39 27.01.2020
3624 Clear -43 1028 76 0 0.78 109 13:19 27.01.2020
3625 Clear -43 1028 76 0 0.78 102 12:54 27.01.2020
3626 Clear -43 1028 76 0 0.78 102 12:36 27.01.2020
3627 Clear -43 1028 76 0 0.78 102 12:18 27.01.2020
3628 Clear -43 1028 76 0 0.78 102 11:41 27.01.2020
3629 Clear -43 1028 79 0 0.34 131 11:20 27.01.2020
3630 Clear -43 1028 79 0 0.34 131 10:43 27.01.2020
3631 Clear -43 1028 79 0 0.34 131 10:24 27.01.2020
3632 Clear -43 1028 79 0 0.34 131 09:56 27.01.2020
3633 Clear -43 1028 79 0 0.34 131 09:38 27.01.2020
3634 Clear -43 1028 79 0 0.34 131 09:18 27.01.2020
3635 Clear -43 1028 79 0 0.34 131 08:42 27.01.2020
3636 Clear -43 1027 83 0 0.68 115 08:20 27.01.2020
3637 Clear -43 1027 86 0 0.6 119 07:54 27.01.2020
3638 Clear -43 1027 86 0 0.6 119 07:34 27.01.2020
3639 Clear -43 1027 86 0 0.6 119 06:53 27.01.2020
3640 Clear -43 1027 86 0 0.6 119 06:25 27.01.2020
3641 Clear -43 1027 86 0 0.6 119 05:24 27.01.2020
3642 Clear -42 1027 83 0 0.32 174 03:49 27.01.2020
3643 Clear -42 1027 83 0 0.32 174 02:38 27.01.2020
3644 Clear -44 1027 90 0 0.49 109 01:29 27.01.2020
3645 Clear -44 1027 89 0 0.48 120 00:58 27.01.2020
3646 Clear -44 1027 89 0 0.48 120 00:37 27.01.2020
3647 Clear -44 1027 89 0 0.48 120 00:18 27.01.2020
3648 Clear -44 1027 89 0 0.48 120 23:41 26.01.2020
3649 Clear -44 1027 89 0 0.48 120 23:41 26.01.2020
3650 Clear -44 1027 92 0 0.52 115 23:19 26.01.2020
3651 Clear -44 1027 92 0 0.52 115 22:55 26.01.2020
3652 Clear -44 1027 92 0 0.52 115 22:37 26.01.2020
3653 Clear -44 1027 92 0 0.52 115 22:18 26.01.2020
3654 Clear -44 1027 92 0 0.52 115 21:56 26.01.2020
3655 Clear -44 1027 92 0 0.52 115 21:38 26.01.2020
3656 Clear -44 1027 92 0 0.52 115 21:19 26.01.2020
3657 Clear -44 1027 92 0 0.52 115 20:55 26.01.2020
3658 Clear -44 1027 92 0 0.52 115 20:36 26.01.2020
3659 Clear -43 1028 96 0 0.7 101 20:18 26.01.2020
3660 Clear -43 1028 96 0 0.7 101 19:56 26.01.2020
3661 Clear -43 1028 96 0 0.7 101 19:37 26.01.2020
3662 Clear -43 1028 96 0 0.7 101 19:37 26.01.2020
3663 Clear -43 1028 96 0 0.7 101 19:18 26.01.2020
3664 Clear -43 1028 96 0 0.7 101 18:41 26.01.2020
3665 Clear -43 1028 96 0 0.7 101 18:22 26.01.2020
3666 Clear -43 1028 96 0 0.7 101 17:58 26.01.2020
3667 Clear -43 1028 96 0 0.7 101 17:39 26.01.2020
3668 Clear -43 1028 97 0 0.66 98 17:20 26.01.2020
3669 Clear -43 1028 97 0 0.66 98 16:58 26.01.2020
3670 Clear -43 1028 97 0 0.66 98 16:39 26.01.2020
3671 Clear -43 1028 97 0 0.66 98 16:39 26.01.2020
3672 Clear -43 1028 97 0 0.66 98 16:39 26.01.2020
3673 Clear -43 1028 97 0 0.66 98 16:39 26.01.2020
3674 Clear -43 1028 97 0 0.66 98 16:20 26.01.2020
3675 Clear -43 1028 97 0 0.66 98 15:58 26.01.2020
3676 Clear -43 1028 97 0 0.66 98 15:39 26.01.2020
3677 Clear -43 1028 97 0 0.66 98 15:18 26.01.2020
3678 Clear -43 1028 97 0 0.66 98 14:40 26.01.2020
3679 Clear -43 1029 96 0 0.75 89 14:21 26.01.2020
3680 Clear -43 1029 96 0 0.75 89 13:57 26.01.2020
3681 Clear -43 1029 96 0 0.75 89 13:37 26.01.2020
3682 Clear -43 1029 97 0 0.8 89 13:18 26.01.2020
3683 Clear -43 1029 97 0 0.8 89 12:42 26.01.2020
3684 Clear -43 1029 97 0 0.8 89 12:24 26.01.2020
3685 Clear -43 1029 97 0 0.8 89 12:24 26.01.2020
3686 Clear -43 1029 97 0 0.8 89 11:58 26.01.2020
3687 Clear -43 1029 97 0 0.8 89 11:39 26.01.2020
3688 Clear -43 1029 97 0 0.8 89 11:39 26.01.2020
3689 Clear -43 1030 98 0 0.55 104 11:19 26.01.2020
3690 Clear -43 1030 98 0 0.55 104 10:59 26.01.2020
3691 Clear -43 1030 98 0 0.55 104 10:38 26.01.2020
3692 Clear -43 1030 98 0 0.55 104 10:20 26.01.2020
3693 Clear -43 1030 98 0 0.55 104 09:58 26.01.2020
3694 Clear -43 1030 98 0 0.55 104 09:40 26.01.2020
3695 Clear -43 1030 98 0 0.55 104 09:21 26.01.2020
3696 Clear -43 1030 98 0 0.55 104 08:44 26.01.2020
3697 Clear -43 1030 98 0 0.55 104 08:23 26.01.2020
3698 Clouds -43 1030 98 0 0.72 92 07:58 26.01.2020
3699 Clouds -43 1030 98 0 0.72 92 07:40 26.01.2020
3700 Clouds -43 1030 98 0 0.72 92 07:21 26.01.2020
3701 Clouds -43 1030 98 0 0.72 92 06:31 26.01.2020
3702 Clouds -43 1030 98 0 0.72 92 05:35 26.01.2020
3703 Clouds -42 1030 93 0 0.42 111 04:52 26.01.2020
3704 Clouds -42 1030 93 0 0.42 111 02:59 26.01.2020
3705 Clouds -43 1031 98 0 0.65 102 01:59 26.01.2020
3706 Clouds -43 1031 98 0 0.65 102 01:38 26.01.2020
3707 Clouds -43 1031 99 0 0.71 100 01:19 26.01.2020
3708 Clouds -43 1031 99 0 0.71 100 00:39 26.01.2020
3709 Clouds -43 1031 99 0 0.71 100 00:20 26.01.2020
3710 Clouds -43 1031 99 0 0.71 100 23:37 25.01.2020
3711 Clouds -43 1031 99 0 0.35 112 23:18 25.01.2020
3712 Clouds -43 1031 99 0 0.35 112 22:43 25.01.2020
3713 Clouds -43 1031 99 0 0.35 112 22:20 25.01.2020
3714 Clouds -43 1031 99 0 0.35 112 21:57 25.01.2020
3715 Clouds -43 1031 99 0 0.35 112 21:39 25.01.2020
3716 Clouds -43 1031 99 0 0.35 112 21:21 25.01.2020
3717 Clouds -43 1031 99 0 0.35 112 20:54 25.01.2020
3718 Clouds -43 1031 99 0 0.35 112 20:36 25.01.2020
3719 Clear -43 1031 99 0 0.79 103 20:18 25.01.2020
3720 Clouds -43 1031 99 0 0.72 105 19:41 25.01.2020
3721 Clouds -43 1031 99 0 0.72 105 19:19 25.01.2020
3722 Clear -43 1031 99 0 0.79 103 18:56 25.01.2020
3723 Clear -43 1031 99 0 0.79 103 18:37 25.01.2020
3724 Clouds -43 1031 99 0 0.72 105 18:19 25.01.2020
3725 Clouds -43 1031 99 0 0.72 105 17:39 25.01.2020
3726 Clear -43 1031 99 0 0.43 107 17:19 25.01.2020
3727 Clear -43 1031 99 0 0.43 107 16:56 25.01.2020
3728 Clear -43 1031 99 0 0.43 107 16:38 25.01.2020
3729 Clear -43 1031 99 0 0.43 107 16:19 25.01.2020
3730 Clear -43 1031 99 0 0.43 107 15:46 25.01.2020
3731 Clear -43 1031 99 0 0.43 107 15:25 25.01.2020
3732 Clear -43 1031 99 0 0.43 107 14:57 25.01.2020
3733 Clear -43 1031 99 0 0.43 107 14:39 25.01.2020
3734 Clouds -43 1032 98 0 0.63 89 14:18 25.01.2020
3735 Clouds -43 1032 98 0 0.63 89 13:41 25.01.2020
3736 Clear -43 1032 99 0 0.69 92 13:22 25.01.2020
3737 Clear -43 1032 99 0 0.69 92 13:22 25.01.2020
3738 Clear -43 1032 99 0 0.69 92 12:43 25.01.2020
3739 Clear -43 1032 99 0 0.69 92 12:23 25.01.2020
3740 Clear -43 1032 99 0 0.69 92 11:45 25.01.2020
3741 Clear -43 1032 99 0 0.69 92 11:22 25.01.2020
3742 Clear -43 1032 96 0 0.56 91 11:22 25.01.2020
3743 Clear -43 1032 96 0 0.56 91 10:58 25.01.2020
3744 Clear -43 1032 96 0 0.56 91 10:40 25.01.2020
3745 Clear -43 1032 96 0 0.56 91 10:20 25.01.2020
3746 Clear -43 1032 96 0 0.56 91 09:41 25.01.2020
3747 Clear -43 1032 96 0 0.56 91 09:22 25.01.2020
3748 Clear -43 1032 96 0 0.56 91 08:44 25.01.2020
3749 Clear -43 1032 96 0 0.56 91 08:26 25.01.2020
3750 Clouds -43 1032 96 0 0.5 87 07:50 25.01.2020
3751 Clouds -43 1032 96 0 0.5 87 06:53 25.01.2020
3752 Clouds -43 1032 96 0 0.5 87 06:28 25.01.2020
3753 Clouds -43 1032 96 0 0.5 87 05:47 25.01.2020
3754 Clouds -42 1032 88 0 0.35 108 05:18 25.01.2020
3755 Clouds -42 1032 88 0 0.35 108 03:52 25.01.2020
3756 Clouds -42 1032 88 0 0.35 108 03:22 25.01.2020
3757 Clouds -42 1032 88 0 0.35 108 02:22 25.01.2020
3758 Clouds -43 1033 89 0 0.39 107 01:48 25.01.2020
3759 Clouds -43 1033 88 0 0.36 114 00:44 25.01.2020
3760 Clouds -43 1033 88 0 0.36 114 00:26 25.01.2020
3761 Clouds -43 1033 88 0 0.36 114 23:59 24.01.2020
3762 Clouds -43 1033 88 0 0.36 114 23:40 24.01.2020
3763 Clouds -43 1033 88 0 0.36 114 23:22 24.01.2020
3764 Clouds -42 1033 87 0 0.35 161 22:45 24.01.2020
3765 Clouds -42 1033 87 0 0.35 161 22:25 24.01.2020
3766 Clouds -42 1033 87 0 0.35 161 21:56 24.01.2020
3767 Clouds -42 1033 87 0 0.35 161 21:38 24.01.2020
3768 Clouds -42 1033 87 0 0.35 161 21:18 24.01.2020
3769 Clouds -42 1033 87 0 0.35 161 20:42 24.01.2020
3770 Clear -42 1033 86 0 0.64 179 20:21 24.01.2020
3771 Clear -42 1033 86 0 0.64 179 19:57 24.01.2020
3772 Clear -42 1033 86 0 0.64 179 19:39 24.01.2020
3773 Clear -42 1033 86 0 0.64 179 19:21 24.01.2020
3774 Clear -42 1033 86 0 0.64 179 18:43 24.01.2020
3775 Clear -42 1033 86 0 0.64 179 18:25 24.01.2020
3776 Clear -42 1033 86 0 0.64 179 17:56 24.01.2020
3777 Clear -42 1033 86 0 0.64 179 17:38 24.01.2020
3778 Clear -42 1033 88 0 0.66 209 17:20 24.01.2020
3779 Clear -42 1033 88 0 0.66 209 16:39 24.01.2020
3780 Clear -42 1033 88 0 0.66 209 16:21 24.01.2020
3781 Clear -42 1033 88 0 0.66 209 15:56 24.01.2020
3782 Clear -42 1033 88 0 0.66 209 15:38 24.01.2020
3783 Clear -42 1033 88 0 0.66 209 15:19 24.01.2020
3784 Clear -42 1033 88 0 0.66 209 14:41 24.01.2020
3785 Clear -42 1033 88 0 0.66 209 14:22 24.01.2020
3786 Clouds -42 1034 89 0 0.65 224 13:45 24.01.2020
3787 Clouds -42 1034 89 0 0.78 225 13:24 24.01.2020
3788 Clouds -42 1034 89 0 0.78 225 12:45 24.01.2020
3789 Clouds -42 1034 89 0 0.78 225 12:24 24.01.2020
3790 Clouds -42 1034 89 0 0.78 225 11:59 24.01.2020
3791 Clouds -42 1034 89 0 0.78 225 11:40 24.01.2020
3792 Clouds -41 1034 90 0 1.04 211 11:18 24.01.2020
3793 Clouds -41 1034 90 0 1.04 211 10:43 24.01.2020
3794 Clouds -41 1034 90 0 1.04 211 10:21 24.01.2020
3795 Clouds -41 1034 90 0 1.04 211 09:56 24.01.2020
3796 Clouds -41 1034 90 0 1.04 211 09:37 24.01.2020
3797 Clouds -41 1034 90 0 1.04 211 09:18 24.01.2020
3798 Clouds -41 1034 90 0 1.04 211 08:40 24.01.2020
3799 Clouds -41 1033 91 0 0.92 226 08:19 24.01.2020
3800 Clouds -41 1033 91 0 0.92 226 07:49 24.01.2020
3801 Clouds -41 1033 91 0 0.92 226 07:28 24.01.2020
3802 Clouds -41 1033 91 0 0.92 226 06:48 24.01.2020
3803 Clouds -41 1033 91 0 0.92 226 06:28 24.01.2020
3804 Clouds -41 1033 91 0 0.92 226 05:57 24.01.2020
3805 Clouds -40 1032 88 0 0.92 238 04:54 24.01.2020
3806 Clouds -40 1032 88 0 0.92 238 02:53 24.01.2020
3807 Clouds -40 1032 88 0 0.92 238 02:24 24.01.2020
3808 Clouds -41 1032 90 0 0.9 232 01:42 24.01.2020
3809 Clouds -41 1032 90 0 0.9 232 01:24 24.01.2020
3810 Clouds -40 1031 91 0 0.97 229 00:20 24.01.2020
3811 Clouds -40 1031 91 0 0.97 229 23:48 23.01.2020
3812 Clouds -40 1031 91 0 0.97 229 23:30 23.01.2020
3813 Clouds -40 1030 92 0 0.85 237 22:59 23.01.2020
3814 Clouds -40 1030 92 0 0.85 237 22:38 23.01.2020
3815 Clouds -40 1030 92 0 0.85 237 22:19 23.01.2020
3816 Clouds -40 1030 92 0 0.85 237 21:57 23.01.2020
3817 Clouds -40 1030 92 0 0.85 237 21:39 23.01.2020
3818 Clouds -40 1030 92 0 0.85 237 21:20 23.01.2020
3819 Clouds -40 1030 92 0 0.85 237 20:58 23.01.2020
3820 Clouds -40 1030 92 0 0.85 237 20:38 23.01.2020
3821 Clouds -39 1030 97 0 0.99 228 20:19 23.01.2020
3822 Clouds -39 1030 97 0 0.99 228 19:56 23.01.2020
3823 Clouds -39 1030 97 0 0.99 228 19:38 23.01.2020
3824 Clouds -39 1030 97 0 0.99 228 19:19 23.01.2020
3825 Clouds -39 1030 97 0 0.99 228 18:42 23.01.2020
3826 Clouds -39 1030 97 0 0.99 228 18:21 23.01.2020
3827 Clouds -39 1030 97 0 0.99 228 17:58 23.01.2020
3828 Clouds -39 1030 97 0 0.99 228 17:40 23.01.2020
3829 Clouds -39 1029 98 0 0.85 249 17:20 23.01.2020
3830 Clouds -39 1029 98 0 0.85 249 16:56 23.01.2020
3831 Clouds -39 1029 98 0 0.85 249 16:36 23.01.2020
3832 Clouds -39 1029 98 0 0.85 249 16:18 23.01.2020
3833 Clouds -39 1029 98 0 0.85 249 15:54 23.01.2020
3834 Clouds -39 1029 98 0 0.85 249 15:36 23.01.2020
3835 Clouds -39 1029 98 0 0.85 249 15:18 23.01.2020
3836 Clouds -39 1029 98 0 0.85 249 15:18 23.01.2020
3837 Clouds -39 1029 98 0 0.85 249 14:54 23.01.2020
3838 Clouds -39 1029 98 0 0.85 249 14:36 23.01.2020
3839 Clouds -38 1029 97 0 0.93 230 14:18 23.01.2020
3840 Clouds -38 1029 97 0 0.93 230 13:39 23.01.2020
3841 Clouds -38 1029 97 0 0.93 230 13:39 23.01.2020
3842 Clouds -38 1029 97 0 0.93 230 13:20 23.01.2020
3843 Clouds -38 1028 97 0 0.97 226 12:47 23.01.2020
3844 Clouds -38 1028 97 0 0.97 226 12:25 23.01.2020
3845 Clouds -38 1028 97 0 0.97 226 11:59 23.01.2020
3846 Clouds -38 1029 99 0 1.18 224 11:39 23.01.2020
3847 Clouds -38 1027 99 0 1.17 208 11:19 23.01.2020
3848 Clouds -38 1027 99 0 1.17 208 11:19 23.01.2020
3849 Clouds -38 1027 99 0 1.17 208 10:45 23.01.2020
3850 Clouds -38 1027 99 0 1.17 208 10:23 23.01.2020
3851 Clouds -38 1027 99 0 1.17 208 09:59 23.01.2020
3852 Clouds -38 1027 99 0 1.17 208 09:38 23.01.2020
3853 Clouds -37 1027 99 0 1.3 212 09:20 23.01.2020
3854 Clouds -38 1027 99 0 1.17 208 08:42 23.01.2020
3855 Clouds -37 1027 99 0 1.3 212 08:24 23.01.2020
3856 Clouds -37 1027 99 0 1.3 212 08:24 23.01.2020
3857 Clouds -34 1026 98 0 1.06 213 07:48 23.01.2020
3858 Clouds -34 1026 98 0 1.06 213 07:27 23.01.2020
3859 Clouds -34 1026 98 0 1.06 213 06:54 23.01.2020
3860 Clouds -34 1026 98 0 1.06 213 06:23 23.01.2020
3861 Clouds -34 1026 98 0 1.06 213 05:58 23.01.2020
3862 Clouds -32 1025 97 0 0.52 143 04:24 23.01.2020
3863 Clouds -32 1025 97 0 0.52 143 02:45 23.01.2020
3864 Clouds -33 1024 98 0 0.47 94 01:44 23.01.2020
3865 Clouds -33 1024 98 0 0.45 102 00:28 23.01.2020
3866 Clouds -33 1024 98 0 0.45 102 23:57 22.01.2020
3867 Clouds -33 1024 98 0 0.45 102 23:38 22.01.2020
3868 Clouds -32 1022 97 0 0.83 92 23:20 22.01.2020
3869 Clouds -32 1022 97 0 0.83 92 22:42 22.01.2020
3870 Clouds -32 1022 97 0 0.83 92 22:23 22.01.2020
3871 Clouds -32 1022 97 0 0.83 92 21:56 22.01.2020
3872 Clouds -32 1022 97 0 0.83 92 21:36 22.01.2020
3873 Clouds -32 1022 97 0 0.83 92 21:18 22.01.2020
3874 Clouds -32 1022 97 0 0.83 92 20:41 22.01.2020
3875 Clouds -32 1022 97 0 0.71 98 20:23 22.01.2020
3876 Clouds -31 1021 97 0 0.8 81 19:58 22.01.2020
3877 Clouds -31 1021 97 0 0.8 81 19:58 22.01.2020
3878 Clouds -31 1021 97 0 0.8 81 19:40 22.01.2020
3879 Clouds -31 1021 97 0 0.8 81 19:20 22.01.2020
3880 Clouds -31 1021 97 0 0.8 81 18:58 22.01.2020
3881 Clouds -31 1021 97 0 0.8 81 18:39 22.01.2020
3882 Clouds -31 1021 97 0 0.8 81 18:20 22.01.2020
3883 Clouds -31 1021 97 0 0.8 81 17:56 22.01.2020
3884 Clouds -31 1021 97 0 0.8 81 17:38 22.01.2020
3885 Clouds -32 1020 97 0 0.73 83 17:19 22.01.2020
3886 Clouds -32 1020 97 0 0.73 83 16:44 22.01.2020
3887 Clouds -32 1020 97 0 0.73 83 16:24 22.01.2020
3888 Clouds -32 1020 97 0 0.73 83 15:59 22.01.2020
3889 Clouds -32 1020 97 0 0.73 83 15:41 22.01.2020
3890 Clouds -32 1020 97 0 0.73 83 15:23 22.01.2020
3891 Clouds -32 1020 97 0 0.73 83 14:58 22.01.2020
3892 Clouds -32 1020 97 0 0.73 83 14:37 22.01.2020
3893 Clouds -33 1019 98 0 1.02 80 14:19 22.01.2020
3894 Clouds -33 1019 98 0 1.02 80 13:55 22.01.2020
3895 Clouds -33 1019 98 0 1.02 80 13:37 22.01.2020
3896 Clouds -33 1019 97 0 1.02 79 13:19 22.01.2020
3897 Clouds -33 1019 97 0 1.02 79 12:56 22.01.2020
3898 Clouds -33 1019 97 0 1.02 79 12:38 22.01.2020
3899 Clouds -33 1019 97 0 1.02 79 12:18 22.01.2020
3900 Clouds -33 1019 97 0 1.02 79 11:56 22.01.2020
3901 Clouds -33 1019 97 0 1.02 79 11:38 22.01.2020
3902 Clouds -32 1017 97 0 0.64 79 11:19 22.01.2020
3903 Clouds -32 1017 97 0 0.64 79 11:19 22.01.2020
3904 Clouds -32 1017 97 0 0.64 79 10:44 22.01.2020
3905 Clouds -32 1017 97 0 0.64 79 10:21 22.01.2020
3906 Clouds -32 1017 97 0 0.64 79 09:57 22.01.2020
3907 Clouds -32 1017 97 0 0.64 79 09:39 22.01.2020
3908 Clouds -32 1017 97 0 0.64 79 09:20 22.01.2020
3909 Clouds -32 1017 97 0 0.64 79 08:54 22.01.2020
3910 Clouds -32 1017 97 0 0.64 79 08:36 22.01.2020
3911 Clouds -32 1016 97 0 0.94 72 08:18 22.01.2020
3912 Clouds -32 1016 97 0 0.94 72 07:40 22.01.2020
3913 Clouds -32 1016 97 0 0.94 72 07:21 22.01.2020
3914 Clouds -32 1016 97 0 0.94 72 07:21 22.01.2020
3915 Clouds -32 1016 97 0 0.94 72 06:33 22.01.2020
3916 Clouds -32 1016 97 0 0.94 72 05:42 22.01.2020
3917 Clouds -32 1014 97 0 0.7 72 04:24 22.01.2020
3918 Clouds -32 1014 97 0 0.7 72 03:26 22.01.2020
3919 Clouds -32 1014 97 0 0.7 72 02:39 22.01.2020
3920 Clouds -34 1014 99 0 1.07 76 00:47 22.01.2020
3921 Clouds -34 1014 99 0 1.07 76 00:27 22.01.2020
3922 Clouds -34 1014 99 0 1.07 76 23:55 21.01.2020
3923 Clouds -34 1014 99 0 1.07 76 23:37 21.01.2020
3924 Clouds -35 1014 99 0 0.66 86 23:18 21.01.2020
3925 Clouds -35 1014 99 0 0.66 86 22:40 21.01.2020
3926 Clouds -35 1014 99 0 0.66 86 22:21 21.01.2020
3927 Clouds -35 1014 99 0 0.66 86 21:58 21.01.2020
3928 Clouds -35 1014 99 0 0.66 86 21:38 21.01.2020
3929 Clouds -35 1014 99 0 0.66 86 21:20 21.01.2020
3930 Clouds -35 1014 99 0 0.66 86 20:57 21.01.2020
3931 Clouds -35 1014 99 0 0.66 86 20:38 21.01.2020
3932 Clouds -36 1014 99 0 0.82 95 20:19 21.01.2020
3933 Clouds -36 1014 100 0 0.7 104 19:57 21.01.2020
3934 Clouds -36 1014 100 0 0.7 104 19:38 21.01.2020
3935 Clouds -36 1014 100 0 0.7 104 19:20 21.01.2020
3936 Clouds -36 1014 100 0 0.7 104 19:20 21.01.2020
3937 Clouds -36 1014 100 0 0.7 104 18:55 21.01.2020
3938 Clouds -36 1014 100 0 0.7 104 18:37 21.01.2020
3939 Clouds -36 1014 100 0 0.7 104 18:18 21.01.2020
3940 Clouds -36 1014 100 0 0.7 104 17:45 21.01.2020
3941 Clouds -36 1014 100 0 0.66 107 17:20 21.01.2020
3942 Clouds -36 1014 100 0 0.66 107 16:59 21.01.2020
3943 Clouds -36 1014 100 0 0.66 107 16:37 21.01.2020
3944 Clouds -36 1014 100 0 0.66 107 16:19 21.01.2020
3945 Clouds -36 1014 100 0 0.66 107 15:56 21.01.2020
3946 Clouds -36 1014 100 0 0.66 107 15:36 21.01.2020
3947 Clouds -36 1014 100 0 0.66 107 15:18 21.01.2020
3948 Clouds -36 1014 100 0 0.66 107 14:38 21.01.2020
3949 Clouds -36 1015 100 0 0.76 120 14:20 21.01.2020
3950 Clouds -36 1015 100 0 0.76 120 13:41 21.01.2020
3951 Clouds -36 1015 100 0 0.81 118 13:19 21.01.2020
3952 Clouds -36 1015 100 0 0.81 118 12:56 21.01.2020
3953 Clouds -36 1015 100 0 0.81 118 12:38 21.01.2020
3954 Clouds -36 1015 100 0 0.81 118 12:19 21.01.2020
3955 Clouds -36 1015 100 0 0.81 118 11:40 21.01.2020
3956 Clouds -36 1015 100 0 0.54 133 11:21 21.01.2020
3957 Clouds -36 1015 100 0 0.54 133 10:59 21.01.2020
3958 Clouds -36 1015 100 0 0.54 133 10:40 21.01.2020
3959 Clouds -36 1015 100 0 0.54 133 10:21 21.01.2020
3960 Clouds -36 1015 100 0 0.54 133 09:42 21.01.2020
3961 Clouds -36 1015 100 0 0.54 133 09:23 21.01.2020
3962 Clouds -36 1015 100 0 0.54 133 08:56 21.01.2020
3963 Clouds -36 1015 100 0 0.54 133 08:38 21.01.2020
3964 Clouds -35 1015 100 0 0.69 110 08:19 21.01.2020
3965 Clouds -35 1015 100 0 0.69 110 07:41 21.01.2020
3966 Clouds -35 1015 100 0 0.69 110 07:22 21.01.2020
3967 Clouds -35 1015 100 0 0.69 110 06:49 21.01.2020
3968 Clouds -35 1015 100 0 0.69 110 06:30 21.01.2020
3969 Clouds -35 1015 100 0 0.69 110 05:44 21.01.2020
3970 Clouds -34 1016 100 0 0.55 130 04:41 21.01.2020
3971 Clouds -34 1016 100 0 0.55 130 02:58 21.01.2020
3972 Clouds -34 1016 100 0 0.55 130 02:26 21.01.2020
3973 Clouds -34 1016 100 0 0.28 107 01:28 21.01.2020
3974 Clouds -34 1016 100 0 0.28 107 00:40 21.01.2020
3975 Clouds -34 1016 100 0 0.28 107 23:59 20.01.2020
3976 Clouds -34 1016 100 0 0.28 107 23:41 20.01.2020
3977 Clouds -32 1016 100 0 0.17 319 23:19 20.01.2020
3978 Clouds -32 1016 100 0 0.17 319 22:59 20.01.2020
3979 Clouds -32 1016 100 0 0.17 319 22:39 20.01.2020
3980 Clouds -32 1016 100 0 0.17 319 22:21 20.01.2020
3981 Clouds -32 1016 100 0 0.17 319 21:58 20.01.2020
3982 Clouds -32 1016 100 0 0.17 319 21:38 20.01.2020
3983 Clouds -32 1016 100 0 0.17 319 21:19 20.01.2020
3984 Clouds -32 1016 100 0 0.17 319 20:58 20.01.2020
3985 Clouds -32 1016 100 0 0.17 319 20:39 20.01.2020
3986 Clouds -31 1015 98 0 0.43 80 20:19 20.01.2020
3987 Clouds -31 1015 98 0 0.43 80 20:19 20.01.2020
3988 Clouds -31 1015 99 0 0.32 72 19:57 20.01.2020
3989 Clouds -31 1015 99 0 0.32 72 19:38 20.01.2020
3990 Clouds -31 1015 99 0 0.32 72 19:19 20.01.2020
3991 Clouds -31 1015 99 0 0.32 72 18:45 20.01.2020
3992 Clouds -31 1015 99 0 0.32 72 18:24 20.01.2020
3993 Clouds -31 1015 99 0 0.32 72 17:59 20.01.2020
3994 Clouds -31 1015 99 0 0.32 72 17:37 20.01.2020
3995 Clouds -32 1014 99 0 0.45 271 17:18 20.01.2020
3996 Clouds -32 1014 99 0 0.45 271 16:44 20.01.2020
3997 Clouds -32 1014 99 0 0.45 271 16:25 20.01.2020
3998 Clouds -32 1014 99 0 0.45 271 15:58 20.01.2020
3999 Clouds -32 1014 99 0 0.45 271 15:40 20.01.2020
4000 Clouds -32 1014 99 0 0.45 271 15:21 20.01.2020
4001 Clouds -32 1014 99 0 0.45 271 14:55 20.01.2020
4002 Clouds -32 1014 99 0 0.45 271 14:36 20.01.2020
4003 Snow -30 1014 98 0 0.37 74 14:18 20.01.2020
4004 Snow -30 1014 98 0 0.37 74 13:41 20.01.2020
4005 Snow -30 1014 98 0 0.12 83 13:23 20.01.2020
4006 Snow -30 1014 98 0 0.12 83 12:56 20.01.2020
4007 Snow -30 1014 98 0 0.12 83 12:38 20.01.2020
4008 Snow -30 1014 98 0 0.12 83 12:19 20.01.2020
4009 Snow -30 1014 98 0 0.12 83 11:43 20.01.2020
4010 Snow -30 1014 98 0 0.12 83 11:24 20.01.2020
4011 Clouds -30 1012 98 0 0.33 38 10:58 20.01.2020
4012 Clouds -30 1012 98 0 0.33 38 10:39 20.01.2020
4013 Clouds -30 1012 98 0 0.33 38 10:20 20.01.2020
4014 Clouds -30 1012 98 0 0.33 38 09:41 20.01.2020
4015 Clouds -30 1012 98 0 0.33 38 09:22 20.01.2020
4016 Clouds -30 1012 98 0 0.33 38 08:54 20.01.2020
4017 Clouds -30 1012 98 0 0.33 38 08:31 20.01.2020
4018 Clouds -34 1012 93 0 0.77 67 07:55 20.01.2020
4019 Clouds -34 1012 93 0 0.77 67 07:36 20.01.2020
4020 Clouds -34 1012 93 0 0.77 67 07:18 20.01.2020
4021 Clouds -34 1012 93 0 0.77 67 06:35 20.01.2020
4022 Clouds -34 1012 93 0 0.77 67 05:56 20.01.2020
4023 Clouds -34 1012 93 0 0.77 67 05:37 20.01.2020
4024 Clouds -34 1011 91 0 0.86 68 05:18 20.01.2020
4025 Clouds -34 1011 91 0 0.86 68 03:47 20.01.2020
4026 Clouds -34 1011 90 0 0.85 68 01:58 20.01.2020
4027 Clouds -34 1011 90 0 0.85 68 01:39 20.01.2020
4028 Clouds -34 1011 90 0 0.82 68 00:56 20.01.2020
4029 Clouds -34 1011 90 0 0.82 68 00:37 20.01.2020
4030 Clouds -34 1011 90 0 0.82 68 00:19 20.01.2020
4031 Clouds -34 1011 90 0 0.82 68 23:37 19.01.2020
4032 Clouds -32 1011 85 0 1.13 73 23:18 19.01.2020
4033 Clouds -32 1011 85 0 1.13 73 22:55 19.01.2020
4034 Clouds -32 1011 85 0 1.13 73 22:37 19.01.2020
4035 Clouds -32 1011 85 0 1.13 73 22:18 19.01.2020
4036 Clouds -32 1011 85 0 1.13 73 21:56 19.01.2020
4037 Clouds -32 1011 85 0 1.13 73 21:37 19.01.2020
4038 Clouds -32 1011 85 0 1.13 73 21:19 19.01.2020
4039 Clouds -32 1011 85 0 1.13 73 20:56 19.01.2020
4040 Clouds -32 1011 85 0 1.13 73 20:38 19.01.2020
4041 Clouds -31 1011 85 0 1.21 75 20:19 19.01.2020
4042 Clouds -31 1011 85 0 1.21 75 19:55 19.01.2020
4043 Clouds -31 1011 85 0 1.21 75 19:37 19.01.2020
4044 Clouds -31 1011 85 0 1.21 75 19:19 19.01.2020
4045 Clouds -31 1011 85 0 1.21 75 18:55 19.01.2020
4046 Clouds -31 1011 85 0 1.21 75 18:37 19.01.2020
4047 Clouds -31 1011 85 0 1.21 75 18:19 19.01.2020
4048 Clouds -31 1011 85 0 1.21 75 18:19 19.01.2020
4049 Clouds -31 1011 85 0 1.21 75 17:57 19.01.2020
4050 Clouds -31 1011 85 0 1.21 75 17:38 19.01.2020
4051 Clouds -31 1011 85 0 1.1 79 17:20 19.01.2020
4052 Clouds -31 1011 85 0 1.1 79 16:57 19.01.2020
4053 Clouds -31 1011 85 0 1.1 79 16:37 19.01.2020
4054 Clouds -31 1011 85 0 1.1 79 16:19 19.01.2020
4055 Clouds -31 1011 85 0 1.1 79 15:56 19.01.2020
4056 Clouds -31 1011 85 0 1.1 79 15:37 19.01.2020
4057 Clouds -31 1011 85 0 1.1 79 15:19 19.01.2020
4058 Clouds -31 1011 85 0 1.1 79 14:56 19.01.2020
4059 Clouds -31 1011 85 0 1.1 79 14:37 19.01.2020
4060 Clouds -34 1012 84 0 1.09 86 14:18 19.01.2020
4061 Clouds -34 1012 84 0 1.09 86 13:54 19.01.2020
4062 Clouds -34 1012 84 0 1.09 86 13:36 19.01.2020
4063 Clouds -34 1012 84 0 1.09 86 13:18 19.01.2020
4064 Clouds -34 1012 84 0 1.06 89 12:42 19.01.2020
4065 Clouds -34 1012 84 0 1.06 89 12:23 19.01.2020
4066 Clouds -34 1012 84 0 1.06 89 11:57 19.01.2020
4067 Clouds -34 1012 84 0 1.06 89 11:39 19.01.2020
4068 Clouds -35 1012 84 0 1.07 90 11:20 19.01.2020
4069 Clouds -35 1012 84 0 1.07 90 10:55 19.01.2020
4070 Clouds -35 1012 84 0 1.07 90 10:37 19.01.2020
4071 Clouds -35 1012 84 0 1.07 90 10:18 19.01.2020
4072 Clouds -35 1012 84 0 1.07 90 09:44 19.01.2020
4073 Clouds -35 1012 84 0 1.07 90 09:25 19.01.2020
4074 Clouds -35 1012 84 0 1.07 90 08:58 19.01.2020
4075 Clouds -35 1012 84 0 1.07 90 08:39 19.01.2020
4076 Clouds -36 1012 90 0 0.93 83 08:20 19.01.2020
4077 Clouds -36 1012 90 0 0.93 83 07:42 19.01.2020
4078 Clouds -36 1012 90 0 0.93 83 07:21 19.01.2020
4079 Clouds -36 1012 90 0 0.93 83 06:50 19.01.2020
4080 Clear -36 1012 89 0 0.67 83 05:21 19.01.2020
4081 Clear -36 1012 89 0 0.67 83 02:44 19.01.2020
4082 Clear -37 1013 91 0 0.83 92 02:21 19.01.2020
4083 Clear -37 1013 91 0 0.83 92 01:25 19.01.2020
4084 Clear -37 1013 91 0 0.83 92 01:25 19.01.2020
4085 Clear -37 1013 92 0 0.81 89 00:46 19.01.2020
4086 Clear -37 1013 92 0 0.81 89 00:28 19.01.2020
4087 Clear -37 1013 92 0 0.81 89 23:56 18.01.2020
4088 Clear -37 1013 92 0 0.81 89 23:38 18.01.2020
4089 Clear -36 1013 91 0 0.88 92 23:19 18.01.2020
4090 Clear -36 1013 91 0 0.88 92 22:55 18.01.2020
4091 Clear -36 1013 91 0 0.88 92 22:37 18.01.2020
4092 Clear -36 1013 91 0 0.88 92 22:19 18.01.2020
4093 Clear -36 1013 91 0 0.88 92 21:56 18.01.2020
4094 Clear -36 1013 91 0 0.88 92 21:37 18.01.2020
4095 Clear -36 1013 91 0 0.88 92 21:19 18.01.2020
4096 Clear -36 1013 91 0 0.88 92 20:43 18.01.2020
4097 Clear -37 1013 94 0 0.86 107 20:21 18.01.2020
4098 Clear -37 1013 94 0 0.86 107 19:57 18.01.2020
4099 Clear -37 1013 94 0 0.86 107 19:39 18.01.2020
4100 Clear -37 1013 94 0 0.86 107 19:39 18.01.2020
4101 Clear -37 1013 94 0 0.86 107 19:21 18.01.2020
4102 Clear -37 1013 94 0 0.86 107 18:42 18.01.2020
4103 Clear -37 1013 94 0 0.86 107 18:21 18.01.2020
4104 Clear -37 1013 94 0 0.86 107 17:55 18.01.2020
4105 Clear -37 1013 94 0 0.86 107 17:37 18.01.2020
4106 Clear -37 1013 95 0 0.82 110 17:18 18.01.2020
4107 Clear -37 1013 95 0 0.82 110 16:55 18.01.2020
4108 Clear -37 1013 95 0 0.82 110 16:36 18.01.2020
4109 Clear -37 1013 95 0 0.82 110 16:18 18.01.2020
4110 Clear -37 1013 95 0 0.82 110 15:41 18.01.2020
4111 Clear -37 1013 95 0 0.82 110 15:23 18.01.2020
4112 Clear -37 1013 95 0 0.82 110 14:57 18.01.2020
4113 Clear -37 1013 95 0 0.82 110 14:38 18.01.2020
4114 Clear -37 1014 96 0 0.79 107 14:18 18.01.2020
4115 Clear -37 1014 96 0 0.79 107 13:43 18.01.2020
4116 Clear -37 1014 96 0 0.81 102 13:24 18.01.2020
4117 Clear -37 1014 96 0 0.81 102 12:57 18.01.2020
4118 Clear -37 1014 96 0 0.81 102 12:38 18.01.2020
4119 Clear -37 1014 96 0 0.81 102 12:20 18.01.2020
4120 Clear -37 1014 96 0 0.81 102 11:44 18.01.2020
4121 Clear -37 1013 97 0 0.68 103 11:21 18.01.2020
4122 Clear -37 1013 97 0 0.68 103 10:57 18.01.2020
4123 Clear -37 1013 97 0 0.68 103 10:38 18.01.2020
4124 Clear -37 1013 97 0 0.68 103 10:19 18.01.2020
4125 Clear -37 1013 97 0 0.68 103 09:43 18.01.2020
4126 Clear -37 1013 97 0 0.68 103 09:24 18.01.2020
4127 Clear -37 1013 97 0 0.68 103 08:55 18.01.2020
4128 Clear -37 1013 97 0 0.68 103 08:37 18.01.2020
4129 Clouds -36 1013 98 0 0.83 105 08:19 18.01.2020
4130 Clouds -36 1013 98 0 0.83 105 07:47 18.01.2020
4131 Clouds -36 1013 98 0 0.83 105 07:29 18.01.2020
4132 Clouds -36 1013 98 0 0.83 105 06:47 18.01.2020
4133 Clouds -36 1013 98 0 0.83 105 05:59 18.01.2020
4134 Clouds -36 1013 98 0 0.76 110 05:21 18.01.2020
4135 Clouds -36 1013 98 0 0.76 110 02:56 18.01.2020
4136 Clouds -36 1013 99 0 0.71 105 01:54 18.01.2020
4137 Clouds -36 1013 99 0 0.71 105 01:35 18.01.2020
4138 Clouds -36 1013 99 0 0.72 103 00:37 18.01.2020
4139 Clouds -36 1013 99 0 0.72 103 00:37 18.01.2020
4140 Clouds -36 1013 99 0 0.72 103 00:18 18.01.2020
4141 Clouds -36 1013 99 0 0.72 103 00:18 18.01.2020
4142 Clouds -36 1013 99 0 0.72 103 00:18 18.01.2020
4143 Clouds -36 1013 99 0 0.72 103 23:41 17.01.2020
4144 Clouds -36 1013 99 0 0.85 106 23:20 17.01.2020
4145 Clouds -36 1013 99 0 0.85 106 22:46 17.01.2020
4146 Clouds -36 1013 99 0 0.85 106 22:22 17.01.2020
4147 Clouds -36 1013 99 0 0.85 106 22:22 17.01.2020
4148 Clouds -36 1013 99 0 0.85 106 21:59 17.01.2020
4149 Clouds -36 1013 99 0 0.85 106 21:41 17.01.2020
4150 Clouds -36 1013 99 0 0.85 106 21:22 17.01.2020
4151 Clouds -36 1013 99 0 0.85 106 20:58 17.01.2020
4152 Clouds -36 1013 99 0 0.85 106 20:38 17.01.2020
4153 Clouds -35 1012 99 0 0.82 99 20:20 17.01.2020
4154 Clouds -35 1012 100 0 0.74 105 19:56 17.01.2020
4155 Clouds -35 1012 100 0 0.74 105 19:37 17.01.2020
4156 Clouds -35 1012 100 0 0.74 105 19:19 17.01.2020
4157 Clouds -35 1012 100 0 0.74 105 18:56 17.01.2020
4158 Clouds -35 1012 100 0 0.74 105 18:36 17.01.2020
4159 Clouds -35 1012 100 0 0.74 105 18:18 17.01.2020
4160 Clouds -35 1012 100 0 0.74 105 17:39 17.01.2020
4161 Clouds -35 1012 100 0 0.69 97 17:21 17.01.2020
4162 Clouds -35 1012 100 0 0.69 97 16:44 17.01.2020
4163 Clouds -35 1012 100 0 0.69 97 16:21 17.01.2020
4164 Clouds -35 1012 100 0 0.69 97 15:58 17.01.2020
4165 Clouds -35 1012 100 0 0.69 97 15:58 17.01.2020
4166 Clouds -35 1012 100 0 0.69 97 15:40 17.01.2020
4167 Clouds -35 1012 100 0 0.69 97 15:22 17.01.2020
4168 Clouds -35 1012 100 0 0.69 97 14:43 17.01.2020
4169 Clouds -35 1012 100 0 0.69 97 14:24 17.01.2020
4170 Clouds -34 1012 100 0 0.74 120 13:45 17.01.2020
4171 Clouds -34 1012 100 0 0.74 120 13:23 17.01.2020
4172 Clouds -34 1012 100 0 0.73 126 12:48 17.01.2020
4173 Clouds -34 1012 100 0 0.73 126 12:24 17.01.2020
4174 Clouds -34 1012 100 0 0.73 126 11:56 17.01.2020
4175 Clouds -34 1012 100 0 0.73 126 11:37 17.01.2020
4176 Clouds -33 1011 99 0 0.47 142 11:18 17.01.2020
4177 Clouds -33 1011 99 0 0.47 142 10:42 17.01.2020
4178 Clouds -33 1011 99 0 0.47 142 10:42 17.01.2020
4179 Clouds -33 1011 99 0 0.47 142 10:22 17.01.2020
4180 Clouds -33 1011 99 0 0.47 142 09:57 17.01.2020
4181 Clouds -33 1011 99 0 0.47 142 09:37 17.01.2020
4182 Clouds -33 1011 99 0 0.47 142 09:18 17.01.2020
4183 Clouds -33 1011 99 0 0.47 142 08:42 17.01.2020
4184 Clouds -33 1011 99 0 0.47 142 08:24 17.01.2020
4185 Clouds -32 1011 99 0 0.59 120 07:53 17.01.2020
4186 Clouds -32 1011 99 0 0.59 120 07:31 17.01.2020
4187 Clouds -32 1011 99 0 0.59 120 06:57 17.01.2020
4188 Clouds -32 1011 99 0 0.59 120 06:38 17.01.2020
4189 Clouds -32 1011 99 0 0.59 120 05:28 17.01.2020
4190 Clouds -32 1010 98 0 0.33 150 03:39 17.01.2020
4191 Clouds -32 1010 98 0 0.33 150 02:45 17.01.2020
4192 Clouds -32 1011 97 0 0.33 106 01:47 17.01.2020
4193 Clouds -31 1011 97 0 0.43 96 01:28 17.01.2020
4194 Clouds -31 1011 97 0 0.43 96 00:46 17.01.2020
4195 Clouds -31 1011 97 0 0.43 96 00:21 17.01.2020
4196 Clouds -31 1011 97 0 0.43 96 23:43 16.01.2020
4197 Clouds -31 1011 97 0 0.43 96 23:25 16.01.2020
4198 Clouds -32 1010 97 0 0.69 105 22:56 16.01.2020
4199 Clouds -32 1010 97 0 0.69 105 22:38 16.01.2020
4200 Clouds -32 1010 97 0 0.69 105 22:19 16.01.2020
4201 Clouds -32 1010 97 0 0.69 105 21:54 16.01.2020
4202 Clouds -32 1010 97 0 0.69 105 21:36 16.01.2020
4203 Clouds -32 1010 97 0 0.69 105 21:18 16.01.2020
4204 Clouds -32 1010 97 0 0.69 105 20:40 16.01.2020
4205 Clouds -34 1010 95 0 0.22 113 20:21 16.01.2020
4206 Clouds -33 1010 97 0 0.27 102 19:59 16.01.2020
4207 Clouds -33 1010 97 0 0.27 102 19:41 16.01.2020
4208 Clouds -33 1010 97 0 0.27 102 19:22 16.01.2020
4209 Clouds -33 1010 97 0 0.27 102 19:22 16.01.2020
4210 Clouds -33 1010 97 0 0.27 102 18:57 16.01.2020
4211 Clouds -33 1010 97 0 0.27 102 18:38 16.01.2020
4212 Clouds -33 1010 97 0 0.27 102 18:20 16.01.2020
4213 Clouds -33 1010 97 0 0.27 102 17:59 16.01.2020
4214 Clouds -33 1010 97 0 0.27 102 17:59 16.01.2020
4215 Clouds -33 1010 97 0 0.27 102 17:40 16.01.2020
4216 Clouds -34 1010 98 0 0.74 82 17:20 16.01.2020
4217 Clouds -34 1010 98 0 0.74 82 16:42 16.01.2020
4218 Clouds -34 1010 98 0 0.74 82 16:24 16.01.2020
4219 Clouds -34 1010 98 0 0.74 82 15:59 16.01.2020
4220 Clouds -34 1010 98 0 0.74 82 15:40 16.01.2020
4221 Clouds -34 1010 98 0 0.74 82 15:21 16.01.2020
4222 Clouds -34 1010 98 0 0.74 82 14:45 16.01.2020
4223 Clouds -34 1010 98 0 0.74 82 14:24 16.01.2020
4224 Clouds -35 1010 99 0 0.8 77 13:56 16.01.2020
4225 Clouds -35 1010 99 0 0.8 77 13:37 16.01.2020
4226 Clouds -35 1010 99 0 0.8 77 13:37 16.01.2020
4227 Clouds -36 1011 98 0 0.88 73 13:19 16.01.2020
4228 Clouds -36 1011 98 0 0.88 73 12:43 16.01.2020
4229 Clouds -36 1011 98 0 0.88 73 12:25 16.01.2020
4230 Clouds -36 1011 98 0 0.88 73 11:54 16.01.2020
4231 Clouds -36 1011 98 0 0.88 73 11:36 16.01.2020
4232 Clouds -36 1010 98 0 0.91 82 11:18 16.01.2020
4233 Clouds -36 1010 98 0 0.91 82 10:39 16.01.2020
4234 Clouds -36 1010 98 0 0.91 82 10:20 16.01.2020
4235 Clouds -36 1010 98 0 0.91 82 09:57 16.01.2020
4236 Clouds -36 1010 98 0 0.91 82 09:38 16.01.2020
4237 Clouds -36 1010 98 0 0.91 82 09:19 16.01.2020
4238 Clouds -36 1010 98 0 0.91 82 08:51 16.01.2020
4239 Clouds -36 1010 98 0 0.91 82 08:30 16.01.2020
4240 Clouds -36 1011 99 0 0.86 85 07:59 16.01.2020
4241 Clouds -36 1011 99 0 0.86 85 07:39 16.01.2020
4242 Clouds -36 1011 99 0 0.86 85 07:20 16.01.2020
4243 Clouds -36 1011 99 0 0.86 85 06:43 16.01.2020
4244 Clouds -36 1011 99 0 0.86 85 06:21 16.01.2020
4245 Clouds -36 1011 99 0 0.86 85 05:45 16.01.2020
4246 Clear -36 1011 99 0 0.75 76 04:37 16.01.2020
4247 Clear -36 1011 99 0 0.75 76 03:28 16.01.2020
4248 Clear -36 1011 99 0 0.75 76 02:43 16.01.2020
4249 Clear -37 1013 100 0 0.72 88 00:54 16.01.2020
4250 Clear -37 1013 100 0 0.72 88 00:24 16.01.2020
4251 Clear -37 1013 100 0 0.72 88 23:51 15.01.2020
4252 Clear -37 1013 100 0 0.72 88 23:23 15.01.2020
4253 Clear -37 1013 99 0 0.58 72 22:59 15.01.2020
4254 Clear -37 1013 99 0 0.58 72 22:41 15.01.2020
4255 Clear -37 1013 99 0 0.58 72 22:20 15.01.2020
4256 Clear -37 1013 99 0 0.58 72 21:59 15.01.2020
4257 Clear -37 1013 99 0 0.58 72 21:40 15.01.2020
4258 Clear -37 1013 99 0 0.58 72 21:22 15.01.2020
4259 Clear -37 1013 99 0 0.58 72 20:58 15.01.2020
4260 Clear -37 1013 99 0 0.58 72 20:40 15.01.2020
4261 Clear -37 1014 100 0 0.42 72 20:22 15.01.2020
4262 Clear -37 1015 100 0 0.65 71 19:57 15.01.2020
4263 Clear -37 1015 100 0 0.65 71 19:38 15.01.2020
4264 Clear -37 1015 100 0 0.65 71 19:20 15.01.2020
4265 Clear -37 1015 100 0 0.65 71 18:57 15.01.2020
4266 Clear -37 1015 100 0 0.65 71 18:38 15.01.2020
4267 Clear -37 1015 100 0 0.65 71 18:20 15.01.2020
4268 Clear -37 1015 100 0 0.65 71 17:58 15.01.2020
4269 Clear -37 1015 100 0 0.65 71 17:40 15.01.2020
4270 Clear -37 1016 99 0 0.75 84 17:21 15.01.2020
4271 Clear -37 1016 99 0 0.75 84 16:55 15.01.2020
4272 Clear -37 1016 99 0 0.75 84 16:55 15.01.2020
4273 Clear -37 1016 99 0 0.75 84 16:36 15.01.2020
4274 Clear -37 1016 99 0 0.75 84 16:18 15.01.2020
4275 Clear -37 1016 99 0 0.75 84 15:42 15.01.2020
4276 Clear -37 1016 99 0 0.75 84 15:20 15.01.2020
4277 Clear -37 1016 99 0 0.75 84 14:55 15.01.2020
4278 Clear -37 1016 99 0 0.75 84 14:37 15.01.2020
4279 Clear -36 1018 99 0 0.83 86 14:18 15.01.2020
4280 Clear -36 1018 99 0 0.83 86 13:41 15.01.2020
4281 Clear -37 1018 98 0 0.81 87 13:23 15.01.2020
4282 Clear -37 1018 98 0 0.81 87 12:55 15.01.2020
4283 Clear -37 1018 98 0 0.81 87 12:55 15.01.2020
4284 Clear -37 1018 98 0 0.81 87 12:37 15.01.2020
4285 Clear -37 1018 98 0 0.81 87 12:18 15.01.2020
4286 Clear -37 1018 98 0 0.81 87 11:38 15.01.2020
4287 Clear -37 1019 97 0 0.89 85 11:20 15.01.2020
4288 Clear -37 1019 97 0 0.89 85 10:58 15.01.2020
4289 Clear -37 1019 97 0 0.89 85 10:40 15.01.2020
4290 Clear -37 1019 97 0 0.89 85 10:21 15.01.2020
4291 Clear -37 1019 97 0 0.89 85 09:41 15.01.2020
4292 Clear -37 1019 97 0 0.89 85 09:21 15.01.2020
4293 Clear -37 1019 97 0 0.89 85 08:45 15.01.2020
4294 Clear -37 1019 97 0 0.89 85 08:26 15.01.2020
4295 Clear -36 1021 99 0 0.6 89 07:56 15.01.2020
4296 Clear -36 1021 99 0 0.6 89 07:33 15.01.2020
4297 Clear -36 1021 99 0 0.6 89 06:57 15.01.2020
4298 Clear -36 1021 99 0 0.6 89 06:57 15.01.2020
4299 Clear -36 1021 99 0 0.6 89 06:38 15.01.2020
4300 Clear -36 1021 99 0 0.6 89 05:43 15.01.2020
4301 Clear -36 1021 99 0 0.92 95 03:35 15.01.2020
4302 Clouds -36 1022 99 0 0.75 102 01:49 15.01.2020
4303 Clouds -36 1022 99 0 0.71 101 01:22 15.01.2020
4304 Clouds -36 1022 99 0 0.71 101 00:38 15.01.2020
4305 Clouds -36 1022 99 0 0.71 101 00:20 15.01.2020
4306 Clouds -36 1022 99 0 0.71 101 23:47 14.01.2020
4307 Clouds -36 1022 99 0 0.71 101 23:28 14.01.2020
4308 Clouds -35 1022 99 0 0.69 93 22:58 14.01.2020
4309 Clouds -35 1022 99 0 0.69 93 22:40 14.01.2020
4310 Clouds -35 1022 99 0 0.69 93 22:19 14.01.2020
4311 Clouds -35 1022 99 0 0.69 93 21:58 14.01.2020
4312 Clouds -35 1022 99 0 0.69 93 21:39 14.01.2020
4313 Clouds -35 1022 99 0 0.69 93 21:19 14.01.2020
4314 Clouds -35 1022 99 0 0.69 93 20:56 14.01.2020
4315 Clouds -35 1022 99 0 0.69 93 20:38 14.01.2020
4316 Clouds -34 1023 100 0 0.76 89 20:18 14.01.2020
4317 Clouds -34 1023 100 0 0.76 89 19:55 14.01.2020
4318 Clouds -34 1023 100 0 0.76 89 19:37 14.01.2020
4319 Clouds -34 1023 100 0 0.76 89 19:18 14.01.2020
4320 Clouds -34 1023 100 0 0.76 89 18:41 14.01.2020
4321 Clouds -34 1023 100 0 0.76 89 18:20 14.01.2020
4322 Clouds -34 1023 100 0 0.76 89 17:58 14.01.2020
4323 Clouds -34 1023 100 0 0.76 89 17:37 14.01.2020
4324 Clouds -34 1023 100 0 0.74 94 17:18 14.01.2020
4325 Clouds -34 1023 100 0 0.74 94 16:44 14.01.2020
4326 Clouds -34 1023 100 0 0.74 94 16:23 14.01.2020
4327 Clouds -34 1023 100 0 0.74 94 15:58 14.01.2020
4328 Clouds -34 1023 100 0 0.74 94 15:40 14.01.2020
4329 Clouds -34 1023 100 0 0.74 94 15:19 14.01.2020
4330 Clouds -34 1023 100 0 0.74 94 14:45 14.01.2020
4331 Clouds -34 1023 99 0 0.8 92 14:21 14.01.2020
4332 Clouds -34 1023 99 0 0.8 92 13:58 14.01.2020
4333 Clouds -34 1023 99 0 0.8 92 13:39 14.01.2020
4334 Clouds -34 1023 99 0 0.8 92 13:19 14.01.2020
4335 Clouds -33 1023 99 0 0.8 91 13:19 14.01.2020
4336 Clouds -33 1023 99 0 0.8 91 12:42 14.01.2020
4337 Clouds -33 1023 99 0 0.8 91 12:23 14.01.2020
4338 Clouds -33 1023 99 0 0.8 91 11:57 14.01.2020
4339 Clouds -33 1023 99 0 0.8 91 11:38 14.01.2020
4340 Clouds -32 1022 94 0 0.78 75 11:20 14.01.2020
4341 Clouds -32 1022 94 0 0.78 75 10:55 14.01.2020
4342 Clouds -32 1022 94 0 0.78 75 10:36 14.01.2020
4343 Clouds -32 1022 94 0 0.78 75 10:18 14.01.2020
4344 Clouds -32 1022 94 0 0.78 75 10:18 14.01.2020
4345 Clouds -32 1022 94 0 0.78 75 09:42 14.01.2020
4346 Clouds -32 1022 94 0 0.78 75 09:22 14.01.2020
4347 Clouds -32 1022 94 0 0.78 75 08:58 14.01.2020
4348 Clouds -32 1022 94 0 0.78 75 08:39 14.01.2020
4349 Clouds -34 1021 89 0 0.66 86 08:20 14.01.2020
4350 Clouds -34 1021 89 0 0.66 86 07:40 14.01.2020
4351 Clouds -34 1021 89 0 0.66 86 07:18 14.01.2020
4352 Clouds -34 1021 89 0 0.66 86 06:42 14.01.2020
4353 Clouds -34 1021 89 0 0.66 86 05:57 14.01.2020
4354 Clouds -34 1019 83 0 0.62 78 04:49 14.01.2020
4355 Clouds -34 1019 83 0 0.62 78 03:45 14.01.2020
4356 Clouds -34 1019 83 0 0.62 78 02:32 14.01.2020
4357 Clouds -33 1018 80 0 1.02 80 01:19 14.01.2020
4358 Clouds -33 1018 80 0 1.02 80 00:47 14.01.2020
4359 Clouds -33 1018 80 0 1.02 80 00:21 14.01.2020
4360 Clouds -33 1018 80 0 1.02 80 23:44 13.01.2020
4361 Clouds -32 1017 79 0 1.06 65 23:19 13.01.2020
4362 Clouds -32 1017 79 0 1.06 65 22:57 13.01.2020
4363 Clouds -32 1017 79 0 1.06 65 22:39 13.01.2020
4364 Clouds -32 1017 79 0 1.06 65 22:19 13.01.2020
4365 Clouds -32 1017 79 0 1.06 65 21:55 13.01.2020
4366 Clouds -32 1017 79 0 1.06 65 21:36 13.01.2020
4367 Clouds -32 1017 79 0 1.06 65 21:18 13.01.2020
4368 Clouds -32 1017 79 0 1.06 65 20:56 13.01.2020
4369 Clouds -32 1017 79 0 1.06 65 20:37 13.01.2020
4370 Clouds -32 1016 82 0 1.13 71 20:19 13.01.2020
4371 Clouds -32 1016 82 0 1.13 71 19:41 13.01.2020
4372 Clouds -32 1016 82 0 1.13 71 19:21 13.01.2020
4373 Clouds -32 1016 82 0 1.13 71 18:58 13.01.2020
4374 Clouds -32 1016 82 0 1.13 71 18:38 13.01.2020
4375 Clouds -32 1016 82 0 1.13 71 18:19 13.01.2020
4376 Clouds -32 1016 82 0 1.13 71 18:19 13.01.2020
4377 Clouds -32 1016 82 0 1.13 71 17:58 13.01.2020
4378 Clouds -32 1016 82 0 1.13 71 17:39 13.01.2020
4379 Clouds -34 1015 81 0 1.25 73 17:20 13.01.2020
4380 Clouds -34 1015 81 0 1.25 73 16:43 13.01.2020
4381 Clouds -34 1015 81 0 1.25 73 16:24 13.01.2020
4382 Clouds -34 1015 81 0 1.25 73 15:59 13.01.2020
4383 Clouds -34 1015 81 0 1.25 73 15:41 13.01.2020
4384 Clouds -34 1015 81 0 1.25 73 15:21 13.01.2020
4385 Clouds -34 1015 81 0 1.25 73 14:54 13.01.2020
4386 Clouds -34 1015 81 0 1.25 73 14:36 13.01.2020
4387 Clouds -35 1015 82 0 1.23 80 14:18 13.01.2020
4388 Clouds -35 1015 82 0 1.23 80 13:40 13.01.2020
4389 Clouds -35 1015 83 0 1.18 79 13:22 13.01.2020
4390 Clouds -35 1015 83 0 1.18 79 12:58 13.01.2020
4391 Clouds -35 1015 83 0 1.18 79 12:40 13.01.2020
4392 Clouds -35 1015 83 0 1.18 79 12:21 13.01.2020
4393 Clouds -35 1015 83 0 1.18 79 11:54 13.01.2020
4394 Clouds -35 1015 83 0 1.18 79 11:36 13.01.2020
4395 Clouds -37 1015 86 0 1.13 85 11:18 13.01.2020
4396 Clouds -37 1015 86 0 1.13 85 11:18 13.01.2020
4397 Clouds -37 1015 86 0 1.13 85 11:18 13.01.2020
4398 Clouds -37 1015 86 0 1.13 85 10:55 13.01.2020
4399 Clouds -37 1015 86 0 1.13 85 10:36 13.01.2020
4400 Clouds -37 1015 86 0 1.13 85 10:18 13.01.2020
4401 Clouds -37 1015 86 0 1.13 85 09:40 13.01.2020
4402 Clouds -37 1015 86 0 1.13 85 09:40 13.01.2020
4403 Clouds -37 1015 86 0 1.13 85 09:22 13.01.2020
4404 Clouds -37 1015 86 0 1.13 85 08:42 13.01.2020
4405 Clear -38 1015 90 0 1.08 84 08:21 13.01.2020
4406 Clear -38 1015 90 0 1.08 84 07:54 13.01.2020
4407 Clear -38 1015 90 0 1.08 84 07:35 13.01.2020
4408 Clear -38 1015 90 0 1.08 84 06:51 13.01.2020
4409 Clear -38 1015 90 0 1.08 84 06:22 13.01.2020
4410 Clear -38 1015 90 0 1.08 84 05:36 13.01.2020
4411 Clear -39 1015 90 0 0.95 86 04:25 13.01.2020
4412 Clear -39 1015 90 0 0.95 86 03:31 13.01.2020
4413 Clear -39 1015 90 0 0.95 86 02:47 13.01.2020
4414 Clear -39 1015 90 0 0.95 86 02:29 13.01.2020
4415 Clear -39 1016 89 0 0.96 92 01:23 13.01.2020
4416 Clear -39 1016 90 0 0.94 93 00:42 13.01.2020
4417 Clear -39 1016 90 0 0.94 93 00:24 13.01.2020
4418 Clear -39 1016 90 0 0.94 93 23:56 12.01.2020
4419 Clear -39 1016 90 0 0.94 93 23:37 12.01.2020
4420 Clear -39 1017 87 0 0.91 97 23:19 12.01.2020
4421 Clear -39 1017 87 0 0.91 97 22:42 12.01.2020
4422 Clear -39 1017 87 0 0.91 97 22:24 12.01.2020
4423 Clear -39 1017 87 0 0.91 97 21:57 12.01.2020
4424 Clear -39 1017 87 0 0.91 97 21:39 12.01.2020
4425 Clear -39 1017 87 0 0.91 97 21:39 12.01.2020
4426 Clear -39 1017 87 0 0.91 97 21:20 12.01.2020
4427 Clear -39 1017 87 0 0.91 97 20:57 12.01.2020
4428 Clear -39 1017 87 0 0.91 97 20:39 12.01.2020
4429 Clear -39 1017 85 0 0.92 124 20:20 12.01.2020
4430 Clear -39 1017 85 0 0.92 124 19:56 12.01.2020
4431 Clear -39 1017 85 0 0.92 124 19:38 12.01.2020
4432 Clear -39 1017 85 0 0.92 124 19:19 12.01.2020
4433 Clear -39 1017 85 0 0.92 124 18:57 12.01.2020
4434 Clear -39 1017 85 0 0.92 124 18:57 12.01.2020
4435 Clear -39 1017 85 0 0.92 124 18:39 12.01.2020
4436 Clear -39 1017 85 0 0.92 124 18:21 12.01.2020
4437 Clear -39 1017 85 0 0.92 124 17:57 12.01.2020
4438 Clear -39 1017 85 0 0.92 124 17:38 12.01.2020
4439 Clear -39 1017 85 0 0.96 143 17:19 12.01.2020
4440 Clear -39 1017 85 0 0.96 143 16:55 12.01.2020
4441 Clear -39 1017 85 0 0.96 143 16:37 12.01.2020
4442 Clear -39 1017 85 0 0.96 143 16:18 12.01.2020
4443 Clear -39 1017 85 0 0.96 143 15:42 12.01.2020
4444 Clear -39 1017 85 0 0.96 143 15:24 12.01.2020
4445 Clear -39 1017 85 0 0.96 143 14:57 12.01.2020
4446 Clear -39 1017 85 0 0.96 143 14:38 12.01.2020
4447 Clear -39 1018 86 0 1.05 179 14:19 12.01.2020
4448 Clear -39 1018 86 0 1.05 179 13:44 12.01.2020
4449 Clear -39 1018 86 0 1.05 179 13:25 12.01.2020
4450 Clear -39 1018 85 0 1.06 178 12:59 12.01.2020
4451 Clear -39 1018 85 0 1.06 178 12:39 12.01.2020
4452 Clear -39 1018 85 0 1.06 178 12:20 12.01.2020
4453 Clear -39 1018 85 0 1.06 178 11:58 12.01.2020
4454 Clear -39 1018 85 0 1.06 178 11:39 12.01.2020
4455 Clear -39 1018 87 0 1.12 190 11:20 12.01.2020
4456 Clear -39 1018 87 0 1.12 190 10:41 12.01.2020
4457 Clear -39 1018 87 0 1.12 190 10:22 12.01.2020
4458 Clear -39 1018 87 0 1.12 190 09:57 12.01.2020
4459 Clear -39 1018 87 0 1.12 190 09:39 12.01.2020
4460 Clear -39 1018 87 0 1.12 190 09:20 12.01.2020
4461 Clear -39 1018 87 0 1.12 190 08:45 12.01.2020
4462 Clear -39 1017 91 0 1 198 08:21 12.01.2020
4463 Clear -39 1017 91 0 1.04 192 07:42 12.01.2020
4464 Clear -39 1017 91 0 1.04 192 07:24 12.01.2020
4465 Clear -39 1017 91 0 1.04 192 06:49 12.01.2020
4466 Clear -39 1017 91 0 1.04 192 06:30 12.01.2020
4467 Clear -39 1017 91 0 1.04 192 05:37 12.01.2020
4468 Clear -38 1016 91 0 1.12 203 04:51 12.01.2020
4469 Clear -38 1016 91 0 1.12 203 03:27 12.01.2020
4470 Clear -38 1016 91 0 1.12 203 02:34 12.01.2020
4471 Clear -38 1015 94 0 0.97 206 01:58 12.01.2020
4472 Clear -38 1015 96 0 0.93 212 01:30 12.01.2020
4473 Clear -38 1015 96 0 0.93 212 00:44 12.01.2020
4474 Clear -38 1015 96 0 0.93 212 00:21 12.01.2020
4475 Clear -38 1015 96 0 0.93 212 23:56 11.01.2020
4476 Clear -38 1015 96 0 0.93 212 23:37 11.01.2020
4477 Clear -38 1014 96 0 0.46 235 23:18 11.01.2020
4478 Clear -38 1014 96 0 0.46 235 22:55 11.01.2020
4479 Clear -38 1014 96 0 0.46 235 22:37 11.01.2020
4480 Clear -38 1014 96 0 0.46 235 22:18 11.01.2020
4481 Clear -38 1014 96 0 0.46 235 21:42 11.01.2020
4482 Clear -38 1014 96 0 0.46 235 21:18 11.01.2020
4483 Clear -38 1014 96 0 0.46 235 20:55 11.01.2020
4484 Clear -38 1014 96 0 0.46 235 20:37 11.01.2020
4485 Clear -38 1013 96 0 0.48 151 20:19 11.01.2020
4486 Clear -38 1013 96 0 0.48 151 19:55 11.01.2020
4487 Clear -38 1013 96 0 0.48 151 19:37 11.01.2020
4488 Clear -38 1013 96 0 0.48 151 19:19 11.01.2020
4489 Clear -38 1013 96 0 0.48 151 18:55 11.01.2020
4490 Clear -38 1013 96 0 0.48 151 18:36 11.01.2020
4491 Clear -38 1013 96 0 0.48 151 18:18 11.01.2020
4492 Clear -38 1013 96 0 0.48 151 17:55 11.01.2020
4493 Clear -38 1013 96 0 0.48 151 17:36 11.01.2020
4494 Clear -38 1013 95 0 0.19 101 17:18 11.01.2020
4495 Clear -38 1013 95 0 0.19 101 17:18 11.01.2020
4496 Clear -38 1013 95 0 0.19 101 16:43 11.01.2020
4497 Clear -38 1013 95 0 0.19 101 16:23 11.01.2020
4498 Clear -38 1013 95 0 0.19 101 15:43 11.01.2020
4499 Clear -38 1013 95 0 0.19 101 15:24 11.01.2020
4500 Clear -38 1013 95 0 0.19 101 14:59 11.01.2020
4501 Clear -38 1013 95 0 0.19 101 14:41 11.01.2020
4502 Clear -38 1013 95 0 0.19 101 14:22 11.01.2020
4503 Clouds -37 1012 93 0 0.77 86 13:55 11.01.2020
4504 Clouds -37 1012 93 0 0.77 86 13:37 11.01.2020
4505 Clouds -37 1012 92 0 0.77 82 13:19 11.01.2020
4506 Clouds -37 1012 92 0 0.77 82 12:44 11.01.2020
4507 Clouds -37 1012 92 0 0.77 82 12:26 11.01.2020
4508 Clouds -37 1012 92 0 0.77 82 11:56 11.01.2020
4509 Clouds -37 1012 92 0 0.77 82 11:37 11.01.2020
4510 Clouds -37 1013 88 0 0.89 85 11:18 11.01.2020
4511 Clouds -37 1013 88 0 0.89 85 10:44 11.01.2020
4512 Clouds -37 1013 88 0 0.89 85 10:24 11.01.2020
4513 Clouds -37 1013 88 0 0.89 85 09:42 11.01.2020
4514 Clouds -37 1013 88 0 0.89 85 09:21 11.01.2020
4515 Clouds -37 1013 88 0 0.89 85 08:43 11.01.2020
4516 Clouds -36 1012 100 0 1.02 83 08:23 11.01.2020
4517 Clouds -35 1012 100 0 1.14 84 07:45 11.01.2020
4518 Clouds -35 1012 100 0 1.14 84 07:27 11.01.2020
4519 Clouds -35 1012 100 0 1.14 84 06:57 11.01.2020
4520 Clouds -35 1012 100 0 1.14 84 06:37 11.01.2020
4521 Clouds -35 1013 99 0 0.85 100 05:18 11.01.2020
4522 Clouds -35 1013 99 0 0.85 100 04:37 11.01.2020
4523 Clouds -35 1013 99 0 0.85 100 04:19 11.01.2020
4524 Clouds -35 1013 99 0 0.85 100 02:45 11.01.2020
4525 Clouds -34 1014 99 0 0.9 101 01:45 11.01.2020
4526 Clouds -34 1014 98 0 0.96 101 01:22 11.01.2020
4527 Clouds -34 1014 98 0 0.96 101 00:51 11.01.2020
4528 Clouds -34 1014 98 0 0.96 101 00:21 11.01.2020
4529 Clouds -34 1014 98 0 0.96 101 23:56 10.01.2020
4530 Clouds -34 1014 98 0 0.96 101 23:38 10.01.2020
4531 Clouds -33 1015 98 0 0.7 96 23:20 10.01.2020
4532 Clouds -33 1015 98 0 0.7 96 22:41 10.01.2020
4533 Clouds -33 1015 98 0 0.7 96 22:22 10.01.2020
4534 Clouds -33 1015 98 0 0.7 96 21:58 10.01.2020
4535 Clouds -33 1015 98 0 0.7 96 21:40 10.01.2020
4536 Clouds -33 1015 98 0 0.7 96 21:40 10.01.2020
4537 Clouds -33 1015 98 0 0.7 96 21:20 10.01.2020
4538 Clouds -33 1015 98 0 0.7 96 21:20 10.01.2020
4539 Clouds -33 1015 98 0 0.7 96 20:57 10.01.2020
4540 Clouds -33 1015 98 0 0.7 96 20:38 10.01.2020
4541 Clouds -31 1015 99 0 0.66 97 20:19 10.01.2020
4542 Clouds -31 1015 99 0 0.66 97 19:40 10.01.2020
4543 Clouds -31 1015 99 0 0.66 97 19:21 10.01.2020
4544 Clouds -31 1015 99 0 0.66 97 18:55 10.01.2020
4545 Clouds -31 1015 99 0 0.66 97 18:37 10.01.2020
4546 Clouds -31 1015 99 0 0.66 97 18:18 10.01.2020
4547 Clouds -31 1015 99 0 0.66 97 17:56 10.01.2020
4548 Clouds -31 1015 99 0 0.66 97 17:38 10.01.2020
4549 Clouds -31 1015 99 0 0.66 97 17:38 10.01.2020
4550 Clouds -28 1015 95 0 0.57 83 17:19 10.01.2020
4551 Clouds -28 1015 95 0 0.57 83 16:43 10.01.2020
4552 Clouds -28 1015 95 0 0.57 83 16:21 10.01.2020
4553 Clouds -28 1015 95 0 0.57 83 15:58 10.01.2020
4554 Clouds -28 1015 95 0 0.57 83 15:39 10.01.2020
4555 Clouds -28 1015 95 0 0.57 83 15:20 10.01.2020
4556 Clouds -28 1015 95 0 0.57 83 14:59 10.01.2020
4557 Clouds -28 1015 95 0 0.57 83 14:40 10.01.2020
4558 Clouds -28 1016 94 0 0.78 77 14:20 10.01.2020
4559 Clouds -28 1016 94 0 0.78 77 13:58 10.01.2020
4560 Clouds -28 1016 94 0 0.78 77 13:39 10.01.2020
4561 Clouds -28 1016 94 0 0.78 77 13:21 10.01.2020
4562 Clouds -28 1016 95 0 0.88 73 12:57 10.01.2020
4563 Clouds -28 1016 95 0 0.88 73 12:38 10.01.2020
4564 Clouds -28 1016 95 0 0.88 73 12:18 10.01.2020
4565 Clouds -28 1016 95 0 0.88 73 11:54 10.01.2020
4566 Clouds -28 1016 95 0 0.88 73 11:36 10.01.2020
4567 Clouds -27 1016 93 0 0.89 69 11:18 10.01.2020
4568 Clouds -27 1016 93 0 0.89 69 10:39 10.01.2020
4569 Clouds -27 1016 93 0 0.89 69 10:21 10.01.2020
4570 Clouds -27 1016 93 0 0.89 69 09:56 10.01.2020
4571 Clouds -27 1016 93 0 0.89 69 09:37 10.01.2020
4572 Clouds -27 1016 93 0 0.89 69 09:19 10.01.2020
4573 Clouds -27 1016 93 0 0.89 69 08:41 10.01.2020
4574 Clouds -28 1016 94 0 0.86 75 08:22 10.01.2020
4575 Clouds -30 1016 98 0 0.78 91 07:44 10.01.2020
4576 Clouds -30 1016 98 0 0.78 91 07:24 10.01.2020
4577 Clouds -30 1016 98 0 0.78 91 06:46 10.01.2020
4578 Clouds -30 1016 98 0 0.78 91 06:26 10.01.2020
4579 Clouds -30 1016 98 0 0.78 91 05:48 10.01.2020
4580 Clouds -31 1017 99 0 0.59 102 03:37 10.01.2020
4581 Clouds -31 1017 99 0 0.59 102 03:18 10.01.2020
4582 Clouds -31 1017 99 0 0.59 102 02:47 10.01.2020
4583 Clouds -30 1017 100 0 0.65 101 01:44 10.01.2020
4584 Clouds -30 1017 100 0 0.65 101 01:26 10.01.2020
4585 Clouds -31 1017 100 0 0.55 100 00:40 10.01.2020
4586 Clouds -31 1017 100 0 0.55 100 23:58 09.01.2020
4587 Clouds -31 1017 100 0 0.55 100 23:39 09.01.2020
4588 Clouds -30 1017 100 0 0.63 107 23:20 09.01.2020
4589 Clouds -30 1017 100 0 0.63 107 22:57 09.01.2020
4590 Clouds -30 1017 100 0 0.63 107 22:39 09.01.2020
4591 Clouds -30 1017 100 0 0.63 107 22:19 09.01.2020
4592 Clouds -30 1017 100 0 0.63 107 22:19 09.01.2020
4593 Clouds -30 1017 100 0 0.63 107 21:57 09.01.2020
4594 Clouds -30 1017 100 0 0.63 107 21:38 09.01.2020
4595 Clouds -30 1017 100 0 0.63 107 21:38 09.01.2020
4596 Clouds -30 1017 100 0 0.63 107 21:19 09.01.2020
4597 Clouds -30 1017 100 0 0.63 107 20:57 09.01.2020
4598 Clouds -30 1017 100 0 0.63 107 20:39 09.01.2020
4599 Clouds -29 1018 100 0 0.6 97 20:20 09.01.2020
4600 Clouds -29 1018 100 0 0.6 97 20:20 09.01.2020
4601 Clouds -29 1018 100 0 0.6 97 19:58 09.01.2020
4602 Clouds -29 1018 100 0 0.6 97 19:38 09.01.2020
4603 Clouds -29 1018 100 0 0.6 97 19:19 09.01.2020
4604 Clouds -29 1018 100 0 0.6 97 18:55 09.01.2020
4605 Clouds -29 1018 100 0 0.6 97 18:55 09.01.2020
4606 Clouds -29 1018 100 0 0.6 97 18:37 09.01.2020
4607 Clouds -29 1018 100 0 0.6 97 18:19 09.01.2020
4608 Clouds -29 1018 100 0 0.6 97 17:41 09.01.2020
4609 Clouds -29 1018 100 0 0.6 97 17:41 09.01.2020
4610 Clouds -28 1018 100 0 0.83 105 17:18 09.01.2020
4611 Clouds -28 1018 100 0 0.83 105 16:56 09.01.2020
4612 Clouds -28 1018 100 0 0.83 105 16:36 09.01.2020
4613 Clouds -28 1018 100 0 0.83 105 16:18 09.01.2020
4614 Clouds -28 1018 100 0 0.83 105 15:41 09.01.2020
4615 Clouds -28 1018 100 0 0.83 105 15:20 09.01.2020
4616 Clouds -28 1018 100 0 0.83 105 14:55 09.01.2020
4617 Clouds -28 1018 100 0 0.83 105 14:36 09.01.2020
4618 Clouds -27 1018 100 0 0.73 102 14:18 09.01.2020
4619 Clouds -27 1018 100 0 0.73 102 13:54 09.01.2020
4620 Clouds -27 1018 100 0 0.73 102 13:36 09.01.2020
4621 Clouds -27 1018 99 0 0.77 103 13:18 09.01.2020
4622 Clouds -27 1018 99 0 0.77 103 12:42 09.01.2020
4623 Clouds -27 1018 99 0 0.77 103 12:23 09.01.2020
4624 Clouds -27 1018 99 0 0.77 103 11:59 09.01.2020
4625 Clouds -27 1018 99 0 0.77 103 11:41 09.01.2020
4626 Clouds -27 1018 99 0 0.77 103 11:22 09.01.2020
4627 Clouds -26 1018 99 0 0.66 98 10:56 09.01.2020
4628 Clouds -26 1018 99 0 0.66 98 10:37 09.01.2020
4629 Clouds -26 1018 99 0 0.66 98 10:19 09.01.2020
4630 Clouds -26 1018 99 0 0.66 98 10:19 09.01.2020
4631 Clouds -26 1018 99 0 0.66 98 09:41 09.01.2020
4632 Clouds -26 1018 99 0 0.66 98 09:22 09.01.2020
4633 Clouds -26 1018 99 0 0.66 98 08:56 09.01.2020
4634 Clouds -26 1018 99 0 0.66 98 08:38 09.01.2020
4635 Clouds -26 1017 99 0 0.88 94 08:19 09.01.2020
4636 Clouds -27 1017 100 0 0.86 102 07:45 09.01.2020
4637 Clouds -27 1017 100 0 0.86 102 07:27 09.01.2020
4638 Clouds -27 1017 100 0 0.86 102 06:39 09.01.2020
4639 Clouds -27 1017 100 0 0.86 102 06:21 09.01.2020
4640 Clouds -27 1017 100 0 0.86 102 05:50 09.01.2020
4641 Clouds -27 1017 100 0 0.96 82 04:46 09.01.2020
4642 Clouds -27 1017 100 0 0.96 82 03:55 09.01.2020
4643 Clouds -27 1017 100 0 0.96 82 03:26 09.01.2020
4644 Clouds -27 1017 100 0 0.96 82 02:33 09.01.2020
4645 Clouds -25 1016 98 0 0.88 83 01:41 09.01.2020
4646 Clouds -25 1016 98 0 0.87 86 00:56 09.01.2020
4647 Clouds -25 1016 98 0 0.87 86 00:36 09.01.2020
4648 Clouds -25 1016 98 0 0.87 86 00:18 09.01.2020
4649 Clouds -25 1016 98 0 0.87 86 23:38 08.01.2020
4650 Snow -25 1015 99 0 1.02 76 23:20 08.01.2020
4651 Snow -25 1015 99 0 1.02 76 22:40 08.01.2020
4652 Snow -25 1015 99 0 1.02 76 22:21 08.01.2020
4653 Snow -25 1015 99 0 1.02 76 21:58 08.01.2020
4654 Snow -25 1015 99 0 1.02 76 21:40 08.01.2020
4655 Snow -25 1015 99 0 1.02 76 21:40 08.01.2020
4656 Snow -25 1015 99 0 1.02 76 21:20 08.01.2020
4657 Snow -25 1015 99 0 1.02 76 20:59 08.01.2020
4658 Snow -25 1015 99 0 1.02 76 20:40 08.01.2020
4659 Clouds -25 1014 97 0 0.97 68 20:20 08.01.2020
4660 Clouds -25 1014 97 0 0.97 68 19:58 08.01.2020
4661 Clouds -25 1014 97 0 0.97 68 19:38 08.01.2020
4662 Clouds -25 1014 97 0 0.97 68 19:19 08.01.2020
4663 Clouds -25 1014 97 0 0.97 68 18:57 08.01.2020
4664 Clouds -25 1014 97 0 0.97 68 18:38 08.01.2020
4665 Clouds -25 1014 97 0 0.97 68 18:19 08.01.2020
4666 Clouds -25 1014 97 0 0.97 68 17:56 08.01.2020
4667 Clouds -25 1014 97 0 0.97 68 17:38 08.01.2020
4668 Clouds -26 1014 97 0 1.06 68 17:19 08.01.2020
4669 Clouds -26 1014 97 0 1.06 68 16:55 08.01.2020
4670 Clouds -26 1014 97 0 1.06 68 16:37 08.01.2020
4671 Clouds -26 1014 97 0 1.06 68 16:18 08.01.2020
4672 Clouds -26 1014 97 0 1.06 68 15:44 08.01.2020
4673 Clouds -26 1014 97 0 1.06 68 15:44 08.01.2020
4674 Clouds -26 1014 97 0 1.06 68 15:21 08.01.2020
4675 Clouds -26 1014 97 0 1.06 68 14:58 08.01.2020
4676 Clouds -26 1014 97 0 1.06 68 14:40 08.01.2020
4677 Clouds -27 1014 95 0 0.84 69 14:21 08.01.2020
4678 Clouds -27 1014 95 0 0.84 69 13:41 08.01.2020
4679 Clouds -27 1014 95 0 0.84 69 13:21 08.01.2020
4680 Clouds -27 1014 95 0 0.84 69 13:21 08.01.2020
4681 Clouds -27 1014 94 0 0.87 69 12:55 08.01.2020
4682 Clouds -27 1014 94 0 0.87 69 12:36 08.01.2020
4683 Clouds -27 1014 94 0 0.87 69 12:18 08.01.2020
4684 Clouds -27 1014 94 0 0.87 69 11:47 08.01.2020
4685 Clouds -28 1014 90 0 0.81 87 11:19 08.01.2020
4686 Clouds -28 1014 90 0 0.81 87 11:19 08.01.2020
4687 Clouds -28 1014 90 0 0.81 87 10:58 08.01.2020
4688 Clouds -28 1014 90 0 0.81 87 10:40 08.01.2020
4689 Clouds -28 1014 90 0 0.81 87 10:40 08.01.2020
4690 Clouds -28 1014 90 0 0.81 87 10:20 08.01.2020
4691 Clouds -28 1014 90 0 0.81 87 09:43 08.01.2020
4692 Clouds -28 1014 90 0 0.81 87 09:20 08.01.2020
4693 Clouds -28 1014 90 0 0.81 87 08:58 08.01.2020
4694 Clouds -28 1014 90 0 0.81 87 08:40 08.01.2020
4695 Clouds -30 1014 88 0 0.57 150 08:21 08.01.2020
4696 Clouds -30 1014 88 0 0.57 150 07:52 08.01.2020
4697 Clouds -30 1014 88 0 0.57 150 07:33 08.01.2020
4698 Clouds -30 1014 88 0 0.57 150 06:58 08.01.2020
4699 Clouds -30 1014 88 0 0.57 150 06:40 08.01.2020
4700 Clouds -30 1014 88 0 0.57 150 05:55 08.01.2020
4701 Clouds -30 1014 88 0 0.57 150 05:25 08.01.2020
4702 Clouds -30 1014 87 0 0.56 212 04:36 08.01.2020
4703 Clouds -30 1014 87 0 0.56 212 02:46 08.01.2020
4704 Clouds -30 1014 87 0 0.56 212 02:28 08.01.2020
4705 Clouds -30 1014 85 0 0.7 223 01:55 08.01.2020
4706 Clouds -30 1014 85 0 0.7 223 01:30 08.01.2020
4707 Clouds -29 1013 85 0 0.65 229 00:51 08.01.2020
4708 Clouds -29 1013 85 0 0.65 229 00:22 08.01.2020
4709 Clouds -29 1013 85 0 0.65 229 23:46 07.01.2020
4710 Clouds -28 1012 83 0 0.83 209 23:21 07.01.2020
4711 Clouds -28 1012 83 0 0.83 209 23:21 07.01.2020
4712 Clouds -28 1012 83 0 0.83 209 22:41 07.01.2020
4713 Clouds -28 1012 83 0 0.83 209 22:21 07.01.2020
4714 Clouds -28 1012 83 0 0.83 209 21:59 07.01.2020
4715 Clouds -28 1012 83 0 0.83 209 21:41 07.01.2020
4716 Clouds -28 1012 83 0 0.83 209 21:21 07.01.2020
4717 Clouds -28 1012 83 0 0.83 209 20:58 07.01.2020
4718 Clouds -28 1012 83 0 0.83 209 20:39 07.01.2020
4719 Clouds -29 1012 85 0 1.04 218 20:21 07.01.2020
4720 Clouds -27 1012 87 0 0.98 224 19:57 07.01.2020
4721 Clouds -27 1012 87 0 0.98 224 19:37 07.01.2020
4722 Clouds -27 1012 87 0 0.98 224 19:19 07.01.2020
4723 Clouds -27 1012 87 0 0.98 224 18:56 07.01.2020
4724 Clouds -27 1012 87 0 0.98 224 18:37 07.01.2020
4725 Clouds -27 1012 87 0 0.98 224 18:18 07.01.2020
4726 Clouds -27 1012 87 0 0.98 224 17:54 07.01.2020
4727 Clouds -27 1012 87 0 0.98 224 17:36 07.01.2020
4728 Clouds -27 1012 88 0 0.78 251 17:18 07.01.2020
4729 Clouds -27 1012 88 0 0.78 251 16:54 07.01.2020
4730 Clouds -27 1012 88 0 0.78 251 16:36 07.01.2020
4731 Clouds -27 1012 88 0 0.78 251 16:18 07.01.2020
4732 Clouds -27 1012 88 0 0.78 251 15:42 07.01.2020
4733 -273 0 0 0 0 0 15:23 07.01.2020
4734 Clouds -27 1012 88 0 0.78 251 14:58 07.01.2020
4735 Clouds -27 1012 88 0 0.78 251 14:38 07.01.2020
4736 Clouds -27 1012 87 0 0.67 275 14:19 07.01.2020
4737 Clouds -27 1012 87 0 0.67 275 13:46 07.01.2020
4738 Clouds -26 1012 88 0 0.53 264 13:21 07.01.2020
4739 Clouds -26 1012 88 0 0.53 264 13:21 07.01.2020
4740 Clouds -26 1012 88 0 0.53 264 12:56 07.01.2020
4741 Clouds -26 1012 88 0 0.53 264 12:37 07.01.2020
4742 Clouds -26 1012 88 0 0.53 264 12:19 07.01.2020
4743 Clouds -26 1012 88 0 0.53 264 11:41 07.01.2020
4744 Clouds -26 1012 88 0 0.53 264 11:23 07.01.2020
4745 Clouds -28 1012 88 0 0.63 337 10:57 07.01.2020
4746 Clouds -28 1012 88 0 0.63 337 10:57 07.01.2020
4747 Clouds -28 1012 88 0 0.63 337 10:39 07.01.2020
4748 Clouds -28 1012 88 0 0.63 337 10:21 07.01.2020
4749 Clouds -28 1012 88 0 0.63 337 09:39 07.01.2020
4750 Clouds -28 1012 88 0 0.63 337 09:21 07.01.2020
4751 Clouds -28 1012 88 0 0.63 337 09:21 07.01.2020
4752 Clouds -28 1012 88 0 0.63 337 08:59 07.01.2020
4753 Clouds -28 1012 88 0 0.63 337 08:41 07.01.2020
4754 Clouds -28 1011 88 0 0.47 312 08:18 07.01.2020
4755 Clouds -28 1011 88 0 0.47 312 07:47 07.01.2020
4756 Clouds -28 1011 88 0 0.47 312 07:23 07.01.2020
4757 Clouds -28 1011 88 0 0.47 312 06:50 07.01.2020
4758 Clouds -28 1011 88 0 0.47 312 06:30 07.01.2020
4759 Clouds -28 1011 88 0 0.47 312 05:41 07.01.2020
4760 Clouds -26 1012 84 0 0.34 1 03:52 07.01.2020
4761 Clouds -26 1012 84 0 0.34 1 03:52 07.01.2020
4762 Clouds -26 1012 84 0 0.34 1 03:25 07.01.2020
4763 Clouds -26 1013 82 0 0.71 109 02:20 07.01.2020
4764 Clouds -26 1013 82 0 0.71 109 01:40 07.01.2020
4765 Clouds -26 1013 82 0 0.71 109 01:40 07.01.2020
4766 Clouds -26 1013 82 0 0.71 109 01:40 07.01.2020
4767 Clouds -27 1013 83 0 0.51 103 01:18 07.01.2020
4768 Clouds -27 1013 83 0 0.51 103 00:21 07.01.2020
4769 Clouds -27 1013 83 0 0.51 103 23:57 06.01.2020
4770 Clouds -27 1013 83 0 0.51 103 23:38 06.01.2020
4771 Clouds -27 1015 82 0 1.01 135 23:20 06.01.2020
4772 Clouds -27 1015 82 0 1.01 135 22:55 06.01.2020
4773 Clouds -27 1015 82 0 1.01 135 22:37 06.01.2020
4774 Clouds -27 1015 82 0 1.01 135 22:18 06.01.2020
4775 Clouds -27 1015 82 0 1.01 135 21:54 06.01.2020
4776 Clouds -27 1015 82 0 1.01 135 21:36 06.01.2020
4777 Clouds -27 1015 82 0 1.01 135 21:18 06.01.2020
4778 Clouds -27 1015 82 0 1.01 135 20:54 06.01.2020
4779 Clouds -28 1015 83 0 0.82 132 20:36 06.01.2020
4780 Clouds -32 1016 87 0 0.85 175 20:18 06.01.2020
4781 Clouds -32 1016 87 0 0.85 175 20:18 06.01.2020
4782 Clouds -32 1016 87 0 0.85 175 19:54 06.01.2020
4783 Clouds -32 1016 87 0 0.85 175 19:36 06.01.2020
4784 Clouds -32 1016 87 0 0.85 175 19:18 06.01.2020
4785 Clouds -32 1016 87 0 0.85 175 18:41 06.01.2020
4786 Clouds -32 1016 87 0 0.85 175 18:19 06.01.2020
4787 Clouds -32 1016 87 0 0.85 175 17:39 06.01.2020
4788 Clear -32 1018 89 0 0.77 213 17:19 06.01.2020
4789 Clear -32 1018 89 0 0.77 213 16:55 06.01.2020
4790 Clear -32 1018 89 0 0.77 213 16:36 06.01.2020
4791 Clear -32 1018 89 0 0.77 213 16:18 06.01.2020
4792 Clear -32 1018 89 0 0.77 213 16:18 06.01.2020
4793 Clear -32 1018 89 0 0.77 213 15:42 06.01.2020
4794 Clear -32 1018 89 0 0.77 213 15:21 06.01.2020
4795 Clear -32 1018 89 0 0.77 213 14:59 06.01.2020
4796 Clear -32 1018 89 0 0.77 213 14:41 06.01.2020
4797 Clear -33 1020 89 0 0.58 188 14:22 06.01.2020
4798 Clear -33 1020 89 0 0.58 188 14:22 06.01.2020
4799 Clear -33 1020 89 0 0.58 188 13:58 06.01.2020
4800 Clear -33 1020 89 0 0.58 188 13:38 06.01.2020
4801 Clear -32 1020 88 0 0.73 179 13:20 06.01.2020
4802 Clear -32 1020 88 0 0.73 179 12:55 06.01.2020
4803 Clear -32 1020 88 0 0.73 179 12:37 06.01.2020
4804 Clear -32 1020 88 0 0.73 179 12:18 06.01.2020
4805 Clear -32 1020 88 0 0.73 179 11:41 06.01.2020
4806 Clear -32 1020 88 0 0.73 179 11:23 06.01.2020
4807 Clear -33 1021 88 0 0.3 247 10:59 06.01.2020
4808 Clear -33 1021 88 0 0.3 247 10:40 06.01.2020
4809 Clear -33 1021 88 0 0.3 247 10:20 06.01.2020
4810 Clear -33 1021 88 0 0.3 247 09:39 06.01.2020
4811 Clear -33 1021 88 0 0.3 247 09:20 06.01.2020
4812 Clear -33 1021 88 0 0.3 247 08:52 06.01.2020
4813 Clear -33 1021 88 0 0.3 247 08:34 06.01.2020
4814 Clear -33 1021 88 0 0.07 94 07:57 06.01.2020
4815 Clear -33 1021 88 0 0.07 94 07:36 06.01.2020
4816 Clear -33 1021 88 0 0.07 94 06:47 06.01.2020
4817 Clear -33 1021 88 0 0.07 94 06:27 06.01.2020
4818 Clear -33 1021 88 0 0.07 94 05:48 06.01.2020
4819 Clear -33 1022 86 0 0.28 319 04:55 06.01.2020
4820 Clear -33 1022 86 0 0.28 319 04:21 06.01.2020
4821 Clear -33 1022 86 0 0.28 319 03:25 06.01.2020
4822 Clear -33 1022 86 0 0.28 319 02:25 06.01.2020
4823 Clouds -33 1023 84 0 0.36 16 01:46 06.01.2020
4824 Clouds -33 1022 85 0 0.34 14 01:28 06.01.2020
4825 Clouds -33 1022 85 0 0.34 14 00:44 06.01.2020
4826 Clouds -33 1022 85 0 0.34 14 00:24 06.01.2020
4827 Clouds -33 1022 85 0 0.34 14 23:57 05.01.2020
4828 Clouds -33 1022 85 0 0.34 14 23:37 05.01.2020
4829 Clear -33 1023 83 0 0.22 70 23:19 05.01.2020
4830 Clear -33 1023 83 0 0.22 70 22:40 05.01.2020
4831 Clear -33 1023 83 0 0.22 70 22:20 05.01.2020
4832 Clear -33 1023 83 0 0.22 70 21:56 05.01.2020
4833 Clear -33 1023 83 0 0.22 70 21:38 05.01.2020
4834 Clear -33 1023 83 0 0.22 70 21:20 05.01.2020
4835 Clear -33 1023 83 0 0.22 70 20:56 05.01.2020
4836 Clear -33 1023 83 0 0.22 70 20:38 05.01.2020
4837 Clouds -34 1024 85 0 0.17 79 20:19 05.01.2020
4838 Clouds -34 1024 85 0 0.17 79 19:58 05.01.2020
4839 Clouds -34 1024 85 0 0.17 79 19:38 05.01.2020
4840 Clouds -34 1024 85 0 0.17 79 19:19 05.01.2020
4841 Clouds -34 1024 85 0 0.17 79 18:55 05.01.2020
4842 Clouds -34 1024 85 0 0.17 79 18:37 05.01.2020
4843 Clouds -34 1024 85 0 0.17 79 18:37 05.01.2020
4844 Clouds -34 1024 85 0 0.17 79 18:19 05.01.2020
4845 Clouds -34 1024 85 0 0.17 79 17:57 05.01.2020
4846 Clouds -34 1024 85 0 0.17 79 17:38 05.01.2020
4847 Clouds -34 1024 85 0 0.17 79 17:38 05.01.2020
4848 Clouds -33 1023 84 0 0.25 52 17:19 05.01.2020
4849 Clouds -33 1023 84 0 0.25 52 16:56 05.01.2020
4850 Clouds -33 1023 84 0 0.25 52 16:37 05.01.2020
4851 Clouds -33 1023 84 0 0.25 52 16:19 05.01.2020
4852 Clouds -33 1023 84 0 0.25 52 16:19 05.01.2020
4853 Clouds -33 1023 84 0 0.25 52 15:38 05.01.2020
4854 Clouds -33 1023 84 0 0.25 52 15:20 05.01.2020
4855 Clouds -33 1023 84 0 0.25 52 14:55 05.01.2020
4856 Clouds -33 1023 84 0 0.25 52 14:37 05.01.2020
4857 Clouds -33 1023 84 0 0.25 52 14:37 05.01.2020
4858 Clouds -34 1023 85 0 0.27 63 14:19 05.01.2020
4859 Clouds -34 1023 85 0 0.27 63 13:55 05.01.2020
4860 Clouds -34 1023 85 0 0.27 63 13:37 05.01.2020
4861 Clouds -34 1023 85 0 0.27 63 13:18 05.01.2020
4862 Clouds -35 1024 87 0 0.19 297 13:18 05.01.2020
4863 Clouds -34 1023 85 0 0.27 63 13:18 05.01.2020
4864 Clouds -35 1024 87 0 0.19 297 12:55 05.01.2020
4865 Clouds -35 1024 87 0 0.19 297 12:37 05.01.2020
4866 Clouds -35 1024 87 0 0.19 297 12:18 05.01.2020
4867 Clouds -35 1024 87 0 0.19 297 11:43 05.01.2020
4868 Clouds -35 1024 87 0 0.19 297 11:43 05.01.2020
4869 Clouds -35 1024 87 0 0.19 297 11:43 05.01.2020
4870 Clouds -35 1024 87 0 0.19 297 11:43 05.01.2020
4871 Clouds -35 1024 87 0 0.19 297 11:43 05.01.2020
4872 Clouds -35 1023 89 0 0.29 150 11:20 05.01.2020
4873 Clouds -35 1023 89 0 0.29 150 10:58 05.01.2020
4874 Clouds -35 1023 89 0 0.29 150 10:39 05.01.2020
4875 Clouds -35 1023 89 0 0.29 150 10:39 05.01.2020
4876 Clouds -35 1023 89 0 0.29 150 10:39 05.01.2020
4877 Clouds -35 1023 89 0 0.29 150 10:39 05.01.2020
4878 Clouds -35 1023 89 0 0.29 150 10:39 05.01.2020
4879 Clouds -35 1023 89 0 0.29 150 10:19 05.01.2020
4880 Clouds -35 1023 89 0 0.29 150 09:42 05.01.2020
4881 Clouds -35 1023 89 0 0.29 150 09:22 05.01.2020
4882 Clouds -35 1023 89 0 0.29 150 08:50 05.01.2020
4883 Clouds -35 1023 89 0 0.29 150 08:30 05.01.2020
4884 Clear -35 1022 92 0 0.5 140 07:57 05.01.2020
4885 Clear -35 1022 92 0 0.5 140 07:38 05.01.2020
4886 Clear -35 1022 92 0 0.5 140 07:20 05.01.2020
4887 Clear -35 1022 92 0 0.5 140 06:20 05.01.2020
4888 Clear -35 1022 92 0 0.5 140 05:33 05.01.2020
4889 Clear -35 1022 92 0 0.5 140 05:33 05.01.2020
4890 Clear -34 1021 92 0 0.41 209 04:44 05.01.2020
4891 Clear -34 1021 92 0 0.41 209 04:18 05.01.2020
4892 Clear -34 1021 92 0 0.41 209 02:46 05.01.2020
4893 Clear -34 1021 92 0 0.41 209 02:24 05.01.2020
4894 Clouds -34 1021 90 0 0.63 219 01:48 05.01.2020
4895 Clouds -34 1021 90 0 0.57 215 01:19 05.01.2020
4896 Clouds -34 1021 90 0 0.57 215 00:54 05.01.2020
4897 Clouds -34 1021 90 0 0.57 215 00:36 05.01.2020
4898 Clouds -34 1021 90 0 0.57 215 00:36 05.01.2020
4899 Clouds -34 1021 90 0 0.57 215 00:18 05.01.2020
4900 Clouds -34 1021 90 0 0.57 215 23:40 04.01.2020
4901 Clear -35 1020 90 0 0.97 236 23:20 04.01.2020
4902 Clear -35 1020 90 0 0.97 236 22:40 04.01.2020
4903 Clear -35 1020 90 0 0.97 236 22:22 04.01.2020
4904 Clear -35 1020 90 0 0.97 236 22:22 04.01.2020
4905 Clear -35 1020 90 0 0.97 236 21:58 04.01.2020
4906 Clear -35 1020 90 0 0.97 236 21:40 04.01.2020
4907 Clear -35 1020 90 0 0.97 236 21:22 04.01.2020
4908 Clear -35 1020 90 0 0.97 236 20:59 04.01.2020
4909 Clear -35 1020 90 0 0.97 236 20:40 04.01.2020
4910 Clear -35 1020 91 0 0.6 245 20:22 04.01.2020
4911 Clear -35 1021 92 0 0.61 231 19:57 04.01.2020
4912 Clear -35 1021 92 0 0.61 231 19:38 04.01.2020
4913 Clear -35 1021 92 0 0.61 231 19:20 04.01.2020
4914 Clear -35 1021 92 0 0.61 231 18:56 04.01.2020
4915 Clear -35 1021 92 0 0.61 231 18:37 04.01.2020
4916 Clear -35 1021 92 0 0.61 231 18:19 04.01.2020
4917 Clear -35 1021 92 0 0.61 231 17:41 04.01.2020
4918 Clear -35 1021 92 0 0.61 231 17:23 04.01.2020
4919 Clear -35 1020 93 0 0.39 263 16:59 04.01.2020
4920 Clear -35 1020 93 0 0.39 263 16:40 04.01.2020
4921 Clear -35 1020 93 0 0.39 263 16:22 04.01.2020
4922 Clear -35 1020 93 0 0.39 263 15:56 04.01.2020
4923 Clear -35 1020 93 0 0.39 263 15:38 04.01.2020
4924 Clear -35 1020 93 0 0.39 263 15:19 04.01.2020
4925 Clear -35 1020 93 0 0.39 263 14:54 04.01.2020
4926 Clear -35 1020 93 0 0.39 263 14:36 04.01.2020
4927 Clear -34 1021 95 0 0.76 292 14:18 04.01.2020
4928 Clear -34 1021 95 0 0.76 292 13:39 04.01.2020
4929 Clear -34 1021 95 0 0.76 292 13:39 04.01.2020
4930 Clear -35 1021 94 0 0.84 290 13:20 04.01.2020
4931 Clear -35 1021 94 0 0.84 290 12:59 04.01.2020
4932 Clear -35 1021 94 0 0.84 290 12:40 04.01.2020
4933 Clear -35 1021 94 0 0.84 290 12:19 04.01.2020
4934 Clear -35 1021 94 0 0.84 290 11:57 04.01.2020
4935 Clear -35 1021 94 0 0.84 290 11:38 04.01.2020
4936 Clear -34 1021 96 0 0.1 279 11:19 04.01.2020
4937 Clear -34 1021 96 0 0.1 279 10:41 04.01.2020
4938 Clear -34 1021 96 0 0.1 279 10:22 04.01.2020
4939 Clear -34 1021 96 0 0.1 279 09:57 04.01.2020
4940 Clear -34 1021 96 0 0.1 279 09:39 04.01.2020
4941 Clear -34 1021 96 0 0.1 279 09:20 04.01.2020
4942 Clear -34 1021 96 0 0.1 279 08:40 04.01.2020
4943 Clear -34 1021 99 0 0.22 329 08:20 04.01.2020
4944 Clear -34 1021 99 0 0.22 329 07:42 04.01.2020
4945 Clear -34 1021 99 0 0.22 329 07:19 04.01.2020
4946 Clear -34 1021 99 0 0.22 329 06:33 04.01.2020
4947 Clear -34 1020 99 0 0.24 90 05:20 04.01.2020
4948 Clear -34 1020 99 0 0.24 90 04:34 04.01.2020
4949 Clear -34 1020 99 0 0.24 90 03:52 04.01.2020
4950 Clear -34 1020 99 0 0.24 90 03:18 04.01.2020
4951 Clouds -33 1019 99 0 0.48 116 02:21 04.01.2020
4952 Clouds -33 1019 99 0 0.48 116 01:55 04.01.2020
4953 Clouds -33 1019 99 0 0.47 120 01:31 04.01.2020
4954 Clouds -33 1019 99 0 0.47 120 00:46 04.01.2020
4955 Clouds -33 1019 99 0 0.47 120 00:26 04.01.2020
4956 Clouds -33 1019 99 0 0.47 120 23:48 03.01.2020
4957 Clouds -33 1019 99 0 0.47 120 23:25 03.01.2020
4958 Clouds -31 1019 96 0 0.44 104 22:54 03.01.2020
4959 Clouds -31 1019 96 0 0.44 104 22:36 03.01.2020
4960 Clouds -31 1019 96 0 0.44 104 22:18 03.01.2020
4961 Clouds -31 1019 96 0 0.44 104 21:54 03.01.2020
4962 Clouds -31 1019 96 0 0.44 104 21:36 03.01.2020
4963 Clouds -31 1019 96 0 0.44 104 21:18 03.01.2020
4964 Clouds -31 1019 96 0 0.44 104 20:42 03.01.2020
4965 Snow -29 1018 97 0 0.58 106 20:19 03.01.2020
4966 Snow -29 1018 97 0 0.58 106 19:58 03.01.2020
4967 Snow -29 1018 97 0 0.58 106 19:39 03.01.2020
4968 Snow -29 1018 97 0 0.58 106 19:21 03.01.2020
4969 Snow -29 1018 97 0 0.58 106 18:44 03.01.2020
4970 Snow -29 1018 97 0 0.58 106 18:26 03.01.2020
4971 Snow -29 1018 97 0 0.58 106 17:57 03.01.2020
4972 Snow -29 1018 97 0 0.58 106 17:39 03.01.2020
4973 Clouds -30 1018 95 0 0.49 131 17:19 03.01.2020
4974 Clouds -30 1018 95 0 0.49 131 16:43 03.01.2020
4975 Clouds -30 1018 95 0 0.49 131 16:24 03.01.2020
4976 Clouds -30 1018 95 0 0.49 131 15:58 03.01.2020
4977 Clouds -30 1018 95 0 0.49 131 15:40 03.01.2020
4978 Clouds -30 1018 95 0 0.49 131 15:18 03.01.2020
4979 Clouds -30 1018 95 0 0.49 131 14:39 03.01.2020
4980 Clouds -32 1018 91 0 0.86 207 14:20 03.01.2020
4981 Clouds -32 1018 91 0 0.86 207 13:56 03.01.2020
4982 Clouds -32 1018 91 0 0.86 207 13:37 03.01.2020
4983 Clouds -32 1018 92 0 0.79 203 13:19 03.01.2020
4984 Clouds -32 1018 92 0 0.79 203 12:40 03.01.2020
4985 Clouds -32 1018 92 0 0.79 203 12:21 03.01.2020
4986 Clouds -32 1018 92 0 0.79 203 11:49 03.01.2020
4987 Clouds -32 1018 92 0 0.79 203 11:30 03.01.2020
4988 Clear -35 1019 91 0 0.8 242 10:48 03.01.2020
4989 Clear -35 1019 91 0 0.8 242 10:28 03.01.2020
4990 Clear -35 1019 91 0 0.8 242 09:59 03.01.2020
4991 Clear -35 1019 91 0 0.8 242 09:41 03.01.2020
4992 Clear -35 1019 91 0 0.8 242 09:23 03.01.2020
4993 Clear -35 1019 91 0 0.8 242 08:57 03.01.2020
4994 Clear -35 1019 91 0 0.8 242 08:39 03.01.2020
4995 Clouds -35 1020 90 0 0.3 103 08:21 03.01.2020
4996 Clouds -35 1020 90 0 0.3 103 07:42 03.01.2020
4997 Clouds -35 1020 90 0 0.3 103 07:19 03.01.2020
4998 Clouds -35 1020 90 0 0.3 103 06:57 03.01.2020
4999 Clouds -35 1020 90 0 0.3 103 06:39 03.01.2020
5000 Clouds -35 1020 90 0 0.3 103 06:20 03.01.2020
5001 Clouds -34 1020 89 0 0.71 82 04:43 03.01.2020
5002 Clouds -34 1020 89 0 0.71 82 03:37 03.01.2020
5003 Clouds -34 1020 89 0 0.71 82 02:50 03.01.2020
5004 Clouds -32 1021 86 0 0.72 95 01:50 03.01.2020
5005 Clouds -32 1022 86 0 0.69 91 01:18 03.01.2020
5006 Clouds -32 1022 86 0 0.69 91 00:34 03.01.2020
5007 Clouds -32 1022 86 0 0.69 91 23:59 02.01.2020
5008 Clouds -32 1022 86 0 0.69 91 23:39 02.01.2020
5009 Clouds -32 1023 87 0 0.33 148 23:20 02.01.2020
5010 Clouds -32 1023 87 0 0.33 148 22:58 02.01.2020
5011 Clouds -32 1023 87 0 0.33 148 22:40 02.01.2020
5012 Clouds -32 1023 87 0 0.33 148 22:19 02.01.2020
5013 Clouds -32 1023 87 0 0.33 148 21:55 02.01.2020
5014 Clouds -32 1023 87 0 0.33 148 21:37 02.01.2020
5015 Clouds -32 1023 87 0 0.33 148 21:18 02.01.2020
5016 Clouds -32 1023 87 0 0.33 148 20:56 02.01.2020
5017 Clouds -32 1023 87 0 0.33 148 20:36 02.01.2020
5018 Clouds -35 1023 90 0 0.97 180 20:18 02.01.2020
5019 Clouds -35 1023 90 0 0.97 180 19:54 02.01.2020
5020 Clouds -35 1023 90 0 0.97 180 19:36 02.01.2020
5021 Clouds -35 1023 90 0 0.97 180 19:18 02.01.2020
5022 Clouds -35 1023 90 0 0.97 180 18:42 02.01.2020
5023 Clouds -35 1023 90 0 0.97 180 18:23 02.01.2020
5024 Clouds -35 1023 90 0 0.97 180 17:58 02.01.2020
5025 Clouds -35 1023 90 0 0.97 180 17:38 02.01.2020
5026 Clear -35 1024 91 0 1.2 187 17:20 02.01.2020
5027 Clear -35 1024 91 0 1.2 187 16:58 02.01.2020
5028 Clear -35 1024 91 0 1.2 187 16:40 02.01.2020
5029 Clear -35 1024 91 0 1.2 187 16:20 02.01.2020
5030 Clear -35 1024 91 0 1.2 187 15:57 02.01.2020
5031 Clear -35 1024 91 0 1.2 187 15:39 02.01.2020
5032 Clear -35 1024 91 0 1.2 187 15:20 02.01.2020
5033 Clear -35 1024 91 0 1.2 187 14:56 02.01.2020
5034 Clear -35 1024 91 0 1.2 187 14:36 02.01.2020
5035 Clouds -35 1025 90 0 1.15 171 14:18 02.01.2020
5036 Clouds -35 1025 90 0 1.15 171 13:48 02.01.2020
5037 Clouds -35 1025 90 0 1.15 171 13:48 02.01.2020
5038 Clouds -36 1025 90 0 0.98 166 13:30 02.01.2020
5039 Clouds -36 1025 90 0 0.98 166 12:46 02.01.2020
5040 Clouds -36 1025 90 0 0.98 166 12:26 02.01.2020
5041 Clouds -36 1025 90 0 0.98 166 11:59 02.01.2020
5042 Clouds -36 1025 90 0 0.98 166 11:40 02.01.2020
5043 Clouds -35 1025 88 0 1.02 156 11:20 02.01.2020
5044 Clouds -35 1025 88 0 1.02 156 10:44 02.01.2020
5045 Clouds -35 1025 88 0 1.02 156 10:26 02.01.2020
5046 Clouds -35 1025 88 0 1.02 156 09:51 02.01.2020
5047 Clouds -35 1025 88 0 1.02 156 09:33 02.01.2020
5048 Clouds -35 1025 88 0 1.02 156 08:47 02.01.2020
5049 Clouds -35 1025 88 0 1.02 156 08:27 02.01.2020
5050 Clouds -34 1025 87 0 1.07 192 07:54 02.01.2020
5051 Clouds -34 1025 87 0 1.07 192 07:30 02.01.2020
5052 Clouds -34 1025 87 0 1.07 192 06:55 02.01.2020
5053 Clouds -34 1025 87 0 1.07 192 06:36 02.01.2020
5054 Clouds -34 1025 87 0 1.07 192 05:35 02.01.2020
5055 Clouds -34 1025 87 0 1.43 212 04:33 02.01.2020
5056 Clouds -34 1025 87 0 1.43 212 02:54 02.01.2020
5057 Clouds -36 1025 85 0 1.39 220 01:59 02.01.2020
5058 Clouds -36 1025 85 0 1.39 220 01:39 02.01.2020
5059 Clouds -36 1025 85 0 1.43 221 00:59 02.01.2020
5060 Clouds -36 1025 85 0 1.43 221 00:34 02.01.2020
5061 Clouds -36 1025 85 0 1.43 221 23:58 01.01.2020
5062 Clouds -36 1025 85 0 1.43 221 23:40 01.01.2020
5063 Clouds -37 1024 85 0 1.55 233 23:19 01.01.2020
5064 Clouds -37 1024 85 0 1.55 233 22:38 01.01.2020
5065 Clouds -37 1024 85 0 1.55 233 22:20 01.01.2020
5066 Clouds -37 1024 85 0 1.55 233 22:20 01.01.2020
5067 Clouds -37 1024 85 0 1.55 233 21:56 01.01.2020
5068 Clouds -37 1024 85 0 1.55 233 21:38 01.01.2020
5069 Clouds -37 1024 85 0 1.55 233 21:19 01.01.2020
5070 Clouds -37 1024 85 0 1.55 233 20:56 01.01.2020
5071 Clouds -37 1024 85 0 1.55 233 20:38 01.01.2020
5072 Clouds -37 1023 85 0 1.35 252 20:19 01.01.2020
5073 Clouds -37 1023 85 0 1.35 252 19:55 01.01.2020
5074 Clouds -37 1023 85 0 1.35 252 19:55 01.01.2020
5075 Clouds -37 1023 85 0 1.35 252 19:55 01.01.2020
5076 Clouds -37 1023 85 0 1.35 252 19:55 01.01.2020
5077 Clouds -37 1023 85 0 1.35 252 19:55 01.01.2020
5078 Clouds -37 1023 85 0 1.35 252 19:37 01.01.2020
5079 Clouds -37 1023 85 0 1.35 252 19:37 01.01.2020
5080 Clouds -37 1023 85 0 1.35 252 19:19 01.01.2020
5081 Clouds -37 1023 85 0 1.35 252 18:56 01.01.2020
5082 Clouds -37 1023 85 0 1.35 252 18:36 01.01.2020
5083 Clouds -37 1023 85 0 1.35 252 18:18 01.01.2020
5084 Clouds -37 1023 85 0 1.35 252 17:56 01.01.2020
5085 Clouds -37 1023 85 0 1.35 252 17:38 01.01.2020
5086 Clear -37 1023 85 0 1.27 252 17:19 01.01.2020
5087 Clear -37 1023 85 0 1.27 252 16:42 01.01.2020
5088 Clear -37 1023 85 0 1.27 252 16:23 01.01.2020
5089 Clear -37 1023 85 0 1.27 252 15:58 01.01.2020
5090 Clear -37 1023 85 0 1.27 252 15:40 01.01.2020
5091 Clear -37 1023 85 0 1.27 252 15:22 01.01.2020
5092 Clear -37 1023 85 0 1.27 252 14:59 01.01.2020
5093 Clear -37 1023 85 0 1.27 252 14:40 01.01.2020
5094 Clear -38 1022 82 0 0.96 256 14:22 01.01.2020
5095 Clear -38 1022 82 0 0.96 256 13:56 01.01.2020
5096 Clear -38 1022 82 0 0.96 256 13:37 01.01.2020
5097 Clear -38 1022 82 0 0.96 256 13:19 01.01.2020
5098 Clear -38 1023 83 0 0.96 254 12:57 01.01.2020
5099 Clear -38 1023 83 0 0.96 254 12:39 01.01.2020
5100 Clear -38 1023 83 0 0.96 254 12:19 01.01.2020
5101 Clear -38 1023 83 0 0.96 254 11:55 01.01.2020
5102 Clear -38 1023 83 0 0.96 254 11:36 01.01.2020
5103 Clear -37 1021 80 0 0.94 258 11:18 01.01.2020
5104 Clear -37 1021 80 0 0.94 258 10:41 01.01.2020
5105 Clear -37 1021 80 0 0.94 258 10:21 01.01.2020
5106 Clear -37 1021 80 0 0.94 258 09:59 01.01.2020
5107 Clear -37 1021 80 0 0.94 258 09:38 01.01.2020
5108 Clear -37 1021 80 0 0.94 258 09:38 01.01.2020
5109 Clear -37 1021 80 0 0.94 258 09:19 01.01.2020
5110 Clear -37 1021 80 0 0.94 258 08:55 01.01.2020
5111 Clear -37 1021 80 0 0.94 258 08:37 01.01.2020
5112 Clouds -36 1020 77 0 1.04 282 08:18 01.01.2020
5113 Clouds -37 1020 77 0 0.97 286 07:54 01.01.2020
5114 Clouds -37 1020 77 0 0.97 286 07:36 01.01.2020
5115 Clouds -37 1020 77 0 0.97 286 06:45 01.01.2020
5116 Clouds -37 1020 77 0 0.97 286 06:21 01.01.2020
5117 -273 0 0 0 0 0 05:22 01.01.2020
5118 Clouds -36 1019 77 0 0.89 313 03:46 01.01.2020
5119 Clouds -36 1019 77 0 0.89 313 03:23 01.01.2020
5120 Clouds -36 1019 77 0 0.89 313 03:23 01.01.2020
5121 Clouds -36 1019 77 0 0.89 313 02:57 01.01.2020
5122 Clouds -36 1019 77 0 0.89 313 02:36 01.01.2020
5123 Clouds -34 1019 74 0 0.61 326 01:57 01.01.2020
5124 Clouds -34 1019 74 0 0.61 326 01:38 01.01.2020
5125 Clouds -33 1019 75 0 0.54 323 01:20 01.01.2020
5126 Clouds -33 1019 75 0 0.54 323 00:44 01.01.2020
5127 Clouds -33 1019 75 0 0.54 323 00:25 01.01.2020
5128 Clouds -33 1019 75 0 0.54 323 23:41 31.12.2019
5129 Clouds -35 1018 76 0 0.83 345 23:22 31.12.2019
5130 Clouds -35 1018 76 0 0.83 345 22:58 31.12.2019
5131 Clouds -35 1018 76 0 0.83 345 22:39 31.12.2019
5132 Clouds -35 1018 76 0 0.83 345 22:20 31.12.2019
5133 Clouds -35 1018 76 0 0.83 345 21:59 31.12.2019
5134 Clouds -35 1018 76 0 0.83 345 21:40 31.12.2019
5135 Clouds -35 1018 76 0 0.83 345 21:22 31.12.2019
5136 Clouds -35 1018 76 0 0.83 345 20:57 31.12.2019
5137 Clouds -35 1018 76 0 0.83 345 20:37 31.12.2019
5138 Clouds -34 1018 75 0 0.68 34 20:19 31.12.2019
5139 Clouds -34 1018 75 0 0.68 34 19:55 31.12.2019
5140 Clouds -34 1018 75 0 0.68 34 19:36 31.12.2019
5141 Clouds -34 1018 75 0 0.68 34 19:18 31.12.2019
5142 Clouds -34 1018 75 0 0.68 34 18:54 31.12.2019
5143 Clouds -34 1018 75 0 0.68 34 18:36 31.12.2019
5144 Clouds -34 1018 75 0 0.68 34 18:18 31.12.2019
5145 Clouds -34 1018 75 0 0.68 34 18:18 31.12.2019
5146 Clouds -34 1018 75 0 0.68 34 17:54 31.12.2019
5147 Clouds -34 1018 75 0 0.68 34 17:36 31.12.2019
5148 Clear -35 1018 77 0 0.65 70 17:18 31.12.2019
5149 Clear -35 1018 77 0 0.65 70 16:55 31.12.2019
5150 Clear -35 1018 77 0 0.65 70 16:36 31.12.2019
5151 Clear -35 1018 77 0 0.65 70 16:18 31.12.2019
5152 Clear -35 1018 77 0 0.65 70 15:55 31.12.2019
5153 Clear -35 1018 77 0 0.65 70 15:37 31.12.2019
5154 Clear -35 1018 77 0 0.65 70 15:18 31.12.2019
5155 Clear -35 1018 77 0 0.65 70 14:55 31.12.2019
5156 Clear -35 1018 77 0 0.65 70 14:36 31.12.2019
5157 Clouds -34 1019 75 0 0.77 68 14:18 31.12.2019
5158 Clouds -34 1019 75 0 0.77 68 13:54 31.12.2019
5159 Clouds -34 1019 75 0 0.77 68 13:36 31.12.2019
5160 Clouds -34 1019 76 0 0.76 76 13:18 31.12.2019
5161 Clouds -34 1019 76 0 0.76 76 12:40 31.12.2019
5162 Clouds -34 1019 76 0 0.76 76 12:20 31.12.2019
5163 Clouds -34 1019 76 0 0.76 76 12:20 31.12.2019
5164 Clouds -34 1019 76 0 0.76 76 11:57 31.12.2019
5165 Clouds -34 1019 76 0 0.76 76 11:39 31.12.2019
5166 Clouds -34 1019 76 0 0.66 45 11:21 31.12.2019
5167 Clouds -34 1019 76 0 0.66 45 10:58 31.12.2019
5168 Clouds -34 1019 76 0 0.66 45 10:39 31.12.2019
5169 Clouds -34 1019 76 0 0.66 45 10:20 31.12.2019
5170 Clouds -34 1019 76 0 0.66 45 09:59 31.12.2019
5171 Clouds -34 1019 76 0 0.66 45 09:40 31.12.2019
5172 Clouds -34 1019 76 0 0.66 45 09:22 31.12.2019
5173 Clouds -34 1019 76 0 0.66 45 08:59 31.12.2019
5174 Clouds -34 1019 76 0 0.66 45 08:41 31.12.2019
5175 Clouds -35 1020 77 0 0.79 81 08:21 31.12.2019
5176 Clouds -35 1020 77 0 0.79 81 07:44 31.12.2019
5177 Clouds -35 1020 77 0 0.79 81 07:22 31.12.2019
5178 Clouds -35 1020 77 0 0.79 81 06:51 31.12.2019
5179 Clouds -35 1020 77 0 0.79 81 06:23 31.12.2019
5180 Clouds -35 1021 77 0 0.78 72 04:54 31.12.2019
5181 Clouds -35 1021 77 0 0.78 72 04:24 31.12.2019
5182 Clouds -35 1021 77 0 0.78 72 02:57 31.12.2019
5183 Clouds -34 1022 76 0 0.77 97 02:20 31.12.2019
5184 Clouds -34 1022 76 0 0.77 97 01:49 31.12.2019
5185 Clouds -34 1022 76 0 0.77 97 01:31 31.12.2019
5186 Clouds -35 1022 77 0 0.76 91 00:48 31.12.2019
5187 Clouds -35 1022 77 0 0.76 91 00:25 31.12.2019
5188 Clouds -35 1022 77 0 0.76 91 23:58 30.12.2019
5189 Clouds -35 1022 77 0 0.76 91 23:40 30.12.2019
5190 Clouds -34 1022 75 0 0.48 105 23:22 30.12.2019
5191 Clouds -34 1022 75 0 0.48 105 22:59 30.12.2019
5192 Clouds -34 1022 75 0 0.48 105 22:41 30.12.2019
5193 Clouds -34 1022 75 0 0.48 105 22:41 30.12.2019
5194 Clouds -34 1022 75 0 0.48 105 22:21 30.12.2019
5195 Clouds -34 1022 75 0 0.48 105 21:57 30.12.2019
5196 Clouds -34 1022 75 0 0.48 105 21:57 30.12.2019
5197 Clouds -34 1022 75 0 0.48 105 21:39 30.12.2019
5198 Clouds -34 1022 75 0 0.48 105 21:20 30.12.2019
5199 Clouds -34 1022 75 0 0.48 105 20:59 30.12.2019
5200 Clouds -34 1022 75 0 0.48 105 20:40 30.12.2019
5201 Clouds -35 1023 75 0 0.41 108 20:20 30.12.2019
5202 Clouds -35 1023 75 0 0.41 108 19:59 30.12.2019
5203 Clouds -35 1023 75 0 0.41 108 19:39 30.12.2019
5204 Clouds -35 1023 75 0 0.41 108 19:19 30.12.2019
5205 Clouds -35 1023 75 0 0.41 108 18:59 30.12.2019
5206 Clouds -35 1023 75 0 0.41 108 18:41 30.12.2019
5207 Clouds -35 1023 75 0 0.41 108 18:20 30.12.2019
5208 Clouds -35 1023 75 0 0.41 108 17:57 30.12.2019
5209 Clouds -35 1023 75 0 0.41 108 17:39 30.12.2019
5210 Clear -34 1023 75 0 0.8 127 17:19 30.12.2019
5211 Clear -34 1023 75 0 0.8 127 16:58 30.12.2019
5212 Clear -34 1023 75 0 0.8 127 16:37 30.12.2019
5213 Clear -34 1023 75 0 0.8 127 16:19 30.12.2019
5214 Clear -34 1023 75 0 0.8 127 15:56 30.12.2019
5215 Clear -34 1023 75 0 0.8 127 15:37 30.12.2019
5216 Clear -34 1023 75 0 0.8 127 15:19 30.12.2019
5217 Clear -34 1023 75 0 0.8 127 14:43 30.12.2019
5218 Clouds -34 1024 74 0 1.16 120 14:21 30.12.2019
5219 Clouds -34 1024 74 0 1.16 120 13:58 30.12.2019
5220 Clouds -34 1024 74 0 1.16 120 13:40 30.12.2019
5221 Clouds -34 1024 75 0 1.14 122 13:22 30.12.2019
5222 Clouds -34 1024 75 0 1.14 122 13:22 30.12.2019
5223 Clouds -34 1024 75 0 1.14 122 12:57 30.12.2019
5224 Clouds -34 1024 75 0 1.14 122 12:37 30.12.2019
5225 Clouds -34 1024 75 0 1.14 122 12:18 30.12.2019
5226 Clouds -34 1024 75 0 1.14 122 11:45 30.12.2019
5227 Clouds -34 1025 74 0 1.15 127 11:22 30.12.2019
5228 Clouds -34 1025 74 0 1.15 127 10:59 30.12.2019
5229 Clouds -34 1025 74 0 1.15 127 10:40 30.12.2019
5230 Clouds -34 1025 74 0 1.15 127 10:19 30.12.2019
5231 Clouds -34 1025 74 0 1.15 127 09:43 30.12.2019
5232 Clouds -34 1025 74 0 1.15 127 09:21 30.12.2019
5233 Clouds -34 1025 74 0 1.15 127 08:57 30.12.2019
5234 Clouds -34 1025 74 0 1.15 127 08:38 30.12.2019
5235 Clouds -33 1027 75 0 1.22 121 08:19 30.12.2019
5236 Clouds -33 1027 75 0 1.22 121 07:46 30.12.2019
5237 Clouds -33 1027 75 0 1.22 121 07:23 30.12.2019
5238 Clouds -33 1027 75 0 1.22 121 06:32 30.12.2019
5239 Clear -34 1028 75 0 1.21 126 04:31 30.12.2019
5240 Clear -34 1028 75 0 1.21 126 03:50 30.12.2019
5241 Clear -34 1028 75 0 1.21 126 02:47 30.12.2019
5242 Clear -34 1028 75 0 1.21 126 02:26 30.12.2019
5243 Clear -35 1029 76 0 1.13 129 01:29 30.12.2019
5244 Clear -35 1029 77 0 1.07 123 00:59 30.12.2019
5245 Clear -35 1029 77 0 1.07 123 00:39 30.12.2019
5246 Clear -35 1029 77 0 1.07 123 23:55 29.12.2019
5247 Clear -35 1029 77 0 1.07 123 23:36 29.12.2019
5248 Clear -36 1031 77 0 0.98 105 23:18 29.12.2019
5249 Clear -36 1031 77 0 0.98 105 22:40 29.12.2019
5250 Clear -36 1031 77 0 0.98 105 22:21 29.12.2019
5251 Clear -36 1031 77 0 0.98 105 21:56 29.12.2019
5252 Clear -36 1031 77 0 0.98 105 21:38 29.12.2019
5253 Clear -36 1031 77 0 0.98 105 21:19 29.12.2019
5254 Clear -36 1031 77 0 0.98 105 20:55 29.12.2019
5255 Clear -36 1031 77 0 0.98 105 20:37 29.12.2019
5256 Clear -36 1032 76 0 0.93 117 20:18 29.12.2019
5257 Clear -36 1033 80 0 0.83 122 19:56 29.12.2019
5258 Clear -36 1033 80 0 0.83 122 19:37 29.12.2019
5259 Clear -36 1033 80 0 0.83 122 19:19 29.12.2019
5260 Clear -36 1033 80 0 0.83 122 18:55 29.12.2019
5261 Clear -36 1033 80 0 0.83 122 18:37 29.12.2019
5262 Clear -36 1033 80 0 0.83 122 18:18 29.12.2019
5263 Clear -36 1033 80 0 0.83 122 17:56 29.12.2019
5264 Clear -36 1033 80 0 0.83 122 17:37 29.12.2019
5265 Clear -36 1033 80 0 0.83 122 17:37 29.12.2019
5266 Clear -36 1033 80 0 0.83 122 17:37 29.12.2019
5267 Clear -37 1033 80 0 0.69 146 17:19 29.12.2019
5268 Clear -37 1033 80 0 0.69 146 16:55 29.12.2019
5269 Clear -37 1033 80 0 0.69 146 16:36 29.12.2019
5270 Clear -37 1033 80 0 0.69 146 16:18 29.12.2019
5271 Clear -37 1033 80 0 0.69 146 15:56 29.12.2019
5272 Clear -37 1033 80 0 0.69 146 15:38 29.12.2019
5273 Clear -37 1033 80 0 0.69 146 15:18 29.12.2019
5274 Clear -37 1033 80 0 0.69 146 14:55 29.12.2019
5275 Clear -37 1033 80 0 0.69 146 14:37 29.12.2019
5276 Clear -37 1035 80 0 0.8 148 14:18 29.12.2019
5277 Clear -37 1035 80 0 0.8 148 13:55 29.12.2019
5278 Clear -37 1035 80 0 0.8 148 13:37 29.12.2019
5279 Clear -37 1035 80 0 0.8 148 13:18 29.12.2019
5280 Clear -37 1035 80 0 0.73 152 12:41 29.12.2019
5281 Clear -37 1035 80 0 0.73 152 12:23 29.12.2019
5282 Clear -37 1035 80 0 0.73 152 11:55 29.12.2019
5283 Clear -37 1035 80 0 0.73 152 11:37 29.12.2019
5284 Clear -38 1035 81 0 0.58 131 11:19 29.12.2019
5285 Clear -38 1035 81 0 0.58 131 10:41 29.12.2019
5286 Clear -38 1035 81 0 0.58 131 10:21 29.12.2019
5287 Clear -38 1035 81 0 0.58 131 09:54 29.12.2019
5288 Clear -38 1035 81 0 0.58 131 09:36 29.12.2019
5289 Clear -38 1035 81 0 0.58 131 09:18 29.12.2019
5290 Clear -38 1035 81 0 0.58 131 08:46 29.12.2019
5291 Clear -38 1035 81 0 0.58 131 08:24 29.12.2019
5292 Clear -38 1036 82 0 0.6 138 07:54 29.12.2019
5293 Clear -38 1036 82 0 0.6 138 07:28 29.12.2019
5294 Clear -38 1036 82 0 0.6 138 06:53 29.12.2019
5295 Clear -38 1036 82 0 0.6 138 06:24 29.12.2019
5296 Clear -38 1036 82 0 0.6 138 05:51 29.12.2019
5297 Clear -38 1035 81 0 0.74 125 04:36 29.12.2019
5298 Clear -38 1035 81 0 0.74 125 03:43 29.12.2019
5299 Clear -38 1035 81 0 0.74 125 03:20 29.12.2019
5300 Clear -39 1036 79 0 0.54 124 02:20 29.12.2019
5301 Clear -39 1036 79 0 0.54 124 01:31 29.12.2019
5302 Clear -39 1036 79 0 0.54 124 01:31 29.12.2019
5303 Clear -39 1036 80 0 0.55 132 00:57 29.12.2019
5304 Clear -39 1036 80 0 0.55 132 00:39 29.12.2019
5305 Clear -39 1036 80 0 0.55 132 00:21 29.12.2019
5306 Clear -39 1036 80 0 0.55 132 23:42 28.12.2019
5307 Clear -39 1036 80 0 0.55 132 23:42 28.12.2019
5308 Clear -39 1036 80 0 0.65 153 23:18 28.12.2019
5309 Clear -39 1036 80 0 0.65 153 22:39 28.12.2019
5310 Clear -39 1036 80 0 0.65 153 22:39 28.12.2019
5311 Clear -39 1036 80 0 0.65 153 22:39 28.12.2019
5312 Clear -39 1036 80 0 0.65 153 22:20 28.12.2019
5313 Clear -39 1036 80 0 0.65 153 21:58 28.12.2019
5314 Clear -39 1036 80 0 0.65 153 21:58 28.12.2019
5315 Clear -39 1036 80 0 0.65 153 21:39 28.12.2019
5316 Clear -39 1036 80 0 0.65 153 21:21 28.12.2019
5317 Clear -39 1036 80 0 0.65 153 20:57 28.12.2019
5318 Clear -39 1036 80 0 0.65 153 20:37 28.12.2019
5319 Clear -39 1036 80 0 0.65 153 20:37 28.12.2019
5320 Clear -39 1035 82 0 0.95 193 20:19 28.12.2019
5321 Clear -39 1035 81 0 0.99 197 19:57 28.12.2019
5322 Clear -39 1035 81 0 0.99 197 19:39 28.12.2019
5323 Clear -39 1035 81 0 0.99 197 19:20 28.12.2019
5324 Clear -39 1035 81 0 0.99 197 18:57 28.12.2019
5325 Clear -39 1035 81 0 0.99 197 18:39 28.12.2019
5326 Clear -39 1035 81 0 0.99 197 18:18 28.12.2019
5327 Clear -39 1035 81 0 0.99 197 18:18 28.12.2019
5328 Clear -39 1035 81 0 0.99 197 17:54 28.12.2019
5329 Clear -39 1035 81 0 0.99 197 17:36 28.12.2019
5330 Clear -40 1035 84 0 0.85 206 17:18 28.12.2019
5331 Clear -40 1035 84 0 0.85 206 16:46 28.12.2019
5332 Clear -40 1035 84 0 0.85 206 16:25 28.12.2019
5333 Clear -40 1035 84 0 0.85 206 15:44 28.12.2019
5334 Clear -40 1035 84 0 0.85 206 15:24 28.12.2019
5335 Clear -40 1035 84 0 0.85 206 14:59 28.12.2019
5336 Clear -40 1035 84 0 0.85 206 14:39 28.12.2019
5337 Clear -40 1035 87 0 0.53 243 14:20 28.12.2019
5338 Clear -40 1035 87 0 0.53 243 13:56 28.12.2019
5339 Clear -40 1035 87 0 0.53 243 13:36 28.12.2019
5340 Clear -40 1035 86 0 0.57 244 13:18 28.12.2019
5341 Clear -40 1035 86 0 0.57 244 12:42 28.12.2019
5342 Clear -40 1035 86 0 0.57 244 12:23 28.12.2019
5343 Clear -40 1035 86 0 0.57 244 11:56 28.12.2019
5344 Clear -40 1035 86 0 0.57 244 11:38 28.12.2019
5345 Clear -40 1033 91 0 0.12 285 11:19 28.12.2019
5346 Clear -40 1033 91 0 0.12 285 10:44 28.12.2019
5347 Clear -40 1033 91 0 0.12 285 10:22 28.12.2019
5348 Clear -40 1033 91 0 0.12 285 09:57 28.12.2019
5349 Clear -40 1033 91 0 0.12 285 09:39 28.12.2019
5350 Clear -40 1033 91 0 0.12 285 09:19 28.12.2019
5351 Clear -40 1033 91 0 0.12 285 08:44 28.12.2019
5352 Clear -40 1033 91 0 0.12 285 08:26 28.12.2019
5353 Clouds -40 1033 96 0 0.2 74 07:53 28.12.2019
5354 Clouds -40 1033 96 0 0.2 74 07:31 28.12.2019
5355 Clouds -40 1033 96 0 0.2 74 06:41 28.12.2019
5356 Clouds -40 1033 98 0 0.04 215 04:51 28.12.2019
5357 Clouds -40 1033 98 0 0.04 215 03:47 28.12.2019
5358 Clouds -40 1033 98 0 0.04 215 02:48 28.12.2019
5359 Clouds -40 1032 99 0 0.37 111 01:59 28.12.2019
5360 Clouds -40 1032 99 0 0.37 111 01:30 28.12.2019
5361 Clouds -40 1032 99 0 0.32 125 00:58 28.12.2019
5362 Clouds -40 1032 99 0 0.32 125 00:40 28.12.2019
5363 Clouds -40 1032 99 0 0.32 125 00:20 28.12.2019
5364 Clouds -40 1032 99 0 0.32 125 23:44 27.12.2019
5365 Clouds -40 1031 100 0 0.16 5 23:20 27.12.2019
5366 Clouds -40 1031 100 0 0.16 5 22:58 27.12.2019
5367 Clouds -40 1031 100 0 0.16 5 22:39 27.12.2019
5368 Clouds -40 1031 100 0 0.16 5 22:20 27.12.2019
5369 Clouds -40 1031 100 0 0.16 5 21:58 27.12.2019
5370 Clouds -40 1031 100 0 0.16 5 21:37 27.12.2019
5371 Clouds -40 1031 100 0 0.16 5 21:19 27.12.2019
5372 Clouds -40 1031 100 0 0.16 5 20:42 27.12.2019
5373 Clouds -40 1031 100 0 0.16 5 20:23 27.12.2019
5374 Clouds -40 1031 100 0 0.27 106 19:54 27.12.2019
5375 Clouds -40 1031 100 0 0.27 106 19:36 27.12.2019
5376 Clouds -40 1031 100 0 0.27 106 19:18 27.12.2019
5377 Clouds -40 1031 100 0 0.27 106 18:40 27.12.2019
5378 Clouds -40 1031 100 0 0.27 106 18:22 27.12.2019
5379 Clouds -40 1031 100 0 0.27 106 17:58 27.12.2019
5380 Clouds -40 1031 100 0 0.27 106 17:40 27.12.2019
5381 Clouds -38 1030 97 0 0.52 52 17:19 27.12.2019
5382 Clouds -38 1030 97 0 0.52 52 16:59 27.12.2019
5383 Clouds -38 1030 97 0 0.52 52 16:39 27.12.2019
5384 Clouds -38 1030 97 0 0.52 52 16:20 27.12.2019
5385 Clouds -38 1030 97 0 0.52 52 15:45 27.12.2019
5386 Clouds -38 1030 97 0 0.52 52 15:23 27.12.2019
5387 Clouds -38 1030 97 0 0.52 52 14:58 27.12.2019
5388 Clouds -38 1030 97 0 0.52 52 14:40 27.12.2019
5389 Clouds -42 1031 99 0 0.26 116 14:21 27.12.2019
5390 Clouds -42 1031 99 0 0.26 116 13:58 27.12.2019
5391 Clouds -42 1031 99 0 0.26 116 13:40 27.12.2019
5392 Clouds -41 1030 100 0 0.28 77 13:21 27.12.2019
5393 Clouds -41 1030 100 0 0.28 77 12:44 27.12.2019
5394 Clouds -41 1030 100 0 0.28 77 12:26 27.12.2019
5395 Clouds -41 1030 100 0 0.28 77 12:26 27.12.2019
5396 Clouds -41 1030 100 0 0.28 77 11:56 27.12.2019
5397 Clouds -41 1030 100 0 0.28 77 11:38 27.12.2019
5398 Clouds -42 1029 98 0 0.35 160 11:19 27.12.2019
5399 Clouds -42 1029 98 0 0.35 160 10:45 27.12.2019
5400 Clouds -42 1029 98 0 0.35 160 10:23 27.12.2019
5401 Clouds -42 1029 98 0 0.35 160 09:50 27.12.2019
5402 Clouds -42 1029 98 0 0.35 160 09:22 27.12.2019
5403 Clouds -42 1029 98 0 0.35 160 08:59 27.12.2019
5404 Clouds -42 1029 98 0 0.35 160 08:41 27.12.2019
5405 Clouds -41 1030 97 0 0.56 173 08:22 27.12.2019
5406 Clouds -41 1030 97 0 0.56 173 07:38 27.12.2019
5407 Clouds -41 1030 97 0 0.56 173 07:19 27.12.2019
5408 Clouds -41 1030 97 0 0.56 173 06:25 27.12.2019
5409 Clouds -42 1030 99 0 0.23 199 04:39 27.12.2019
5410 Clouds -42 1030 99 0 0.23 199 02:29 27.12.2019
5411 Clouds -42 1031 99 0 0.33 82 01:45 27.12.2019
5412 Clouds -42 1031 99 0 0.37 94 01:23 27.12.2019
5413 Clouds -42 1031 99 0 0.37 94 00:47 27.12.2019
5414 Clouds -42 1031 99 0 0.37 94 00:27 27.12.2019
5415 Clouds -42 1031 99 0 0.37 94 23:56 26.12.2019
5416 Clouds -42 1031 99 0 0.37 94 23:38 26.12.2019
5417 Clouds -41 1030 99 0 0.36 73 23:20 26.12.2019
5418 Clouds -41 1030 99 0 0.36 73 22:41 26.12.2019
5419 Clouds -41 1030 99 0 0.36 73 22:19 26.12.2019
5420 Clouds -41 1030 99 0 0.36 73 21:40 26.12.2019
5421 Clouds -41 1030 99 0 0.36 73 21:22 26.12.2019
5422 Clouds -41 1030 99 0 0.36 73 20:59 26.12.2019
5423 Clouds -41 1030 99 0 0.36 73 20:41 26.12.2019
5424 Clouds -42 1031 96 0 0.63 86 20:22 26.12.2019
5425 Clouds -42 1031 96 0 0.63 86 19:57 26.12.2019
5426 Clouds -42 1031 96 0 0.63 86 19:38 26.12.2019
5427 Clouds -42 1031 96 0 0.63 86 19:20 26.12.2019
5428 Clouds -42 1031 96 0 0.63 86 18:57 26.12.2019
5429 Clouds -42 1031 96 0 0.63 86 18:37 26.12.2019
5430 Clouds -42 1031 96 0 0.63 86 18:18 26.12.2019
5431 Clouds -42 1031 96 0 0.63 86 17:42 26.12.2019
5432 Clouds -42 1031 96 0 0.63 86 17:42 26.12.2019
5433 Clouds -42 1031 96 0 0.52 94 17:22 26.12.2019
5434 Clouds -42 1031 96 0 0.52 94 16:54 26.12.2019
5435 Clouds -42 1031 96 0 0.52 94 16:36 26.12.2019
5436 Clouds -42 1031 96 0 0.52 94 16:36 26.12.2019
5437 Clouds -42 1031 96 0 0.52 94 16:18 26.12.2019
5438 Clouds -42 1031 96 0 0.52 94 15:41 26.12.2019
5439 Clouds -42 1031 96 0 0.52 94 15:20 26.12.2019
5440 Clouds -42 1031 96 0 0.52 94 14:54 26.12.2019
5441 Clouds -42 1031 96 0 0.52 94 14:36 26.12.2019
5442 Clouds -42 1031 96 0 0.71 90 14:18 26.12.2019
5443 Clouds -42 1031 96 0 0.71 90 13:42 26.12.2019
5444 Clouds -42 1031 98 0 0.65 91 13:20 26.12.2019
5445 Clouds -42 1031 98 0 0.65 91 12:56 26.12.2019
5446 Clouds -42 1031 98 0 0.65 91 12:37 26.12.2019
5447 Clouds -42 1031 98 0 0.65 91 12:19 26.12.2019
5448 Clouds -42 1031 98 0 0.65 91 11:56 26.12.2019
5449 Clouds -42 1031 98 0 0.65 91 11:37 26.12.2019
5450 Clouds -42 1031 98 0 0.65 91 11:37 26.12.2019
5451 Clouds -42 1031 97 0 0.7 94 11:19 26.12.2019
5452 Clouds -42 1031 97 0 0.7 94 10:41 26.12.2019
5453 Clouds -42 1031 97 0 0.7 94 10:18 26.12.2019
5454 Clouds -42 1031 97 0 0.7 94 09:43 26.12.2019
5455 Clouds -42 1031 97 0 0.7 94 09:25 26.12.2019
5456 Clouds -42 1031 97 0 0.7 94 08:42 26.12.2019
5457 Clouds -42 1031 97 0 0.7 94 08:24 26.12.2019
5458 Clouds -41 1031 97 0 0.53 131 07:52 26.12.2019
5459 Clouds -41 1031 97 0 0.53 131 07:26 26.12.2019
5460 Clouds -41 1031 97 0 0.53 131 06:52 26.12.2019
5461 Clouds -41 1031 97 0 0.53 131 06:31 26.12.2019
5462 Clouds -41 1031 97 0 0.53 131 05:45 26.12.2019
5463 Clouds -41 1032 96 0 0.88 186 04:55 26.12.2019
5464 Clouds -41 1032 96 0 0.88 186 04:29 26.12.2019
5465 Clouds -41 1032 96 0 0.88 186 02:54 26.12.2019
5466 Clouds -41 1032 96 0 0.88 186 02:34 26.12.2019
5467 Clouds -40 1032 94 0 0.93 212 01:48 26.12.2019
5468 Clouds -40 1032 94 0 0.93 212 01:28 26.12.2019
5469 Clouds -40 1032 95 0 0.92 209 00:49 26.12.2019
5470 Clouds -40 1032 95 0 0.92 209 00:27 26.12.2019
5471 Clouds -40 1032 95 0 0.92 209 23:58 25.12.2019
5472 Clouds -40 1032 95 0 0.92 209 23:39 25.12.2019
5473 Clouds -40 1032 97 0 0.96 215 23:21 25.12.2019
5474 Clouds -40 1032 97 0 0.96 215 22:59 25.12.2019
5475 Clouds -40 1032 97 0 0.96 215 22:39 25.12.2019
5476 Clouds -40 1032 97 0 0.96 215 22:20 25.12.2019
5477 Clouds -40 1032 97 0 0.96 215 21:58 25.12.2019
5478 Clouds -40 1032 97 0 0.96 215 21:39 25.12.2019
5479 Clouds -40 1032 97 0 0.96 215 21:20 25.12.2019
5480 Clouds -40 1032 97 0 0.96 215 20:56 25.12.2019
5481 Clouds -40 1032 97 0 0.96 215 20:38 25.12.2019
5482 Clouds -40 1033 97 0 0.93 225 20:18 25.12.2019
5483 Clouds -40 1033 97 0 0.93 225 20:18 25.12.2019
5484 Clouds -40 1033 97 0 0.93 225 19:43 25.12.2019
5485 Clouds -40 1033 97 0 0.93 225 19:24 25.12.2019
5486 Clouds -40 1033 97 0 0.93 225 18:58 25.12.2019
5487 Clouds -40 1033 97 0 0.93 225 18:37 25.12.2019
5488 Clouds -40 1033 97 0 0.93 225 18:18 25.12.2019
5489 Clouds -40 1033 97 0 0.93 225 17:41 25.12.2019
5490 Clouds -41 1033 98 0 1.08 230 17:19 25.12.2019
5491 Clouds -41 1033 98 0 1.08 230 16:58 25.12.2019
5492 Clouds -41 1033 98 0 1.08 230 16:37 25.12.2019
5493 Clouds -41 1033 98 0 1.08 230 16:18 25.12.2019
5494 Clouds -41 1033 98 0 1.08 230 15:57 25.12.2019
5495 Clouds -41 1033 98 0 1.08 230 15:57 25.12.2019
5496 Clouds -41 1033 98 0 1.08 230 15:38 25.12.2019
5497 Clouds -41 1033 98 0 1.08 230 15:20 25.12.2019
5498 Clouds -41 1033 98 0 1.08 230 14:57 25.12.2019
5499 Clouds -41 1033 98 0 1.08 230 14:39 25.12.2019
5500 Clouds -41 1033 98 0 1.08 230 14:39 25.12.2019
5501 Clouds -41 1034 99 0 0.9 224 14:20 25.12.2019
5502 Clouds -41 1034 99 0 0.9 224 13:44 25.12.2019
5503 Clouds -41 1034 98 0 0.81 224 13:21 25.12.2019
5504 Clouds -41 1034 98 0 0.81 224 12:57 25.12.2019
5505 Clouds -41 1034 98 0 0.81 224 12:38 25.12.2019
5506 Clouds -41 1034 98 0 0.81 224 12:19 25.12.2019
5507 Clouds -41 1034 98 0 0.81 224 11:43 25.12.2019
5508 Clouds -41 1034 98 0 0.81 224 11:22 25.12.2019
5509 Clouds -41 1034 97 0 1.25 215 10:59 25.12.2019
5510 Clouds -41 1034 97 0 1.25 215 10:59 25.12.2019
5511 Clouds -41 1034 97 0 1.25 215 10:37 25.12.2019
5512 Clouds -41 1034 97 0 1.25 215 10:19 25.12.2019
5513 Clouds -41 1034 97 0 1.25 215 09:45 25.12.2019
5514 Clouds -41 1034 97 0 1.25 215 09:27 25.12.2019
5515 Clouds -41 1034 97 0 1.25 215 08:47 25.12.2019
5516 Clouds -41 1034 97 0 1.25 215 08:28 25.12.2019
5517 Clouds -41 1034 99 0 1.05 226 07:49 25.12.2019
5518 Clouds -41 1034 99 0 1.05 226 07:31 25.12.2019
5519 Clouds -41 1034 99 0 1.05 226 06:49 25.12.2019
5520 Clouds -41 1034 99 0 1.05 226 06:22 25.12.2019
5521 Clouds -41 1033 99 0 1.04 222 05:18 25.12.2019
5522 Clouds -41 1033 99 0 1.04 222 04:38 25.12.2019
5523 Clouds -41 1033 99 0 1.04 222 04:18 25.12.2019
5524 Clouds -41 1033 99 0 1.04 222 03:40 25.12.2019
5525 Clouds -41 1033 99 0 1.04 222 02:51 25.12.2019
5526 Clear -41 1032 99 0 0.77 237 02:20 25.12.2019
5527 Clear -41 1032 99 0 0.77 237 01:25 25.12.2019
5528 Clear -41 1032 99 0 0.8 233 00:53 25.12.2019
5529 Clear -41 1032 99 0 0.8 233 00:30 25.12.2019
5530 Clear -41 1032 99 0 0.8 233 23:57 24.12.2019
5531 Clear -41 1032 99 0 0.8 233 23:38 24.12.2019
5532 Clear -40 1031 99 0 0.56 260 23:20 24.12.2019
5533 Clear -40 1031 99 0 0.56 260 22:41 24.12.2019
5534 Clear -40 1031 99 0 0.56 260 22:21 24.12.2019
5535 Clear -40 1031 99 0 0.56 260 21:44 24.12.2019
5536 Clear -40 1031 99 0 0.56 260 21:23 24.12.2019
5537 Clear -40 1031 99 0 0.56 260 20:57 24.12.2019
5538 Clear -40 1031 99 0 0.56 260 20:39 24.12.2019
5539 Clear -40 1030 99 0 0.21 220 20:19 24.12.2019
5540 Clear -40 1030 99 0 0.21 220 19:44 24.12.2019
5541 Clear -40 1030 99 0 0.21 220 19:20 24.12.2019
5542 Clear -40 1030 99 0 0.21 220 18:57 24.12.2019
5543 Clear -40 1030 99 0 0.21 220 18:38 24.12.2019
5544 Clear -40 1030 99 0 0.21 220 18:18 24.12.2019
5545 Clear -40 1030 99 0 0.21 220 17:39 24.12.2019
5546 Clear -40 1029 98 0 0.21 86 17:21 24.12.2019
5547 Clear -40 1029 98 0 0.21 86 16:55 24.12.2019
5548 Clear -40 1029 98 0 0.21 86 16:37 24.12.2019
5549 Clear -40 1029 98 0 0.21 86 16:19 24.12.2019
5550 Clear -40 1029 98 0 0.21 86 15:55 24.12.2019
5551 Clear -40 1029 98 0 0.21 86 15:36 24.12.2019
5552 Clear -40 1029 98 0 0.21 86 15:18 24.12.2019
5553 Clear -40 1029 98 0 0.21 86 14:56 24.12.2019
5554 Clear -40 1029 98 0 0.21 86 14:38 24.12.2019
5555 Clear -40 1028 99 0 0.69 71 14:20 24.12.2019
5556 Clear -40 1028 99 0 0.69 71 13:55 24.12.2019
5557 Clear -40 1028 99 0 0.69 71 13:37 24.12.2019
5558 Clear -40 1027 99 0 0.75 78 13:19 24.12.2019
5559 Clear -40 1027 99 0 0.75 78 13:19 24.12.2019
5560 Clear -40 1027 99 0 0.75 78 12:55 24.12.2019
5561 Clear -40 1027 99 0 0.75 78 12:36 24.12.2019
5562 Clear -40 1027 99 0 0.75 78 12:18 24.12.2019
5563 Clear -40 1027 99 0 0.75 78 11:55 24.12.2019
5564 Clear -40 1027 99 0 0.75 78 11:55 24.12.2019
5565 Clear -40 1027 99 0 0.75 78 11:37 24.12.2019
5566 Clear -40 1027 99 0 0.75 78 11:37 24.12.2019
5567 Clear -40 1026 99 0 0.95 79 11:18 24.12.2019
5568 Clear -40 1026 99 0 0.95 79 10:56 24.12.2019
5569 Clear -40 1026 99 0 0.95 79 10:37 24.12.2019
5570 Clear -40 1026 99 0 0.95 79 10:19 24.12.2019
5571 Clear -40 1026 99 0 0.95 79 09:55 24.12.2019
5572 Clear -40 1026 99 0 0.95 79 09:36 24.12.2019
5573 Clear -40 1026 99 0 0.95 79 09:18 24.12.2019
5574 Clear -40 1026 99 0 0.95 79 08:44 24.12.2019
5575 Clouds -40 1025 98 0 1.32 86 08:20 24.12.2019
5576 Clouds -40 1025 98 0 1.32 86 07:46 24.12.2019
5577 Clouds -40 1025 98 0 1.32 86 07:25 24.12.2019
5578 Clouds -40 1025 98 0 1.32 86 06:58 24.12.2019
5579 Clouds -40 1025 98 0 1.32 86 06:38 24.12.2019
5580 Clouds -40 1025 98 0 1.32 86 06:19 24.12.2019
5581 Clouds -38 1024 99 0 1.55 85 05:21 24.12.2019
5582 Clouds -38 1024 99 0 1.55 85 04:59 24.12.2019
5583 Clouds -38 1024 99 0 1.55 85 03:50 24.12.2019
5584 Clouds -38 1024 99 0 1.55 85 03:22 24.12.2019
5585 Clouds -38 1024 99 0 1.55 85 02:23 24.12.2019
5586 Clouds -34 1023 99 0 1.68 85 01:51 24.12.2019
5587 Clouds -33 1023 98 0 1.65 84 01:23 24.12.2019
5588 Clouds -33 1023 98 0 1.65 84 00:46 24.12.2019
5589 Clouds -33 1023 98 0 1.65 84 00:26 24.12.2019
5590 Clouds -33 1023 98 0 1.65 84 23:59 23.12.2019
5591 Clouds -33 1023 98 0 1.65 84 23:41 23.12.2019
5592 Clouds -33 1023 98 0 1.65 84 23:23 23.12.2019
5593 Clouds -31 1022 97 0 1.49 84 22:56 23.12.2019
5594 Clouds -31 1022 97 0 1.49 84 22:37 23.12.2019
5595 Clouds -31 1022 97 0 1.49 84 22:19 23.12.2019
5596 Clouds -31 1022 97 0 1.49 84 21:55 23.12.2019
5597 Clouds -31 1022 97 0 1.49 84 21:36 23.12.2019
5598 Clouds -31 1022 97 0 1.49 84 21:36 23.12.2019
5599 Clouds -31 1022 97 0 1.49 84 21:36 23.12.2019
5600 Clouds -31 1022 97 0 1.49 84 21:18 23.12.2019
5601 Clouds -31 1022 97 0 1.49 84 20:57 23.12.2019
5602 Clouds -31 1022 97 0 1.49 84 20:39 23.12.2019
5603 Snow -31 1022 98 0 1.32 85 20:18 23.12.2019
5604 Snow -31 1022 98 0 1.32 85 19:56 23.12.2019
5605 Snow -31 1022 98 0 1.32 85 19:38 23.12.2019
5606 Snow -31 1022 98 0 1.32 85 19:19 23.12.2019
5607 Snow -31 1022 98 0 1.32 85 18:57 23.12.2019
5608 Snow -31 1022 98 0 1.32 85 18:38 23.12.2019
5609 Snow -31 1022 98 0 1.32 85 18:20 23.12.2019
5610 Snow -31 1022 98 0 1.32 85 17:56 23.12.2019
5611 Snow -31 1022 98 0 1.32 85 17:37 23.12.2019
5612 Snow -30 1022 98 0 1.31 83 17:19 23.12.2019
5613 Snow -30 1022 98 0 1.31 83 16:54 23.12.2019
5614 Snow -30 1022 98 0 1.31 83 16:36 23.12.2019
5615 Snow -30 1022 98 0 1.31 83 16:18 23.12.2019
5616 Snow -30 1022 98 0 1.31 83 15:55 23.12.2019
5617 Snow -30 1022 98 0 1.31 83 15:36 23.12.2019
5618 Snow -30 1022 98 0 1.31 83 15:18 23.12.2019
5619 Snow -30 1022 98 0 1.31 83 14:42 23.12.2019
5620 Snow -30 1022 98 0 1.31 83 14:24 23.12.2019
5621 Snow -29 1021 98 0 1.28 89 13:59 23.12.2019
5622 Snow -29 1021 98 0 1.28 89 13:41 23.12.2019
5623 Snow -29 1021 98 0 1.38 87 13:22 23.12.2019
5624 Snow -29 1021 98 0 1.38 87 12:58 23.12.2019
5625 Snow -29 1021 98 0 1.38 87 12:58 23.12.2019
5626 Snow -29 1021 98 0 1.38 87 12:39 23.12.2019
5627 Snow -29 1021 98 0 1.38 87 12:20 23.12.2019
5628 Snow -29 1021 98 0 1.38 87 11:55 23.12.2019
5629 Snow -29 1021 98 0 1.38 87 11:37 23.12.2019
5630 Clouds -29 1021 97 0 1.22 90 11:18 23.12.2019
5631 Clouds -29 1021 97 0 1.22 90 10:54 23.12.2019
5632 Clouds -29 1021 97 0 1.22 90 10:36 23.12.2019
5633 Clouds -29 1021 97 0 1.22 90 10:18 23.12.2019
5634 Clouds -29 1021 97 0 1.22 90 10:18 23.12.2019
5635 Clouds -29 1021 97 0 1.22 90 09:40 23.12.2019
5636 Clouds -29 1021 97 0 1.22 90 09:22 23.12.2019
5637 Clouds -29 1021 97 0 1.22 90 08:58 23.12.2019
5638 Clouds -29 1021 97 0 1.22 90 08:40 23.12.2019
5639 Clouds -30 1023 97 0 0.83 114 08:22 23.12.2019
5640 Clouds -30 1023 97 0 0.83 114 07:48 23.12.2019
5641 Clouds -30 1023 97 0 0.83 114 07:21 23.12.2019
5642 Clouds -30 1023 97 0 0.83 114 06:57 23.12.2019
5643 Clouds -30 1023 97 0 0.83 114 06:30 23.12.2019
5644 Clouds -30 1023 97 0 0.83 114 05:56 23.12.2019
5645 Clouds -30 1023 97 0 0.83 114 05:30 23.12.2019
5646 Clouds -30 1022 97 0 0.53 124 04:40 23.12.2019
5647 Clouds -30 1022 97 0 0.53 124 03:36 23.12.2019
5648 Clouds -30 1022 97 0 0.53 124 02:43 23.12.2019
5649 Clouds -31 1023 97 0 0.51 180 02:19 23.12.2019
5650 Clouds -31 1023 97 0 0.51 180 01:45 23.12.2019
5651 Clouds -31 1023 97 0 0.59 167 01:27 23.12.2019
5652 Clouds -31 1023 97 0 0.59 167 00:45 23.12.2019
5653 Clouds -31 1023 97 0 0.59 167 00:25 23.12.2019
5654 Clouds -31 1023 97 0 0.59 167 23:56 22.12.2019
5655 Clouds -31 1023 97 0 0.59 167 23:37 22.12.2019
5656 Clouds -33 1023 100 0 0.81 170 23:18 22.12.2019
5657 Clouds -33 1023 100 0 0.81 170 22:41 22.12.2019
5658 Clouds -33 1023 100 0 0.81 170 22:22 22.12.2019
5659 Clouds -33 1023 100 0 0.81 170 21:59 22.12.2019
5660 Clouds -33 1023 100 0 0.81 170 21:40 22.12.2019
5661 Clouds -33 1023 100 0 0.81 170 21:21 22.12.2019
5662 Clouds -33 1023 100 0 0.81 170 21:21 22.12.2019
5663 Clouds -33 1023 100 0 0.81 170 20:59 22.12.2019
5664 Clouds -33 1023 100 0 0.81 170 20:39 22.12.2019
5665 Clouds -33 1022 100 0 0.43 158 20:19 22.12.2019
5666 Clouds -33 1022 100 0 0.43 158 19:57 22.12.2019
5667 Clouds -33 1022 100 0 0.43 158 19:39 22.12.2019
5668 Clouds -33 1022 100 0 0.43 158 19:20 22.12.2019
5669 Clouds -33 1022 100 0 0.43 158 18:43 22.12.2019
5670 Clouds -33 1022 100 0 0.43 158 18:25 22.12.2019
5671 Clouds -33 1022 100 0 0.43 158 17:57 22.12.2019
5672 Clouds -33 1022 100 0 0.43 158 17:39 22.12.2019
5673 Clouds -33 1022 100 0 0.67 159 17:19 22.12.2019
5674 Clouds -33 1022 100 0 0.67 159 17:19 22.12.2019
5675 Clouds -33 1022 100 0 0.67 159 16:59 22.12.2019
5676 Clouds -33 1022 100 0 0.67 159 16:41 22.12.2019
5677 Clouds -33 1022 100 0 0.67 159 16:22 22.12.2019
5678 Clouds -33 1022 100 0 0.67 159 16:22 22.12.2019
5679 Clouds -33 1022 100 0 0.67 159 15:57 22.12.2019
5680 Clouds -33 1022 100 0 0.67 159 15:39 22.12.2019
5681 Clouds -33 1022 100 0 0.67 159 15:39 22.12.2019
5682 Clouds -33 1022 100 0 0.67 159 15:20 22.12.2019
5683 Clouds -33 1022 100 0 0.67 159 14:56 22.12.2019
5684 Clouds -33 1022 100 0 0.67 159 14:38 22.12.2019
5685 Clouds -33 1022 99 0 0.46 149 14:19 22.12.2019
5686 Clouds -33 1022 99 0 0.46 149 14:19 22.12.2019
5687 Clouds -33 1022 99 0 0.46 149 13:55 22.12.2019
5688 Clouds -33 1022 99 0 0.46 149 13:37 22.12.2019
5689 Clouds -33 1022 100 0 0.58 119 13:19 22.12.2019
5690 Clouds -33 1022 100 0 0.58 119 13:19 22.12.2019
5691 Clouds -33 1022 100 0 0.58 119 13:19 22.12.2019
5692 Clouds -33 1022 100 0 0.58 119 12:56 22.12.2019
5693 Clouds -33 1022 100 0 0.58 119 12:38 22.12.2019
5694 Clouds -33 1022 100 0 0.58 119 12:19 22.12.2019
5695 Clouds -33 1022 100 0 0.58 119 11:56 22.12.2019
5696 Clouds -33 1022 100 0 0.58 119 11:38 22.12.2019
5697 Clouds -32 1021 99 0 0.55 98 11:19 22.12.2019
5698 Clouds -32 1021 99 0 0.55 98 10:56 22.12.2019
5699 Clouds -32 1021 99 0 0.55 98 10:38 22.12.2019
5700 Clouds -32 1021 99 0 0.55 98 10:19 22.12.2019
5701 Clouds -32 1021 99 0 0.55 98 10:19 22.12.2019
5702 Clouds -32 1021 99 0 0.55 98 09:57 22.12.2019
5703 Clouds -32 1021 99 0 0.55 98 09:39 22.12.2019
5704 Clouds -32 1021 99 0 0.55 98 09:20 22.12.2019
5705 Clouds -32 1021 99 0 0.55 98 08:42 22.12.2019
5706 Clouds -32 1020 98 0 0.7 98 08:22 22.12.2019
5707 Clouds -32 1020 98 0 0.7 98 07:44 22.12.2019
5708 Clouds -32 1020 98 0 0.7 98 07:21 22.12.2019
5709 Clouds -32 1020 98 0 0.7 98 06:53 22.12.2019
5710 Clouds -32 1020 98 0 0.7 98 06:26 22.12.2019
5711 Clouds -32 1020 98 0 0.7 98 05:33 22.12.2019
5712 Clouds -32 1019 99 0 0.55 84 04:46 22.12.2019
5713 Clouds -32 1019 99 0 0.55 84 04:25 22.12.2019
5714 Clouds -32 1019 99 0 0.55 84 02:46 22.12.2019
5715 Snow -31 1019 97 0 0.58 137 02:21 22.12.2019
5716 Snow -31 1019 97 0 0.58 137 01:31 22.12.2019
5717 Snow -31 1019 97 0 0.63 133 00:56 22.12.2019
5718 Snow -31 1019 97 0 0.63 133 00:36 22.12.2019
5719 Snow -31 1019 97 0 0.63 133 00:18 22.12.2019
5720 Snow -31 1019 97 0 0.63 133 23:40 21.12.2019
5721 Snow -31 1018 98 0 1.02 181 23:21 21.12.2019
5722 Snow -31 1018 98 0 1.02 181 22:56 21.12.2019
5723 Snow -31 1018 98 0 1.02 181 22:37 21.12.2019
5724 Snow -31 1018 98 0 1.02 181 22:18 21.12.2019
5725 Snow -31 1018 98 0 1.02 181 21:54 21.12.2019
5726 Snow -31 1018 98 0 1.02 181 21:36 21.12.2019
5727 Snow -31 1018 98 0 1.02 181 21:18 21.12.2019
5728 Snow -31 1018 98 0 1.02 181 20:55 21.12.2019
5729 Snow -31 1018 98 0 1.02 181 20:37 21.12.2019
5730 Snow -31 1017 98 0 1.05 205 20:18 21.12.2019
5731 Snow -30 1017 98 0 1.12 204 19:55 21.12.2019
5732 Snow -30 1017 98 0 1.12 204 19:36 21.12.2019
5733 Snow -30 1017 98 0 1.12 204 19:18 21.12.2019
5734 Snow -30 1017 98 0 1.12 204 18:41 21.12.2019
5735 Snow -30 1017 98 0 1.12 204 18:22 21.12.2019
5736 Snow -30 1017 98 0 1.12 204 17:56 21.12.2019
5737 Snow -30 1017 98 0 1.12 204 17:37 21.12.2019
5738 Snow -31 1017 98 0 1.08 218 17:19 21.12.2019
5739 Snow -31 1017 98 0 1.08 218 16:56 21.12.2019
5740 Snow -31 1017 98 0 1.08 218 16:38 21.12.2019
5741 Snow -31 1017 98 0 1.08 218 16:18 21.12.2019
5742 Snow -31 1017 98 0 1.08 218 15:55 21.12.2019
5743 Snow -31 1017 98 0 1.08 218 15:37 21.12.2019
5744 Snow -31 1017 98 0 1.08 218 15:18 21.12.2019
5745 Snow -31 1017 98 0 1.08 218 14:41 21.12.2019
5746 Snow -31 1017 98 0 1.08 218 14:23 21.12.2019
5747 Snow -33 1017 98 0 0.81 214 13:58 21.12.2019
5748 Snow -33 1017 98 0 0.81 214 13:58 21.12.2019
5749 Snow -33 1017 98 0 0.81 214 13:39 21.12.2019
5750 Snow -33 1017 98 0 0.83 211 13:19 21.12.2019
5751 Snow -33 1017 98 0 0.83 211 13:19 21.12.2019
5752 Snow -33 1017 98 0 0.83 211 12:56 21.12.2019
5753 Snow -33 1017 98 0 0.83 211 12:38 21.12.2019
5754 Snow -33 1017 98 0 0.83 211 12:20 21.12.2019
5755 Snow -33 1017 98 0 0.83 211 11:46 21.12.2019
5756 Snow -33 1017 98 0 0.83 211 11:27 21.12.2019
5757 Snow -34 1017 98 0 0.89 219 10:59 21.12.2019
5758 Snow -34 1017 98 0 0.89 219 10:40 21.12.2019
5759 Snow -34 1017 98 0 0.89 219 10:21 21.12.2019
5760 Snow -34 1017 98 0 0.89 219 09:58 21.12.2019
5761 Snow -34 1017 98 0 0.89 219 09:39 21.12.2019
5762 Snow -34 1017 98 0 0.89 219 09:19 21.12.2019
5763 Snow -34 1017 98 0 0.89 219 08:51 21.12.2019
5764 Snow -34 1017 98 0 0.89 219 08:27 21.12.2019
5765 Snow -34 1017 98 0 0.89 219 08:27 21.12.2019
5766 Snow -35 1018 98 0 0.4 227 07:58 21.12.2019
5767 Snow -35 1018 98 0 0.4 227 07:40 21.12.2019
5768 Snow -35 1018 98 0 0.4 227 07:21 21.12.2019
5769 Snow -35 1018 98 0 0.4 227 06:41 21.12.2019
5770 Snow -35 1018 98 0 0.4 227 06:23 21.12.2019
5771 Snow -35 1018 98 0 0.4 227 05:37 21.12.2019
5772 Clouds -36 1017 97 0 0.33 246 04:55 21.12.2019
5773 Clouds -36 1017 97 0 0.33 246 03:56 21.12.2019
5774 Clouds -36 1017 97 0 0.33 246 02:26 21.12.2019
5775 Clouds -38 1018 97 0 0.2 95 01:53 21.12.2019
5776 Clouds -38 1018 97 0 0.2 95 01:26 21.12.2019
5777 Clouds -38 1018 97 0 0.05 258 00:49 21.12.2019
5778 Clouds -38 1018 97 0 0.05 258 00:28 21.12.2019
5779 Clouds -38 1018 97 0 0.05 258 23:40 20.12.2019
5780 Clouds -38 1018 97 0 0.05 258 23:40 20.12.2019
5781 Clouds -39 1017 98 0 0.34 90 23:21 20.12.2019
5782 Clouds -39 1017 98 0 0.34 90 22:59 20.12.2019
5783 Clouds -39 1017 98 0 0.34 90 22:40 20.12.2019
5784 Clouds -39 1017 98 0 0.34 90 22:20 20.12.2019
5785 Clouds -39 1017 98 0 0.34 90 21:57 20.12.2019
5786 Clouds -39 1017 98 0 0.34 90 21:39 20.12.2019
5787 Clouds -39 1017 98 0 0.34 90 21:18 20.12.2019
5788 Clouds -39 1017 98 0 0.34 90 20:39 20.12.2019
5789 Clouds -39 1017 97 0 0.35 90 20:19 20.12.2019
5790 Clouds -39 1017 97 0 0.35 90 19:57 20.12.2019
5791 Clouds -39 1017 97 0 0.35 90 19:39 20.12.2019
5792 Clouds -39 1017 97 0 0.35 90 19:19 20.12.2019
5793 Clouds -39 1017 97 0 0.35 90 18:42 20.12.2019
5794 Clouds -39 1017 97 0 0.35 90 18:24 20.12.2019
5795 Clouds -39 1017 97 0 0.35 90 17:59 20.12.2019
5796 Clouds -39 1017 97 0 0.35 90 17:41 20.12.2019
5797 Clouds -41 1016 100 0 0.85 95 17:21 20.12.2019
5798 Clouds -41 1016 100 0 0.85 95 17:21 20.12.2019
5799 Clouds -41 1016 100 0 0.85 95 16:59 20.12.2019
5800 Clouds -41 1016 100 0 0.85 95 16:39 20.12.2019
5801 Clouds -41 1016 100 0 0.85 95 16:20 20.12.2019
5802 Clouds -41 1016 100 0 0.85 95 15:56 20.12.2019
5803 Clouds -41 1016 100 0 0.85 95 15:38 20.12.2019
5804 Clouds -41 1016 100 0 0.85 95 15:19 20.12.2019
5805 Clouds -41 1016 100 0 0.85 95 14:54 20.12.2019
5806 Clouds -41 1016 100 0 0.85 95 14:36 20.12.2019
5807 Clouds -41 1017 100 0 0.87 85 14:18 20.12.2019
5808 Clouds -41 1017 100 0 0.87 85 13:41 20.12.2019
5809 Clouds -41 1017 100 0 0.93 87 13:20 20.12.2019
5810 Clouds -41 1017 100 0 0.93 87 12:57 20.12.2019
5811 Clouds -41 1017 100 0 0.93 87 12:38 20.12.2019
5812 Clouds -41 1017 100 0 0.93 87 12:19 20.12.2019
5813 Clouds -41 1017 100 0 0.93 87 11:58 20.12.2019
5814 Clouds -41 1017 100 0 0.93 87 11:39 20.12.2019
5815 Clouds -41 1016 100 0 0.78 98 11:19 20.12.2019
5816 Clouds -41 1016 100 0 0.78 98 10:57 20.12.2019
5817 Clouds -41 1016 100 0 0.78 98 10:39 20.12.2019
5818 Clouds -41 1016 100 0 0.78 98 10:20 20.12.2019
5819 Clouds -41 1016 100 0 0.78 98 09:54 20.12.2019
5820 Clouds -41 1016 100 0 0.78 98 09:36 20.12.2019
5821 Clouds -41 1016 100 0 0.78 98 09:18 20.12.2019
5822 Clouds -41 1016 100 0 0.78 98 08:42 20.12.2019
5823 Clouds -41 1016 100 0 0.86 107 08:22 20.12.2019
5824 Clouds -40 1016 100 0 0.88 109 07:58 20.12.2019
5825 Clouds -40 1016 100 0 0.88 109 07:40 20.12.2019
5826 Clouds -40 1016 100 0 0.88 109 07:19 20.12.2019
5827 Clouds -40 1016 100 0 0.88 109 07:19 20.12.2019
5828 Clouds -40 1016 100 0 0.88 109 06:50 20.12.2019
5829 Clouds -40 1016 100 0 0.88 109 06:31 20.12.2019
5830 Clouds -40 1016 100 0 0.88 109 05:52 20.12.2019
5831 Clouds -40 1016 100 0 0.88 109 05:34 20.12.2019
5832 Clouds -40 1016 100 0 0.72 101 04:30 20.12.2019
5833 Clouds -40 1016 100 0 0.72 101 03:30 20.12.2019
5834 Clouds -40 1016 100 0 0.72 101 02:42 20.12.2019
5835 Clouds -39 1016 100 0 0.84 105 01:47 20.12.2019
5836 Clouds -39 1016 100 0 0.84 105 01:29 20.12.2019
5837 Clouds -39 1017 100 0 0.83 105 00:42 20.12.2019
5838 Clouds -39 1017 100 0 0.83 105 00:23 20.12.2019
5839 Clouds -39 1017 100 0 0.83 105 23:44 19.12.2019
5840 Clouds -39 1017 100 0 0.83 105 23:25 19.12.2019
5841 Clouds -38 1017 99 0 0.89 107 22:59 19.12.2019
5842 Clouds -38 1017 99 0 0.89 107 22:59 19.12.2019
5843 Clouds -38 1017 99 0 0.89 107 22:37 19.12.2019
5844 Clouds -38 1017 99 0 0.89 107 22:18 19.12.2019
5845 Clouds -38 1017 99 0 0.89 107 21:55 19.12.2019
5846 Clouds -38 1017 99 0 0.89 107 21:37 19.12.2019
5847 Clouds -38 1017 99 0 0.89 107 21:18 19.12.2019
5848 Clouds -38 1017 99 0 0.89 107 20:55 19.12.2019
5849 Clouds -38 1017 99 0 0.89 107 20:36 19.12.2019
5850 Clouds -38 1017 99 0 0.85 114 20:18 19.12.2019
5851 Clouds -38 1017 99 0 0.85 114 19:54 19.12.2019
5852 Clouds -38 1017 99 0 0.85 114 19:36 19.12.2019
5853 Clouds -38 1017 99 0 0.85 114 19:18 19.12.2019
5854 Clouds -38 1017 99 0 0.85 114 18:41 19.12.2019
5855 Clouds -38 1017 99 0 0.85 114 18:22 19.12.2019
5856 Clouds -38 1017 99 0 0.85 114 17:57 19.12.2019
5857 Clouds -38 1017 99 0 0.85 114 17:39 19.12.2019
5858 Clouds -37 1018 98 0 0.96 152 17:19 19.12.2019
5859 Clouds -37 1018 98 0 0.96 152 16:57 19.12.2019
5860 Clouds -37 1018 98 0 0.96 152 16:39 19.12.2019
5861 Clouds -37 1018 98 0 0.96 152 16:21 19.12.2019
5862 Clouds -37 1018 98 0 0.96 152 15:58 19.12.2019
5863 Clouds -37 1018 98 0 0.96 152 15:39 19.12.2019
5864 Clouds -37 1018 98 0 0.96 152 15:20 19.12.2019
5865 Clouds -37 1018 98 0 0.96 152 14:59 19.12.2019
5866 Clouds -37 1018 98 0 0.96 152 14:40 19.12.2019
5867 Clouds -36 1019 97 0 1.17 181 14:19 19.12.2019
5868 Clouds -36 1019 97 0 1.17 181 13:57 19.12.2019
5869 Clouds -36 1019 97 0 1.17 181 13:37 19.12.2019
5870 Clouds -36 1019 97 0 1.13 175 13:18 19.12.2019
5871 Clouds -36 1019 97 0 1.13 175 12:55 19.12.2019
5872 Clouds -36 1019 97 0 1.13 175 12:36 19.12.2019
5873 Clouds -36 1019 97 0 1.13 175 12:18 19.12.2019
5874 Clouds -36 1019 97 0 1.13 175 11:56 19.12.2019
5875 Clouds -36 1019 97 0 1.13 175 11:38 19.12.2019
5876 Clouds -36 1020 97 0 1.1 196 11:18 19.12.2019
5877 Clouds -36 1020 97 0 1.1 196 10:39 19.12.2019
5878 Clouds -36 1020 97 0 1.1 196 10:20 19.12.2019
5879 Clouds -36 1020 97 0 1.1 196 09:59 19.12.2019
5880 Clouds -36 1020 97 0 1.1 196 09:38 19.12.2019
5881 Clouds -36 1020 97 0 1.1 196 09:20 19.12.2019
5882 Clouds -36 1020 97 0 1.1 196 08:57 19.12.2019
5883 Clouds -36 1020 97 0 1.1 196 08:39 19.12.2019
5884 Clouds -36 1021 97 0 0.73 212 08:19 19.12.2019
5885 Clouds -36 1021 97 0 0.73 212 07:56 19.12.2019
5886 Clouds -36 1021 97 0 0.73 212 07:37 19.12.2019
5887 Clouds -36 1021 97 0 0.73 212 07:19 19.12.2019
5888 Clouds -36 1021 97 0 0.73 212 06:46 19.12.2019
5889 Clouds -36 1021 97 0 0.73 212 06:27 19.12.2019
5890 Clouds -36 1021 97 0 0.73 212 05:52 19.12.2019
5891 Clouds -36 1021 97 0 0.73 212 05:32 19.12.2019
5892 Clouds -37 1022 97 0 0.87 231 04:43 19.12.2019
5893 Clouds -37 1022 97 0 0.87 231 02:48 19.12.2019
5894 Clouds -38 1023 98 0 0.81 232 01:46 19.12.2019
5895 Clouds -37 1023 97 0 0.93 235 01:21 19.12.2019
5896 Clouds -37 1023 97 0 0.93 235 00:39 19.12.2019
5897 Clouds -37 1023 97 0 0.93 235 00:39 19.12.2019
5898 Clouds -37 1023 97 0 0.93 235 00:39 19.12.2019
5899 Clouds -37 1023 97 0 0.93 235 00:39 19.12.2019
5900 Clouds -37 1023 97 0 0.93 235 00:20 19.12.2019
5901 Clouds -37 1023 97 0 0.93 235 23:55 18.12.2019
5902 Clouds -37 1023 97 0 0.93 235 23:36 18.12.2019
5903 Clouds -39 1024 100 0 0.99 227 23:18 18.12.2019
5904 Clouds -39 1024 100 0 0.99 227 22:55 18.12.2019
5905 Clouds -39 1024 100 0 0.99 227 22:36 18.12.2019
5906 Clouds -39 1024 100 0 0.99 227 22:18 18.12.2019
5907 Clouds -39 1024 100 0 0.99 227 21:55 18.12.2019
5908 Clouds -39 1024 100 0 0.99 227 21:36 18.12.2019
5909 Clouds -39 1024 100 0 0.99 227 21:18 18.12.2019
5910 Clouds -39 1024 100 0 0.99 227 20:54 18.12.2019
5911 Clouds -39 1024 100 0 0.99 227 20:36 18.12.2019
5912 Clouds -40 1024 100 0 0.94 235 20:18 18.12.2019
5913 Clouds -40 1024 100 0 0.96 236 19:54 18.12.2019
5914 Clouds -40 1024 100 0 0.96 236 19:36 18.12.2019
5915 Clouds -40 1024 100 0 0.96 236 19:18 18.12.2019
5916 Clouds -40 1024 100 0 0.96 236 18:43 18.12.2019
5917 Clouds -40 1024 100 0 0.96 236 18:25 18.12.2019
5918 Clouds -40 1024 100 0 0.96 236 17:56 18.12.2019
5919 Clouds -40 1024 100 0 0.96 236 17:38 18.12.2019
5920 Clouds -40 1024 100 0 0.96 240 17:19 18.12.2019
5921 Clouds -40 1024 100 0 0.96 240 16:43 18.12.2019
5922 Clouds -40 1024 100 0 0.96 240 16:43 18.12.2019
5923 Clouds -40 1024 100 0 0.96 240 16:43 18.12.2019
5924 Clouds -40 1024 100 0 0.96 240 16:25 18.12.2019
5925 Clouds -40 1024 100 0 0.96 240 15:59 18.12.2019
5926 Clouds -40 1024 100 0 0.96 240 15:40 18.12.2019
5927 Clouds -40 1024 100 0 0.96 240 15:21 18.12.2019
5928 Clouds -40 1024 100 0 0.96 240 14:59 18.12.2019
5929 Clouds -40 1024 100 0 0.96 240 14:40 18.12.2019
5930 Clouds -40 1025 100 0 0.71 238 14:20 18.12.2019
5931 Clouds -40 1025 100 0 0.71 238 13:56 18.12.2019
5932 Clouds -40 1025 100 0 0.71 238 13:37 18.12.2019
5933 Clouds -40 1026 100 0 0.74 234 13:19 18.12.2019
5934 Clouds -40 1025 100 0 0.71 238 13:19 18.12.2019
5935 Clouds -40 1026 100 0 0.74 234 12:57 18.12.2019
5936 Clouds -40 1026 100 0 0.74 234 12:37 18.12.2019
5937 Clouds -40 1026 100 0 0.74 234 12:19 18.12.2019
5938 Clouds -40 1026 100 0 0.74 234 11:55 18.12.2019
5939 Clouds -40 1026 100 0 0.74 234 11:37 18.12.2019
5940 Clouds -40 1025 100 0 0.89 250 11:18 18.12.2019
5941 Clouds -40 1025 100 0 0.89 250 10:55 18.12.2019
5942 Clouds -40 1025 100 0 0.89 250 10:37 18.12.2019
5943 Clouds -40 1025 100 0 0.89 250 10:18 18.12.2019
5944 Clouds -40 1025 100 0 0.89 250 09:42 18.12.2019
5945 Clouds -40 1025 100 0 0.89 250 09:18 18.12.2019
5946 Clouds -40 1025 100 0 0.89 250 08:40 18.12.2019
5947 Clear -39 1025 100 0 0.57 250 08:21 18.12.2019
5948 Clear -39 1025 100 0 0.57 250 07:43 18.12.2019
5949 Clear -39 1025 100 0 0.57 250 07:22 18.12.2019
5950 Clear -39 1025 100 0 0.57 250 06:55 18.12.2019
5951 Clear -39 1025 100 0 0.57 250 06:27 18.12.2019
5952 Clear -39 1025 100 0 0.57 250 05:44 18.12.2019
5953 Clear -39 1025 100 0 0.3 238 04:52 18.12.2019
5954 Clear -39 1025 100 0 0.3 238 02:55 18.12.2019
5955 Clear -39 1025 100 0 0.3 238 02:36 18.12.2019
5956 Clouds -38 1025 100 0 0.14 128 02:18 18.12.2019
5957 Clouds -38 1025 100 0 0.14 128 01:40 18.12.2019
5958 Clouds -38 1025 100 0 0.14 128 01:21 18.12.2019
5959 Clouds -38 1025 100 0 0.18 150 00:40 18.12.2019
5960 Clouds -38 1025 100 0 0.18 150 00:22 18.12.2019
5961 Clouds -38 1025 100 0 0.18 150 23:56 17.12.2019
5962 Clouds -38 1025 100 0 0.18 150 23:37 17.12.2019
5963 Clouds -38 1023 100 0 0.38 60 23:18 17.12.2019
5964 Clouds -38 1023 100 0 0.38 60 22:55 17.12.2019
5965 Clouds -38 1023 100 0 0.38 60 22:37 17.12.2019
5966 Clouds -38 1023 100 0 0.38 60 22:18 17.12.2019
5967 Clouds -38 1023 100 0 0.38 60 21:55 17.12.2019
5968 Clouds -38 1023 100 0 0.38 60 21:55 17.12.2019
5969 Clouds -38 1023 100 0 0.38 60 21:37 17.12.2019
5970 Clouds -38 1023 100 0 0.38 60 21:18 17.12.2019
5971 Clouds -38 1023 100 0 0.38 60 20:56 17.12.2019
5972 Clouds -38 1023 100 0 0.38 60 20:37 17.12.2019
5973 Clouds -37 1023 100 0 0.48 97 20:18 17.12.2019
5974 Clouds -35 1023 100 0 0.48 82 19:54 17.12.2019
5975 Clouds -35 1023 100 0 0.48 82 19:36 17.12.2019
5976 Clouds -35 1023 100 0 0.48 82 19:18 17.12.2019
5977 Clouds -35 1023 100 0 0.48 82 18:41 17.12.2019
5978 Clouds -35 1023 100 0 0.48 82 18:22 17.12.2019
5979 Clouds -35 1023 100 0 0.48 82 17:59 17.12.2019
5980 Clouds -35 1023 100 0 0.48 82 17:41 17.12.2019
5981 Clouds -33 1022 99 0 0.56 70 17:19 17.12.2019
5982 Clouds -33 1022 99 0 0.56 70 16:56 17.12.2019
5983 Clouds -33 1022 99 0 0.56 70 16:37 17.12.2019
5984 Clouds -33 1022 99 0 0.56 70 16:19 17.12.2019
5985 Clouds -33 1022 99 0 0.56 70 15:56 17.12.2019
5986 Clouds -33 1022 99 0 0.56 70 15:37 17.12.2019
5987 Clouds -33 1022 99 0 0.56 70 15:37 17.12.2019
5988 Clouds -33 1022 99 0 0.56 70 15:19 17.12.2019
5989 Clouds -33 1022 99 0 0.56 70 15:19 17.12.2019
5990 Clouds -33 1022 99 0 0.56 70 14:55 17.12.2019
5991 Clouds -33 1022 99 0 0.56 70 14:36 17.12.2019
5992 Clouds -33 1021 99 0 0.44 66 14:18 17.12.2019
5993 Clouds -33 1021 99 0 0.44 66 13:55 17.12.2019
5994 Clouds -33 1021 99 0 0.44 66 13:55 17.12.2019
5995 Clouds -33 1021 99 0 0.44 66 13:37 17.12.2019
5996 Clouds -33 1021 99 0 0.44 78 13:18 17.12.2019
5997 Clouds -33 1021 99 0 0.44 78 12:41 17.12.2019
5998 Clouds -33 1021 99 0 0.44 78 12:19 17.12.2019
5999 Clouds -33 1021 99 0 0.44 78 12:19 17.12.2019
6000 Clouds -33 1021 99 0 0.44 78 12:19 17.12.2019
6001 Clouds -33 1021 99 0 0.44 78 11:59 17.12.2019
6002 Clouds -33 1021 99 0 0.44 78 11:37 17.12.2019
6003 Clouds -33 1020 99 0 0.7 55 11:19 17.12.2019
6004 Clouds -33 1020 99 0 0.7 55 10:59 17.12.2019
6005 Clouds -33 1020 99 0 0.7 55 10:41 17.12.2019
6006 Clouds -33 1020 99 0 0.7 55 10:41 17.12.2019
6007 Clouds -33 1020 99 0 0.7 55 10:22 17.12.2019
6008 Clouds -33 1020 99 0 0.7 55 09:59 17.12.2019
6009 Clouds -33 1020 99 0 0.7 55 09:41 17.12.2019
6010 Clouds -33 1020 99 0 0.7 55 09:20 17.12.2019
6011 Clouds -33 1020 99 0 0.7 55 08:56 17.12.2019
6012 Clouds -33 1020 99 0 0.7 55 08:38 17.12.2019
6013 Clouds -33 1019 100 0 0.67 85 08:19 17.12.2019
6014 Clouds -33 1019 100 0 0.67 85 07:47 17.12.2019
6015 Clouds -33 1019 100 0 0.67 85 07:27 17.12.2019
6016 Clouds -33 1019 100 0 0.67 85 06:59 17.12.2019
6017 Clouds -33 1019 100 0 0.67 85 06:35 17.12.2019
6018 Clouds -33 1019 100 0 0.67 85 05:54 17.12.2019
6019 Clouds -33 1019 100 0 0.67 85 05:36 17.12.2019
6020 Clouds -32 1017 99 0 0.76 86 04:31 17.12.2019
6021 Clouds -32 1017 99 0 0.76 86 02:45 17.12.2019
6022 Clouds -31 1017 98 0 0.52 61 01:56 17.12.2019
6023 Clouds -31 1017 98 0 0.56 52 01:18 17.12.2019
6024 Clouds -31 1017 98 0 0.56 52 00:38 17.12.2019
6025 Clouds -31 1017 98 0 0.56 52 00:38 17.12.2019
6026 Clouds -31 1017 98 0 0.56 52 00:19 17.12.2019
6027 Clouds -31 1017 98 0 0.56 52 23:42 16.12.2019
6028 Clouds -31 1016 98 0 0.68 89 23:19 16.12.2019
6029 Clouds -31 1016 98 0 0.68 89 22:58 16.12.2019
6030 Clouds -31 1016 98 0 0.68 89 22:37 16.12.2019
6031 Clouds -31 1016 98 0 0.68 89 22:19 16.12.2019
6032 Clouds -31 1016 98 0 0.68 89 22:19 16.12.2019
6033 Clouds -31 1016 98 0 0.68 89 22:19 16.12.2019
6034 Clouds -31 1016 98 0 0.68 89 21:56 16.12.2019
6035 Clouds -31 1016 98 0 0.68 89 21:37 16.12.2019
6036 Clouds -31 1016 98 0 0.68 89 21:19 16.12.2019
6037 Clouds -31 1016 98 0 0.68 89 20:57 16.12.2019
6038 Clouds -31 1016 98 0 0.68 89 20:38 16.12.2019
6039 Clouds -31 1016 97 0 0.56 75 20:19 16.12.2019
6040 Clouds -31 1016 97 0 0.56 75 19:56 16.12.2019
6041 Clouds -31 1016 97 0 0.56 75 19:37 16.12.2019
6042 Clouds -31 1016 97 0 0.56 75 19:19 16.12.2019
6043 Clouds -31 1016 97 0 0.56 75 18:56 16.12.2019
6044 Clouds -31 1016 97 0 0.56 75 18:56 16.12.2019
6045 Clouds -31 1016 97 0 0.56 75 18:38 16.12.2019
6046 Clouds -31 1016 97 0 0.56 75 18:19 16.12.2019
6047 Clouds -31 1016 97 0 0.56 75 17:57 16.12.2019
6048 Clouds -31 1016 97 0 0.56 75 17:38 16.12.2019
6049 Clouds -30 1015 97 0 0.62 78 17:20 16.12.2019
6050 Clouds -30 1015 97 0 0.62 78 16:57 16.12.2019
6051 Clouds -30 1015 97 0 0.62 78 16:38 16.12.2019
6052 Clouds -30 1015 97 0 0.62 78 16:19 16.12.2019
6053 Clouds -30 1015 97 0 0.62 78 15:57 16.12.2019
6054 Clouds -30 1015 97 0 0.62 78 15:38 16.12.2019
6055 Clouds -30 1015 97 0 0.62 78 15:20 16.12.2019
6056 Clouds -30 1015 97 0 0.62 78 14:55 16.12.2019
6057 Clouds -30 1015 97 0 0.62 78 14:37 16.12.2019
6058 Clouds -32 1016 97 0 0.73 95 14:18 16.12.2019
6059 Clouds -32 1016 97 0 0.73 95 14:18 16.12.2019
6060 Clouds -32 1016 97 0 0.73 95 13:56 16.12.2019
6061 Clouds -32 1016 97 0 0.73 95 13:37 16.12.2019
6062 Clouds -32 1016 97 0 0.73 95 13:19 16.12.2019
6063 Clouds -31 1015 97 0 0.68 103 12:57 16.12.2019
6064 Clouds -31 1015 97 0 0.68 103 12:39 16.12.2019
6065 Clouds -31 1015 97 0 0.68 103 12:18 16.12.2019
6066 Clouds -31 1015 97 0 0.6 99 11:57 16.12.2019
6067 Clouds -31 1015 97 0 0.68 103 11:39 16.12.2019
6068 Clouds -31 1014 97 0 0.35 60 11:19 16.12.2019
6069 Clouds -31 1014 97 0 0.51 75 10:54 16.12.2019
6070 Clouds -31 1014 97 0 0.51 75 10:36 16.12.2019
6071 Clouds -31 1014 97 0 0.35 60 10:18 16.12.2019
6072 Clouds -31 1014 97 0 0.51 75 09:44 16.12.2019
6073 Clouds -31 1014 97 0 0.51 75 09:26 16.12.2019
6074 Clouds -31 1014 97 0 0.51 75 08:41 16.12.2019
6075 Clouds -31 1014 97 0 0.49 114 08:20 16.12.2019
6076 Clouds -31 1014 97 0 0.49 114 07:53 16.12.2019
6077 Clouds -31 1014 97 0 0.49 114 07:31 16.12.2019
6078 Clouds -31 1014 97 0 0.49 114 06:59 16.12.2019
6079 Clouds -31 1014 97 0 0.49 114 06:40 16.12.2019
6080 Clouds -31 1014 97 0 0.49 114 06:21 16.12.2019
6081 Clouds -31 1014 97 0 0.49 114 05:41 16.12.2019
6082 Clouds -31 1014 97 0 0.49 114 05:23 16.12.2019
6083 Clouds -32 1013 96 0 0.75 85 03:29 16.12.2019
6084 Clouds -33 1014 93 0 0.51 81 01:52 16.12.2019
6085 Clouds -33 1014 93 0 0.51 81 01:33 16.12.2019
6086 Clouds -33 1014 95 0 0.51 83 00:41 16.12.2019
6087 Clouds -33 1014 95 0 0.51 83 00:21 16.12.2019
6088 Clouds -33 1014 95 0 0.51 83 23:57 15.12.2019
6089 Clouds -33 1014 95 0 0.51 83 23:37 15.12.2019
6090 Clouds -34 1013 91 0 0.99 85 23:19 15.12.2019
6091 Clouds -34 1013 91 0 0.99 85 22:54 15.12.2019
6092 Clouds -34 1013 91 0 0.99 85 22:36 15.12.2019
6093 Clouds -34 1013 91 0 0.99 85 22:18 15.12.2019
6094 Clouds -34 1013 91 0 0.99 85 21:55 15.12.2019
6095 Clouds -34 1013 91 0 0.99 85 21:36 15.12.2019
6096 Clouds -34 1013 91 0 0.99 85 21:18 15.12.2019
6097 Clouds -34 1013 91 0 0.99 85 20:54 15.12.2019
6098 Clouds -34 1013 91 0 0.99 85 20:36 15.12.2019
6099 Clouds -34 1014 87 0 0.86 74 20:18 15.12.2019
6100 Clouds -34 1013 87 0 0.8 78 19:54 15.12.2019
6101 Clouds -36 1013 90 0 0.83 79 19:36 15.12.2019
6102 Clouds -34 1013 87 0 0.8 78 19:18 15.12.2019
6103 Clouds -34 1013 87 0 0.8 78 18:54 15.12.2019
6104 Clouds -34 1013 87 0 0.8 78 18:36 15.12.2019
6105 Clouds -34 1013 87 0 0.8 78 18:18 15.12.2019
6106 Clouds -36 1013 90 0 0.83 79 17:55 15.12.2019
6107 Clouds -36 1013 90 0 0.83 79 17:36 15.12.2019
6108 Clouds -36 1013 87 0 0.96 81 17:18 15.12.2019
6109 Clouds -36 1013 87 0 0.96 81 16:42 15.12.2019
6110 Clouds -36 1013 87 0 0.96 81 16:22 15.12.2019
6111 Clouds -37 1013 89 0 0.99 78 15:57 15.12.2019
6112 Clouds -37 1013 89 0 0.99 78 15:39 15.12.2019
6113 Clouds -37 1013 89 0 0.99 78 15:19 15.12.2019
6114 Clouds -36 1013 87 0 0.96 81 14:56 15.12.2019
6115 Clouds -37 1013 89 0 0.99 78 14:37 15.12.2019
6116 Clouds -38 1013 86 0 0.85 74 14:19 15.12.2019
6117 Clouds -38 1013 88 0 0.8 74 13:58 15.12.2019
6118 Clouds -38 1013 86 0 0.85 74 13:39 15.12.2019
6119 Clouds -38 1013 88 0 0.8 74 13:20 15.12.2019
6120 Clouds -38 1013 88 0 0.8 74 12:57 15.12.2019
6121 Clouds -38 1013 88 0 0.8 74 12:57 15.12.2019
6122 Clouds -38 1013 88 0 0.8 74 12:39 15.12.2019
6123 Clouds -38 1013 88 0 0.8 74 12:21 15.12.2019
6124 Clouds -38 1013 88 0 0.8 74 11:59 15.12.2019
6125 Clouds -38 1013 88 0 0.8 74 11:37 15.12.2019
6126 Clouds -38 1013 85 0 1.06 72 11:19 15.12.2019
6127 Clouds -38 1013 85 0 1.06 72 11:19 15.12.2019
6128 Clouds -38 1013 85 0 1.06 72 10:55 15.12.2019
6129 Clouds -38 1013 85 0 1.06 72 10:37 15.12.2019
6130 Clouds -38 1013 85 0 1.06 72 10:19 15.12.2019
6131 Clouds -38 1013 85 0 1.06 72 09:56 15.12.2019
6132 Clouds -38 1013 85 0 1.06 72 09:37 15.12.2019
6133 Clouds -38 1013 85 0 1.06 72 09:18 15.12.2019
6134 Clouds -38 1013 85 0 1.06 72 08:41 15.12.2019
6135 Clouds -38 1013 87 0 0.56 92 08:22 15.12.2019
6136 Clouds -38 1013 87 0 0.56 92 07:57 15.12.2019
6137 Clouds -38 1013 87 0 0.56 92 07:37 15.12.2019
6138 Clouds -38 1013 87 0 0.56 92 06:57 15.12.2019
6139 Clouds -38 1013 87 0 0.56 92 06:23 15.12.2019
6140 Clouds -38 1013 87 0 0.56 92 05:42 15.12.2019
6141 Clouds -38 1013 87 0 0.38 69 05:20 15.12.2019
6142 Clouds -38 1013 87 0 0.38 69 04:18 15.12.2019
6143 Clouds -38 1013 87 0 0.38 69 02:35 15.12.2019
6144 Clouds -40 1013 90 0 0.17 253 01:57 15.12.2019
6145 Clouds -40 1013 90 0 0.17 253 01:39 15.12.2019
6146 Clouds -38 1013 89 0 0.04 105 01:18 15.12.2019
6147 Clouds -38 1013 89 0 0.04 105 00:44 15.12.2019
6148 Clouds -38 1013 89 0 0.04 105 00:44 15.12.2019
6149 Clouds -38 1013 89 0 0.04 105 00:25 15.12.2019
6150 Clouds -38 1013 89 0 0.04 105 23:41 14.12.2019
6151 Clouds -40 1013 92 0 0.49 253 23:22 14.12.2019
6152 Clouds -40 1013 92 0 0.49 253 22:59 14.12.2019
6153 Clouds -40 1013 92 0 0.49 253 22:41 14.12.2019
6154 Clouds -40 1013 92 0 0.49 253 22:22 14.12.2019
6155 Clouds -40 1013 92 0 0.49 253 21:56 14.12.2019
6156 Clouds -40 1013 92 0 0.49 253 21:38 14.12.2019
6157 Clouds -40 1013 92 0 0.49 253 21:19 14.12.2019
6158 Clouds -40 1013 92 0 0.49 253 20:58 14.12.2019
6159 Clouds -40 1013 92 0 0.49 253 20:39 14.12.2019
6160 Clouds -40 1014 99 0 0.44 276 20:20 14.12.2019
6161 Clouds -40 1014 99 0 0.44 276 19:57 14.12.2019
6162 Clouds -40 1014 99 0 0.44 276 19:37 14.12.2019
6163 Clouds -40 1014 99 0 0.44 276 19:19 14.12.2019
6164 Clouds -40 1014 99 0 0.44 276 18:56 14.12.2019
6165 Clouds -40 1014 99 0 0.44 276 18:37 14.12.2019
6166 Clouds -40 1014 99 0 0.44 276 18:19 14.12.2019
6167 Clouds -40 1014 99 0 0.44 276 17:44 14.12.2019
6168 Clouds -40 1014 99 0 0.44 276 17:24 14.12.2019
6169 Clouds -39 1015 99 0 0.23 56 16:58 14.12.2019
6170 Clouds -39 1015 99 0 0.23 56 16:39 14.12.2019
6171 Clouds -39 1015 99 0 0.23 56 16:18 14.12.2019
6172 Clouds -39 1015 99 0 0.23 56 15:43 14.12.2019
6173 Clouds -39 1015 99 0 0.23 56 15:22 14.12.2019
6174 Clouds -39 1015 99 0 0.23 56 14:59 14.12.2019
6175 Clouds -39 1015 99 0 0.23 56 14:39 14.12.2019
6176 Clouds -39 1016 98 0 0.33 48 14:20 14.12.2019
6177 Clouds -39 1016 98 0 0.33 48 13:57 14.12.2019
6178 Clouds -39 1016 98 0 0.33 48 13:38 14.12.2019
6179 Clouds -39 1016 98 0 0.33 48 13:18 14.12.2019
6180 Clouds -39 1016 96 0 0.41 57 12:55 14.12.2019
6181 Clouds -40 1016 97 0 0.28 40 12:37 14.12.2019
6182 Clouds -40 1016 97 0 0.28 40 12:18 14.12.2019
6183 Clouds -39 1016 96 0 0.41 57 11:55 14.12.2019
6184 Clouds -40 1016 97 0 0.28 40 11:36 14.12.2019
6185 Clear -39 1017 94 0 0.73 70 11:18 14.12.2019
6186 Clear -39 1017 93 0 0.77 71 10:55 14.12.2019
6187 Clear -39 1017 93 0 0.77 71 10:37 14.12.2019
6188 Clear -39 1017 93 0 0.77 71 10:18 14.12.2019
6189 Clear -39 1017 93 0 0.77 71 09:40 14.12.2019
6190 Clear -39 1017 93 0 0.77 71 09:20 14.12.2019
6191 Clear -39 1017 93 0 0.77 71 09:20 14.12.2019
6192 Clear -39 1017 93 0 0.77 71 08:44 14.12.2019
6193 Clear -39 1018 91 0 0.72 81 08:20 14.12.2019
6194 Clear -39 1018 91 0 0.72 81 07:57 14.12.2019
6195 Clear -39 1018 91 0 0.72 81 07:38 14.12.2019
6196 Clear -39 1018 91 0 0.72 81 07:19 14.12.2019
6197 Clear -39 1018 91 0 0.72 81 06:41 14.12.2019
6198 Clear -39 1018 91 0 0.72 81 06:22 14.12.2019
6199 Clear -39 1018 90 0 0.14 66 05:22 14.12.2019
6200 Clear -39 1018 90 0 0.14 66 02:50 14.12.2019
6201 Clear -39 1020 89 0 0.66 98 02:22 14.12.2019
6202 Clear -39 1020 89 0 0.66 98 01:43 14.12.2019
6203 Clear -39 1020 86 0 0.6 104 00:55 14.12.2019
6204 Clear -39 1020 86 0 0.6 104 00:37 14.12.2019
6205 Clear -39 1020 86 0 0.6 104 00:18 14.12.2019
6206 Clear -39 1020 86 0 0.6 104 23:41 13.12.2019
6207 Clear -39 1020 87 0 0.2 181 23:19 13.12.2019
6208 Clear -39 1020 87 0 0.2 181 22:56 13.12.2019
6209 Clear -39 1020 87 0 0.2 181 22:37 13.12.2019
6210 Clear -39 1020 87 0 0.2 181 22:18 13.12.2019
6211 Clear -39 1020 87 0 0.2 181 21:42 13.12.2019
6212 Clear -39 1020 87 0 0.2 181 21:21 13.12.2019
6213 Clear -39 1020 87 0 0.2 181 20:58 13.12.2019
6214 Clear -39 1020 87 0 0.2 181 20:39 13.12.2019
6215 Clouds -36 1020 96 0 0.3 122 20:20 13.12.2019
6216 Clouds -36 1020 96 0 0.3 122 19:56 13.12.2019
6217 Clouds -36 1020 96 0 0.3 122 19:38 13.12.2019
6218 Clouds -36 1020 96 0 0.3 122 19:19 13.12.2019
6219 Clouds -36 1020 96 0 0.3 122 18:54 13.12.2019
6220 Clouds -36 1020 96 0 0.3 122 18:36 13.12.2019
6221 Clouds -36 1020 96 0 0.3 122 18:18 13.12.2019
6222 Clouds -36 1020 96 0 0.3 122 17:40 13.12.2019
6223 Clouds -36 1019 94 0 0.15 125 17:18 13.12.2019
6224 Clouds -36 1019 94 0 0.15 125 16:56 13.12.2019
6225 Clouds -36 1019 94 0 0.15 125 16:38 13.12.2019
6226 Clouds -36 1019 94 0 0.15 125 16:20 13.12.2019
6227 Clouds -36 1019 94 0 0.15 125 15:42 13.12.2019
6228 Clouds -36 1019 94 0 0.15 125 15:21 13.12.2019
6229 Clouds -36 1019 94 0 0.15 125 14:57 13.12.2019
6230 Clouds -36 1019 94 0 0.15 125 14:38 13.12.2019
6231 Clouds -35 1020 92 0 0.63 99 14:19 13.12.2019
6232 Clouds -35 1020 92 0 0.63 99 13:44 13.12.2019
6233 Clouds -34 1020 91 0 0.49 101 13:26 13.12.2019
6234 Clouds -34 1020 91 0 0.49 101 12:58 13.12.2019
6235 Clouds -34 1020 91 0 0.49 101 12:40 13.12.2019
6236 Clouds -34 1020 91 0 0.49 101 12:19 13.12.2019
6237 Clouds -34 1020 91 0 0.49 101 12:19 13.12.2019
6238 Clouds -34 1020 91 0 0.49 101 11:45 13.12.2019
6239 Clouds -34 1020 91 0 0.49 101 11:26 13.12.2019
6240 Clouds -35 1020 91 0 0.13 51 10:58 13.12.2019
6241 Clouds -35 1020 91 0 0.13 51 10:40 13.12.2019
6242 Clouds -35 1020 91 0 0.13 51 10:21 13.12.2019
6243 Clouds -35 1020 91 0 0.13 51 09:43 13.12.2019
6244 Clouds -35 1020 91 0 0.13 51 09:22 13.12.2019
6245 Clouds -35 1020 91 0 0.13 51 08:55 13.12.2019
6246 Clouds -35 1020 91 0 0.13 51 08:55 13.12.2019
6247 Clouds -35 1020 91 0 0.13 51 08:36 13.12.2019
6248 Clouds -36 1020 95 0 0.71 123 08:18 13.12.2019
6249 Clouds -36 1020 95 0 0.71 123 07:42 13.12.2019
6250 Clouds -36 1020 95 0 0.71 123 07:19 13.12.2019
6251 Clouds -36 1020 95 0 0.71 123 06:46 13.12.2019
6252 Clouds -36 1020 95 0 0.71 123 06:27 13.12.2019
6253 Clouds -36 1020 95 0 0.71 123 05:41 13.12.2019
6254 Clouds -35 1019 93 0 0.54 73 05:20 13.12.2019
6255 Clouds -35 1019 93 0 0.54 73 04:29 13.12.2019
6256 Clouds -35 1019 93 0 0.54 73 02:57 13.12.2019
6257 Clouds -35 1019 93 0 0.54 73 02:30 13.12.2019
6258 Clouds -37 1019 94 0 0.59 79 01:39 13.12.2019
6259 Clouds -36 1019 93 0 0.57 70 00:51 13.12.2019
6260 Clouds -36 1019 93 0 0.57 70 00:29 13.12.2019
6261 Clouds -36 1019 93 0 0.57 70 23:46 12.12.2019
6262 Clouds -36 1019 93 0 0.57 70 23:27 12.12.2019
6263 Clouds -36 1018 93 0 0.37 98 22:57 12.12.2019
6264 Clouds -36 1018 93 0 0.37 98 22:39 12.12.2019
6265 Clouds -36 1018 93 0 0.37 98 22:21 12.12.2019
6266 Clouds -36 1018 93 0 0.37 98 21:56 12.12.2019
6267 Clouds -36 1018 93 0 0.37 98 21:38 12.12.2019
6268 Clouds -36 1018 93 0 0.37 98 21:20 12.12.2019
6269 Clouds -36 1018 93 0 0.37 98 21:20 12.12.2019
6270 Clouds -36 1018 93 0 0.37 98 20:59 12.12.2019
6271 Clouds -36 1018 93 0 0.37 98 20:40 12.12.2019
6272 Clear -38 1018 94 0 0.35 103 20:22 12.12.2019
6273 Clear -38 1018 94 0 0.35 103 19:56 12.12.2019
6274 Clear -38 1018 94 0 0.35 103 19:38 12.12.2019
6275 Clear -38 1018 94 0 0.35 103 19:20 12.12.2019
6276 Clear -38 1018 94 0 0.35 103 18:56 12.12.2019
6277 Clear -38 1018 94 0 0.35 103 18:56 12.12.2019
6278 Clear -38 1018 94 0 0.35 103 18:38 12.12.2019
6279 Clear -38 1018 94 0 0.35 103 18:19 12.12.2019
6280 Clear -38 1018 94 0 0.35 103 17:57 12.12.2019
6281 Clear -38 1018 94 0 0.35 103 17:38 12.12.2019
6282 Clouds -38 1017 92 0 0.23 106 17:19 12.12.2019
6283 Clouds -38 1017 92 0 0.23 106 16:56 12.12.2019
6284 Clouds -38 1017 92 0 0.23 106 16:37 12.12.2019
6285 Clouds -38 1017 92 0 0.23 106 16:19 12.12.2019
6286 Clouds -38 1017 92 0 0.23 106 15:54 12.12.2019
6287 Clouds -38 1017 92 0 0.23 106 15:36 12.12.2019
6288 Clouds -38 1017 92 0 0.23 106 15:18 12.12.2019
6289 Clouds -38 1017 92 0 0.23 106 14:38 12.12.2019
6290 Clear -39 1017 91 0 0.57 118 14:20 12.12.2019
6291 Clear -39 1017 91 0 0.57 118 13:57 12.12.2019
6292 Clear -39 1017 91 0 0.57 118 13:39 12.12.2019
6293 Clear -39 1017 89 0 0.53 119 13:21 12.12.2019
6294 Clear -39 1017 89 0 0.53 119 12:57 12.12.2019
6295 Clear -39 1017 89 0 0.53 119 12:39 12.12.2019
6296 Clear -39 1017 89 0 0.53 119 12:20 12.12.2019
6297 Clear -39 1017 89 0 0.53 119 11:56 12.12.2019
6298 Clear -39 1017 89 0 0.53 119 11:37 12.12.2019
6299 Clear -39 1016 90 0 0.11 144 11:19 12.12.2019
6300 Clear -39 1016 90 0 0.11 144 10:55 12.12.2019
6301 Clear -39 1016 90 0 0.11 144 10:37 12.12.2019
6302 Clear -39 1016 90 0 0.11 144 10:18 12.12.2019
6303 Clear -39 1016 90 0 0.11 144 09:42 12.12.2019
6304 Clear -39 1016 90 0 0.11 144 09:24 12.12.2019
6305 Clear -39 1016 90 0 0.11 144 08:58 12.12.2019
6306 Clear -39 1016 90 0 0.11 144 08:38 12.12.2019
6307 Clear -39 1016 90 0 0.11 144 08:38 12.12.2019
6308 Clear -39 1016 90 0 0.72 79 08:20 12.12.2019
6309 Clear -39 1016 91 0 0.57 70 07:46 12.12.2019
6310 Clear -39 1016 91 0 0.57 70 07:25 12.12.2019
6311 Clear -39 1016 91 0 0.57 70 06:54 12.12.2019
6312 Clear -39 1016 91 0 0.57 70 06:33 12.12.2019
6313 Clear -39 1016 91 0 0.57 70 05:40 12.12.2019
6314 Clear -39 1016 92 0 0.34 104 04:54 12.12.2019
6315 Clear -39 1016 92 0 0.34 104 03:37 12.12.2019
6316 Clear -39 1016 92 0 0.34 104 02:39 12.12.2019
6317 Clear -39 1016 92 0 0.58 79 02:20 12.12.2019
6318 Clear -39 1016 92 0 0.58 79 01:43 12.12.2019
6319 Clear -39 1016 92 0 0.58 79 01:24 12.12.2019
6320 Clear -39 1016 93 0 0.58 74 00:47 12.12.2019
6321 Clear -39 1016 93 0 0.58 74 00:20 12.12.2019
6322 Clear -39 1016 93 0 0.58 74 23:44 11.12.2019
6323 Clear -38 1016 93 0 0.51 69 23:21 11.12.2019
6324 Clear -38 1016 93 0 0.51 69 22:58 11.12.2019
6325 Clear -38 1016 93 0 0.51 69 22:39 11.12.2019
6326 Clear -38 1016 93 0 0.51 69 22:20 11.12.2019
6327 Clear -38 1016 93 0 0.51 69 21:57 11.12.2019
6328 Clear -38 1016 93 0 0.51 69 21:39 11.12.2019
6329 Clear -38 1016 93 0 0.51 69 21:20 11.12.2019
6330 Clear -38 1016 93 0 0.51 69 20:56 11.12.2019
6331 Clear -38 1016 93 0 0.51 69 20:56 11.12.2019
6332 Clear -38 1016 93 0 0.51 69 20:38 11.12.2019
6333 Clouds -38 1016 98 0 0.6 78 20:19 11.12.2019
6334 Clouds -38 1016 98 0 0.6 78 19:58 11.12.2019
6335 Clouds -38 1016 98 0 0.6 78 19:40 11.12.2019
6336 Clouds -38 1016 98 0 0.6 78 19:19 11.12.2019
6337 Clouds -38 1016 98 0 0.6 78 18:55 11.12.2019
6338 Clouds -38 1016 98 0 0.6 78 18:37 11.12.2019
6339 Clouds -38 1016 98 0 0.6 78 18:37 11.12.2019
6340 Clouds -38 1016 98 0 0.6 78 18:18 11.12.2019
6341 Clouds -38 1016 98 0 0.6 78 17:54 11.12.2019
6342 Clouds -38 1016 98 0 0.6 78 17:36 11.12.2019
6343 Clouds -38 1016 98 0 0.42 65 17:18 11.12.2019
6344 Clouds -38 1016 98 0 0.42 65 16:55 11.12.2019
6345 Clouds -38 1016 98 0 0.42 65 16:36 11.12.2019
6346 Clouds -38 1016 98 0 0.42 65 16:18 11.12.2019
6347 Clouds -38 1016 98 0 0.42 65 15:41 11.12.2019
6348 Clouds -38 1016 98 0 0.42 65 15:23 11.12.2019
6349 Clouds -38 1016 98 0 0.42 65 15:23 11.12.2019
6350 Clouds -38 1016 98 0 0.42 65 14:57 11.12.2019
6351 Clouds -38 1016 98 0 0.42 65 14:39 11.12.2019
6352 Clouds -38 1017 97 0 0.84 88 14:20 11.12.2019
6353 Clouds -38 1017 97 0 0.84 88 13:58 11.12.2019
6354 Clouds -38 1017 97 0 0.84 88 13:39 11.12.2019
6355 Clouds -38 1017 97 0 0.84 88 13:20 11.12.2019
6356 Clouds -38 1017 98 0 0.77 88 13:20 11.12.2019
6357 Clouds -38 1017 98 0 0.77 88 12:57 11.12.2019
6358 Clouds -38 1017 98 0 0.77 88 12:38 11.12.2019
6359 Clouds -38 1017 98 0 0.77 88 12:20 11.12.2019
6360 Clouds -38 1017 98 0 0.77 88 11:57 11.12.2019
6361 Clouds -38 1017 98 0 0.77 88 11:38 11.12.2019
6362 Clouds -38 1017 98 0 0.77 88 11:38 11.12.2019
6363 Clouds -38 1017 99 0 0.69 86 11:18 11.12.2019
6364 Clouds -38 1017 99 0 0.69 86 11:18 11.12.2019
6365 Clouds -38 1017 99 0 0.69 86 11:18 11.12.2019
6366 Clouds -38 1017 99 0 0.69 86 10:55 11.12.2019
6367 Clouds -38 1017 99 0 0.69 86 10:37 11.12.2019
6368 Clouds -38 1017 99 0 0.69 86 10:19 11.12.2019
6369 Clouds -38 1017 99 0 0.69 86 09:41 11.12.2019
6370 Clouds -38 1017 99 0 0.69 86 09:21 11.12.2019
6371 Clouds -38 1017 99 0 0.69 86 08:58 11.12.2019
6372 Clouds -38 1017 99 0 0.69 86 08:38 11.12.2019
6373 Clouds -38 1018 99 0 0.64 95 08:19 11.12.2019
6374 Clouds -38 1018 99 0 0.64 95 07:55 11.12.2019
6375 Clouds -38 1018 99 0 0.64 95 07:37 11.12.2019
6376 Clouds -38 1018 99 0 0.64 95 07:18 11.12.2019
6377 Clouds -38 1018 99 0 0.64 95 07:18 11.12.2019
6378 Clouds -38 1018 99 0 0.64 95 06:43 11.12.2019
6379 Clouds -38 1018 99 0 0.64 95 06:22 11.12.2019
6380 Clouds -38 1018 99 0 0.64 95 05:41 11.12.2019
6381 Clear -38 1019 99 0 0.66 101 05:20 11.12.2019
6382 Clear -38 1019 99 0 0.66 101 04:28 11.12.2019
6383 Clear -38 1019 99 0 0.66 101 02:49 11.12.2019
6384 Clouds -38 1020 99 0 0.72 99 01:25 11.12.2019
6385 Clouds -38 1020 99 0 0.72 99 00:47 11.12.2019
6386 Clouds -38 1020 99 0 0.72 99 00:21 11.12.2019
6387 Clouds -38 1020 99 0 0.72 99 23:50 10.12.2019
6388 Clouds -38 1020 99 0 0.72 99 23:30 10.12.2019
6389 Clouds -37 1020 99 0 0.68 114 22:59 10.12.2019
6390 Clouds -37 1020 99 0 0.68 114 22:40 10.12.2019
6391 Clouds -37 1020 99 0 0.68 114 22:40 10.12.2019
6392 Clouds -37 1020 99 0 0.68 114 22:22 10.12.2019
6393 Clouds -37 1020 99 0 0.68 114 21:57 10.12.2019
6394 Clouds -37 1020 99 0 0.68 114 21:39 10.12.2019
6395 Clouds -37 1020 99 0 0.68 114 21:21 10.12.2019
6396 Clouds -37 1020 99 0 0.68 114 20:57 10.12.2019
6397 Clouds -37 1020 99 0 0.68 114 20:38 10.12.2019
6398 Clouds -37 1020 99 0 0.68 114 20:38 10.12.2019
6399 Clouds -37 1021 99 0 0.61 119 20:19 10.12.2019
6400 Clouds -37 1021 99 0 0.61 119 19:55 10.12.2019
6401 Clouds -37 1021 99 0 0.61 119 19:37 10.12.2019
6402 Clouds -37 1021 99 0 0.61 119 19:19 10.12.2019
6403 Clouds -37 1021 99 0 0.61 119 18:41 10.12.2019
6404 Clouds -37 1021 99 0 0.61 119 18:21 10.12.2019
6405 Clouds -37 1021 99 0 0.61 119 17:58 10.12.2019
6406 Clouds -37 1021 99 0 0.61 119 17:40 10.12.2019
6407 Clouds -37 1021 99 0 0.61 119 17:40 10.12.2019
6408 Clouds -37 1021 98 0 0.67 134 17:20 10.12.2019
6409 Clouds -37 1021 98 0 0.67 134 16:54 10.12.2019
6410 Clouds -37 1021 98 0 0.67 134 16:36 10.12.2019
6411 Clouds -37 1021 98 0 0.67 134 16:18 10.12.2019
6412 Clouds -37 1021 98 0 0.67 134 15:38 10.12.2019
6413 Clouds -37 1021 98 0 0.67 134 15:18 10.12.2019
6414 Clouds -37 1021 98 0 0.67 134 14:56 10.12.2019
6415 Clouds -37 1021 98 0 0.67 134 14:38 10.12.2019
6416 Clouds -36 1022 96 0 0.55 147 14:19 10.12.2019
6417 Clouds -36 1022 96 0 0.55 147 13:57 10.12.2019
6418 Clouds -36 1022 96 0 0.55 147 13:39 10.12.2019
6419 Clouds -36 1022 98 0 0.66 162 13:20 10.12.2019
6420 Clouds -36 1022 98 0 0.66 162 12:48 10.12.2019
6421 Clouds -36 1022 98 0 0.66 162 12:28 10.12.2019
6422 Clouds -36 1022 98 0 0.66 162 11:56 10.12.2019
6423 Clouds -36 1022 98 0 0.66 162 11:38 10.12.2019
6424 Clouds -36 1022 98 0 0.48 114 11:19 10.12.2019
6425 Clouds -36 1022 98 0 0.48 114 10:43 10.12.2019
6426 Clouds -36 1022 98 0 0.48 114 10:24 10.12.2019
6427 Clouds -36 1022 98 0 0.48 114 09:57 10.12.2019
6428 Clouds -36 1022 98 0 0.48 114 09:39 10.12.2019
6429 Clouds -36 1022 98 0 0.48 114 09:20 10.12.2019
6430 Clouds -36 1022 98 0 0.48 114 08:58 10.12.2019
6431 Clouds -36 1022 98 0 0.48 114 08:39 10.12.2019
6432 Clouds -35 1022 89 0 0.52 109 08:20 10.12.2019
6433 Clouds -35 1022 89 0 0.52 109 07:45 10.12.2019
6434 Clouds -35 1022 89 0 0.52 109 07:27 10.12.2019
6435 Clouds -35 1022 89 0 0.52 109 06:55 10.12.2019
6436 Clouds -35 1022 89 0 0.52 109 06:37 10.12.2019
6437 Clouds -35 1022 89 0 0.52 109 06:19 10.12.2019
6438 Clouds -35 1022 89 0 0.52 109 05:47 10.12.2019
6439 Clouds -34 1021 85 0 0.27 113 04:23 10.12.2019
6440 Clouds -34 1021 85 0 0.27 113 03:25 10.12.2019
6441 Clouds -34 1022 83 0 0.43 60 01:57 10.12.2019
6442 Clouds -34 1022 83 0 0.43 60 01:38 10.12.2019
6443 Clouds -34 1022 83 0 0.55 63 01:18 10.12.2019
6444 Clouds -34 1022 83 0 0.55 63 00:29 10.12.2019
6445 Clouds -34 1022 83 0 0.55 63 23:59 09.12.2019
6446 Clouds -34 1022 83 0 0.55 63 23:39 09.12.2019
6447 Clouds -31 1021 81 0 0.46 91 23:20 09.12.2019
6448 Clouds -31 1021 81 0 0.46 91 22:56 09.12.2019
6449 Clouds -31 1021 81 0 0.46 91 22:38 09.12.2019
6450 Clouds -31 1021 81 0 0.46 91 22:38 09.12.2019
6451 Clouds -31 1021 81 0 0.46 91 22:18 09.12.2019
6452 Clouds -31 1021 81 0 0.46 91 22:18 09.12.2019
6453 Clouds -31 1021 81 0 0.46 91 21:55 09.12.2019
6454 Clouds -31 1021 81 0 0.46 91 21:37 09.12.2019
6455 Clouds -31 1021 81 0 0.46 91 21:18 09.12.2019
6456 Clouds -31 1021 81 0 0.46 91 20:55 09.12.2019
6457 Clouds -31 1021 81 0 0.46 91 20:37 09.12.2019
6458 Clouds -31 1021 79 0 0.36 274 20:19 09.12.2019
6459 Clouds -31 1021 80 0 0.3 307 19:55 09.12.2019
6460 Clouds -31 1021 80 0 0.3 307 19:37 09.12.2019
6461 Clouds -31 1021 80 0 0.3 307 19:18 09.12.2019
6462 Clouds -31 1021 80 0 0.3 307 18:54 09.12.2019
6463 Clouds -31 1021 80 0 0.3 307 18:36 09.12.2019
6464 Clouds -31 1021 80 0 0.3 307 18:18 09.12.2019
6465 Clouds -31 1021 80 0 0.3 307 18:18 09.12.2019
6466 Clouds -31 1021 80 0 0.3 307 18:18 09.12.2019
6467 Clouds -31 1021 80 0 0.3 307 17:55 09.12.2019
6468 Clouds -31 1021 80 0 0.3 307 17:37 09.12.2019
6469 Clouds -31 1021 79 0 0.37 267 17:18 09.12.2019
6470 Clouds -31 1021 79 0 0.37 267 17:18 09.12.2019
6471 -273 0 0 0 0 0 16:54 09.12.2019
6472 Clouds -31 1021 79 0 0.37 267 16:54 09.12.2019
6473 Clouds -31 1021 79 0 0.37 267 16:36 09.12.2019
6474 Clouds -31 1021 79 0 0.37 267 16:18 09.12.2019
6475 Clouds -31 1021 79 0 0.37 267 15:54 09.12.2019
6476 Clouds -31 1021 79 0 0.37 267 15:36 09.12.2019
6477 Clouds -31 1021 79 0 0.37 267 15:18 09.12.2019
6478 Clouds -31 1021 79 0 0.37 267 14:42 09.12.2019
6479 Clouds -31 1021 80 0 0.47 281 14:19 09.12.2019
6480 Clouds -31 1021 80 0 0.47 281 13:57 09.12.2019
6481 Clouds -31 1021 80 0 0.47 281 13:38 09.12.2019
6482 Clouds -31 1022 80 0 0.47 281 13:19 09.12.2019
6483 Clouds -31 1022 80 0 0.47 281 12:56 09.12.2019
6484 Clouds -31 1022 80 0 0.47 281 12:37 09.12.2019
6485 Clouds -31 1022 80 0 0.47 281 12:19 09.12.2019
6486 Clouds -31 1022 80 0 0.47 281 11:55 09.12.2019
6487 Clouds -31 1022 80 0 0.47 281 11:37 09.12.2019
6488 Clouds -32 1022 79 0 0.46 241 11:18 09.12.2019
6489 Clouds -32 1022 79 0 0.46 241 11:18 09.12.2019
6490 Clouds -32 1022 79 0 0.46 241 10:40 09.12.2019
6491 Clouds -32 1022 79 0 0.46 241 10:20 09.12.2019
6492 Clouds -32 1022 79 0 0.46 241 09:59 09.12.2019
6493 Clouds -32 1022 79 0 0.46 241 09:40 09.12.2019
6494 Clouds -32 1022 79 0 0.46 241 09:21 09.12.2019
6495 Clouds -32 1022 79 0 0.46 241 08:44 09.12.2019
6496 Clouds -32 1022 80 0 0.53 253 08:26 09.12.2019
6497 Clouds -33 1021 79 0 0.87 245 07:57 09.12.2019
6498 Clouds -33 1021 79 0 0.87 245 07:38 09.12.2019
6499 Clouds -33 1021 79 0 0.87 245 07:20 09.12.2019
6500 Clouds -33 1021 79 0 0.87 245 06:43 09.12.2019
6501 Clouds -33 1021 79 0 0.87 245 06:24 09.12.2019
6502 Clouds -33 1021 79 0 0.87 245 05:27 09.12.2019
6503 Clouds -34 1022 79 0 0.79 239 04:46 09.12.2019
6504 Clouds -34 1022 79 0 0.79 239 03:21 09.12.2019
6505 Clouds -34 1022 79 0 0.79 239 02:24 09.12.2019
6506 Clouds -35 1022 78 0 0.96 225 01:42 09.12.2019
6507 Clear -35 1022 80 0 0.93 221 00:51 09.12.2019
6508 Clear -35 1022 80 0 0.93 221 00:31 09.12.2019
6509 Clear -35 1022 80 0 0.93 221 23:43 08.12.2019
6510 Clear -35 1022 80 0 0.93 221 23:24 08.12.2019
6511 Clear -36 1022 79 0 0.74 226 22:58 08.12.2019
6512 Clear -36 1022 79 0 0.74 226 22:39 08.12.2019
6513 Clear -36 1022 79 0 0.74 226 22:20 08.12.2019
6514 Clear -36 1022 79 0 0.74 226 21:58 08.12.2019
6515 Clear -36 1022 79 0 0.74 226 21:40 08.12.2019
6516 Clear -36 1022 79 0 0.74 226 21:22 08.12.2019
6517 Clear -36 1022 79 0 0.74 226 20:57 08.12.2019
6518 Clear -36 1022 79 0 0.74 226 20:38 08.12.2019
6519 Clear -36 1022 80 0 0.67 185 20:20 08.12.2019
6520 Clear -36 1022 80 0 0.67 185 19:59 08.12.2019
6521 Clear -36 1022 80 0 0.67 185 19:41 08.12.2019
6522 Clear -36 1022 80 0 0.67 185 19:23 08.12.2019
6523 Clear -36 1022 80 0 0.67 185 19:23 08.12.2019
6524 Clear -36 1022 80 0 0.67 185 18:56 08.12.2019
6525 Clear -36 1022 80 0 0.67 185 18:37 08.12.2019
6526 Clear -36 1022 80 0 0.67 185 18:19 08.12.2019
6527 Clear -36 1022 80 0 0.67 185 17:57 08.12.2019
6528 Clear -36 1022 80 0 0.67 185 17:39 08.12.2019
6529 Clear -36 1022 81 0 0.96 198 17:20 08.12.2019
6530 Clear -36 1022 81 0 0.96 198 16:57 08.12.2019
6531 Clear -36 1022 81 0 0.96 198 16:39 08.12.2019
6532 Clear -36 1022 81 0 0.96 198 16:21 08.12.2019
6533 Clear -36 1022 81 0 0.96 198 15:57 08.12.2019
6534 Clear -36 1022 81 0 0.96 198 15:37 08.12.2019
6535 Clear -36 1022 81 0 0.96 198 15:18 08.12.2019
6536 Clear -36 1022 81 0 0.96 198 14:44 08.12.2019
6537 Clear -36 1022 81 0 0.96 198 14:25 08.12.2019
6538 Clear -36 1023 82 0 0.76 207 13:59 08.12.2019
6539 Clear -36 1023 82 0 0.76 207 13:40 08.12.2019
6540 Clear -36 1023 82 0 0.76 207 13:22 08.12.2019
6541 Clear -37 1023 82 0 0.62 190 12:59 08.12.2019
6542 Clear -37 1023 82 0 0.62 190 12:39 08.12.2019
6543 Clear -37 1023 82 0 0.62 190 12:19 08.12.2019
6544 Clear -37 1023 82 0 0.62 190 11:58 08.12.2019
6545 Clear -37 1023 82 0 0.62 190 11:37 08.12.2019
6546 Clear -38 1023 83 0 0.49 176 11:19 08.12.2019
6547 Clear -38 1023 83 0 0.49 176 10:55 08.12.2019
6548 Clear -38 1023 83 0 0.49 176 10:37 08.12.2019
6549 Clear -38 1023 83 0 0.49 176 10:19 08.12.2019
6550 Clear -38 1023 83 0 0.49 176 09:55 08.12.2019
6551 Clear -38 1023 83 0 0.49 176 09:36 08.12.2019
6552 Clear -38 1023 83 0 0.49 176 09:18 08.12.2019
6553 Clear -38 1023 83 0 0.49 176 09:18 08.12.2019
6554 Clear -38 1023 83 0 0.49 176 08:42 08.12.2019
6555 Clear -37 1024 83 0 0.53 166 08:23 08.12.2019
6556 Clear -38 1024 85 0 0.5 156 07:55 08.12.2019
6557 Clear -38 1024 85 0 0.5 156 07:36 08.12.2019
6558 Clear -38 1024 85 0 0.5 156 07:18 08.12.2019
6559 Clear -38 1024 85 0 0.5 156 06:40 08.12.2019
6560 Clear -38 1024 85 0 0.5 156 06:20 08.12.2019
6561 Clear -38 1024 85 0 0.5 156 05:26 08.12.2019
6562 Clear -39 1025 86 0 0.22 148 04:54 08.12.2019
6563 Clear -39 1025 86 0 0.22 148 03:40 08.12.2019
6564 Clear -39 1025 86 0 0.22 148 02:46 08.12.2019
6565 Clear -39 1025 86 0 0.22 148 02:27 08.12.2019
6566 Clear -40 1026 87 0 0.36 132 01:41 08.12.2019
6567 Clear -40 1025 87 0 0.54 127 00:56 08.12.2019
6568 Clear -40 1025 87 0 0.54 127 00:56 08.12.2019
6569 Clear -40 1025 87 0 0.54 127 00:36 08.12.2019
6570 Clear -40 1025 87 0 0.54 127 00:18 08.12.2019
6571 Clear -40 1025 87 0 0.54 127 23:39 07.12.2019
6572 Clear -40 1026 87 0 0.57 99 23:20 07.12.2019
6573 Clear -40 1026 87 0 0.57 99 22:56 07.12.2019
6574 Clear -40 1026 87 0 0.57 99 22:37 07.12.2019
6575 Clear -40 1026 87 0 0.57 99 22:19 07.12.2019
6576 Clear -40 1026 87 0 0.57 99 21:56 07.12.2019
6577 Clear -40 1026 87 0 0.57 99 21:37 07.12.2019
6578 Clear -40 1026 87 0 0.57 99 21:19 07.12.2019
6579 Clear -40 1026 87 0 0.57 99 21:19 07.12.2019
6580 Clear -40 1026 87 0 0.57 99 20:54 07.12.2019
6581 Clear -40 1026 87 0 0.57 99 20:36 07.12.2019
6582 Clear -41 1027 87 0 0.62 72 20:18 07.12.2019
6583 Clear -41 1027 89 0 0.64 88 19:54 07.12.2019
6584 Clear -41 1027 89 0 0.64 88 19:36 07.12.2019
6585 Clear -41 1027 89 0 0.64 88 19:36 07.12.2019
6586 Clear -41 1027 89 0 0.64 88 19:18 07.12.2019
6587 Clear -41 1027 89 0 0.64 88 18:42 07.12.2019
6588 Clear -41 1027 89 0 0.64 88 18:19 07.12.2019
6589 Clear -41 1027 89 0 0.64 88 17:57 07.12.2019
6590 Clear -41 1027 89 0 0.64 88 17:38 07.12.2019
6591 Clear -41 1028 88 0 0.98 103 17:20 07.12.2019
6592 Clear -41 1028 88 0 0.98 103 16:56 07.12.2019
6593 Clear -41 1028 88 0 0.98 103 16:37 07.12.2019
6594 Clear -41 1028 88 0 0.98 103 16:18 07.12.2019
6595 Clear -41 1028 88 0 0.98 103 15:42 07.12.2019
6596 Clear -41 1028 88 0 0.98 103 15:23 07.12.2019
6597 Clear -41 1028 88 0 0.98 103 14:57 07.12.2019
6598 Clear -41 1028 88 0 0.98 103 14:39 07.12.2019
6599 Clear -42 1029 89 0 0.81 94 14:18 07.12.2019
6600 Clear -42 1029 89 0 0.81 94 13:41 07.12.2019
6601 Clear -42 1029 90 0 0.87 94 13:21 07.12.2019
6602 Clear -42 1029 90 0 0.87 94 13:21 07.12.2019
6603 Clear -42 1029 90 0 0.87 94 12:58 07.12.2019
6604 Clear -42 1029 90 0 0.87 94 12:40 07.12.2019
6605 Clear -42 1029 90 0 0.87 94 12:22 07.12.2019
6606 Clear -42 1029 90 0 0.87 94 11:57 07.12.2019
6607 Clear -42 1029 90 0 0.87 94 11:38 07.12.2019
6608 Clear -42 1030 90 0 0.98 91 11:20 07.12.2019
6609 Clear -42 1030 90 0 0.98 91 10:38 07.12.2019
6610 Clear -42 1030 90 0 0.98 91 10:19 07.12.2019
6611 Clear -42 1030 90 0 0.98 91 10:19 07.12.2019
6612 Clear -42 1030 90 0 0.98 91 09:41 07.12.2019
6613 Clear -42 1030 90 0 0.98 91 09:22 07.12.2019
6614 Clear -42 1030 90 0 0.98 91 08:56 07.12.2019
6615 Clear -42 1030 90 0 0.98 91 08:37 07.12.2019
6616 Clouds -41 1031 92 0 1.3 97 08:19 07.12.2019
6617 Clouds -41 1031 92 0 1.3 97 07:44 07.12.2019
6618 Clouds -41 1031 92 0 1.3 97 07:23 07.12.2019
6619 Clouds -41 1031 92 0 1.3 97 06:48 07.12.2019
6620 Clouds -41 1031 92 0 1.3 97 06:24 07.12.2019
6621 Clouds -41 1031 92 0 1.3 97 05:25 07.12.2019
6622 Clouds -41 1031 92 0 1.23 102 03:55 07.12.2019
6623 Clouds -41 1031 92 0 1.23 102 03:18 07.12.2019
6624 Clouds -41 1033 92 0 1.27 113 02:21 07.12.2019
6625 Clouds -41 1033 91 0 1.32 108 01:34 07.12.2019
6626 Clouds -41 1033 91 0 1.32 108 00:52 07.12.2019
6627 Clouds -41 1033 91 0 1.32 108 00:19 07.12.2019
6628 Clouds -41 1033 91 0 1.32 108 00:19 07.12.2019
6629 Clouds -41 1033 91 0 1.32 108 23:55 06.12.2019
6630 Clouds -41 1033 91 0 1.32 108 23:36 06.12.2019
6631 Clouds -40 1033 92 0 1.21 133 23:18 06.12.2019
6632 Clouds -40 1033 92 0 1.21 133 22:37 06.12.2019
6633 Clouds -40 1033 92 0 1.21 133 22:19 06.12.2019
6634 Clouds -40 1033 92 0 1.21 133 21:57 06.12.2019
6635 Clouds -40 1033 92 0 1.21 133 21:38 06.12.2019
6636 Clouds -40 1033 92 0 1.21 133 21:19 06.12.2019
6637 Clouds -40 1033 92 0 1.21 133 20:42 06.12.2019
6638 Clouds -40 1033 92 0 1.21 133 20:42 06.12.2019
6639 Clouds -40 1032 93 0 1.17 120 20:24 06.12.2019
6640 Clouds -40 1032 93 0 1.17 120 20:24 06.12.2019
6641 Clouds -39 1032 95 0 1.31 156 19:59 06.12.2019
6642 Clouds -39 1032 95 0 1.31 156 19:40 06.12.2019
6643 Clouds -39 1032 95 0 1.31 156 19:22 06.12.2019
6644 Clouds -39 1032 95 0 1.31 156 19:22 06.12.2019
6645 Clouds -39 1032 95 0 1.31 156 18:57 06.12.2019
6646 Clouds -39 1032 95 0 1.31 156 18:39 06.12.2019
6647 Clouds -39 1032 95 0 1.31 156 18:19 06.12.2019
6648 Clouds -39 1032 95 0 1.31 156 18:19 06.12.2019
6649 Clouds -39 1032 95 0 1.31 156 17:56 06.12.2019
6650 Clouds -39 1032 95 0 1.31 156 17:37 06.12.2019
6651 Clouds -39 1032 95 0 1.96 196 17:19 06.12.2019
6652 Clouds -39 1032 95 0 1.96 196 16:43 06.12.2019
6653 Clouds -39 1032 95 0 1.96 196 16:25 06.12.2019
6654 Clouds -39 1032 95 0 1.96 196 15:59 06.12.2019
6655 Clouds -39 1032 95 0 1.96 196 15:40 06.12.2019
6656 Clouds -39 1032 95 0 1.96 196 15:19 06.12.2019
6657 Clouds -39 1032 95 0 1.96 196 14:57 06.12.2019
6658 Clouds -39 1032 95 0 1.96 196 14:38 06.12.2019
6659 Clouds -39 1032 95 0 1.96 196 14:38 06.12.2019
6660 Clouds -39 1032 95 0 1.91 199 14:19 06.12.2019
6661 Clouds -39 1032 95 0 1.91 199 13:43 06.12.2019
6662 Clouds -39 1032 94 0 1.86 198 13:25 06.12.2019
6663 Clouds -39 1032 94 0 1.86 198 12:43 06.12.2019
6664 Clouds -39 1032 94 0 1.86 198 12:23 06.12.2019
6665 Clouds -39 1032 94 0 1.86 198 12:23 06.12.2019
6666 Clouds -39 1032 94 0 1.86 198 11:58 06.12.2019
6667 Clouds -39 1032 94 0 1.86 198 11:39 06.12.2019
6668 Clouds -39 1031 95 0 1.66 215 11:21 06.12.2019
6669 Clouds -39 1031 95 0 1.66 215 10:44 06.12.2019
6670 Clouds -39 1031 95 0 1.66 215 10:22 06.12.2019
6671 Clouds -39 1031 95 0 1.66 215 09:59 06.12.2019
6672 Clouds -39 1031 95 0 1.66 215 09:38 06.12.2019
6673 Clouds -39 1031 95 0 1.66 215 09:20 06.12.2019
6674 Clouds -39 1031 95 0 1.66 215 08:57 06.12.2019
6675 Clouds -39 1031 95 0 1.66 215 08:38 06.12.2019
6676 Clouds -39 1030 96 0 1.57 209 08:20 06.12.2019
6677 Clouds -39 1030 96 0 1.57 209 07:37 06.12.2019
6678 Clouds -39 1030 96 0 1.57 209 07:19 06.12.2019
6679 Clouds -39 1030 96 0 1.57 209 06:30 06.12.2019
6680 Clouds -39 1030 96 0 1.57 209 05:54 06.12.2019
6681 Clouds -39 1030 96 0 1.57 209 05:35 06.12.2019
6682 Clouds -38 1028 95 0 1.07 223 02:19 06.12.2019
6683 Clouds -38 1028 95 0 1.07 223 01:43 06.12.2019
6684 Clouds -38 1029 95 0 1.09 224 00:48 06.12.2019
6685 Clouds -38 1029 95 0 1.09 224 00:22 06.12.2019
6686 Clouds -38 1029 95 0 1.09 224 23:50 05.12.2019
6687 Clouds -40 1028 97 0 0.82 232 23:20 05.12.2019
6688 Clouds -40 1028 97 0 0.82 232 22:58 05.12.2019
6689 Clouds -40 1028 97 0 0.82 232 22:38 05.12.2019
6690 Clouds -40 1028 97 0 0.82 232 22:18 05.12.2019
6691 Clouds -40 1028 97 0 0.82 232 21:55 05.12.2019
6692 Clouds -40 1028 97 0 0.82 232 21:37 05.12.2019
6693 Clouds -40 1028 97 0 0.82 232 21:37 05.12.2019
6694 Clouds -40 1028 97 0 0.82 232 21:19 05.12.2019
6695 Clouds -40 1028 97 0 0.82 232 20:55 05.12.2019
6696 Clouds -40 1028 97 0 0.82 232 20:36 05.12.2019
6697 Clouds -40 1028 97 0 0.82 232 20:36 05.12.2019
6698 Clouds -41 1027 100 0 0.62 240 20:18 05.12.2019
6699 Clouds -42 1028 100 0 0.69 240 20:18 05.12.2019
6700 Clouds -41 1027 100 0 0.62 240 19:40 05.12.2019
6701 Clouds -41 1027 100 0 0.62 240 19:21 05.12.2019
6702 Clouds -41 1027 100 0 0.62 240 18:58 05.12.2019
6703 Clouds -41 1027 100 0 0.62 240 18:38 05.12.2019
6704 Clouds -41 1027 100 0 0.62 240 18:20 05.12.2019
6705 Clouds -41 1027 100 0 0.62 240 17:41 05.12.2019
6706 Clouds -41 1027 100 0 0.69 253 17:20 05.12.2019
6707 Clouds -41 1027 100 0 0.69 253 16:59 05.12.2019
6708 Clouds -41 1027 100 0 0.69 253 16:40 05.12.2019
6709 Clouds -41 1027 100 0 0.69 253 16:21 05.12.2019
6710 Clouds -41 1027 100 0 0.69 253 15:58 05.12.2019
6711 Clouds -41 1027 100 0 0.69 253 15:58 05.12.2019
6712 Clouds -41 1027 100 0 0.69 253 15:40 05.12.2019
6713 Clouds -41 1027 100 0 0.69 253 15:20 05.12.2019
6714 Clouds -41 1027 100 0 0.69 253 14:56 05.12.2019
6715 Clouds -41 1027 100 0 0.69 253 14:38 05.12.2019
6716 Clouds -41 1027 100 0 0.45 265 14:20 05.12.2019
6717 Clouds -41 1027 100 0 0.45 265 13:58 05.12.2019
6718 Clouds -41 1027 100 0 0.45 265 13:39 05.12.2019
6719 Clouds -41 1028 100 0 0.48 263 13:20 05.12.2019
6720 Clouds -41 1028 100 0 0.48 263 12:58 05.12.2019
6721 Clouds -41 1028 100 0 0.48 263 12:39 05.12.2019
6722 Clouds -41 1028 100 0 0.48 263 12:21 05.12.2019
6723 Clouds -41 1028 100 0 0.48 263 11:40 05.12.2019
6724 Clouds -41 1027 100 0 0.68 245 11:22 05.12.2019
6725 Clouds -41 1027 100 0 0.68 245 10:59 05.12.2019
6726 Clouds -41 1027 100 0 0.68 245 10:40 05.12.2019
6727 Clouds -41 1027 100 0 0.68 245 10:19 05.12.2019
6728 Clouds -41 1027 100 0 0.68 245 10:19 05.12.2019
6729 Clouds -41 1027 100 0 0.68 245 09:57 05.12.2019
6730 Clouds -41 1027 100 0 0.68 245 09:38 05.12.2019
6731 Clouds -41 1027 100 0 0.68 245 09:20 05.12.2019
6732 Clouds -41 1027 100 0 0.68 245 09:20 05.12.2019
6733 Clouds -41 1027 100 0 0.68 245 08:56 05.12.2019
6734 Clouds -41 1027 100 0 0.68 245 08:37 05.12.2019
6735 Clouds -41 1028 100 0 0.27 309 08:18 05.12.2019
6736 Clouds -41 1028 100 0 0.18 344 08:18 05.12.2019
6737 Clouds -41 1028 100 0 0.18 344 07:41 05.12.2019
6738 Clouds -41 1028 100 0 0.18 344 07:22 05.12.2019
6739 Clouds -41 1028 100 0 0.18 344 06:48 05.12.2019
6740 Clouds -41 1028 100 0 0.18 344 06:24 05.12.2019
6741 Clouds -41 1028 100 0 0.18 344 05:54 05.12.2019
6742 Clouds -41 1028 100 0 0.18 344 05:24 05.12.2019
6743 Clouds -39 1028 96 0 0.34 27 04:59 05.12.2019
6744 Clouds -39 1028 96 0 0.34 27 03:40 05.12.2019
6745 Clouds -39 1028 96 0 0.34 27 02:42 05.12.2019
6746 Clouds -38 1029 95 0 0.3 333 02:22 05.12.2019
6747 Clouds -38 1029 95 0 0.3 333 01:51 05.12.2019
6748 Clouds -38 1029 95 0 0.3 333 01:23 05.12.2019
6749 Clouds -37 1029 95 0 0.29 353 00:44 05.12.2019
6750 Clouds -37 1029 95 0 0.29 353 00:21 05.12.2019
6751 Clouds -37 1029 95 0 0.29 353 23:55 04.12.2019
6752 Clouds -37 1029 95 0 0.29 353 23:37 04.12.2019
6753 Clouds -38 1030 95 0 0.36 359 23:18 04.12.2019
6754 Clouds -38 1030 95 0 0.36 359 22:39 04.12.2019
6755 Clouds -38 1030 95 0 0.36 359 22:20 04.12.2019
6756 Clouds -38 1030 95 0